<?xml version="1.0" encoding="UTF-8" standalone="no" ?>
<gpx xmlns="http://www.topografix.com/GPX/1/1" xmlns:xsi="http://www.w3.org/2001/XMLSchema-instance" xsi:schemaLocation="http://www.topografix.com/GPX/1/1 http://www.topografix.com/GPX/1/1/gpx.xsd" version="1.1" creator="VisuGPX - https://www.visugpx.com">
  <metadata>
    <name>Vizzavona (Gîte Monte d Oro) - Bergerie E Capanelle</name>
    <desc><![CDATA[Sur la route du GR20 Sud.
Entre Vizzavona et Conca.]]></desc>
  </metadata>
  <trk>
    <name><![CDATA[GR20 Sud | Vizzavona - Bergerie E Capanelle]]></name>
    <trkseg>
      <trkpt lat="42.11376" lon="9.11967">
        <ele>1156</ele>
        <time>2014-05-14T06:54:57.000Z</time>
      </trkpt>
      <trkpt lat="42.11376" lon="9.11967">
        <ele>1156</ele>
        <time>2014-05-14T06:54:58.000Z</time>
      </trkpt>
      <trkpt lat="42.11378" lon="9.1197">
        <ele>1155.8000488281</ele>
        <time>2014-05-14T06:55:01.000Z</time>
      </trkpt>
      <trkpt lat="42.11379" lon="9.11974">
        <ele>1155.4000244141</ele>
        <time>2014-05-14T06:55:04.000Z</time>
      </trkpt>
      <trkpt lat="42.11382" lon="9.11979">
        <ele>1154.8000488281</ele>
        <time>2014-05-14T06:55:08.000Z</time>
      </trkpt>
      <trkpt lat="42.11384" lon="9.11987">
        <ele>1154.1999511719</ele>
        <time>2014-05-14T06:55:14.000Z</time>
      </trkpt>
      <trkpt lat="42.11385" lon="9.1199">
        <ele>1154</ele>
        <time>2014-05-14T06:55:16.000Z</time>
      </trkpt>
      <trkpt lat="42.11388" lon="9.11997">
        <ele>1153.4000244141</ele>
        <time>2014-05-14T06:55:21.000Z</time>
      </trkpt>
      <trkpt lat="42.1139" lon="9.12001">
        <ele>1153</ele>
        <time>2014-05-14T06:55:26.000Z</time>
      </trkpt>
      <trkpt lat="42.11391" lon="9.12001">
        <ele>1153</ele>
        <time>2014-05-14T06:55:28.000Z</time>
      </trkpt>
      <trkpt lat="42.11388" lon="9.12003">
        <ele>1152.8000488281</ele>
        <time>2014-05-14T06:55:35.000Z</time>
      </trkpt>
      <trkpt lat="42.11381" lon="9.12005">
        <ele>1153</ele>
        <time>2014-05-14T06:55:41.000Z</time>
      </trkpt>
      <trkpt lat="42.11375" lon="9.12016">
        <ele>1153.1999511719</ele>
        <time>2014-05-14T06:55:50.000Z</time>
      </trkpt>
      <trkpt lat="42.11375" lon="9.1202">
        <ele>1153.1999511719</ele>
        <time>2014-05-14T06:55:52.000Z</time>
      </trkpt>
      <trkpt lat="42.11375" lon="9.12025">
        <ele>1153.1999511719</ele>
        <time>2014-05-14T06:55:55.000Z</time>
      </trkpt>
      <trkpt lat="42.11377" lon="9.12033">
        <ele>1152.8000488281</ele>
        <time>2014-05-14T06:56:00.000Z</time>
      </trkpt>
      <trkpt lat="42.11378" lon="9.12036">
        <ele>1152.5999755859</ele>
        <time>2014-05-14T06:56:02.000Z</time>
      </trkpt>
      <trkpt lat="42.11379" lon="9.1204">
        <ele>1152.4000244141</ele>
        <time>2014-05-14T06:56:04.000Z</time>
      </trkpt>
      <trkpt lat="42.1138" lon="9.12049">
        <ele>1152</ele>
        <time>2014-05-14T06:56:09.000Z</time>
      </trkpt>
      <trkpt lat="42.11381" lon="9.12053">
        <ele>1151.8000488281</ele>
        <time>2014-05-14T06:56:11.000Z</time>
      </trkpt>
      <trkpt lat="42.11382" lon="9.12063">
        <ele>1151.4000244141</ele>
        <time>2014-05-14T06:56:17.000Z</time>
      </trkpt>
      <trkpt lat="42.1138" lon="9.12065">
        <ele>1151.4000244141</ele>
        <time>2014-05-14T06:56:19.000Z</time>
      </trkpt>
      <trkpt lat="42.11374" lon="9.12071">
        <ele>1151.5999755859</ele>
        <time>2014-05-14T06:56:25.000Z</time>
      </trkpt>
      <trkpt lat="42.11369" lon="9.12075">
        <ele>1152.4000244141</ele>
        <time>2014-05-14T06:56:30.000Z</time>
      </trkpt>
      <trkpt lat="42.11364" lon="9.12079">
        <ele>1153.4000244141</ele>
        <time>2014-05-14T06:56:36.000Z</time>
      </trkpt>
      <trkpt lat="42.11361" lon="9.12087">
        <ele>1154.5999755859</ele>
        <time>2014-05-14T06:56:56.000Z</time>
      </trkpt>
      <trkpt lat="42.11359" lon="9.12092">
        <ele>1155.1999511719</ele>
        <time>2014-05-14T06:57:01.000Z</time>
      </trkpt>
      <trkpt lat="42.11359" lon="9.12094">
        <ele>1155.4000244141</ele>
        <time>2014-05-14T06:57:08.000Z</time>
      </trkpt>
      <trkpt lat="42.11359" lon="9.12095">
        <ele>1155.4000244141</ele>
        <time>2014-05-14T06:57:15.000Z</time>
      </trkpt>
      <trkpt lat="42.11369" lon="9.12101">
        <ele>1154.1999511719</ele>
        <time>2014-05-14T06:58:17.000Z</time>
      </trkpt>
      <trkpt lat="42.11369" lon="9.12105">
        <ele>1154.4000244141</ele>
        <time>2014-05-14T06:58:20.000Z</time>
      </trkpt>
      <trkpt lat="42.1137" lon="9.12108">
        <ele>1154.5999755859</ele>
        <time>2014-05-14T06:58:23.000Z</time>
      </trkpt>
      <trkpt lat="42.1137" lon="9.1211">
        <ele>1154.5999755859</ele>
        <time>2014-05-14T06:58:29.000Z</time>
      </trkpt>
      <trkpt lat="42.11372" lon="9.12114">
        <ele>1154.8000488281</ele>
        <time>2014-05-14T06:58:32.000Z</time>
      </trkpt>
      <trkpt lat="42.11372" lon="9.12118">
        <ele>1155.1999511719</ele>
        <time>2014-05-14T06:58:35.000Z</time>
      </trkpt>
      <trkpt lat="42.11373" lon="9.12119">
        <ele>1155.1999511719</ele>
        <time>2014-05-14T06:58:36.000Z</time>
      </trkpt>
      <trkpt lat="42.11373" lon="9.12121">
        <ele>1155.1999511719</ele>
        <time>2014-05-14T06:58:37.000Z</time>
      </trkpt>
      <trkpt lat="42.11375" lon="9.12131">
        <ele>1155.8000488281</ele>
        <time>2014-05-14T06:58:44.000Z</time>
      </trkpt>
      <trkpt lat="42.11376" lon="9.12139">
        <ele>1156.4000244141</ele>
        <time>2014-05-14T06:58:51.000Z</time>
      </trkpt>
      <trkpt lat="42.11378" lon="9.12147">
        <ele>1157</ele>
        <time>2014-05-14T06:58:58.000Z</time>
      </trkpt>
      <trkpt lat="42.11379" lon="9.1215">
        <ele>1157.1999511719</ele>
        <time>2014-05-14T06:59:00.000Z</time>
      </trkpt>
      <trkpt lat="42.11379" lon="9.12155">
        <ele>1157.4000244141</ele>
        <time>2014-05-14T06:59:03.000Z</time>
      </trkpt>
      <trkpt lat="42.11382" lon="9.12159">
        <ele>1157.4000244141</ele>
        <time>2014-05-14T06:59:07.000Z</time>
      </trkpt>
      <trkpt lat="42.11383" lon="9.12162">
        <ele>1157.5999755859</ele>
        <time>2014-05-14T06:59:09.000Z</time>
      </trkpt>
      <trkpt lat="42.11385" lon="9.12165">
        <ele>1157.4000244141</ele>
        <time>2014-05-14T06:59:12.000Z</time>
      </trkpt>
      <trkpt lat="42.11386" lon="9.12166">
        <ele>1157.4000244141</ele>
        <time>2014-05-14T06:59:13.000Z</time>
      </trkpt>
      <trkpt lat="42.11388" lon="9.12167">
        <ele>1157.1999511719</ele>
        <time>2014-05-14T06:59:15.000Z</time>
      </trkpt>
      <trkpt lat="42.1139" lon="9.12169">
        <ele>1157</ele>
        <time>2014-05-14T06:59:17.000Z</time>
      </trkpt>
      <trkpt lat="42.11392" lon="9.1217">
        <ele>1156.8000488281</ele>
        <time>2014-05-14T06:59:19.000Z</time>
      </trkpt>
      <trkpt lat="42.11395" lon="9.12171">
        <ele>1156.4000244141</ele>
        <time>2014-05-14T06:59:22.000Z</time>
      </trkpt>
      <trkpt lat="42.11402" lon="9.12173">
        <ele>1155.4000244141</ele>
        <time>2014-05-14T06:59:28.000Z</time>
      </trkpt>
      <trkpt lat="42.11407" lon="9.12175">
        <ele>1154.8000488281</ele>
        <time>2014-05-14T06:59:33.000Z</time>
      </trkpt>
      <trkpt lat="42.11413" lon="9.12179">
        <ele>1154.1999511719</ele>
        <time>2014-05-14T06:59:40.000Z</time>
      </trkpt>
      <trkpt lat="42.11416" lon="9.12182">
        <ele>1153.8000488281</ele>
        <time>2014-05-14T06:59:47.000Z</time>
      </trkpt>
      <trkpt lat="42.11421" lon="9.12186">
        <ele>1153.1999511719</ele>
        <time>2014-05-14T06:59:57.000Z</time>
      </trkpt>
      <trkpt lat="42.11423" lon="9.12188">
        <ele>1153.1999511719</ele>
        <time>2014-05-14T06:59:59.000Z</time>
      </trkpt>
      <trkpt lat="42.11427" lon="9.12192">
        <ele>1152.8000488281</ele>
        <time>2014-05-14T07:00:03.000Z</time>
      </trkpt>
      <trkpt lat="42.11429" lon="9.12194">
        <ele>1152.5999755859</ele>
        <time>2014-05-14T07:00:05.000Z</time>
      </trkpt>
      <trkpt lat="42.11435" lon="9.122">
        <ele>1151.4000244141</ele>
        <time>2014-05-14T07:00:10.000Z</time>
      </trkpt>
      <trkpt lat="42.11441" lon="9.12207">
        <ele>1150</ele>
        <time>2014-05-14T07:00:17.000Z</time>
      </trkpt>
      <trkpt lat="42.1145" lon="9.12218">
        <ele>1148</ele>
        <time>2014-05-14T07:00:25.000Z</time>
      </trkpt>
      <trkpt lat="42.11456" lon="9.12224">
        <ele>1146.5999755859</ele>
        <time>2014-05-14T07:00:31.000Z</time>
      </trkpt>
      <trkpt lat="42.1146" lon="9.12233">
        <ele>1145.5999755859</ele>
        <time>2014-05-14T07:00:38.000Z</time>
      </trkpt>
      <trkpt lat="42.11463" lon="9.12242">
        <ele>1144.8000488281</ele>
        <time>2014-05-14T07:00:44.000Z</time>
      </trkpt>
      <trkpt lat="42.11463" lon="9.12249">
        <ele>1144.8000488281</ele>
        <time>2014-05-14T07:00:50.000Z</time>
      </trkpt>
      <trkpt lat="42.11464" lon="9.12248">
        <ele>1144.5999755859</ele>
        <time>2014-05-14T07:00:56.000Z</time>
      </trkpt>
      <trkpt lat="42.11464" lon="9.12249">
        <ele>1144.5999755859</ele>
        <time>2014-05-14T07:01:02.000Z</time>
      </trkpt>
      <trkpt lat="42.11461" lon="9.12258">
        <ele>1147</ele>
        <time>2014-05-14T07:01:09.000Z</time>
      </trkpt>
      <trkpt lat="42.11457" lon="9.12267">
        <ele>1149.5999755859</ele>
        <time>2014-05-14T07:01:16.000Z</time>
      </trkpt>
      <trkpt lat="42.11453" lon="9.12276">
        <ele>1152</ele>
        <time>2014-05-14T07:01:23.000Z</time>
      </trkpt>
      <trkpt lat="42.11452" lon="9.12279">
        <ele>1152.5999755859</ele>
        <time>2014-05-14T07:01:25.000Z</time>
      </trkpt>
      <trkpt lat="42.11452" lon="9.12284">
        <ele>1153.4000244141</ele>
        <time>2014-05-14T07:01:29.000Z</time>
      </trkpt>
      <trkpt lat="42.11453" lon="9.12286">
        <ele>1153.5999755859</ele>
        <time>2014-05-14T07:01:31.000Z</time>
      </trkpt>
      <trkpt lat="42.11453" lon="9.1229">
        <ele>1154</ele>
        <time>2014-05-14T07:01:34.000Z</time>
      </trkpt>
      <trkpt lat="42.11455" lon="9.12295">
        <ele>1154</ele>
        <time>2014-05-14T07:01:39.000Z</time>
      </trkpt>
      <trkpt lat="42.11456" lon="9.12298">
        <ele>1154</ele>
        <time>2014-05-14T07:01:42.000Z</time>
      </trkpt>
      <trkpt lat="42.11456" lon="9.12301">
        <ele>1154.4000244141</ele>
        <time>2014-05-14T07:01:44.000Z</time>
      </trkpt>
      <trkpt lat="42.11457" lon="9.12304">
        <ele>1154.5999755859</ele>
        <time>2014-05-14T07:01:48.000Z</time>
      </trkpt>
      <trkpt lat="42.11458" lon="9.12308">
        <ele>1154.8000488281</ele>
        <time>2014-05-14T07:01:52.000Z</time>
      </trkpt>
      <trkpt lat="42.11458" lon="9.12309">
        <ele>1154.8000488281</ele>
        <time>2014-05-14T07:01:53.000Z</time>
      </trkpt>
      <trkpt lat="42.1146" lon="9.12317">
        <ele>1155.1999511719</ele>
        <time>2014-05-14T07:01:58.000Z</time>
      </trkpt>
      <trkpt lat="42.11465" lon="9.12324">
        <ele>1154.5999755859</ele>
        <time>2014-05-14T07:02:05.000Z</time>
      </trkpt>
      <trkpt lat="42.11466" lon="9.12325">
        <ele>1154.4000244141</ele>
        <time>2014-05-14T07:02:06.000Z</time>
      </trkpt>
      <trkpt lat="42.11471" lon="9.12332">
        <ele>1153.8000488281</ele>
        <time>2014-05-14T07:02:12.000Z</time>
      </trkpt>
      <trkpt lat="42.11475" lon="9.12336">
        <ele>1153</ele>
        <time>2014-05-14T07:02:17.000Z</time>
      </trkpt>
      <trkpt lat="42.11476" lon="9.12337">
        <ele>1152.8000488281</ele>
        <time>2014-05-14T07:02:18.000Z</time>
      </trkpt>
      <trkpt lat="42.11477" lon="9.12339">
        <ele>1152.8000488281</ele>
        <time>2014-05-14T07:02:19.000Z</time>
      </trkpt>
      <trkpt lat="42.11481" lon="9.12342">
        <ele>1151.8000488281</ele>
        <time>2014-05-14T07:02:24.000Z</time>
      </trkpt>
      <trkpt lat="42.11482" lon="9.12343">
        <ele>1151.5999755859</ele>
        <time>2014-05-14T07:02:25.000Z</time>
      </trkpt>
      <trkpt lat="42.11486" lon="9.12348">
        <ele>1150.8000488281</ele>
        <time>2014-05-14T07:02:31.000Z</time>
      </trkpt>
      <trkpt lat="42.11489" lon="9.12355">
        <ele>1150.8000488281</ele>
        <time>2014-05-14T07:02:37.000Z</time>
      </trkpt>
      <trkpt lat="42.11492" lon="9.1236">
        <ele>1150.4000244141</ele>
        <time>2014-05-14T07:02:42.000Z</time>
      </trkpt>
      <trkpt lat="42.11493" lon="9.12362">
        <ele>1150.5999755859</ele>
        <time>2014-05-14T07:02:43.000Z</time>
      </trkpt>
      <trkpt lat="42.11494" lon="9.12364">
        <ele>1150.8000488281</ele>
        <time>2014-05-14T07:02:45.000Z</time>
      </trkpt>
      <trkpt lat="42.11499" lon="9.12368">
        <ele>1150</ele>
        <time>2014-05-14T07:02:50.000Z</time>
      </trkpt>
      <trkpt lat="42.115" lon="9.1237">
        <ele>1150</ele>
        <time>2014-05-14T07:02:52.000Z</time>
      </trkpt>
      <trkpt lat="42.11503" lon="9.12373">
        <ele>1149.8000488281</ele>
        <time>2014-05-14T07:02:55.000Z</time>
      </trkpt>
      <trkpt lat="42.11508" lon="9.1238">
        <ele>1149.5999755859</ele>
        <time>2014-05-14T07:03:01.000Z</time>
      </trkpt>
      <trkpt lat="42.11512" lon="9.12385">
        <ele>1149.5999755859</ele>
        <time>2014-05-14T07:03:05.000Z</time>
      </trkpt>
      <trkpt lat="42.11515" lon="9.1239">
        <ele>1149.5999755859</ele>
        <time>2014-05-14T07:03:09.000Z</time>
      </trkpt>
      <trkpt lat="42.11521" lon="9.12397">
        <ele>1149.4000244141</ele>
        <time>2014-05-14T07:03:16.000Z</time>
      </trkpt>
      <trkpt lat="42.11522" lon="9.12399">
        <ele>1149.1999511719</ele>
        <time>2014-05-14T07:03:18.000Z</time>
      </trkpt>
      <trkpt lat="42.11527" lon="9.12403">
        <ele>1148.8000488281</ele>
        <time>2014-05-14T07:03:22.000Z</time>
      </trkpt>
      <trkpt lat="42.11533" lon="9.12409">
        <ele>1147.8000488281</ele>
        <time>2014-05-14T07:03:29.000Z</time>
      </trkpt>
      <trkpt lat="42.11539" lon="9.12413">
        <ele>1146.4000244141</ele>
        <time>2014-05-14T07:03:36.000Z</time>
      </trkpt>
      <trkpt lat="42.11543" lon="9.12417">
        <ele>1146.4000244141</ele>
        <time>2014-05-14T07:03:43.000Z</time>
      </trkpt>
      <trkpt lat="42.11544" lon="9.12421">
        <ele>1146.5999755859</ele>
        <time>2014-05-14T07:03:50.000Z</time>
      </trkpt>
      <trkpt lat="42.11545" lon="9.12422">
        <ele>1146.4000244141</ele>
        <time>2014-05-14T07:04:02.000Z</time>
      </trkpt>
      <trkpt lat="42.11549" lon="9.12426">
        <ele>1146.1999511719</ele>
        <time>2014-05-14T07:04:38.000Z</time>
      </trkpt>
      <trkpt lat="42.11551" lon="9.12427">
        <ele>1146</ele>
        <time>2014-05-14T07:05:10.000Z</time>
      </trkpt>
      <trkpt lat="42.11552" lon="9.12428">
        <ele>1145.5999755859</ele>
        <time>2014-05-14T07:05:18.000Z</time>
      </trkpt>
      <trkpt lat="42.11554" lon="9.12429">
        <ele>1145.1999511719</ele>
        <time>2014-05-14T07:05:27.000Z</time>
      </trkpt>
      <trkpt lat="42.11556" lon="9.12436">
        <ele>1146.1999511719</ele>
        <time>2014-05-14T07:05:34.000Z</time>
      </trkpt>
      <trkpt lat="42.11559" lon="9.12441">
        <ele>1146.8000488281</ele>
        <time>2014-05-14T07:05:40.000Z</time>
      </trkpt>
      <trkpt lat="42.11561" lon="9.12445">
        <ele>1147.1999511719</ele>
        <time>2014-05-14T07:05:45.000Z</time>
      </trkpt>
      <trkpt lat="42.11564" lon="9.12448">
        <ele>1146.5999755859</ele>
        <time>2014-05-14T07:05:50.000Z</time>
      </trkpt>
      <trkpt lat="42.11567" lon="9.12449">
        <ele>1145.5999755859</ele>
        <time>2014-05-14T07:05:54.000Z</time>
      </trkpt>
      <trkpt lat="42.1157" lon="9.12455">
        <ele>1146.1999511719</ele>
        <time>2014-05-14T07:06:00.000Z</time>
      </trkpt>
      <trkpt lat="42.11573" lon="9.12463">
        <ele>1147</ele>
        <time>2014-05-14T07:06:06.000Z</time>
      </trkpt>
      <trkpt lat="42.11575" lon="9.12465">
        <ele>1146.8000488281</ele>
        <time>2014-05-14T07:06:09.000Z</time>
      </trkpt>
      <trkpt lat="42.11576" lon="9.12467">
        <ele>1147.1999511719</ele>
        <time>2014-05-14T07:06:12.000Z</time>
      </trkpt>
      <trkpt lat="42.11577" lon="9.12468">
        <ele>1147.1999511719</ele>
        <time>2014-05-14T07:06:13.000Z</time>
      </trkpt>
      <trkpt lat="42.11578" lon="9.12473">
        <ele>1147.8000488281</ele>
        <time>2014-05-14T07:06:17.000Z</time>
      </trkpt>
      <trkpt lat="42.11581" lon="9.12479">
        <ele>1148.1999511719</ele>
        <time>2014-05-14T07:06:20.000Z</time>
      </trkpt>
      <trkpt lat="42.11582" lon="9.1248">
        <ele>1148.1999511719</ele>
        <time>2014-05-14T07:06:21.000Z</time>
      </trkpt>
      <trkpt lat="42.11583" lon="9.12481">
        <ele>1148</ele>
        <time>2014-05-14T07:06:22.000Z</time>
      </trkpt>
      <trkpt lat="42.11588" lon="9.12487">
        <ele>1146.8000488281</ele>
        <time>2014-05-14T07:06:26.000Z</time>
      </trkpt>
      <trkpt lat="42.11589" lon="9.12488">
        <ele>1146.8000488281</ele>
        <time>2014-05-14T07:06:27.000Z</time>
      </trkpt>
      <trkpt lat="42.11592" lon="9.12493">
        <ele>1146.8000488281</ele>
        <time>2014-05-14T07:06:31.000Z</time>
      </trkpt>
      <trkpt lat="42.11594" lon="9.12496">
        <ele>1146.4000244141</ele>
        <time>2014-05-14T07:06:33.000Z</time>
      </trkpt>
      <trkpt lat="42.11598" lon="9.12507">
        <ele>1147.5999755859</ele>
        <time>2014-05-14T07:06:40.000Z</time>
      </trkpt>
      <trkpt lat="42.11603" lon="9.12515">
        <ele>1147.8000488281</ele>
        <time>2014-05-14T07:06:46.000Z</time>
      </trkpt>
      <trkpt lat="42.11607" lon="9.12524">
        <ele>1148</ele>
        <time>2014-05-14T07:06:52.000Z</time>
      </trkpt>
      <trkpt lat="42.1161" lon="9.12529">
        <ele>1148.5999755859</ele>
        <time>2014-05-14T07:06:56.000Z</time>
      </trkpt>
      <trkpt lat="42.1161" lon="9.1253">
        <ele>1148.5999755859</ele>
        <time>2014-05-14T07:06:57.000Z</time>
      </trkpt>
      <trkpt lat="42.11611" lon="9.12533">
        <ele>1149.1999511719</ele>
        <time>2014-05-14T07:07:00.000Z</time>
      </trkpt>
      <trkpt lat="42.11614" lon="9.12536">
        <ele>1148.5999755859</ele>
        <time>2014-05-14T07:07:03.000Z</time>
      </trkpt>
      <trkpt lat="42.11615" lon="9.12537">
        <ele>1148.1999511719</ele>
        <time>2014-05-14T07:07:05.000Z</time>
      </trkpt>
      <trkpt lat="42.11618" lon="9.12539">
        <ele>1147.5999755859</ele>
        <time>2014-05-14T07:07:07.000Z</time>
      </trkpt>
      <trkpt lat="42.11619" lon="9.12542">
        <ele>1147.5999755859</ele>
        <time>2014-05-14T07:07:09.000Z</time>
      </trkpt>
      <trkpt lat="42.11622" lon="9.12549">
        <ele>1148.1999511719</ele>
        <time>2014-05-14T07:07:13.000Z</time>
      </trkpt>
      <trkpt lat="42.11624" lon="9.12552">
        <ele>1148.4000244141</ele>
        <time>2014-05-14T07:07:15.000Z</time>
      </trkpt>
      <trkpt lat="42.11626" lon="9.12556">
        <ele>1148.5999755859</ele>
        <time>2014-05-14T07:07:18.000Z</time>
      </trkpt>
      <trkpt lat="42.11627" lon="9.12558">
        <ele>1148.5999755859</ele>
        <time>2014-05-14T07:07:20.000Z</time>
      </trkpt>
      <trkpt lat="42.11628" lon="9.12558">
        <ele>1148.1999511719</ele>
        <time>2014-05-14T07:07:21.000Z</time>
      </trkpt>
      <trkpt lat="42.1163" lon="9.12563">
        <ele>1148.5999755859</ele>
        <time>2014-05-14T07:07:26.000Z</time>
      </trkpt>
      <trkpt lat="42.11631" lon="9.12569">
        <ele>1149.8000488281</ele>
        <time>2014-05-14T07:07:31.000Z</time>
      </trkpt>
      <trkpt lat="42.11634" lon="9.12571">
        <ele>1149.4000244141</ele>
        <time>2014-05-14T07:07:33.000Z</time>
      </trkpt>
      <trkpt lat="42.11634" lon="9.12572">
        <ele>1149.4000244141</ele>
        <time>2014-05-14T07:07:34.000Z</time>
      </trkpt>
      <trkpt lat="42.11637" lon="9.12574">
        <ele>1148.5999755859</ele>
        <time>2014-05-14T07:07:37.000Z</time>
      </trkpt>
      <trkpt lat="42.1164" lon="9.12577">
        <ele>1148</ele>
        <time>2014-05-14T07:07:42.000Z</time>
      </trkpt>
      <trkpt lat="42.11642" lon="9.12578">
        <ele>1147.1999511719</ele>
        <time>2014-05-14T07:07:44.000Z</time>
      </trkpt>
      <trkpt lat="42.11643" lon="9.12578">
        <ele>1146.4000244141</ele>
        <time>2014-05-14T07:07:45.000Z</time>
      </trkpt>
      <trkpt lat="42.1165" lon="9.12581">
        <ele>1144</ele>
        <time>2014-05-14T07:07:50.000Z</time>
      </trkpt>
      <trkpt lat="42.11652" lon="9.12581">
        <ele>1143.4000244141</ele>
        <time>2014-05-14T07:07:51.000Z</time>
      </trkpt>
      <trkpt lat="42.11657" lon="9.12583">
        <ele>1141.4000244141</ele>
        <time>2014-05-14T07:07:56.000Z</time>
      </trkpt>
      <trkpt lat="42.11657" lon="9.12583">
        <ele>1141.1999511719</ele>
        <time>2014-05-14T07:07:57.000Z</time>
      </trkpt>
      <trkpt lat="42.11661" lon="9.12584">
        <ele>1139.5999755859</ele>
        <time>2014-05-14T07:08:01.000Z</time>
      </trkpt>
      <trkpt lat="42.11663" lon="9.12585">
        <ele>1139.1999511719</ele>
        <time>2014-05-14T07:08:04.000Z</time>
      </trkpt>
      <trkpt lat="42.11664" lon="9.12586">
        <ele>1139</ele>
        <time>2014-05-14T07:08:06.000Z</time>
      </trkpt>
      <trkpt lat="42.11672" lon="9.12588">
        <ele>1136</ele>
        <time>2014-05-14T07:08:13.000Z</time>
      </trkpt>
      <trkpt lat="42.11673" lon="9.12589">
        <ele>1135.8000488281</ele>
        <time>2014-05-14T07:08:14.000Z</time>
      </trkpt>
      <trkpt lat="42.11675" lon="9.1259">
        <ele>1135</ele>
        <time>2014-05-14T07:08:17.000Z</time>
      </trkpt>
      <trkpt lat="42.11677" lon="9.12592">
        <ele>1134.8000488281</ele>
        <time>2014-05-14T07:08:20.000Z</time>
      </trkpt>
      <trkpt lat="42.11683" lon="9.12596">
        <ele>1133.1999511719</ele>
        <time>2014-05-14T07:08:26.000Z</time>
      </trkpt>
      <trkpt lat="42.11685" lon="9.12597">
        <ele>1132.8000488281</ele>
        <time>2014-05-14T07:08:28.000Z</time>
      </trkpt>
      <trkpt lat="42.11688" lon="9.126">
        <ele>1132.1999511719</ele>
        <time>2014-05-14T07:08:32.000Z</time>
      </trkpt>
      <trkpt lat="42.11691" lon="9.12602">
        <ele>1131.5999755859</ele>
        <time>2014-05-14T07:08:35.000Z</time>
      </trkpt>
      <trkpt lat="42.11694" lon="9.12603">
        <ele>1130.5999755859</ele>
        <time>2014-05-14T07:08:37.000Z</time>
      </trkpt>
      <trkpt lat="42.11695" lon="9.12604">
        <ele>1130.4000244141</ele>
        <time>2014-05-14T07:08:39.000Z</time>
      </trkpt>
      <trkpt lat="42.11697" lon="9.12606">
        <ele>1130</ele>
        <time>2014-05-14T07:08:43.000Z</time>
      </trkpt>
      <trkpt lat="42.11702" lon="9.12614">
        <ele>1130.1999511719</ele>
        <time>2014-05-14T07:09:12.000Z</time>
      </trkpt>
      <trkpt lat="42.11707" lon="9.12622">
        <ele>1131.1999511719</ele>
        <time>2014-05-14T07:09:19.000Z</time>
      </trkpt>
      <trkpt lat="42.11711" lon="9.12629">
        <ele>1132.1999511719</ele>
        <time>2014-05-14T07:09:25.000Z</time>
      </trkpt>
      <trkpt lat="42.11715" lon="9.12633">
        <ele>1132</ele>
        <time>2014-05-14T07:09:29.000Z</time>
      </trkpt>
      <trkpt lat="42.11717" lon="9.12636">
        <ele>1132.1999511719</ele>
        <time>2014-05-14T07:09:31.000Z</time>
      </trkpt>
      <trkpt lat="42.11719" lon="9.12639">
        <ele>1132.1999511719</ele>
        <time>2014-05-14T07:09:34.000Z</time>
      </trkpt>
      <trkpt lat="42.11723" lon="9.12642">
        <ele>1132.1999511719</ele>
        <time>2014-05-14T07:09:37.000Z</time>
      </trkpt>
      <trkpt lat="42.11731" lon="9.12649">
        <ele>1131.1999511719</ele>
        <time>2014-05-14T07:09:44.000Z</time>
      </trkpt>
      <trkpt lat="42.11737" lon="9.12655">
        <ele>1130.5999755859</ele>
        <time>2014-05-14T07:09:50.000Z</time>
      </trkpt>
      <trkpt lat="42.11738" lon="9.12656">
        <ele>1130.8000488281</ele>
        <time>2014-05-14T07:09:51.000Z</time>
      </trkpt>
      <trkpt lat="42.11744" lon="9.12663">
        <ele>1130.4000244141</ele>
        <time>2014-05-14T07:09:57.000Z</time>
      </trkpt>
      <trkpt lat="42.11745" lon="9.12664">
        <ele>1130.1999511719</ele>
        <time>2014-05-14T07:09:58.000Z</time>
      </trkpt>
      <trkpt lat="42.11751" lon="9.12673">
        <ele>1130</ele>
        <time>2014-05-14T07:10:07.000Z</time>
      </trkpt>
      <trkpt lat="42.11755" lon="9.12678">
        <ele>1130.4000244141</ele>
        <time>2014-05-14T07:10:12.000Z</time>
      </trkpt>
      <trkpt lat="42.11756" lon="9.1268">
        <ele>1130.1999511719</ele>
        <time>2014-05-14T07:10:13.000Z</time>
      </trkpt>
      <trkpt lat="42.11758" lon="9.12685">
        <ele>1130.5999755859</ele>
        <time>2014-05-14T07:10:17.000Z</time>
      </trkpt>
      <trkpt lat="42.1176" lon="9.12687">
        <ele>1130.8000488281</ele>
        <time>2014-05-14T07:10:19.000Z</time>
      </trkpt>
      <trkpt lat="42.11763" lon="9.12696">
        <ele>1132</ele>
        <time>2014-05-14T07:10:27.000Z</time>
      </trkpt>
      <trkpt lat="42.11764" lon="9.12699">
        <ele>1132.1999511719</ele>
        <time>2014-05-14T07:10:29.000Z</time>
      </trkpt>
      <trkpt lat="42.11766" lon="9.12703">
        <ele>1132.4000244141</ele>
        <time>2014-05-14T07:10:33.000Z</time>
      </trkpt>
      <trkpt lat="42.11766" lon="9.12704">
        <ele>1132.5999755859</ele>
        <time>2014-05-14T07:10:34.000Z</time>
      </trkpt>
      <trkpt lat="42.11767" lon="9.12713">
        <ele>1134.8000488281</ele>
        <time>2014-05-14T07:10:41.000Z</time>
      </trkpt>
      <trkpt lat="42.11767" lon="9.12718">
        <ele>1136</ele>
        <time>2014-05-14T07:10:47.000Z</time>
      </trkpt>
      <trkpt lat="42.11767" lon="9.12729">
        <ele>1138.1999511719</ele>
        <time>2014-05-14T07:10:55.000Z</time>
      </trkpt>
      <trkpt lat="42.11768" lon="9.12734">
        <ele>1138.8000488281</ele>
        <time>2014-05-14T07:10:59.000Z</time>
      </trkpt>
      <trkpt lat="42.11768" lon="9.12737">
        <ele>1139.1999511719</ele>
        <time>2014-05-14T07:11:01.000Z</time>
      </trkpt>
      <trkpt lat="42.11769" lon="9.12742">
        <ele>1140</ele>
        <time>2014-05-14T07:11:05.000Z</time>
      </trkpt>
      <trkpt lat="42.1177" lon="9.12744">
        <ele>1139.8000488281</ele>
        <time>2014-05-14T07:11:07.000Z</time>
      </trkpt>
      <trkpt lat="42.1177" lon="9.12748">
        <ele>1140.8000488281</ele>
        <time>2014-05-14T07:11:10.000Z</time>
      </trkpt>
      <trkpt lat="42.1177" lon="9.12751">
        <ele>1141.5999755859</ele>
        <time>2014-05-14T07:11:13.000Z</time>
      </trkpt>
      <trkpt lat="42.1177" lon="9.12755">
        <ele>1142.1999511719</ele>
        <time>2014-05-14T07:11:16.000Z</time>
      </trkpt>
      <trkpt lat="42.11771" lon="9.12758">
        <ele>1142.4000244141</ele>
        <time>2014-05-14T07:11:19.000Z</time>
      </trkpt>
      <trkpt lat="42.11772" lon="9.12763">
        <ele>1143</ele>
        <time>2014-05-14T07:11:25.000Z</time>
      </trkpt>
      <trkpt lat="42.11773" lon="9.12766">
        <ele>1143.4000244141</ele>
        <time>2014-05-14T07:11:30.000Z</time>
      </trkpt>
      <trkpt lat="42.11774" lon="9.12771">
        <ele>1143.5999755859</ele>
        <time>2014-05-14T07:11:36.000Z</time>
      </trkpt>
      <trkpt lat="42.11775" lon="9.12776">
        <ele>1144.1999511719</ele>
        <time>2014-05-14T07:11:41.000Z</time>
      </trkpt>
      <trkpt lat="42.11776" lon="9.1278">
        <ele>1144.4000244141</ele>
        <time>2014-05-14T07:11:45.000Z</time>
      </trkpt>
      <trkpt lat="42.11779" lon="9.12786">
        <ele>1144.5999755859</ele>
        <time>2014-05-14T07:11:51.000Z</time>
      </trkpt>
      <trkpt lat="42.1178" lon="9.12788">
        <ele>1144.8000488281</ele>
        <time>2014-05-14T07:11:53.000Z</time>
      </trkpt>
      <trkpt lat="42.11781" lon="9.12792">
        <ele>1145.4000244141</ele>
        <time>2014-05-14T07:11:57.000Z</time>
      </trkpt>
      <trkpt lat="42.11781" lon="9.12794">
        <ele>1145.8000488281</ele>
        <time>2014-05-14T07:11:59.000Z</time>
      </trkpt>
      <trkpt lat="42.11781" lon="9.12795">
        <ele>1145.8000488281</ele>
        <time>2014-05-14T07:12:00.000Z</time>
      </trkpt>
      <trkpt lat="42.11782" lon="9.12798">
        <ele>1146</ele>
        <time>2014-05-14T07:12:02.000Z</time>
      </trkpt>
      <trkpt lat="42.11783" lon="9.128">
        <ele>1146.4000244141</ele>
        <time>2014-05-14T07:12:04.000Z</time>
      </trkpt>
      <trkpt lat="42.11785" lon="9.12805">
        <ele>1146.5999755859</ele>
        <time>2014-05-14T07:12:08.000Z</time>
      </trkpt>
      <trkpt lat="42.11786" lon="9.1281">
        <ele>1147.5999755859</ele>
        <time>2014-05-14T07:12:13.000Z</time>
      </trkpt>
      <trkpt lat="42.11786" lon="9.12813">
        <ele>1148</ele>
        <time>2014-05-14T07:12:15.000Z</time>
      </trkpt>
      <trkpt lat="42.11786" lon="9.12821">
        <ele>1149.8000488281</ele>
        <time>2014-05-14T07:12:21.000Z</time>
      </trkpt>
      <trkpt lat="42.11787" lon="9.12822">
        <ele>1150</ele>
        <time>2014-05-14T07:12:22.000Z</time>
      </trkpt>
      <trkpt lat="42.11788" lon="9.12832">
        <ele>1151.5999755859</ele>
        <time>2014-05-14T07:12:30.000Z</time>
      </trkpt>
      <trkpt lat="42.11789" lon="9.12834">
        <ele>1151.5999755859</ele>
        <time>2014-05-14T07:12:32.000Z</time>
      </trkpt>
      <trkpt lat="42.1179" lon="9.12836">
        <ele>1151.8000488281</ele>
        <time>2014-05-14T07:12:35.000Z</time>
      </trkpt>
      <trkpt lat="42.11793" lon="9.12841">
        <ele>1151.4000244141</ele>
        <time>2014-05-14T07:12:39.000Z</time>
      </trkpt>
      <trkpt lat="42.11795" lon="9.12844">
        <ele>1151.4000244141</ele>
        <time>2014-05-14T07:12:41.000Z</time>
      </trkpt>
      <trkpt lat="42.11797" lon="9.12851">
        <ele>1151.8000488281</ele>
        <time>2014-05-14T07:12:46.000Z</time>
      </trkpt>
      <trkpt lat="42.11798" lon="9.12854">
        <ele>1151.8000488281</ele>
        <time>2014-05-14T07:12:48.000Z</time>
      </trkpt>
      <trkpt lat="42.11801" lon="9.12861">
        <ele>1152.4000244141</ele>
        <time>2014-05-14T07:12:54.000Z</time>
      </trkpt>
      <trkpt lat="42.11801" lon="9.12863">
        <ele>1152.4000244141</ele>
        <time>2014-05-14T07:12:55.000Z</time>
      </trkpt>
      <trkpt lat="42.11802" lon="9.12867">
        <ele>1152.1999511719</ele>
        <time>2014-05-14T07:12:58.000Z</time>
      </trkpt>
      <trkpt lat="42.11803" lon="9.1287">
        <ele>1152.1999511719</ele>
        <time>2014-05-14T07:13:01.000Z</time>
      </trkpt>
      <trkpt lat="42.11805" lon="9.12876">
        <ele>1152.1999511719</ele>
        <time>2014-05-14T07:13:06.000Z</time>
      </trkpt>
      <trkpt lat="42.11806" lon="9.12876">
        <ele>1151.8000488281</ele>
        <time>2014-05-14T07:13:07.000Z</time>
      </trkpt>
      <trkpt lat="42.11806" lon="9.12883">
        <ele>1152.4000244141</ele>
        <time>2014-05-14T07:13:13.000Z</time>
      </trkpt>
      <trkpt lat="42.11807" lon="9.12888">
        <ele>1152.5999755859</ele>
        <time>2014-05-14T07:13:17.000Z</time>
      </trkpt>
      <trkpt lat="42.11807" lon="9.1289">
        <ele>1152.8000488281</ele>
        <time>2014-05-14T07:13:19.000Z</time>
      </trkpt>
      <trkpt lat="42.11809" lon="9.12899">
        <ele>1153.1999511719</ele>
        <time>2014-05-14T07:13:25.000Z</time>
      </trkpt>
      <trkpt lat="42.11811" lon="9.12906">
        <ele>1153.1999511719</ele>
        <time>2014-05-14T07:13:32.000Z</time>
      </trkpt>
      <trkpt lat="42.11812" lon="9.12912">
        <ele>1153.1999511719</ele>
        <time>2014-05-14T07:13:36.000Z</time>
      </trkpt>
      <trkpt lat="42.11813" lon="9.12914">
        <ele>1153.1999511719</ele>
        <time>2014-05-14T07:13:38.000Z</time>
      </trkpt>
      <trkpt lat="42.11813" lon="9.12916">
        <ele>1153.1999511719</ele>
        <time>2014-05-14T07:13:40.000Z</time>
      </trkpt>
      <trkpt lat="42.11814" lon="9.12917">
        <ele>1153</ele>
        <time>2014-05-14T07:13:41.000Z</time>
      </trkpt>
      <trkpt lat="42.11814" lon="9.12919">
        <ele>1153.1999511719</ele>
        <time>2014-05-14T07:13:43.000Z</time>
      </trkpt>
      <trkpt lat="42.1182" lon="9.12934">
        <ele>1152.1999511719</ele>
        <time>2014-05-14T07:14:38.000Z</time>
      </trkpt>
      <trkpt lat="42.11819" lon="9.12935">
        <ele>1152.5999755859</ele>
        <time>2014-05-14T07:15:05.000Z</time>
      </trkpt>
      <trkpt lat="42.11819" lon="9.12936">
        <ele>1153.1999511719</ele>
        <time>2014-05-14T07:15:14.000Z</time>
      </trkpt>
      <trkpt lat="42.11815" lon="9.12939">
        <ele>1155.4000244141</ele>
        <time>2014-05-14T07:16:12.000Z</time>
      </trkpt>
      <trkpt lat="42.11817" lon="9.1294">
        <ele>1154.4000244141</ele>
        <time>2014-05-14T07:16:45.000Z</time>
      </trkpt>
      <trkpt lat="42.11818" lon="9.12941">
        <ele>1153.8000488281</ele>
        <time>2014-05-14T07:16:55.000Z</time>
      </trkpt>
      <trkpt lat="42.11818" lon="9.1294">
        <ele>1153.8000488281</ele>
        <time>2014-05-14T07:17:11.000Z</time>
      </trkpt>
      <trkpt lat="42.11817" lon="9.12939">
        <ele>1154.1999511719</ele>
        <time>2014-05-14T07:18:19.000Z</time>
      </trkpt>
      <trkpt lat="42.11819" lon="9.1294">
        <ele>1153.4000244141</ele>
        <time>2014-05-14T07:18:30.000Z</time>
      </trkpt>
      <trkpt lat="42.11821" lon="9.12944">
        <ele>1152.8000488281</ele>
        <time>2014-05-14T07:18:37.000Z</time>
      </trkpt>
      <trkpt lat="42.11824" lon="9.12953">
        <ele>1150.8000488281</ele>
        <time>2014-05-14T07:18:46.000Z</time>
      </trkpt>
      <trkpt lat="42.11825" lon="9.12956">
        <ele>1150</ele>
        <time>2014-05-14T07:18:52.000Z</time>
      </trkpt>
      <trkpt lat="42.11826" lon="9.1296">
        <ele>1149.4000244141</ele>
        <time>2014-05-14T07:18:57.000Z</time>
      </trkpt>
      <trkpt lat="42.11825" lon="9.12963">
        <ele>1149.1999511719</ele>
        <time>2014-05-14T07:19:03.000Z</time>
      </trkpt>
      <trkpt lat="42.11824" lon="9.12964">
        <ele>1149.8000488281</ele>
        <time>2014-05-14T07:19:07.000Z</time>
      </trkpt>
      <trkpt lat="42.11822" lon="9.12968">
        <ele>1150.5999755859</ele>
        <time>2014-05-14T07:19:12.000Z</time>
      </trkpt>
      <trkpt lat="42.1182" lon="9.12968">
        <ele>1151.4000244141</ele>
        <time>2014-05-14T07:19:14.000Z</time>
      </trkpt>
      <trkpt lat="42.11818" lon="9.1297">
        <ele>1152.1999511719</ele>
        <time>2014-05-14T07:19:17.000Z</time>
      </trkpt>
      <trkpt lat="42.11815" lon="9.12972">
        <ele>1153.4000244141</ele>
        <time>2014-05-14T07:19:22.000Z</time>
      </trkpt>
      <trkpt lat="42.11811" lon="9.12972">
        <ele>1155.4000244141</ele>
        <time>2014-05-14T07:19:58.000Z</time>
      </trkpt>
      <trkpt lat="42.11812" lon="9.1297">
        <ele>1155.1999511719</ele>
        <time>2014-05-14T07:20:03.000Z</time>
      </trkpt>
      <trkpt lat="42.11811" lon="9.12966">
        <ele>1155.5999755859</ele>
        <time>2014-05-14T07:20:09.000Z</time>
      </trkpt>
      <trkpt lat="42.11811" lon="9.12962">
        <ele>1156.1999511719</ele>
        <time>2014-05-14T07:20:15.000Z</time>
      </trkpt>
      <trkpt lat="42.11809" lon="9.12965">
        <ele>1157</ele>
        <time>2014-05-14T07:20:20.000Z</time>
      </trkpt>
      <trkpt lat="42.11807" lon="9.12965">
        <ele>1158</ele>
        <time>2014-05-14T07:20:26.000Z</time>
      </trkpt>
      <trkpt lat="42.11804" lon="9.12966">
        <ele>1159.1999511719</ele>
        <time>2014-05-14T07:20:31.000Z</time>
      </trkpt>
      <trkpt lat="42.118" lon="9.12965">
        <ele>1161.1999511719</ele>
        <time>2014-05-14T07:20:37.000Z</time>
      </trkpt>
      <trkpt lat="42.11798" lon="9.12963">
        <ele>1162.1999511719</ele>
        <time>2014-05-14T07:20:42.000Z</time>
      </trkpt>
      <trkpt lat="42.11796" lon="9.12961">
        <ele>1163.4000244141</ele>
        <time>2014-05-14T07:20:49.000Z</time>
      </trkpt>
      <trkpt lat="42.11795" lon="9.12962">
        <ele>1163.8000488281</ele>
        <time>2014-05-14T07:20:56.000Z</time>
      </trkpt>
      <trkpt lat="42.11795" lon="9.12961">
        <ele>1164</ele>
        <time>2014-05-14T07:21:23.000Z</time>
      </trkpt>
      <trkpt lat="42.1179" lon="9.12962">
        <ele>1166</ele>
        <time>2014-05-14T07:21:28.000Z</time>
      </trkpt>
      <trkpt lat="42.11784" lon="9.12966">
        <ele>1168.5999755859</ele>
        <time>2014-05-14T07:21:32.000Z</time>
      </trkpt>
      <trkpt lat="42.11784" lon="9.12966">
        <ele>1168.8000488281</ele>
        <time>2014-05-14T07:21:33.000Z</time>
      </trkpt>
      <trkpt lat="42.11783" lon="9.12966">
        <ele>1169.1999511719</ele>
        <time>2014-05-14T07:21:38.000Z</time>
      </trkpt>
      <trkpt lat="42.11782" lon="9.12969">
        <ele>1169.4000244141</ele>
        <time>2014-05-14T07:21:45.000Z</time>
      </trkpt>
      <trkpt lat="42.11779" lon="9.12971">
        <ele>1170.5999755859</ele>
        <time>2014-05-14T07:21:56.000Z</time>
      </trkpt>
      <trkpt lat="42.11775" lon="9.12974">
        <ele>1172.1999511719</ele>
        <time>2014-05-14T07:22:01.000Z</time>
      </trkpt>
      <trkpt lat="42.11768" lon="9.12978">
        <ele>1173.8000488281</ele>
        <time>2014-05-14T07:22:09.000Z</time>
      </trkpt>
      <trkpt lat="42.11767" lon="9.12979">
        <ele>1174.1999511719</ele>
        <time>2014-05-14T07:22:11.000Z</time>
      </trkpt>
      <trkpt lat="42.11764" lon="9.12982">
        <ele>1174.4000244141</ele>
        <time>2014-05-14T07:22:15.000Z</time>
      </trkpt>
      <trkpt lat="42.11763" lon="9.12983">
        <ele>1174.5999755859</ele>
        <time>2014-05-14T07:22:17.000Z</time>
      </trkpt>
      <trkpt lat="42.11759" lon="9.12985">
        <ele>1175.4000244141</ele>
        <time>2014-05-14T07:22:22.000Z</time>
      </trkpt>
      <trkpt lat="42.11758" lon="9.12985">
        <ele>1175.5999755859</ele>
        <time>2014-05-14T07:22:23.000Z</time>
      </trkpt>
      <trkpt lat="42.11757" lon="9.12986">
        <ele>1176</ele>
        <time>2014-05-14T07:22:25.000Z</time>
      </trkpt>
      <trkpt lat="42.11756" lon="9.12987">
        <ele>1176</ele>
        <time>2014-05-14T07:22:27.000Z</time>
      </trkpt>
      <trkpt lat="42.11753" lon="9.12988">
        <ele>1176.5999755859</ele>
        <time>2014-05-14T07:22:31.000Z</time>
      </trkpt>
      <trkpt lat="42.11751" lon="9.12989">
        <ele>1177</ele>
        <time>2014-05-14T07:22:33.000Z</time>
      </trkpt>
      <trkpt lat="42.11749" lon="9.12991">
        <ele>1177.5999755859</ele>
        <time>2014-05-14T07:22:37.000Z</time>
      </trkpt>
      <trkpt lat="42.11743" lon="9.12996">
        <ele>1178.8000488281</ele>
        <time>2014-05-14T07:22:44.000Z</time>
      </trkpt>
      <trkpt lat="42.11736" lon="9.13001">
        <ele>1181.1999511719</ele>
        <time>2014-05-14T07:22:49.000Z</time>
      </trkpt>
      <trkpt lat="42.11732" lon="9.13003">
        <ele>1182.5999755859</ele>
        <time>2014-05-14T07:22:52.000Z</time>
      </trkpt>
      <trkpt lat="42.11728" lon="9.13005">
        <ele>1184.5999755859</ele>
        <time>2014-05-14T07:22:55.000Z</time>
      </trkpt>
      <trkpt lat="42.11723" lon="9.13008">
        <ele>1186.1999511719</ele>
        <time>2014-05-14T07:22:59.000Z</time>
      </trkpt>
      <trkpt lat="42.11721" lon="9.13009">
        <ele>1186.8000488281</ele>
        <time>2014-05-14T07:23:00.000Z</time>
      </trkpt>
      <trkpt lat="42.11714" lon="9.13014">
        <ele>1188.1999511719</ele>
        <time>2014-05-14T07:23:06.000Z</time>
      </trkpt>
      <trkpt lat="42.11713" lon="9.13015">
        <ele>1188.1999511719</ele>
        <time>2014-05-14T07:23:07.000Z</time>
      </trkpt>
      <trkpt lat="42.11706" lon="9.13021">
        <ele>1189</ele>
        <time>2014-05-14T07:23:11.000Z</time>
      </trkpt>
      <trkpt lat="42.11697" lon="9.13028">
        <ele>1190.1999511719</ele>
        <time>2014-05-14T07:23:19.000Z</time>
      </trkpt>
      <trkpt lat="42.11689" lon="9.13034">
        <ele>1191.4000244141</ele>
        <time>2014-05-14T07:23:26.000Z</time>
      </trkpt>
      <trkpt lat="42.11688" lon="9.13034">
        <ele>1191.8000488281</ele>
        <time>2014-05-14T07:23:27.000Z</time>
      </trkpt>
      <trkpt lat="42.11685" lon="9.13037">
        <ele>1192.1999511719</ele>
        <time>2014-05-14T07:23:30.000Z</time>
      </trkpt>
      <trkpt lat="42.11679" lon="9.13043">
        <ele>1192.4000244141</ele>
        <time>2014-05-14T07:23:36.000Z</time>
      </trkpt>
      <trkpt lat="42.11678" lon="9.13046">
        <ele>1191.5999755859</ele>
        <time>2014-05-14T07:23:43.000Z</time>
      </trkpt>
      <trkpt lat="42.11676" lon="9.13047">
        <ele>1192</ele>
        <time>2014-05-14T07:23:51.000Z</time>
      </trkpt>
      <trkpt lat="42.11676" lon="9.13048">
        <ele>1191.5999755859</ele>
        <time>2014-05-14T07:24:08.000Z</time>
      </trkpt>
      <trkpt lat="42.11675" lon="9.13049">
        <ele>1191.4000244141</ele>
        <time>2014-05-14T07:24:25.000Z</time>
      </trkpt>
      <trkpt lat="42.11675" lon="9.1305">
        <ele>1191.1999511719</ele>
        <time>2014-05-14T07:24:30.000Z</time>
      </trkpt>
      <trkpt lat="42.11675" lon="9.1305">
        <ele>1191</ele>
        <time>2014-05-14T07:24:34.000Z</time>
      </trkpt>
      <trkpt lat="42.11675" lon="9.1305">
        <ele>1191</ele>
        <time>2014-05-14T07:24:43.000Z</time>
      </trkpt>
      <trkpt lat="42.11675" lon="9.13049">
        <ele>1191.5999755859</ele>
        <time>2014-05-14T07:24:48.000Z</time>
      </trkpt>
      <trkpt lat="42.11672" lon="9.13047">
        <ele>1193</ele>
        <time>2014-05-14T07:25:14.000Z</time>
      </trkpt>
      <trkpt lat="42.11668" lon="9.13047">
        <ele>1194.4000244141</ele>
        <time>2014-05-14T07:25:42.000Z</time>
      </trkpt>
      <trkpt lat="42.11665" lon="9.1305">
        <ele>1194.5999755859</ele>
        <time>2014-05-14T07:25:49.000Z</time>
      </trkpt>
      <trkpt lat="42.11667" lon="9.13049">
        <ele>1194.5999755859</ele>
        <time>2014-05-14T07:25:58.000Z</time>
      </trkpt>
      <trkpt lat="42.11667" lon="9.13048">
        <ele>1194.4000244141</ele>
        <time>2014-05-14T07:26:04.000Z</time>
      </trkpt>
      <trkpt lat="42.11663" lon="9.13055">
        <ele>1193.1999511719</ele>
        <time>2014-05-14T07:26:16.000Z</time>
      </trkpt>
      <trkpt lat="42.11658" lon="9.13064">
        <ele>1190.8000488281</ele>
        <time>2014-05-14T07:26:23.000Z</time>
      </trkpt>
      <trkpt lat="42.11654" lon="9.13073">
        <ele>1188.5999755859</ele>
        <time>2014-05-14T07:26:29.000Z</time>
      </trkpt>
      <trkpt lat="42.11649" lon="9.13083">
        <ele>1186.4000244141</ele>
        <time>2014-05-14T07:26:36.000Z</time>
      </trkpt>
      <trkpt lat="42.11643" lon="9.13089">
        <ele>1186</ele>
        <time>2014-05-14T07:26:43.000Z</time>
      </trkpt>
      <trkpt lat="42.11639" lon="9.13092">
        <ele>1186.1999511719</ele>
        <time>2014-05-14T07:26:49.000Z</time>
      </trkpt>
      <trkpt lat="42.11635" lon="9.13094">
        <ele>1187.4000244141</ele>
        <time>2014-05-14T07:26:54.000Z</time>
      </trkpt>
      <trkpt lat="42.11633" lon="9.13094">
        <ele>1187.5999755859</ele>
        <time>2014-05-14T07:26:55.000Z</time>
      </trkpt>
      <trkpt lat="42.1163" lon="9.13096">
        <ele>1188.4000244141</ele>
        <time>2014-05-14T07:26:58.000Z</time>
      </trkpt>
      <trkpt lat="42.1163" lon="9.13096">
        <ele>1188.5999755859</ele>
        <time>2014-05-14T07:26:59.000Z</time>
      </trkpt>
      <trkpt lat="42.11623" lon="9.13099">
        <ele>1190.4000244141</ele>
        <time>2014-05-14T07:27:04.000Z</time>
      </trkpt>
      <trkpt lat="42.11617" lon="9.13099">
        <ele>1192.8000488281</ele>
        <time>2014-05-14T07:27:09.000Z</time>
      </trkpt>
      <trkpt lat="42.11611" lon="9.13102">
        <ele>1194</ele>
        <time>2014-05-14T07:27:13.000Z</time>
      </trkpt>
      <trkpt lat="42.11608" lon="9.13103">
        <ele>1194.8000488281</ele>
        <time>2014-05-14T07:27:15.000Z</time>
      </trkpt>
      <trkpt lat="42.11604" lon="9.13105">
        <ele>1195.8000488281</ele>
        <time>2014-05-14T07:27:18.000Z</time>
      </trkpt>
      <trkpt lat="42.11601" lon="9.13106">
        <ele>1197</ele>
        <time>2014-05-14T07:27:20.000Z</time>
      </trkpt>
      <trkpt lat="42.11592" lon="9.13109">
        <ele>1199</ele>
        <time>2014-05-14T07:27:26.000Z</time>
      </trkpt>
      <trkpt lat="42.11591" lon="9.1311">
        <ele>1199.4000244141</ele>
        <time>2014-05-14T07:27:27.000Z</time>
      </trkpt>
      <trkpt lat="42.11582" lon="9.13113">
        <ele>1202.1999511719</ele>
        <time>2014-05-14T07:27:34.000Z</time>
      </trkpt>
      <trkpt lat="42.11576" lon="9.13115">
        <ele>1204</ele>
        <time>2014-05-14T07:27:39.000Z</time>
      </trkpt>
      <trkpt lat="42.11575" lon="9.13115">
        <ele>1204.4000244141</ele>
        <time>2014-05-14T07:27:40.000Z</time>
      </trkpt>
      <trkpt lat="42.11571" lon="9.13118">
        <ele>1205</ele>
        <time>2014-05-14T07:27:43.000Z</time>
      </trkpt>
      <trkpt lat="42.11568" lon="9.13119">
        <ele>1205.4000244141</ele>
        <time>2014-05-14T07:27:46.000Z</time>
      </trkpt>
      <trkpt lat="42.11567" lon="9.1312">
        <ele>1205.5999755859</ele>
        <time>2014-05-14T07:27:47.000Z</time>
      </trkpt>
      <trkpt lat="42.1156" lon="9.13127">
        <ele>1206.1999511719</ele>
        <time>2014-05-14T07:27:53.000Z</time>
      </trkpt>
      <trkpt lat="42.11555" lon="9.13135">
        <ele>1205.5999755859</ele>
        <time>2014-05-14T07:27:59.000Z</time>
      </trkpt>
      <trkpt lat="42.11552" lon="9.13149">
        <ele>1203</ele>
        <time>2014-05-14T07:28:07.000Z</time>
      </trkpt>
      <trkpt lat="42.11552" lon="9.13164">
        <ele>1198.5999755859</ele>
        <time>2014-05-14T07:28:16.000Z</time>
      </trkpt>
      <trkpt lat="42.11552" lon="9.13176">
        <ele>1195</ele>
        <time>2014-05-14T07:28:25.000Z</time>
      </trkpt>
      <trkpt lat="42.11551" lon="9.13185">
        <ele>1192.8000488281</ele>
        <time>2014-05-14T07:28:33.000Z</time>
      </trkpt>
      <trkpt lat="42.11547" lon="9.13193">
        <ele>1191.1999511719</ele>
        <time>2014-05-14T07:28:41.000Z</time>
      </trkpt>
      <trkpt lat="42.1154" lon="9.132">
        <ele>1192</ele>
        <time>2014-05-14T07:28:49.000Z</time>
      </trkpt>
      <trkpt lat="42.11537" lon="9.13203">
        <ele>1192.4000244141</ele>
        <time>2014-05-14T07:28:54.000Z</time>
      </trkpt>
      <trkpt lat="42.11535" lon="9.13203">
        <ele>1192.8000488281</ele>
        <time>2014-05-14T07:28:56.000Z</time>
      </trkpt>
      <trkpt lat="42.11534" lon="9.13202">
        <ele>1193.4000244141</ele>
        <time>2014-05-14T07:28:59.000Z</time>
      </trkpt>
      <trkpt lat="42.11533" lon="9.13204">
        <ele>1193.1999511719</ele>
        <time>2014-05-14T07:29:09.000Z</time>
      </trkpt>
      <trkpt lat="42.11533" lon="9.13205">
        <ele>1193.1999511719</ele>
        <time>2014-05-14T07:29:19.000Z</time>
      </trkpt>
      <trkpt lat="42.11529" lon="9.13207">
        <ele>1193.8000488281</ele>
        <time>2014-05-14T07:29:30.000Z</time>
      </trkpt>
      <trkpt lat="42.11527" lon="9.13208">
        <ele>1194.4000244141</ele>
        <time>2014-05-14T07:29:34.000Z</time>
      </trkpt>
      <trkpt lat="42.1152" lon="9.13213">
        <ele>1195.1999511719</ele>
        <time>2014-05-14T07:29:40.000Z</time>
      </trkpt>
      <trkpt lat="42.11518" lon="9.13216">
        <ele>1195.4000244141</ele>
        <time>2014-05-14T07:29:42.000Z</time>
      </trkpt>
      <trkpt lat="42.11515" lon="9.13218">
        <ele>1195.5999755859</ele>
        <time>2014-05-14T07:29:45.000Z</time>
      </trkpt>
      <trkpt lat="42.1151" lon="9.13224">
        <ele>1195.4000244141</ele>
        <time>2014-05-14T07:29:51.000Z</time>
      </trkpt>
      <trkpt lat="42.11505" lon="9.13229">
        <ele>1195</ele>
        <time>2014-05-14T07:29:56.000Z</time>
      </trkpt>
      <trkpt lat="42.11504" lon="9.13232">
        <ele>1194.5999755859</ele>
        <time>2014-05-14T07:29:58.000Z</time>
      </trkpt>
      <trkpt lat="42.11503" lon="9.13232">
        <ele>1194.5999755859</ele>
        <time>2014-05-14T07:30:00.000Z</time>
      </trkpt>
      <trkpt lat="42.11504" lon="9.13233">
        <ele>1194.1999511719</ele>
        <time>2014-05-14T07:30:03.000Z</time>
      </trkpt>
      <trkpt lat="42.11503" lon="9.13233">
        <ele>1194.4000244141</ele>
        <time>2014-05-14T07:30:18.000Z</time>
      </trkpt>
      <trkpt lat="42.11499" lon="9.13236">
        <ele>1194.5999755859</ele>
        <time>2014-05-14T07:30:42.000Z</time>
      </trkpt>
      <trkpt lat="42.11491" lon="9.13242">
        <ele>1195.1999511719</ele>
        <time>2014-05-14T07:30:49.000Z</time>
      </trkpt>
      <trkpt lat="42.11487" lon="9.13245">
        <ele>1196.1999511719</ele>
        <time>2014-05-14T07:30:53.000Z</time>
      </trkpt>
      <trkpt lat="42.11484" lon="9.13246">
        <ele>1197</ele>
        <time>2014-05-14T07:30:55.000Z</time>
      </trkpt>
      <trkpt lat="42.11474" lon="9.13254">
        <ele>1199.5999755859</ele>
        <time>2014-05-14T07:31:03.000Z</time>
      </trkpt>
      <trkpt lat="42.11469" lon="9.13261">
        <ele>1198.4000244141</ele>
        <time>2014-05-14T07:31:09.000Z</time>
      </trkpt>
      <trkpt lat="42.11469" lon="9.13263">
        <ele>1197.8000488281</ele>
        <time>2014-05-14T07:31:10.000Z</time>
      </trkpt>
      <trkpt lat="42.11468" lon="9.13263">
        <ele>1198</ele>
        <time>2014-05-14T07:31:14.000Z</time>
      </trkpt>
      <trkpt lat="42.11467" lon="9.13265">
        <ele>1197.1999511719</ele>
        <time>2014-05-14T07:31:25.000Z</time>
      </trkpt>
      <trkpt lat="42.11467" lon="9.1327">
        <ele>1195.4000244141</ele>
        <time>2014-05-14T07:31:47.000Z</time>
      </trkpt>
      <trkpt lat="42.11465" lon="9.13273">
        <ele>1194.5999755859</ele>
        <time>2014-05-14T07:31:51.000Z</time>
      </trkpt>
      <trkpt lat="42.11464" lon="9.13274">
        <ele>1194.1999511719</ele>
        <time>2014-05-14T07:31:52.000Z</time>
      </trkpt>
      <trkpt lat="42.11462" lon="9.13279">
        <ele>1193.1999511719</ele>
        <time>2014-05-14T07:31:57.000Z</time>
      </trkpt>
      <trkpt lat="42.1146" lon="9.13282">
        <ele>1193.1999511719</ele>
        <time>2014-05-14T07:32:02.000Z</time>
      </trkpt>
      <trkpt lat="42.11461" lon="9.13281">
        <ele>1193.1999511719</ele>
        <time>2014-05-14T07:32:09.000Z</time>
      </trkpt>
      <trkpt lat="42.11462" lon="9.13281">
        <ele>1192.5999755859</ele>
        <time>2014-05-14T07:32:13.000Z</time>
      </trkpt>
      <trkpt lat="42.11462" lon="9.13282">
        <ele>1192.8000488281</ele>
        <time>2014-05-14T07:32:18.000Z</time>
      </trkpt>
      <trkpt lat="42.11464" lon="9.13279">
        <ele>1192.5999755859</ele>
        <time>2014-05-14T07:32:23.000Z</time>
      </trkpt>
      <trkpt lat="42.11464" lon="9.13276">
        <ele>1193.8000488281</ele>
        <time>2014-05-14T07:32:39.000Z</time>
      </trkpt>
      <trkpt lat="42.11466" lon="9.13275">
        <ele>1193.5999755859</ele>
        <time>2014-05-14T07:32:41.000Z</time>
      </trkpt>
      <trkpt lat="42.11464" lon="9.13276">
        <ele>1193.5999755859</ele>
        <time>2014-05-14T07:32:44.000Z</time>
      </trkpt>
      <trkpt lat="42.11463" lon="9.13278">
        <ele>1193.4000244141</ele>
        <time>2014-05-14T07:32:54.000Z</time>
      </trkpt>
      <trkpt lat="42.11461" lon="9.13281">
        <ele>1193.1999511719</ele>
        <time>2014-05-14T07:32:57.000Z</time>
      </trkpt>
      <trkpt lat="42.11457" lon="9.13284">
        <ele>1193.4000244141</ele>
        <time>2014-05-14T07:33:03.000Z</time>
      </trkpt>
      <trkpt lat="42.11463" lon="9.1328">
        <ele>1193</ele>
        <time>2014-05-14T07:33:12.000Z</time>
      </trkpt>
      <trkpt lat="42.11465" lon="9.13277">
        <ele>1192.8000488281</ele>
        <time>2014-05-14T07:33:15.000Z</time>
      </trkpt>
      <trkpt lat="42.11464" lon="9.13277">
        <ele>1193</ele>
        <time>2014-05-14T07:33:17.000Z</time>
      </trkpt>
      <trkpt lat="42.11461" lon="9.13284">
        <ele>1192.4000244141</ele>
        <time>2014-05-14T07:33:39.000Z</time>
      </trkpt>
      <trkpt lat="42.1146" lon="9.13284">
        <ele>1192.8000488281</ele>
        <time>2014-05-14T07:33:49.000Z</time>
      </trkpt>
      <trkpt lat="42.11457" lon="9.13287">
        <ele>1192.8000488281</ele>
        <time>2014-05-14T07:33:51.000Z</time>
      </trkpt>
      <trkpt lat="42.11457" lon="9.13287">
        <ele>1192.8000488281</ele>
        <time>2014-05-14T07:33:53.000Z</time>
      </trkpt>
      <trkpt lat="42.11451" lon="9.13287">
        <ele>1194.5999755859</ele>
        <time>2014-05-14T07:34:43.000Z</time>
      </trkpt>
      <trkpt lat="42.11446" lon="9.13288">
        <ele>1195.8000488281</ele>
        <time>2014-05-14T07:34:49.000Z</time>
      </trkpt>
      <trkpt lat="42.11443" lon="9.13288">
        <ele>1196.5999755859</ele>
        <time>2014-05-14T07:34:54.000Z</time>
      </trkpt>
      <trkpt lat="42.11439" lon="9.13293">
        <ele>1196.5999755859</ele>
        <time>2014-05-14T07:35:00.000Z</time>
      </trkpt>
      <trkpt lat="42.11438" lon="9.13296">
        <ele>1196</ele>
        <time>2014-05-14T07:35:02.000Z</time>
      </trkpt>
      <trkpt lat="42.11438" lon="9.13301">
        <ele>1195</ele>
        <time>2014-05-14T07:35:06.000Z</time>
      </trkpt>
      <trkpt lat="42.11438" lon="9.13303">
        <ele>1194.5999755859</ele>
        <time>2014-05-14T07:35:07.000Z</time>
      </trkpt>
      <trkpt lat="42.11439" lon="9.13308">
        <ele>1193.1999511719</ele>
        <time>2014-05-14T07:35:11.000Z</time>
      </trkpt>
      <trkpt lat="42.11438" lon="9.13316">
        <ele>1191.5999755859</ele>
        <time>2014-05-14T07:35:16.000Z</time>
      </trkpt>
      <trkpt lat="42.11438" lon="9.13323">
        <ele>1190</ele>
        <time>2014-05-14T07:35:21.000Z</time>
      </trkpt>
      <trkpt lat="42.11438" lon="9.13327">
        <ele>1189.1999511719</ele>
        <time>2014-05-14T07:35:23.000Z</time>
      </trkpt>
      <trkpt lat="42.11437" lon="9.13328">
        <ele>1189</ele>
        <time>2014-05-14T07:35:24.000Z</time>
      </trkpt>
      <trkpt lat="42.11434" lon="9.13336">
        <ele>1188</ele>
        <time>2014-05-14T07:35:29.000Z</time>
      </trkpt>
      <trkpt lat="42.11432" lon="9.13341">
        <ele>1187.5999755859</ele>
        <time>2014-05-14T07:35:32.000Z</time>
      </trkpt>
      <trkpt lat="42.11429" lon="9.13344">
        <ele>1187.5999755859</ele>
        <time>2014-05-14T07:35:35.000Z</time>
      </trkpt>
      <trkpt lat="42.11423" lon="9.13352">
        <ele>1187.4000244141</ele>
        <time>2014-05-14T07:35:42.000Z</time>
      </trkpt>
      <trkpt lat="42.11419" lon="9.13361">
        <ele>1186.4000244141</ele>
        <time>2014-05-14T07:35:48.000Z</time>
      </trkpt>
      <trkpt lat="42.11418" lon="9.13368">
        <ele>1184.8000488281</ele>
        <time>2014-05-14T07:35:52.000Z</time>
      </trkpt>
      <trkpt lat="42.11417" lon="9.13373">
        <ele>1184.1999511719</ele>
        <time>2014-05-14T07:35:55.000Z</time>
      </trkpt>
      <trkpt lat="42.11412" lon="9.13389">
        <ele>1182.5999755859</ele>
        <time>2014-05-14T07:36:05.000Z</time>
      </trkpt>
      <trkpt lat="42.11407" lon="9.13398">
        <ele>1182.5999755859</ele>
        <time>2014-05-14T07:36:12.000Z</time>
      </trkpt>
      <trkpt lat="42.11402" lon="9.13404">
        <ele>1183.4000244141</ele>
        <time>2014-05-14T07:36:17.000Z</time>
      </trkpt>
      <trkpt lat="42.11395" lon="9.1341">
        <ele>1185</ele>
        <time>2014-05-14T07:36:24.000Z</time>
      </trkpt>
      <trkpt lat="42.11393" lon="9.13413">
        <ele>1185.1999511719</ele>
        <time>2014-05-14T07:36:27.000Z</time>
      </trkpt>
      <trkpt lat="42.1139" lon="9.13417">
        <ele>1185.8000488281</ele>
        <time>2014-05-14T07:36:30.000Z</time>
      </trkpt>
      <trkpt lat="42.11389" lon="9.13419">
        <ele>1185.5999755859</ele>
        <time>2014-05-14T07:36:33.000Z</time>
      </trkpt>
      <trkpt lat="42.11389" lon="9.1342">
        <ele>1185.5999755859</ele>
        <time>2014-05-14T07:36:35.000Z</time>
      </trkpt>
      <trkpt lat="42.1139" lon="9.13418">
        <ele>1185.5999755859</ele>
        <time>2014-05-14T07:36:43.000Z</time>
      </trkpt>
      <trkpt lat="42.11389" lon="9.13421">
        <ele>1185.4000244141</ele>
        <time>2014-05-14T07:36:54.000Z</time>
      </trkpt>
      <trkpt lat="42.11385" lon="9.13425">
        <ele>1186.1999511719</ele>
        <time>2014-05-14T07:37:01.000Z</time>
      </trkpt>
      <trkpt lat="42.11381" lon="9.13427">
        <ele>1187.1999511719</ele>
        <time>2014-05-14T07:37:05.000Z</time>
      </trkpt>
      <trkpt lat="42.11378" lon="9.13429">
        <ele>1187.5999755859</ele>
        <time>2014-05-14T07:37:07.000Z</time>
      </trkpt>
      <trkpt lat="42.11373" lon="9.13434">
        <ele>1188.5999755859</ele>
        <time>2014-05-14T07:37:12.000Z</time>
      </trkpt>
      <trkpt lat="42.1137" lon="9.13437">
        <ele>1189</ele>
        <time>2014-05-14T07:37:15.000Z</time>
      </trkpt>
      <trkpt lat="42.11367" lon="9.13439">
        <ele>1189.5999755859</ele>
        <time>2014-05-14T07:37:18.000Z</time>
      </trkpt>
      <trkpt lat="42.1136" lon="9.13448">
        <ele>1190.4000244141</ele>
        <time>2014-05-14T07:37:25.000Z</time>
      </trkpt>
      <trkpt lat="42.11349" lon="9.13456">
        <ele>1192.8000488281</ele>
        <time>2014-05-14T07:37:33.000Z</time>
      </trkpt>
      <trkpt lat="42.11341" lon="9.13462">
        <ele>1194</ele>
        <time>2014-05-14T07:37:38.000Z</time>
      </trkpt>
      <trkpt lat="42.11333" lon="9.1347">
        <ele>1193.1999511719</ele>
        <time>2014-05-14T07:37:45.000Z</time>
      </trkpt>
      <trkpt lat="42.1133" lon="9.1348">
        <ele>1190.4000244141</ele>
        <time>2014-05-14T07:37:51.000Z</time>
      </trkpt>
      <trkpt lat="42.1133" lon="9.13492">
        <ele>1186.1999511719</ele>
        <time>2014-05-14T07:37:58.000Z</time>
      </trkpt>
      <trkpt lat="42.11331" lon="9.13499">
        <ele>1183.5999755859</ele>
        <time>2014-05-14T07:38:03.000Z</time>
      </trkpt>
      <trkpt lat="42.1133" lon="9.13499">
        <ele>1183.8000488281</ele>
        <time>2014-05-14T07:38:04.000Z</time>
      </trkpt>
      <trkpt lat="42.11328" lon="9.13506">
        <ele>1182.1999511719</ele>
        <time>2014-05-14T07:38:09.000Z</time>
      </trkpt>
      <trkpt lat="42.11326" lon="9.13511">
        <ele>1181</ele>
        <time>2014-05-14T07:38:14.000Z</time>
      </trkpt>
      <trkpt lat="42.11326" lon="9.13511">
        <ele>1180.8000488281</ele>
        <time>2014-05-14T07:38:15.000Z</time>
      </trkpt>
      <trkpt lat="42.11324" lon="9.13513">
        <ele>1180.5999755859</ele>
        <time>2014-05-14T07:38:17.000Z</time>
      </trkpt>
      <trkpt lat="42.11323" lon="9.13515">
        <ele>1180.5999755859</ele>
        <time>2014-05-14T07:38:18.000Z</time>
      </trkpt>
      <trkpt lat="42.1132" lon="9.13518">
        <ele>1180.4000244141</ele>
        <time>2014-05-14T07:38:22.000Z</time>
      </trkpt>
      <trkpt lat="42.11315" lon="9.13521">
        <ele>1180.4000244141</ele>
        <time>2014-05-14T07:38:25.000Z</time>
      </trkpt>
      <trkpt lat="42.1131" lon="9.13527">
        <ele>1179.5999755859</ele>
        <time>2014-05-14T07:38:31.000Z</time>
      </trkpt>
      <trkpt lat="42.1131" lon="9.13528">
        <ele>1179.5999755859</ele>
        <time>2014-05-14T07:38:32.000Z</time>
      </trkpt>
      <trkpt lat="42.11305" lon="9.13533">
        <ele>1180</ele>
        <time>2014-05-14T07:38:36.000Z</time>
      </trkpt>
      <trkpt lat="42.11304" lon="9.13533">
        <ele>1180.1999511719</ele>
        <time>2014-05-14T07:38:37.000Z</time>
      </trkpt>
      <trkpt lat="42.113" lon="9.13537">
        <ele>1180.8000488281</ele>
        <time>2014-05-14T07:38:42.000Z</time>
      </trkpt>
      <trkpt lat="42.11299" lon="9.13539">
        <ele>1180.8000488281</ele>
        <time>2014-05-14T07:38:44.000Z</time>
      </trkpt>
      <trkpt lat="42.11295" lon="9.13542">
        <ele>1181.4000244141</ele>
        <time>2014-05-14T07:38:47.000Z</time>
      </trkpt>
      <trkpt lat="42.11289" lon="9.13549">
        <ele>1181.8000488281</ele>
        <time>2014-05-14T07:38:52.000Z</time>
      </trkpt>
      <trkpt lat="42.11287" lon="9.13552">
        <ele>1181.8000488281</ele>
        <time>2014-05-14T07:38:55.000Z</time>
      </trkpt>
      <trkpt lat="42.11286" lon="9.13553">
        <ele>1181.8000488281</ele>
        <time>2014-05-14T07:38:56.000Z</time>
      </trkpt>
      <trkpt lat="42.11282" lon="9.13561">
        <ele>1181.8000488281</ele>
        <time>2014-05-14T07:39:01.000Z</time>
      </trkpt>
      <trkpt lat="42.11281" lon="9.13562">
        <ele>1181.8000488281</ele>
        <time>2014-05-14T07:39:02.000Z</time>
      </trkpt>
      <trkpt lat="42.11278" lon="9.13567">
        <ele>1181.4000244141</ele>
        <time>2014-05-14T07:39:06.000Z</time>
      </trkpt>
      <trkpt lat="42.11275" lon="9.13572">
        <ele>1180.5999755859</ele>
        <time>2014-05-14T07:39:10.000Z</time>
      </trkpt>
      <trkpt lat="42.11275" lon="9.13574">
        <ele>1180</ele>
        <time>2014-05-14T07:39:11.000Z</time>
      </trkpt>
      <trkpt lat="42.11272" lon="9.13579">
        <ele>1179.1999511719</ele>
        <time>2014-05-14T07:39:15.000Z</time>
      </trkpt>
      <trkpt lat="42.1127" lon="9.13583">
        <ele>1178.4000244141</ele>
        <time>2014-05-14T07:39:18.000Z</time>
      </trkpt>
      <trkpt lat="42.11268" lon="9.13586">
        <ele>1178</ele>
        <time>2014-05-14T07:39:20.000Z</time>
      </trkpt>
      <trkpt lat="42.11267" lon="9.13588">
        <ele>1177.8000488281</ele>
        <time>2014-05-14T07:39:21.000Z</time>
      </trkpt>
      <trkpt lat="42.11266" lon="9.13593">
        <ele>1176.8000488281</ele>
        <time>2014-05-14T07:39:25.000Z</time>
      </trkpt>
      <trkpt lat="42.11263" lon="9.13605">
        <ele>1174</ele>
        <time>2014-05-14T07:39:31.000Z</time>
      </trkpt>
      <trkpt lat="42.11263" lon="9.13608">
        <ele>1173.1999511719</ele>
        <time>2014-05-14T07:39:33.000Z</time>
      </trkpt>
      <trkpt lat="42.11261" lon="9.13613">
        <ele>1173</ele>
        <time>2014-05-14T07:39:36.000Z</time>
      </trkpt>
      <trkpt lat="42.1126" lon="9.13618">
        <ele>1173.5999755859</ele>
        <time>2014-05-14T07:39:39.000Z</time>
      </trkpt>
      <trkpt lat="42.11258" lon="9.13622">
        <ele>1174.1999511719</ele>
        <time>2014-05-14T07:39:41.000Z</time>
      </trkpt>
      <trkpt lat="42.11257" lon="9.13625">
        <ele>1174.5999755859</ele>
        <time>2014-05-14T07:39:43.000Z</time>
      </trkpt>
      <trkpt lat="42.11254" lon="9.13636">
        <ele>1175.1999511719</ele>
        <time>2014-05-14T07:39:49.000Z</time>
      </trkpt>
      <trkpt lat="42.11253" lon="9.13644">
        <ele>1175.5999755859</ele>
        <time>2014-05-14T07:39:53.000Z</time>
      </trkpt>
      <trkpt lat="42.11252" lon="9.13647">
        <ele>1175.8000488281</ele>
        <time>2014-05-14T07:39:55.000Z</time>
      </trkpt>
      <trkpt lat="42.11252" lon="9.13648">
        <ele>1175.8000488281</ele>
        <time>2014-05-14T07:39:56.000Z</time>
      </trkpt>
      <trkpt lat="42.11252" lon="9.13652">
        <ele>1176</ele>
        <time>2014-05-14T07:39:59.000Z</time>
      </trkpt>
      <trkpt lat="42.11251" lon="9.13655">
        <ele>1176.1999511719</ele>
        <time>2014-05-14T07:40:01.000Z</time>
      </trkpt>
      <trkpt lat="42.11251" lon="9.13656">
        <ele>1176.1999511719</ele>
        <time>2014-05-14T07:40:02.000Z</time>
      </trkpt>
      <trkpt lat="42.11251" lon="9.13661">
        <ele>1176.1999511719</ele>
        <time>2014-05-14T07:40:07.000Z</time>
      </trkpt>
      <trkpt lat="42.11251" lon="9.13662">
        <ele>1176.1999511719</ele>
        <time>2014-05-14T07:40:08.000Z</time>
      </trkpt>
      <trkpt lat="42.11251" lon="9.13665">
        <ele>1176.4000244141</ele>
        <time>2014-05-14T07:40:14.000Z</time>
      </trkpt>
      <trkpt lat="42.11245" lon="9.13667">
        <ele>1177.1999511719</ele>
        <time>2014-05-14T07:40:34.000Z</time>
      </trkpt>
      <trkpt lat="42.11246" lon="9.13671">
        <ele>1177</ele>
        <time>2014-05-14T07:40:57.000Z</time>
      </trkpt>
      <trkpt lat="42.11248" lon="9.1367">
        <ele>1176.8000488281</ele>
        <time>2014-05-14T07:41:20.000Z</time>
      </trkpt>
      <trkpt lat="42.11247" lon="9.13666">
        <ele>1177</ele>
        <time>2014-05-14T07:41:26.000Z</time>
      </trkpt>
      <trkpt lat="42.11244" lon="9.13665">
        <ele>1177.4000244141</ele>
        <time>2014-05-14T07:41:30.000Z</time>
      </trkpt>
      <trkpt lat="42.11242" lon="9.13664">
        <ele>1177.8000488281</ele>
        <time>2014-05-14T07:41:34.000Z</time>
      </trkpt>
      <trkpt lat="42.11241" lon="9.13663">
        <ele>1178</ele>
        <time>2014-05-14T07:41:35.000Z</time>
      </trkpt>
      <trkpt lat="42.1124" lon="9.13663">
        <ele>1178.4000244141</ele>
        <time>2014-05-14T07:41:39.000Z</time>
      </trkpt>
      <trkpt lat="42.11241" lon="9.13665">
        <ele>1178</ele>
        <time>2014-05-14T07:41:48.000Z</time>
      </trkpt>
      <trkpt lat="42.11233" lon="9.13671">
        <ele>1180.1999511719</ele>
        <time>2014-05-14T07:42:05.000Z</time>
      </trkpt>
      <trkpt lat="42.11231" lon="9.13672">
        <ele>1180.8000488281</ele>
        <time>2014-05-14T07:42:11.000Z</time>
      </trkpt>
      <trkpt lat="42.11226" lon="9.13668">
        <ele>1182</ele>
        <time>2014-05-14T07:43:37.000Z</time>
      </trkpt>
      <trkpt lat="42.11226" lon="9.13666">
        <ele>1182</ele>
        <time>2014-05-14T07:43:53.000Z</time>
      </trkpt>
      <trkpt lat="42.11224" lon="9.13664">
        <ele>1182.4000244141</ele>
        <time>2014-05-14T07:43:59.000Z</time>
      </trkpt>
      <trkpt lat="42.11222" lon="9.13663">
        <ele>1182.8000488281</ele>
        <time>2014-05-14T07:44:03.000Z</time>
      </trkpt>
      <trkpt lat="42.11219" lon="9.13665">
        <ele>1183.8000488281</ele>
        <time>2014-05-14T07:44:15.000Z</time>
      </trkpt>
      <trkpt lat="42.11218" lon="9.13664">
        <ele>1184</ele>
        <time>2014-05-14T07:44:22.000Z</time>
      </trkpt>
      <trkpt lat="42.11222" lon="9.13663">
        <ele>1183</ele>
        <time>2014-05-14T07:44:27.000Z</time>
      </trkpt>
      <trkpt lat="42.11224" lon="9.13665">
        <ele>1182.4000244141</ele>
        <time>2014-05-14T07:44:33.000Z</time>
      </trkpt>
      <trkpt lat="42.11226" lon="9.13668">
        <ele>1182</ele>
        <time>2014-05-14T07:44:39.000Z</time>
      </trkpt>
      <trkpt lat="42.11228" lon="9.13668">
        <ele>1181.5999755859</ele>
        <time>2014-05-14T07:44:46.000Z</time>
      </trkpt>
      <trkpt lat="42.1123" lon="9.13668">
        <ele>1181</ele>
        <time>2014-05-14T07:44:47.000Z</time>
      </trkpt>
      <trkpt lat="42.11232" lon="9.13667">
        <ele>1180.4000244141</ele>
        <time>2014-05-14T07:44:50.000Z</time>
      </trkpt>
      <trkpt lat="42.11233" lon="9.13666">
        <ele>1180.1999511719</ele>
        <time>2014-05-14T07:44:52.000Z</time>
      </trkpt>
      <trkpt lat="42.11235" lon="9.13661">
        <ele>1179.5999755859</ele>
        <time>2014-05-14T07:44:56.000Z</time>
      </trkpt>
      <trkpt lat="42.11239" lon="9.13663">
        <ele>1178.5999755859</ele>
        <time>2014-05-14T07:45:01.000Z</time>
      </trkpt>
      <trkpt lat="42.1124" lon="9.13664">
        <ele>1178.1999511719</ele>
        <time>2014-05-14T07:45:02.000Z</time>
      </trkpt>
      <trkpt lat="42.11244" lon="9.13668">
        <ele>1177.4000244141</ele>
        <time>2014-05-14T07:45:05.000Z</time>
      </trkpt>
      <trkpt lat="42.11245" lon="9.13673">
        <ele>1177.4000244141</ele>
        <time>2014-05-14T07:45:10.000Z</time>
      </trkpt>
      <trkpt lat="42.11245" lon="9.13674">
        <ele>1177.4000244141</ele>
        <time>2014-05-14T07:45:11.000Z</time>
      </trkpt>
      <trkpt lat="42.11245" lon="9.13674">
        <ele>1177.4000244141</ele>
        <time>2014-05-14T07:45:12.000Z</time>
      </trkpt>
      <trkpt lat="42.11245" lon="9.13675">
        <ele>1177.4000244141</ele>
        <time>2014-05-14T07:45:15.000Z</time>
      </trkpt>
      <trkpt lat="42.11245" lon="9.13678">
        <ele>1177.4000244141</ele>
        <time>2014-05-14T07:45:21.000Z</time>
      </trkpt>
      <trkpt lat="42.11245" lon="9.13681">
        <ele>1177.4000244141</ele>
        <time>2014-05-14T07:45:27.000Z</time>
      </trkpt>
      <trkpt lat="42.11245" lon="9.13682">
        <ele>1177.4000244141</ele>
        <time>2014-05-14T07:45:28.000Z</time>
      </trkpt>
      <trkpt lat="42.11244" lon="9.13685">
        <ele>1177.5999755859</ele>
        <time>2014-05-14T07:45:30.000Z</time>
      </trkpt>
      <trkpt lat="42.11245" lon="9.13688">
        <ele>1177.5999755859</ele>
        <time>2014-05-14T07:45:33.000Z</time>
      </trkpt>
      <trkpt lat="42.11247" lon="9.13689">
        <ele>1177.4000244141</ele>
        <time>2014-05-14T07:45:35.000Z</time>
      </trkpt>
      <trkpt lat="42.11249" lon="9.13691">
        <ele>1177.1999511719</ele>
        <time>2014-05-14T07:45:37.000Z</time>
      </trkpt>
      <trkpt lat="42.1125" lon="9.13691">
        <ele>1177.1999511719</ele>
        <time>2014-05-14T07:45:39.000Z</time>
      </trkpt>
      <trkpt lat="42.11255" lon="9.13693">
        <ele>1176.5999755859</ele>
        <time>2014-05-14T07:45:47.000Z</time>
      </trkpt>
      <trkpt lat="42.11259" lon="9.13697">
        <ele>1176.5999755859</ele>
        <time>2014-05-14T07:45:54.000Z</time>
      </trkpt>
      <trkpt lat="42.11265" lon="9.13697">
        <ele>1175.8000488281</ele>
        <time>2014-05-14T07:46:00.000Z</time>
      </trkpt>
      <trkpt lat="42.11268" lon="9.13697">
        <ele>1175.4000244141</ele>
        <time>2014-05-14T07:46:03.000Z</time>
      </trkpt>
      <trkpt lat="42.11267" lon="9.13696">
        <ele>1175.1999511719</ele>
        <time>2014-05-14T07:46:05.000Z</time>
      </trkpt>
      <trkpt lat="42.11267" lon="9.13696">
        <ele>1175.4000244141</ele>
        <time>2014-05-14T07:46:19.000Z</time>
      </trkpt>
      <trkpt lat="42.11273" lon="9.13695">
        <ele>1174.4000244141</ele>
        <time>2014-05-14T07:46:27.000Z</time>
      </trkpt>
      <trkpt lat="42.1128" lon="9.13695">
        <ele>1173.4000244141</ele>
        <time>2014-05-14T07:46:32.000Z</time>
      </trkpt>
      <trkpt lat="42.11281" lon="9.13695">
        <ele>1173.1999511719</ele>
        <time>2014-05-14T07:46:33.000Z</time>
      </trkpt>
      <trkpt lat="42.11287" lon="9.13694">
        <ele>1172.4000244141</ele>
        <time>2014-05-14T07:46:38.000Z</time>
      </trkpt>
      <trkpt lat="42.11295" lon="9.13693">
        <ele>1171.1999511719</ele>
        <time>2014-05-14T07:46:45.000Z</time>
      </trkpt>
      <trkpt lat="42.11304" lon="9.13693">
        <ele>1170</ele>
        <time>2014-05-14T07:46:52.000Z</time>
      </trkpt>
      <trkpt lat="42.11311" lon="9.13694">
        <ele>1169.1999511719</ele>
        <time>2014-05-14T07:46:58.000Z</time>
      </trkpt>
      <trkpt lat="42.11318" lon="9.13693">
        <ele>1168.1999511719</ele>
        <time>2014-05-14T07:47:04.000Z</time>
      </trkpt>
      <trkpt lat="42.11326" lon="9.1369">
        <ele>1166.8000488281</ele>
        <time>2014-05-14T07:47:11.000Z</time>
      </trkpt>
      <trkpt lat="42.11334" lon="9.13685">
        <ele>1166.5999755859</ele>
        <time>2014-05-14T07:47:18.000Z</time>
      </trkpt>
      <trkpt lat="42.11339" lon="9.13682">
        <ele>1166.4000244141</ele>
        <time>2014-05-14T07:47:22.000Z</time>
      </trkpt>
      <trkpt lat="42.11342" lon="9.1368">
        <ele>1166.4000244141</ele>
        <time>2014-05-14T07:47:25.000Z</time>
      </trkpt>
      <trkpt lat="42.11347" lon="9.13677">
        <ele>1166.1999511719</ele>
        <time>2014-05-14T07:47:29.000Z</time>
      </trkpt>
      <trkpt lat="42.11347" lon="9.13679">
        <ele>1166.4000244141</ele>
        <time>2014-05-14T07:47:34.000Z</time>
      </trkpt>
      <trkpt lat="42.11347" lon="9.13679">
        <ele>1166.4000244141</ele>
        <time>2014-05-14T07:47:42.000Z</time>
      </trkpt>
      <trkpt lat="42.1135" lon="9.13677">
        <ele>1166.1999511719</ele>
        <time>2014-05-14T07:47:54.000Z</time>
      </trkpt>
      <trkpt lat="42.11351" lon="9.13674">
        <ele>1166.1999511719</ele>
        <time>2014-05-14T07:47:56.000Z</time>
      </trkpt>
      <trkpt lat="42.11354" lon="9.1367">
        <ele>1166</ele>
        <time>2014-05-14T07:47:59.000Z</time>
      </trkpt>
      <trkpt lat="42.11361" lon="9.13668">
        <ele>1166</ele>
        <time>2014-05-14T07:48:04.000Z</time>
      </trkpt>
      <trkpt lat="42.11363" lon="9.13667">
        <ele>1166</ele>
        <time>2014-05-14T07:48:06.000Z</time>
      </trkpt>
      <trkpt lat="42.11372" lon="9.1367">
        <ele>1166.4000244141</ele>
        <time>2014-05-14T07:48:12.000Z</time>
      </trkpt>
      <trkpt lat="42.11378" lon="9.13672">
        <ele>1166.5999755859</ele>
        <time>2014-05-14T07:48:16.000Z</time>
      </trkpt>
      <trkpt lat="42.11378" lon="9.13672">
        <ele>1166.5999755859</ele>
        <time>2014-05-14T07:48:17.000Z</time>
      </trkpt>
      <trkpt lat="42.11382" lon="9.13672">
        <ele>1166.8000488281</ele>
        <time>2014-05-14T07:48:20.000Z</time>
      </trkpt>
      <trkpt lat="42.11389" lon="9.13674">
        <ele>1167</ele>
        <time>2014-05-14T07:48:26.000Z</time>
      </trkpt>
      <trkpt lat="42.11395" lon="9.13674">
        <ele>1166.8000488281</ele>
        <time>2014-05-14T07:48:32.000Z</time>
      </trkpt>
      <trkpt lat="42.11403" lon="9.13676">
        <ele>1166.4000244141</ele>
        <time>2014-05-14T07:48:38.000Z</time>
      </trkpt>
      <trkpt lat="42.11406" lon="9.13677">
        <ele>1166.4000244141</ele>
        <time>2014-05-14T07:48:41.000Z</time>
      </trkpt>
      <trkpt lat="42.1141" lon="9.13677">
        <ele>1166.1999511719</ele>
        <time>2014-05-14T07:48:44.000Z</time>
      </trkpt>
      <trkpt lat="42.11418" lon="9.13682">
        <ele>1165.5999755859</ele>
        <time>2014-05-14T07:48:50.000Z</time>
      </trkpt>
      <trkpt lat="42.11423" lon="9.13684">
        <ele>1165</ele>
        <time>2014-05-14T07:48:57.000Z</time>
      </trkpt>
      <trkpt lat="42.11428" lon="9.13689">
        <ele>1164.8000488281</ele>
        <time>2014-05-14T07:49:19.000Z</time>
      </trkpt>
      <trkpt lat="42.11431" lon="9.13692">
        <ele>1165</ele>
        <time>2014-05-14T07:49:22.000Z</time>
      </trkpt>
      <trkpt lat="42.11432" lon="9.13696">
        <ele>1165.4000244141</ele>
        <time>2014-05-14T07:49:26.000Z</time>
      </trkpt>
      <trkpt lat="42.11431" lon="9.13697">
        <ele>1165.8000488281</ele>
        <time>2014-05-14T07:49:28.000Z</time>
      </trkpt>
      <trkpt lat="42.11431" lon="9.13698">
        <ele>1166</ele>
        <time>2014-05-14T07:49:33.000Z</time>
      </trkpt>
      <trkpt lat="42.11427" lon="9.13697">
        <ele>1166.4000244141</ele>
        <time>2014-05-14T07:49:41.000Z</time>
      </trkpt>
      <trkpt lat="42.11424" lon="9.13696">
        <ele>1167</ele>
        <time>2014-05-14T07:49:46.000Z</time>
      </trkpt>
      <trkpt lat="42.11419" lon="9.13695">
        <ele>1167.5999755859</ele>
        <time>2014-05-14T07:49:52.000Z</time>
      </trkpt>
      <trkpt lat="42.11415" lon="9.13697">
        <ele>1168.5999755859</ele>
        <time>2014-05-14T07:49:58.000Z</time>
      </trkpt>
      <trkpt lat="42.11411" lon="9.137">
        <ele>1170.1999511719</ele>
        <time>2014-05-14T07:50:03.000Z</time>
      </trkpt>
      <trkpt lat="42.11409" lon="9.13701">
        <ele>1170.5999755859</ele>
        <time>2014-05-14T07:50:05.000Z</time>
      </trkpt>
      <trkpt lat="42.11407" lon="9.13702">
        <ele>1170.5999755859</ele>
        <time>2014-05-14T07:50:07.000Z</time>
      </trkpt>
      <trkpt lat="42.11404" lon="9.13705">
        <ele>1171.1999511719</ele>
        <time>2014-05-14T07:50:12.000Z</time>
      </trkpt>
      <trkpt lat="42.11403" lon="9.13706">
        <ele>1171.4000244141</ele>
        <time>2014-05-14T07:50:13.000Z</time>
      </trkpt>
      <trkpt lat="42.11401" lon="9.13708">
        <ele>1171.8000488281</ele>
        <time>2014-05-14T07:50:16.000Z</time>
      </trkpt>
      <trkpt lat="42.11398" lon="9.13709">
        <ele>1171.8000488281</ele>
        <time>2014-05-14T07:50:21.000Z</time>
      </trkpt>
      <trkpt lat="42.11393" lon="9.1371">
        <ele>1172</ele>
        <time>2014-05-14T07:50:31.000Z</time>
      </trkpt>
      <trkpt lat="42.1139" lon="9.13712">
        <ele>1172.4000244141</ele>
        <time>2014-05-14T07:50:37.000Z</time>
      </trkpt>
      <trkpt lat="42.11386" lon="9.13712">
        <ele>1172.1999511719</ele>
        <time>2014-05-14T07:50:43.000Z</time>
      </trkpt>
      <trkpt lat="42.11381" lon="9.13712">
        <ele>1172.1999511719</ele>
        <time>2014-05-14T07:50:49.000Z</time>
      </trkpt>
      <trkpt lat="42.11378" lon="9.13714">
        <ele>1172.5999755859</ele>
        <time>2014-05-14T07:50:53.000Z</time>
      </trkpt>
      <trkpt lat="42.11377" lon="9.13713">
        <ele>1172.4000244141</ele>
        <time>2014-05-14T07:50:54.000Z</time>
      </trkpt>
      <trkpt lat="42.11374" lon="9.13714">
        <ele>1172.4000244141</ele>
        <time>2014-05-14T07:50:58.000Z</time>
      </trkpt>
      <trkpt lat="42.11374" lon="9.13714">
        <ele>1172.5999755859</ele>
        <time>2014-05-14T07:50:59.000Z</time>
      </trkpt>
      <trkpt lat="42.11372" lon="9.13713">
        <ele>1172.1999511719</ele>
        <time>2014-05-14T07:51:03.000Z</time>
      </trkpt>
      <trkpt lat="42.11368" lon="9.13715">
        <ele>1172.5999755859</ele>
        <time>2014-05-14T07:51:08.000Z</time>
      </trkpt>
      <trkpt lat="42.11366" lon="9.13717">
        <ele>1172.8000488281</ele>
        <time>2014-05-14T07:51:13.000Z</time>
      </trkpt>
      <trkpt lat="42.1136" lon="9.13717">
        <ele>1172.8000488281</ele>
        <time>2014-05-14T07:51:19.000Z</time>
      </trkpt>
      <trkpt lat="42.11358" lon="9.13716">
        <ele>1172.4000244141</ele>
        <time>2014-05-14T07:51:21.000Z</time>
      </trkpt>
      <trkpt lat="42.11355" lon="9.13716">
        <ele>1172.4000244141</ele>
        <time>2014-05-14T07:51:24.000Z</time>
      </trkpt>
      <trkpt lat="42.11354" lon="9.13716">
        <ele>1172.4000244141</ele>
        <time>2014-05-14T07:51:25.000Z</time>
      </trkpt>
      <trkpt lat="42.11349" lon="9.13718">
        <ele>1172.5999755859</ele>
        <time>2014-05-14T07:51:30.000Z</time>
      </trkpt>
      <trkpt lat="42.11346" lon="9.13719">
        <ele>1172.8000488281</ele>
        <time>2014-05-14T07:51:32.000Z</time>
      </trkpt>
      <trkpt lat="42.11345" lon="9.13719">
        <ele>1173</ele>
        <time>2014-05-14T07:51:34.000Z</time>
      </trkpt>
      <trkpt lat="42.11341" lon="9.1372">
        <ele>1173</ele>
        <time>2014-05-14T07:51:37.000Z</time>
      </trkpt>
      <trkpt lat="42.11339" lon="9.1372">
        <ele>1173</ele>
        <time>2014-05-14T07:51:39.000Z</time>
      </trkpt>
      <trkpt lat="42.11336" lon="9.13723">
        <ele>1173.5999755859</ele>
        <time>2014-05-14T07:51:42.000Z</time>
      </trkpt>
      <trkpt lat="42.11335" lon="9.13725">
        <ele>1173.8000488281</ele>
        <time>2014-05-14T07:51:44.000Z</time>
      </trkpt>
      <trkpt lat="42.11332" lon="9.13728">
        <ele>1174.4000244141</ele>
        <time>2014-05-14T07:51:48.000Z</time>
      </trkpt>
      <trkpt lat="42.11332" lon="9.13728">
        <ele>1174.4000244141</ele>
        <time>2014-05-14T07:51:49.000Z</time>
      </trkpt>
      <trkpt lat="42.1133" lon="9.1373">
        <ele>1174.8000488281</ele>
        <time>2014-05-14T07:51:55.000Z</time>
      </trkpt>
      <trkpt lat="42.11325" lon="9.13737">
        <ele>1176.5999755859</ele>
        <time>2014-05-14T07:52:09.000Z</time>
      </trkpt>
      <trkpt lat="42.11322" lon="9.13739">
        <ele>1177.4000244141</ele>
        <time>2014-05-14T07:52:12.000Z</time>
      </trkpt>
      <trkpt lat="42.11319" lon="9.13741">
        <ele>1178.1999511719</ele>
        <time>2014-05-14T07:52:16.000Z</time>
      </trkpt>
      <trkpt lat="42.11314" lon="9.13744">
        <ele>1179.4000244141</ele>
        <time>2014-05-14T07:52:23.000Z</time>
      </trkpt>
      <trkpt lat="42.11311" lon="9.13746">
        <ele>1180.4000244141</ele>
        <time>2014-05-14T07:52:27.000Z</time>
      </trkpt>
      <trkpt lat="42.11302" lon="9.1375">
        <ele>1182.1999511719</ele>
        <time>2014-05-14T07:52:34.000Z</time>
      </trkpt>
      <trkpt lat="42.113" lon="9.13751">
        <ele>1182.8000488281</ele>
        <time>2014-05-14T07:52:36.000Z</time>
      </trkpt>
      <trkpt lat="42.11297" lon="9.13752">
        <ele>1183.1999511719</ele>
        <time>2014-05-14T07:52:40.000Z</time>
      </trkpt>
      <trkpt lat="42.11296" lon="9.13751">
        <ele>1183.1999511719</ele>
        <time>2014-05-14T07:52:41.000Z</time>
      </trkpt>
      <trkpt lat="42.11293" lon="9.13753">
        <ele>1183.8000488281</ele>
        <time>2014-05-14T07:52:44.000Z</time>
      </trkpt>
      <trkpt lat="42.1129" lon="9.13754">
        <ele>1184.4000244141</ele>
        <time>2014-05-14T07:52:46.000Z</time>
      </trkpt>
      <trkpt lat="42.11288" lon="9.13755">
        <ele>1184.5999755859</ele>
        <time>2014-05-14T07:52:48.000Z</time>
      </trkpt>
      <trkpt lat="42.11285" lon="9.13755">
        <ele>1184.8000488281</ele>
        <time>2014-05-14T07:52:51.000Z</time>
      </trkpt>
      <trkpt lat="42.11282" lon="9.13754">
        <ele>1185</ele>
        <time>2014-05-14T07:52:55.000Z</time>
      </trkpt>
      <trkpt lat="42.11277" lon="9.13752">
        <ele>1185.1999511719</ele>
        <time>2014-05-14T07:53:00.000Z</time>
      </trkpt>
      <trkpt lat="42.11273" lon="9.13751">
        <ele>1185.4000244141</ele>
        <time>2014-05-14T07:53:05.000Z</time>
      </trkpt>
      <trkpt lat="42.11267" lon="9.13751">
        <ele>1186</ele>
        <time>2014-05-14T07:53:10.000Z</time>
      </trkpt>
      <trkpt lat="42.11266" lon="9.13751">
        <ele>1186</ele>
        <time>2014-05-14T07:53:11.000Z</time>
      </trkpt>
      <trkpt lat="42.1126" lon="9.13753">
        <ele>1187</ele>
        <time>2014-05-14T07:53:18.000Z</time>
      </trkpt>
      <trkpt lat="42.11254" lon="9.13754">
        <ele>1187.8000488281</ele>
        <time>2014-05-14T07:53:25.000Z</time>
      </trkpt>
      <trkpt lat="42.11253" lon="9.13754">
        <ele>1187.8000488281</ele>
        <time>2014-05-14T07:53:26.000Z</time>
      </trkpt>
      <trkpt lat="42.11249" lon="9.13754">
        <ele>1188.1999511719</ele>
        <time>2014-05-14T07:53:31.000Z</time>
      </trkpt>
      <trkpt lat="42.11247" lon="9.13753">
        <ele>1188.1999511719</ele>
        <time>2014-05-14T07:53:33.000Z</time>
      </trkpt>
      <trkpt lat="42.11246" lon="9.13753">
        <ele>1188.4000244141</ele>
        <time>2014-05-14T07:53:34.000Z</time>
      </trkpt>
      <trkpt lat="42.11245" lon="9.13753">
        <ele>1188.4000244141</ele>
        <time>2014-05-14T07:53:35.000Z</time>
      </trkpt>
      <trkpt lat="42.11239" lon="9.13748">
        <ele>1188.8000488281</ele>
        <time>2014-05-14T07:53:42.000Z</time>
      </trkpt>
      <trkpt lat="42.11238" lon="9.13748">
        <ele>1188.8000488281</ele>
        <time>2014-05-14T07:53:43.000Z</time>
      </trkpt>
      <trkpt lat="42.11237" lon="9.13747">
        <ele>1189</ele>
        <time>2014-05-14T07:53:46.000Z</time>
      </trkpt>
      <trkpt lat="42.11234" lon="9.13746">
        <ele>1189.4000244141</ele>
        <time>2014-05-14T07:53:49.000Z</time>
      </trkpt>
      <trkpt lat="42.11233" lon="9.13745">
        <ele>1189.4000244141</ele>
        <time>2014-05-14T07:53:50.000Z</time>
      </trkpt>
      <trkpt lat="42.1123" lon="9.13744">
        <ele>1189.8000488281</ele>
        <time>2014-05-14T07:53:54.000Z</time>
      </trkpt>
      <trkpt lat="42.11226" lon="9.13743">
        <ele>1190.8000488281</ele>
        <time>2014-05-14T07:53:59.000Z</time>
      </trkpt>
      <trkpt lat="42.1122" lon="9.13739">
        <ele>1191.4000244141</ele>
        <time>2014-05-14T07:54:06.000Z</time>
      </trkpt>
      <trkpt lat="42.11218" lon="9.13738">
        <ele>1191.5999755859</ele>
        <time>2014-05-14T07:54:08.000Z</time>
      </trkpt>
      <trkpt lat="42.11215" lon="9.13736">
        <ele>1191.8000488281</ele>
        <time>2014-05-14T07:54:12.000Z</time>
      </trkpt>
      <trkpt lat="42.11211" lon="9.13734">
        <ele>1192.1999511719</ele>
        <time>2014-05-14T07:54:16.000Z</time>
      </trkpt>
      <trkpt lat="42.11207" lon="9.13735">
        <ele>1193.4000244141</ele>
        <time>2014-05-14T07:54:19.000Z</time>
      </trkpt>
      <trkpt lat="42.11205" lon="9.13736">
        <ele>1194</ele>
        <time>2014-05-14T07:54:21.000Z</time>
      </trkpt>
      <trkpt lat="42.11203" lon="9.13738">
        <ele>1194.5999755859</ele>
        <time>2014-05-14T07:54:23.000Z</time>
      </trkpt>
      <trkpt lat="42.11203" lon="9.13739">
        <ele>1194.8000488281</ele>
        <time>2014-05-14T07:54:24.000Z</time>
      </trkpt>
      <trkpt lat="42.11201" lon="9.13744">
        <ele>1195.5999755859</ele>
        <time>2014-05-14T07:54:28.000Z</time>
      </trkpt>
      <trkpt lat="42.112" lon="9.13745">
        <ele>1196</ele>
        <time>2014-05-14T07:54:29.000Z</time>
      </trkpt>
      <trkpt lat="42.11197" lon="9.13744">
        <ele>1196.4000244141</ele>
        <time>2014-05-14T07:54:34.000Z</time>
      </trkpt>
      <trkpt lat="42.11194" lon="9.13743">
        <ele>1196.8000488281</ele>
        <time>2014-05-14T07:54:36.000Z</time>
      </trkpt>
      <trkpt lat="42.11192" lon="9.13742">
        <ele>1197</ele>
        <time>2014-05-14T07:54:37.000Z</time>
      </trkpt>
      <trkpt lat="42.11187" lon="9.13741">
        <ele>1197.5999755859</ele>
        <time>2014-05-14T07:54:42.000Z</time>
      </trkpt>
      <trkpt lat="42.11186" lon="9.1374">
        <ele>1197.8000488281</ele>
        <time>2014-05-14T07:54:44.000Z</time>
      </trkpt>
      <trkpt lat="42.11187" lon="9.13741">
        <ele>1197.8000488281</ele>
        <time>2014-05-14T07:54:47.000Z</time>
      </trkpt>
      <trkpt lat="42.11191" lon="9.13743">
        <ele>1197.4000244141</ele>
        <time>2014-05-14T07:54:51.000Z</time>
      </trkpt>
      <trkpt lat="42.11193" lon="9.13748">
        <ele>1197.5999755859</ele>
        <time>2014-05-14T07:54:56.000Z</time>
      </trkpt>
      <trkpt lat="42.11193" lon="9.13753">
        <ele>1198.4000244141</ele>
        <time>2014-05-14T07:55:03.000Z</time>
      </trkpt>
      <trkpt lat="42.11191" lon="9.13756">
        <ele>1199</ele>
        <time>2014-05-14T07:55:08.000Z</time>
      </trkpt>
      <trkpt lat="42.11193" lon="9.13762">
        <ele>1199.4000244141</ele>
        <time>2014-05-14T07:55:14.000Z</time>
      </trkpt>
      <trkpt lat="42.11194" lon="9.13764">
        <ele>1199.5999755859</ele>
        <time>2014-05-14T07:55:18.000Z</time>
      </trkpt>
      <trkpt lat="42.11196" lon="9.13773">
        <ele>1200.4000244141</ele>
        <time>2014-05-14T07:55:25.000Z</time>
      </trkpt>
      <trkpt lat="42.11197" lon="9.13774">
        <ele>1200.4000244141</ele>
        <time>2014-05-14T07:55:27.000Z</time>
      </trkpt>
      <trkpt lat="42.11201" lon="9.13778">
        <ele>1200.1999511719</ele>
        <time>2014-05-14T07:55:31.000Z</time>
      </trkpt>
      <trkpt lat="42.11201" lon="9.13779">
        <ele>1200.4000244141</ele>
        <time>2014-05-14T07:55:32.000Z</time>
      </trkpt>
      <trkpt lat="42.11203" lon="9.13783">
        <ele>1200.8000488281</ele>
        <time>2014-05-14T07:55:36.000Z</time>
      </trkpt>
      <trkpt lat="42.11208" lon="9.13791">
        <ele>1201.4000244141</ele>
        <time>2014-05-14T07:55:42.000Z</time>
      </trkpt>
      <trkpt lat="42.11213" lon="9.13795">
        <ele>1201.4000244141</ele>
        <time>2014-05-14T07:55:49.000Z</time>
      </trkpt>
      <trkpt lat="42.11217" lon="9.138">
        <ele>1201.5999755859</ele>
        <time>2014-05-14T07:55:55.000Z</time>
      </trkpt>
      <trkpt lat="42.1122" lon="9.13804">
        <ele>1201.8000488281</ele>
        <time>2014-05-14T07:55:58.000Z</time>
      </trkpt>
      <trkpt lat="42.11222" lon="9.13806">
        <ele>1201.8000488281</ele>
        <time>2014-05-14T07:56:01.000Z</time>
      </trkpt>
      <trkpt lat="42.11222" lon="9.13806">
        <ele>1201.8000488281</ele>
        <time>2014-05-14T07:56:02.000Z</time>
      </trkpt>
      <trkpt lat="42.11226" lon="9.13811">
        <ele>1202</ele>
        <time>2014-05-14T07:56:08.000Z</time>
      </trkpt>
      <trkpt lat="42.11227" lon="9.13811">
        <ele>1202</ele>
        <time>2014-05-14T07:56:09.000Z</time>
      </trkpt>
      <trkpt lat="42.11229" lon="9.13816">
        <ele>1202.5999755859</ele>
        <time>2014-05-14T07:56:13.000Z</time>
      </trkpt>
      <trkpt lat="42.11234" lon="9.13822">
        <ele>1202.5999755859</ele>
        <time>2014-05-14T07:56:19.000Z</time>
      </trkpt>
      <trkpt lat="42.11236" lon="9.13827">
        <ele>1203.1999511719</ele>
        <time>2014-05-14T07:56:24.000Z</time>
      </trkpt>
      <trkpt lat="42.11237" lon="9.13827">
        <ele>1203</ele>
        <time>2014-05-14T07:56:25.000Z</time>
      </trkpt>
      <trkpt lat="42.11238" lon="9.13829">
        <ele>1203.1999511719</ele>
        <time>2014-05-14T07:56:28.000Z</time>
      </trkpt>
      <trkpt lat="42.11236" lon="9.13831">
        <ele>1204</ele>
        <time>2014-05-14T07:56:40.000Z</time>
      </trkpt>
      <trkpt lat="42.11235" lon="9.13835">
        <ele>1204.8000488281</ele>
        <time>2014-05-14T07:57:08.000Z</time>
      </trkpt>
      <trkpt lat="42.11238" lon="9.13835">
        <ele>1204.4000244141</ele>
        <time>2014-05-14T07:57:12.000Z</time>
      </trkpt>
      <trkpt lat="42.1124" lon="9.13836">
        <ele>1204.4000244141</ele>
        <time>2014-05-14T07:57:17.000Z</time>
      </trkpt>
      <trkpt lat="42.11244" lon="9.13838">
        <ele>1204</ele>
        <time>2014-05-14T07:57:21.000Z</time>
      </trkpt>
      <trkpt lat="42.11249" lon="9.1384">
        <ele>1204</ele>
        <time>2014-05-14T07:57:27.000Z</time>
      </trkpt>
      <trkpt lat="42.1125" lon="9.1384">
        <ele>1204</ele>
        <time>2014-05-14T07:57:28.000Z</time>
      </trkpt>
      <trkpt lat="42.11256" lon="9.1384">
        <ele>1203.8000488281</ele>
        <time>2014-05-14T07:57:32.000Z</time>
      </trkpt>
      <trkpt lat="42.11261" lon="9.1384">
        <ele>1203.4000244141</ele>
        <time>2014-05-14T07:57:38.000Z</time>
      </trkpt>
      <trkpt lat="42.11264" lon="9.1384">
        <ele>1203.4000244141</ele>
        <time>2014-05-14T07:57:40.000Z</time>
      </trkpt>
      <trkpt lat="42.11265" lon="9.13841">
        <ele>1203.4000244141</ele>
        <time>2014-05-14T07:57:41.000Z</time>
      </trkpt>
      <trkpt lat="42.11268" lon="9.13842">
        <ele>1203.4000244141</ele>
        <time>2014-05-14T07:57:44.000Z</time>
      </trkpt>
      <trkpt lat="42.11271" lon="9.13842">
        <ele>1203.4000244141</ele>
        <time>2014-05-14T07:57:47.000Z</time>
      </trkpt>
      <trkpt lat="42.11272" lon="9.13844">
        <ele>1203.5999755859</ele>
        <time>2014-05-14T07:57:49.000Z</time>
      </trkpt>
      <trkpt lat="42.11273" lon="9.13844">
        <ele>1203.5999755859</ele>
        <time>2014-05-14T07:57:50.000Z</time>
      </trkpt>
      <trkpt lat="42.11278" lon="9.13846">
        <ele>1203.8000488281</ele>
        <time>2014-05-14T07:57:55.000Z</time>
      </trkpt>
      <trkpt lat="42.11285" lon="9.13849">
        <ele>1204</ele>
        <time>2014-05-14T07:58:02.000Z</time>
      </trkpt>
      <trkpt lat="42.11286" lon="9.1385">
        <ele>1204</ele>
        <time>2014-05-14T07:58:04.000Z</time>
      </trkpt>
      <trkpt lat="42.11286" lon="9.13851">
        <ele>1204.1999511719</ele>
        <time>2014-05-14T07:58:08.000Z</time>
      </trkpt>
      <trkpt lat="42.11293" lon="9.13852">
        <ele>1204.1999511719</ele>
        <time>2014-05-14T07:58:27.000Z</time>
      </trkpt>
      <trkpt lat="42.11295" lon="9.13853">
        <ele>1204</ele>
        <time>2014-05-14T07:58:29.000Z</time>
      </trkpt>
      <trkpt lat="42.11299" lon="9.13853">
        <ele>1204</ele>
        <time>2014-05-14T07:58:33.000Z</time>
      </trkpt>
      <trkpt lat="42.11303" lon="9.13854">
        <ele>1204</ele>
        <time>2014-05-14T07:58:36.000Z</time>
      </trkpt>
      <trkpt lat="42.11305" lon="9.13854">
        <ele>1203.8000488281</ele>
        <time>2014-05-14T07:58:38.000Z</time>
      </trkpt>
      <trkpt lat="42.11308" lon="9.13855">
        <ele>1204</ele>
        <time>2014-05-14T07:58:41.000Z</time>
      </trkpt>
      <trkpt lat="42.11313" lon="9.13859">
        <ele>1204.4000244141</ele>
        <time>2014-05-14T07:58:47.000Z</time>
      </trkpt>
      <trkpt lat="42.11317" lon="9.13861">
        <ele>1204.5999755859</ele>
        <time>2014-05-14T07:58:50.000Z</time>
      </trkpt>
      <trkpt lat="42.11319" lon="9.13862">
        <ele>1204.5999755859</ele>
        <time>2014-05-14T07:58:52.000Z</time>
      </trkpt>
      <trkpt lat="42.11321" lon="9.13864">
        <ele>1205</ele>
        <time>2014-05-14T07:58:55.000Z</time>
      </trkpt>
      <trkpt lat="42.11322" lon="9.13865">
        <ele>1205</ele>
        <time>2014-05-14T07:58:56.000Z</time>
      </trkpt>
      <trkpt lat="42.11322" lon="9.13866">
        <ele>1205.1999511719</ele>
        <time>2014-05-14T07:58:57.000Z</time>
      </trkpt>
      <trkpt lat="42.11324" lon="9.13868">
        <ele>1205.5999755859</ele>
        <time>2014-05-14T07:59:01.000Z</time>
      </trkpt>
      <trkpt lat="42.11324" lon="9.13871">
        <ele>1206</ele>
        <time>2014-05-14T07:59:03.000Z</time>
      </trkpt>
      <trkpt lat="42.11325" lon="9.13876">
        <ele>1207</ele>
        <time>2014-05-14T07:59:09.000Z</time>
      </trkpt>
      <trkpt lat="42.11324" lon="9.13881">
        <ele>1208</ele>
        <time>2014-05-14T07:59:14.000Z</time>
      </trkpt>
      <trkpt lat="42.11324" lon="9.13884">
        <ele>1208.5999755859</ele>
        <time>2014-05-14T07:59:21.000Z</time>
      </trkpt>
      <trkpt lat="42.11329" lon="9.13893">
        <ele>1210</ele>
        <time>2014-05-14T07:59:40.000Z</time>
      </trkpt>
      <trkpt lat="42.11329" lon="9.13898">
        <ele>1211</ele>
        <time>2014-05-14T07:59:43.000Z</time>
      </trkpt>
      <trkpt lat="42.1133" lon="9.13902">
        <ele>1211.8000488281</ele>
        <time>2014-05-14T07:59:46.000Z</time>
      </trkpt>
      <trkpt lat="42.11331" lon="9.13902">
        <ele>1211.8000488281</ele>
        <time>2014-05-14T07:59:47.000Z</time>
      </trkpt>
      <trkpt lat="42.11331" lon="9.13904">
        <ele>1212</ele>
        <time>2014-05-14T07:59:48.000Z</time>
      </trkpt>
      <trkpt lat="42.11332" lon="9.13906">
        <ele>1212.5999755859</ele>
        <time>2014-05-14T07:59:51.000Z</time>
      </trkpt>
      <trkpt lat="42.11333" lon="9.13909">
        <ele>1213</ele>
        <time>2014-05-14T07:59:53.000Z</time>
      </trkpt>
      <trkpt lat="42.11333" lon="9.13913">
        <ele>1213.8000488281</ele>
        <time>2014-05-14T07:59:56.000Z</time>
      </trkpt>
      <trkpt lat="42.11334" lon="9.13917">
        <ele>1214.4000244141</ele>
        <time>2014-05-14T07:59:59.000Z</time>
      </trkpt>
      <trkpt lat="42.11334" lon="9.13918">
        <ele>1214.5999755859</ele>
        <time>2014-05-14T08:00:00.000Z</time>
      </trkpt>
      <trkpt lat="42.11336" lon="9.13922">
        <ele>1215.1999511719</ele>
        <time>2014-05-14T08:00:03.000Z</time>
      </trkpt>
      <trkpt lat="42.11337" lon="9.13923">
        <ele>1215.5999755859</ele>
        <time>2014-05-14T08:00:04.000Z</time>
      </trkpt>
      <trkpt lat="42.1134" lon="9.1393">
        <ele>1216.5999755859</ele>
        <time>2014-05-14T08:00:08.000Z</time>
      </trkpt>
      <trkpt lat="42.11341" lon="9.13932">
        <ele>1217</ele>
        <time>2014-05-14T08:00:10.000Z</time>
      </trkpt>
      <trkpt lat="42.11343" lon="9.13936">
        <ele>1217.5999755859</ele>
        <time>2014-05-14T08:00:17.000Z</time>
      </trkpt>
      <trkpt lat="42.11347" lon="9.13941">
        <ele>1218.5999755859</ele>
        <time>2014-05-14T08:00:32.000Z</time>
      </trkpt>
      <trkpt lat="42.11353" lon="9.13946">
        <ele>1219</ele>
        <time>2014-05-14T08:00:39.000Z</time>
      </trkpt>
      <trkpt lat="42.11354" lon="9.13946">
        <ele>1219</ele>
        <time>2014-05-14T08:00:40.000Z</time>
      </trkpt>
      <trkpt lat="42.11358" lon="9.13948">
        <ele>1219.1999511719</ele>
        <time>2014-05-14T08:00:44.000Z</time>
      </trkpt>
      <trkpt lat="42.11359" lon="9.13949">
        <ele>1219.4000244141</ele>
        <time>2014-05-14T08:00:45.000Z</time>
      </trkpt>
      <trkpt lat="42.11365" lon="9.13953">
        <ele>1219.8000488281</ele>
        <time>2014-05-14T08:00:51.000Z</time>
      </trkpt>
      <trkpt lat="42.11367" lon="9.13954">
        <ele>1219.8000488281</ele>
        <time>2014-05-14T08:00:53.000Z</time>
      </trkpt>
      <trkpt lat="42.1137" lon="9.13956">
        <ele>1220.1999511719</ele>
        <time>2014-05-14T08:00:56.000Z</time>
      </trkpt>
      <trkpt lat="42.11376" lon="9.13958">
        <ele>1220.1999511719</ele>
        <time>2014-05-14T08:01:02.000Z</time>
      </trkpt>
      <trkpt lat="42.11376" lon="9.13959">
        <ele>1220.4000244141</ele>
        <time>2014-05-14T08:01:03.000Z</time>
      </trkpt>
      <trkpt lat="42.11377" lon="9.13961">
        <ele>1220.5999755859</ele>
        <time>2014-05-14T08:01:07.000Z</time>
      </trkpt>
      <trkpt lat="42.11381" lon="9.13963">
        <ele>1220.8000488281</ele>
        <time>2014-05-14T08:01:12.000Z</time>
      </trkpt>
      <trkpt lat="42.11386" lon="9.13964">
        <ele>1220.8000488281</ele>
        <time>2014-05-14T08:01:17.000Z</time>
      </trkpt>
      <trkpt lat="42.11386" lon="9.13963">
        <ele>1220.5999755859</ele>
        <time>2014-05-14T08:01:18.000Z</time>
      </trkpt>
      <trkpt lat="42.1139" lon="9.13962">
        <ele>1220.1999511719</ele>
        <time>2014-05-14T08:01:22.000Z</time>
      </trkpt>
      <trkpt lat="42.11392" lon="9.13962">
        <ele>1220</ele>
        <time>2014-05-14T08:01:24.000Z</time>
      </trkpt>
      <trkpt lat="42.11393" lon="9.13961">
        <ele>1219.8000488281</ele>
        <time>2014-05-14T08:01:25.000Z</time>
      </trkpt>
      <trkpt lat="42.11396" lon="9.1396">
        <ele>1219.5999755859</ele>
        <time>2014-05-14T08:01:29.000Z</time>
      </trkpt>
      <trkpt lat="42.11397" lon="9.1396">
        <ele>1219.5999755859</ele>
        <time>2014-05-14T08:01:30.000Z</time>
      </trkpt>
      <trkpt lat="42.11399" lon="9.1396">
        <ele>1219.4000244141</ele>
        <time>2014-05-14T08:01:36.000Z</time>
      </trkpt>
      <trkpt lat="42.11403" lon="9.13959">
        <ele>1219</ele>
        <time>2014-05-14T08:01:41.000Z</time>
      </trkpt>
      <trkpt lat="42.11408" lon="9.13955">
        <ele>1218</ele>
        <time>2014-05-14T08:01:47.000Z</time>
      </trkpt>
      <trkpt lat="42.1141" lon="9.13955">
        <ele>1218</ele>
        <time>2014-05-14T08:01:49.000Z</time>
      </trkpt>
      <trkpt lat="42.11412" lon="9.13956">
        <ele>1218.1999511719</ele>
        <time>2014-05-14T08:01:51.000Z</time>
      </trkpt>
      <trkpt lat="42.11415" lon="9.13956">
        <ele>1218.4000244141</ele>
        <time>2014-05-14T08:01:53.000Z</time>
      </trkpt>
      <trkpt lat="42.11419" lon="9.13957">
        <ele>1218.8000488281</ele>
        <time>2014-05-14T08:01:56.000Z</time>
      </trkpt>
      <trkpt lat="42.11421" lon="9.13959">
        <ele>1219.4000244141</ele>
        <time>2014-05-14T08:01:59.000Z</time>
      </trkpt>
      <trkpt lat="42.11421" lon="9.1396">
        <ele>1219.5999755859</ele>
        <time>2014-05-14T08:02:00.000Z</time>
      </trkpt>
      <trkpt lat="42.11426" lon="9.13961">
        <ele>1220</ele>
        <time>2014-05-14T08:02:04.000Z</time>
      </trkpt>
      <trkpt lat="42.11427" lon="9.13961">
        <ele>1220.1999511719</ele>
        <time>2014-05-14T08:02:05.000Z</time>
      </trkpt>
      <trkpt lat="42.11434" lon="9.13962">
        <ele>1220</ele>
        <time>2014-05-14T08:02:10.000Z</time>
      </trkpt>
      <trkpt lat="42.11435" lon="9.13962">
        <ele>1220</ele>
        <time>2014-05-14T08:02:11.000Z</time>
      </trkpt>
      <trkpt lat="42.11441" lon="9.13961">
        <ele>1219.4000244141</ele>
        <time>2014-05-14T08:02:17.000Z</time>
      </trkpt>
      <trkpt lat="42.11442" lon="9.1396">
        <ele>1219</ele>
        <time>2014-05-14T08:02:18.000Z</time>
      </trkpt>
      <trkpt lat="42.11448" lon="9.13954">
        <ele>1217.1999511719</ele>
        <time>2014-05-14T08:02:24.000Z</time>
      </trkpt>
      <trkpt lat="42.11451" lon="9.13953">
        <ele>1216.5999755859</ele>
        <time>2014-05-14T08:02:27.000Z</time>
      </trkpt>
      <trkpt lat="42.11454" lon="9.13951">
        <ele>1216</ele>
        <time>2014-05-14T08:02:30.000Z</time>
      </trkpt>
      <trkpt lat="42.1146" lon="9.13949">
        <ele>1215.1999511719</ele>
        <time>2014-05-14T08:02:35.000Z</time>
      </trkpt>
      <trkpt lat="42.11463" lon="9.13949">
        <ele>1214.8000488281</ele>
        <time>2014-05-14T08:02:37.000Z</time>
      </trkpt>
      <trkpt lat="42.1147" lon="9.13948">
        <ele>1214.1999511719</ele>
        <time>2014-05-14T08:02:43.000Z</time>
      </trkpt>
      <trkpt lat="42.11472" lon="9.13947">
        <ele>1214</ele>
        <time>2014-05-14T08:02:44.000Z</time>
      </trkpt>
      <trkpt lat="42.11479" lon="9.13946">
        <ele>1213.1999511719</ele>
        <time>2014-05-14T08:02:50.000Z</time>
      </trkpt>
      <trkpt lat="42.11489" lon="9.13942">
        <ele>1212</ele>
        <time>2014-05-14T08:02:58.000Z</time>
      </trkpt>
      <trkpt lat="42.11497" lon="9.13937">
        <ele>1209.5999755859</ele>
        <time>2014-05-14T08:03:05.000Z</time>
      </trkpt>
      <trkpt lat="42.11499" lon="9.13936">
        <ele>1209.1999511719</ele>
        <time>2014-05-14T08:03:07.000Z</time>
      </trkpt>
      <trkpt lat="42.11503" lon="9.13934">
        <ele>1208</ele>
        <time>2014-05-14T08:03:11.000Z</time>
      </trkpt>
      <trkpt lat="42.11509" lon="9.13934">
        <ele>1207.1999511719</ele>
        <time>2014-05-14T08:03:17.000Z</time>
      </trkpt>
      <trkpt lat="42.11514" lon="9.13935">
        <ele>1207</ele>
        <time>2014-05-14T08:03:22.000Z</time>
      </trkpt>
      <trkpt lat="42.11515" lon="9.13935">
        <ele>1206.8000488281</ele>
        <time>2014-05-14T08:03:23.000Z</time>
      </trkpt>
      <trkpt lat="42.11517" lon="9.13935">
        <ele>1206.5999755859</ele>
        <time>2014-05-14T08:03:26.000Z</time>
      </trkpt>
      <trkpt lat="42.11518" lon="9.13935">
        <ele>1206.4000244141</ele>
        <time>2014-05-14T08:03:29.000Z</time>
      </trkpt>
      <trkpt lat="42.11525" lon="9.13936">
        <ele>1205.8000488281</ele>
        <time>2014-05-14T08:03:45.000Z</time>
      </trkpt>
      <trkpt lat="42.11529" lon="9.13938">
        <ele>1206</ele>
        <time>2014-05-14T08:03:49.000Z</time>
      </trkpt>
      <trkpt lat="42.11532" lon="9.1394">
        <ele>1206.1999511719</ele>
        <time>2014-05-14T08:03:52.000Z</time>
      </trkpt>
      <trkpt lat="42.11533" lon="9.13941">
        <ele>1206.4000244141</ele>
        <time>2014-05-14T08:03:54.000Z</time>
      </trkpt>
      <trkpt lat="42.11538" lon="9.13944">
        <ele>1206.8000488281</ele>
        <time>2014-05-14T08:03:58.000Z</time>
      </trkpt>
      <trkpt lat="42.11543" lon="9.13946">
        <ele>1206.5999755859</ele>
        <time>2014-05-14T08:04:03.000Z</time>
      </trkpt>
      <trkpt lat="42.11547" lon="9.13949">
        <ele>1207.4000244141</ele>
        <time>2014-05-14T08:04:07.000Z</time>
      </trkpt>
      <trkpt lat="42.11551" lon="9.13955">
        <ele>1208.8000488281</ele>
        <time>2014-05-14T08:04:12.000Z</time>
      </trkpt>
      <trkpt lat="42.11554" lon="9.13958">
        <ele>1209.5999755859</ele>
        <time>2014-05-14T08:04:18.000Z</time>
      </trkpt>
      <trkpt lat="42.11556" lon="9.13961">
        <ele>1210.4000244141</ele>
        <time>2014-05-14T08:04:24.000Z</time>
      </trkpt>
      <trkpt lat="42.11559" lon="9.13964">
        <ele>1211</ele>
        <time>2014-05-14T08:04:30.000Z</time>
      </trkpt>
      <trkpt lat="42.1156" lon="9.13963">
        <ele>1210.8000488281</ele>
        <time>2014-05-14T08:04:42.000Z</time>
      </trkpt>
      <trkpt lat="42.1156" lon="9.13965">
        <ele>1211.1999511719</ele>
        <time>2014-05-14T08:04:49.000Z</time>
      </trkpt>
      <trkpt lat="42.11559" lon="9.13962">
        <ele>1210.5999755859</ele>
        <time>2014-05-14T08:04:56.000Z</time>
      </trkpt>
      <trkpt lat="42.11561" lon="9.13965">
        <ele>1211.4000244141</ele>
        <time>2014-05-14T08:05:04.000Z</time>
      </trkpt>
      <trkpt lat="42.11563" lon="9.13963">
        <ele>1210.1999511719</ele>
        <time>2014-05-14T08:05:35.000Z</time>
      </trkpt>
      <trkpt lat="42.11561" lon="9.13962">
        <ele>1210</ele>
        <time>2014-05-14T08:05:41.000Z</time>
      </trkpt>
      <trkpt lat="42.11557" lon="9.1396">
        <ele>1209.8000488281</ele>
        <time>2014-05-14T08:05:48.000Z</time>
      </trkpt>
      <trkpt lat="42.11552" lon="9.1396">
        <ele>1210.4000244141</ele>
        <time>2014-05-14T08:05:55.000Z</time>
      </trkpt>
      <trkpt lat="42.11549" lon="9.1396">
        <ele>1210.8000488281</ele>
        <time>2014-05-14T08:06:01.000Z</time>
      </trkpt>
      <trkpt lat="42.11544" lon="9.13961">
        <ele>1211.8000488281</ele>
        <time>2014-05-14T08:06:06.000Z</time>
      </trkpt>
      <trkpt lat="42.1154" lon="9.13961">
        <ele>1212.1999511719</ele>
        <time>2014-05-14T08:06:12.000Z</time>
      </trkpt>
      <trkpt lat="42.11535" lon="9.13961">
        <ele>1213.1999511719</ele>
        <time>2014-05-14T08:06:19.000Z</time>
      </trkpt>
      <trkpt lat="42.11531" lon="9.13964">
        <ele>1214.5999755859</ele>
        <time>2014-05-14T08:06:24.000Z</time>
      </trkpt>
      <trkpt lat="42.11529" lon="9.13965">
        <ele>1215</ele>
        <time>2014-05-14T08:06:27.000Z</time>
      </trkpt>
      <trkpt lat="42.11527" lon="9.13965">
        <ele>1215.4000244141</ele>
        <time>2014-05-14T08:06:30.000Z</time>
      </trkpt>
      <trkpt lat="42.11527" lon="9.13965">
        <ele>1215.5999755859</ele>
        <time>2014-05-14T08:06:31.000Z</time>
      </trkpt>
      <trkpt lat="42.11525" lon="9.13966">
        <ele>1215.8000488281</ele>
        <time>2014-05-14T08:06:35.000Z</time>
      </trkpt>
      <trkpt lat="42.11522" lon="9.13968">
        <ele>1216.8000488281</ele>
        <time>2014-05-14T08:06:41.000Z</time>
      </trkpt>
      <trkpt lat="42.11518" lon="9.13971">
        <ele>1218.4000244141</ele>
        <time>2014-05-14T08:06:50.000Z</time>
      </trkpt>
      <trkpt lat="42.11515" lon="9.13973">
        <ele>1219</ele>
        <time>2014-05-14T08:06:56.000Z</time>
      </trkpt>
      <trkpt lat="42.11512" lon="9.13977">
        <ele>1220.4000244141</ele>
        <time>2014-05-14T08:07:06.000Z</time>
      </trkpt>
      <trkpt lat="42.1151" lon="9.13979">
        <ele>1221.1999511719</ele>
        <time>2014-05-14T08:07:11.000Z</time>
      </trkpt>
      <trkpt lat="42.11509" lon="9.13982">
        <ele>1222</ele>
        <time>2014-05-14T08:07:15.000Z</time>
      </trkpt>
      <trkpt lat="42.11507" lon="9.13985">
        <ele>1223</ele>
        <time>2014-05-14T08:07:25.000Z</time>
      </trkpt>
      <trkpt lat="42.11503" lon="9.13992">
        <ele>1225.1999511719</ele>
        <time>2014-05-14T08:07:36.000Z</time>
      </trkpt>
      <trkpt lat="42.11499" lon="9.13995">
        <ele>1226.1999511719</ele>
        <time>2014-05-14T08:07:42.000Z</time>
      </trkpt>
      <trkpt lat="42.11497" lon="9.13998">
        <ele>1227.4000244141</ele>
        <time>2014-05-14T08:07:49.000Z</time>
      </trkpt>
      <trkpt lat="42.11492" lon="9.14002">
        <ele>1228.8000488281</ele>
        <time>2014-05-14T08:07:55.000Z</time>
      </trkpt>
      <trkpt lat="42.11491" lon="9.14006">
        <ele>1230.1999511719</ele>
        <time>2014-05-14T08:08:00.000Z</time>
      </trkpt>
      <trkpt lat="42.1149" lon="9.14008">
        <ele>1230.5999755859</ele>
        <time>2014-05-14T08:08:02.000Z</time>
      </trkpt>
      <trkpt lat="42.11489" lon="9.14012">
        <ele>1231.8000488281</ele>
        <time>2014-05-14T08:08:06.000Z</time>
      </trkpt>
      <trkpt lat="42.11486" lon="9.14016">
        <ele>1233.1999511719</ele>
        <time>2014-05-14T08:08:12.000Z</time>
      </trkpt>
      <trkpt lat="42.11484" lon="9.14019">
        <ele>1234</ele>
        <time>2014-05-14T08:08:16.000Z</time>
      </trkpt>
      <trkpt lat="42.11481" lon="9.14024">
        <ele>1234.5999755859</ele>
        <time>2014-05-14T08:08:21.000Z</time>
      </trkpt>
      <trkpt lat="42.1148" lon="9.14031">
        <ele>1236.4000244141</ele>
        <time>2014-05-14T08:08:25.000Z</time>
      </trkpt>
      <trkpt lat="42.11479" lon="9.14031">
        <ele>1236.1999511719</ele>
        <time>2014-05-14T08:08:26.000Z</time>
      </trkpt>
      <trkpt lat="42.11477" lon="9.14037">
        <ele>1238.1999511719</ele>
        <time>2014-05-14T08:08:31.000Z</time>
      </trkpt>
      <trkpt lat="42.11477" lon="9.14038">
        <ele>1238.5999755859</ele>
        <time>2014-05-14T08:08:32.000Z</time>
      </trkpt>
      <trkpt lat="42.11475" lon="9.14042">
        <ele>1239.8000488281</ele>
        <time>2014-05-14T08:08:35.000Z</time>
      </trkpt>
      <trkpt lat="42.11474" lon="9.14045">
        <ele>1240.5999755859</ele>
        <time>2014-05-14T08:08:38.000Z</time>
      </trkpt>
      <trkpt lat="42.11473" lon="9.14046">
        <ele>1241.1999511719</ele>
        <time>2014-05-14T08:08:40.000Z</time>
      </trkpt>
      <trkpt lat="42.11473" lon="9.1405">
        <ele>1242.1999511719</ele>
        <time>2014-05-14T08:08:43.000Z</time>
      </trkpt>
      <trkpt lat="42.11472" lon="9.14052">
        <ele>1243</ele>
        <time>2014-05-14T08:08:45.000Z</time>
      </trkpt>
      <trkpt lat="42.11469" lon="9.14056">
        <ele>1244</ele>
        <time>2014-05-14T08:08:50.000Z</time>
      </trkpt>
      <trkpt lat="42.11467" lon="9.1406">
        <ele>1245.1999511719</ele>
        <time>2014-05-14T08:08:55.000Z</time>
      </trkpt>
      <trkpt lat="42.11465" lon="9.14064">
        <ele>1246.5999755859</ele>
        <time>2014-05-14T08:09:01.000Z</time>
      </trkpt>
      <trkpt lat="42.11462" lon="9.1407">
        <ele>1248.4000244141</ele>
        <time>2014-05-14T08:09:08.000Z</time>
      </trkpt>
      <trkpt lat="42.1146" lon="9.14073">
        <ele>1249.4000244141</ele>
        <time>2014-05-14T08:09:14.000Z</time>
      </trkpt>
      <trkpt lat="42.11459" lon="9.14076">
        <ele>1250.4000244141</ele>
        <time>2014-05-14T08:09:20.000Z</time>
      </trkpt>
      <trkpt lat="42.11461" lon="9.14079">
        <ele>1251.4000244141</ele>
        <time>2014-05-14T08:09:29.000Z</time>
      </trkpt>
      <trkpt lat="42.11459" lon="9.1408">
        <ele>1251.5999755859</ele>
        <time>2014-05-14T08:09:40.000Z</time>
      </trkpt>
      <trkpt lat="42.11458" lon="9.14083">
        <ele>1252.1999511719</ele>
        <time>2014-05-14T08:09:46.000Z</time>
      </trkpt>
      <trkpt lat="42.1146" lon="9.14083">
        <ele>1252.5999755859</ele>
        <time>2014-05-14T08:10:00.000Z</time>
      </trkpt>
      <trkpt lat="42.11462" lon="9.14083">
        <ele>1252.8000488281</ele>
        <time>2014-05-14T08:10:07.000Z</time>
      </trkpt>
      <trkpt lat="42.11462" lon="9.14087">
        <ele>1253.8000488281</ele>
        <time>2014-05-14T08:10:11.000Z</time>
      </trkpt>
      <trkpt lat="42.11461" lon="9.1409">
        <ele>1254.8000488281</ele>
        <time>2014-05-14T08:10:17.000Z</time>
      </trkpt>
      <trkpt lat="42.11461" lon="9.14094">
        <ele>1255.8000488281</ele>
        <time>2014-05-14T08:10:23.000Z</time>
      </trkpt>
      <trkpt lat="42.11465" lon="9.14094">
        <ele>1256.1999511719</ele>
        <time>2014-05-14T08:10:28.000Z</time>
      </trkpt>
      <trkpt lat="42.11467" lon="9.14092">
        <ele>1255.8000488281</ele>
        <time>2014-05-14T08:10:33.000Z</time>
      </trkpt>
      <trkpt lat="42.1147" lon="9.14091">
        <ele>1255.5999755859</ele>
        <time>2014-05-14T08:10:38.000Z</time>
      </trkpt>
      <trkpt lat="42.11476" lon="9.14088">
        <ele>1255.1999511719</ele>
        <time>2014-05-14T08:10:46.000Z</time>
      </trkpt>
      <trkpt lat="42.11481" lon="9.14085">
        <ele>1254.5999755859</ele>
        <time>2014-05-14T08:10:53.000Z</time>
      </trkpt>
      <trkpt lat="42.11485" lon="9.1408">
        <ele>1253.1999511719</ele>
        <time>2014-05-14T08:11:00.000Z</time>
      </trkpt>
      <trkpt lat="42.11487" lon="9.14078">
        <ele>1252.5999755859</ele>
        <time>2014-05-14T08:11:02.000Z</time>
      </trkpt>
      <trkpt lat="42.11487" lon="9.14077">
        <ele>1252.1999511719</ele>
        <time>2014-05-14T08:11:04.000Z</time>
      </trkpt>
      <trkpt lat="42.11487" lon="9.14077">
        <ele>1252.4000244141</ele>
        <time>2014-05-14T08:11:10.000Z</time>
      </trkpt>
      <trkpt lat="42.1149" lon="9.1408">
        <ele>1253.4000244141</ele>
        <time>2014-05-14T08:11:28.000Z</time>
      </trkpt>
      <trkpt lat="42.11489" lon="9.14081">
        <ele>1253.5999755859</ele>
        <time>2014-05-14T08:11:33.000Z</time>
      </trkpt>
      <trkpt lat="42.1149" lon="9.14081">
        <ele>1253.8000488281</ele>
        <time>2014-05-14T08:11:49.000Z</time>
      </trkpt>
      <trkpt lat="42.1149" lon="9.14082">
        <ele>1254</ele>
        <time>2014-05-14T08:11:54.000Z</time>
      </trkpt>
      <trkpt lat="42.11487" lon="9.1408">
        <ele>1253.4000244141</ele>
        <time>2014-05-14T08:12:02.000Z</time>
      </trkpt>
      <trkpt lat="42.11487" lon="9.14081">
        <ele>1253.5999755859</ele>
        <time>2014-05-14T08:12:09.000Z</time>
      </trkpt>
      <trkpt lat="42.11495" lon="9.14082">
        <ele>1254.4000244141</ele>
        <time>2014-05-14T08:13:17.000Z</time>
      </trkpt>
      <trkpt lat="42.1149" lon="9.14077">
        <ele>1252.4000244141</ele>
        <time>2014-05-14T08:14:03.000Z</time>
      </trkpt>
      <trkpt lat="42.11487" lon="9.14088">
        <ele>1256</ele>
        <time>2014-05-14T08:15:05.000Z</time>
      </trkpt>
      <trkpt lat="42.11487" lon="9.1409">
        <ele>1256.8000488281</ele>
        <time>2014-05-14T08:15:10.000Z</time>
      </trkpt>
      <trkpt lat="42.11487" lon="9.14093">
        <ele>1257.5999755859</ele>
        <time>2014-05-14T08:15:17.000Z</time>
      </trkpt>
      <trkpt lat="42.11486" lon="9.14096">
        <ele>1258.5999755859</ele>
        <time>2014-05-14T08:15:22.000Z</time>
      </trkpt>
      <trkpt lat="42.11485" lon="9.141">
        <ele>1260</ele>
        <time>2014-05-14T08:15:28.000Z</time>
      </trkpt>
      <trkpt lat="42.11485" lon="9.14104">
        <ele>1261.1999511719</ele>
        <time>2014-05-14T08:15:37.000Z</time>
      </trkpt>
      <trkpt lat="42.11485" lon="9.14107">
        <ele>1262</ele>
        <time>2014-05-14T08:15:44.000Z</time>
      </trkpt>
      <trkpt lat="42.11485" lon="9.14112">
        <ele>1263.5999755859</ele>
        <time>2014-05-14T08:15:49.000Z</time>
      </trkpt>
      <trkpt lat="42.11482" lon="9.14115">
        <ele>1264.5999755859</ele>
        <time>2014-05-14T08:15:54.000Z</time>
      </trkpt>
      <trkpt lat="42.11485" lon="9.14116">
        <ele>1265.1999511719</ele>
        <time>2014-05-14T08:15:59.000Z</time>
      </trkpt>
      <trkpt lat="42.11487" lon="9.14114">
        <ele>1264.8000488281</ele>
        <time>2014-05-14T08:16:03.000Z</time>
      </trkpt>
      <trkpt lat="42.1149" lon="9.14113">
        <ele>1264.5999755859</ele>
        <time>2014-05-14T08:16:09.000Z</time>
      </trkpt>
      <trkpt lat="42.11492" lon="9.14111">
        <ele>1264</ele>
        <time>2014-05-14T08:16:16.000Z</time>
      </trkpt>
      <trkpt lat="42.11491" lon="9.14112">
        <ele>1264.1999511719</ele>
        <time>2014-05-14T08:16:26.000Z</time>
      </trkpt>
      <trkpt lat="42.11496" lon="9.14109">
        <ele>1263.5999755859</ele>
        <time>2014-05-14T08:16:33.000Z</time>
      </trkpt>
      <trkpt lat="42.11502" lon="9.14105">
        <ele>1262.1999511719</ele>
        <time>2014-05-14T08:16:40.000Z</time>
      </trkpt>
      <trkpt lat="42.11506" lon="9.14105">
        <ele>1262.1999511719</ele>
        <time>2014-05-14T08:16:46.000Z</time>
      </trkpt>
      <trkpt lat="42.11512" lon="9.14104">
        <ele>1262</ele>
        <time>2014-05-14T08:16:59.000Z</time>
      </trkpt>
      <trkpt lat="42.11512" lon="9.14104">
        <ele>1262</ele>
        <time>2014-05-14T08:17:00.000Z</time>
      </trkpt>
      <trkpt lat="42.11514" lon="9.14105">
        <ele>1262.4000244141</ele>
        <time>2014-05-14T08:17:02.000Z</time>
      </trkpt>
      <trkpt lat="42.11515" lon="9.14105">
        <ele>1262.4000244141</ele>
        <time>2014-05-14T08:17:06.000Z</time>
      </trkpt>
      <trkpt lat="42.11515" lon="9.14109">
        <ele>1263.5999755859</ele>
        <time>2014-05-14T08:17:15.000Z</time>
      </trkpt>
      <trkpt lat="42.11514" lon="9.14113">
        <ele>1265.1999511719</ele>
        <time>2014-05-14T08:17:22.000Z</time>
      </trkpt>
      <trkpt lat="42.11513" lon="9.14116">
        <ele>1266.4000244141</ele>
        <time>2014-05-14T08:17:27.000Z</time>
      </trkpt>
      <trkpt lat="42.11511" lon="9.1412">
        <ele>1268</ele>
        <time>2014-05-14T08:17:33.000Z</time>
      </trkpt>
      <trkpt lat="42.11507" lon="9.14126">
        <ele>1270.1999511719</ele>
        <time>2014-05-14T08:17:40.000Z</time>
      </trkpt>
      <trkpt lat="42.11507" lon="9.14129">
        <ele>1271.4000244141</ele>
        <time>2014-05-14T08:17:42.000Z</time>
      </trkpt>
      <trkpt lat="42.11506" lon="9.14132">
        <ele>1272.5999755859</ele>
        <time>2014-05-14T08:17:45.000Z</time>
      </trkpt>
      <trkpt lat="42.11506" lon="9.14133">
        <ele>1272.8000488281</ele>
        <time>2014-05-14T08:17:46.000Z</time>
      </trkpt>
      <trkpt lat="42.11506" lon="9.14134">
        <ele>1273</ele>
        <time>2014-05-14T08:17:47.000Z</time>
      </trkpt>
      <trkpt lat="42.11504" lon="9.14135">
        <ele>1273.5999755859</ele>
        <time>2014-05-14T08:17:50.000Z</time>
      </trkpt>
      <trkpt lat="42.11504" lon="9.14139">
        <ele>1275.1999511719</ele>
        <time>2014-05-14T08:17:53.000Z</time>
      </trkpt>
      <trkpt lat="42.11504" lon="9.14141">
        <ele>1275.8000488281</ele>
        <time>2014-05-14T08:17:54.000Z</time>
      </trkpt>
      <trkpt lat="42.11506" lon="9.14141">
        <ele>1276</ele>
        <time>2014-05-14T08:18:01.000Z</time>
      </trkpt>
      <trkpt lat="42.11508" lon="9.14141">
        <ele>1275.8000488281</ele>
        <time>2014-05-14T08:18:07.000Z</time>
      </trkpt>
      <trkpt lat="42.1151" lon="9.14141">
        <ele>1276</ele>
        <time>2014-05-14T08:18:12.000Z</time>
      </trkpt>
      <trkpt lat="42.11514" lon="9.14142">
        <ele>1276.5999755859</ele>
        <time>2014-05-14T08:18:19.000Z</time>
      </trkpt>
      <trkpt lat="42.11518" lon="9.14144">
        <ele>1277.1999511719</ele>
        <time>2014-05-14T08:18:25.000Z</time>
      </trkpt>
      <trkpt lat="42.11523" lon="9.14146">
        <ele>1278.1999511719</ele>
        <time>2014-05-14T08:18:31.000Z</time>
      </trkpt>
      <trkpt lat="42.11527" lon="9.14148">
        <ele>1279</ele>
        <time>2014-05-14T08:18:35.000Z</time>
      </trkpt>
      <trkpt lat="42.11529" lon="9.14149">
        <ele>1279.4000244141</ele>
        <time>2014-05-14T08:18:37.000Z</time>
      </trkpt>
      <trkpt lat="42.11531" lon="9.14149">
        <ele>1279.8000488281</ele>
        <time>2014-05-14T08:18:39.000Z</time>
      </trkpt>
      <trkpt lat="42.11532" lon="9.1415">
        <ele>1280</ele>
        <time>2014-05-14T08:18:40.000Z</time>
      </trkpt>
      <trkpt lat="42.11535" lon="9.14152">
        <ele>1280.8000488281</ele>
        <time>2014-05-14T08:18:43.000Z</time>
      </trkpt>
      <trkpt lat="42.11536" lon="9.14152">
        <ele>1281</ele>
        <time>2014-05-14T08:18:44.000Z</time>
      </trkpt>
      <trkpt lat="42.11539" lon="9.14153">
        <ele>1281.4000244141</ele>
        <time>2014-05-14T08:18:49.000Z</time>
      </trkpt>
      <trkpt lat="42.1154" lon="9.14154">
        <ele>1281.5999755859</ele>
        <time>2014-05-14T08:18:50.000Z</time>
      </trkpt>
      <trkpt lat="42.11541" lon="9.14155">
        <ele>1282</ele>
        <time>2014-05-14T08:18:52.000Z</time>
      </trkpt>
      <trkpt lat="42.11544" lon="9.14157">
        <ele>1283</ele>
        <time>2014-05-14T08:18:57.000Z</time>
      </trkpt>
      <trkpt lat="42.11548" lon="9.14161">
        <ele>1284.4000244141</ele>
        <time>2014-05-14T08:19:05.000Z</time>
      </trkpt>
      <trkpt lat="42.1155" lon="9.14164">
        <ele>1285.8000488281</ele>
        <time>2014-05-14T08:19:11.000Z</time>
      </trkpt>
      <trkpt lat="42.11548" lon="9.14164">
        <ele>1286</ele>
        <time>2014-05-14T08:19:16.000Z</time>
      </trkpt>
      <trkpt lat="42.11546" lon="9.14166">
        <ele>1286.4000244141</ele>
        <time>2014-05-14T08:19:22.000Z</time>
      </trkpt>
      <trkpt lat="42.1154" lon="9.1417">
        <ele>1287.8000488281</ele>
        <time>2014-05-14T08:19:31.000Z</time>
      </trkpt>
      <trkpt lat="42.11537" lon="9.14173">
        <ele>1289</ele>
        <time>2014-05-14T08:19:38.000Z</time>
      </trkpt>
      <trkpt lat="42.11533" lon="9.14175">
        <ele>1289.5999755859</ele>
        <time>2014-05-14T08:19:43.000Z</time>
      </trkpt>
      <trkpt lat="42.11529" lon="9.14178">
        <ele>1290.5999755859</ele>
        <time>2014-05-14T08:19:49.000Z</time>
      </trkpt>
      <trkpt lat="42.11526" lon="9.1418">
        <ele>1291.5999755859</ele>
        <time>2014-05-14T08:19:55.000Z</time>
      </trkpt>
      <trkpt lat="42.11522" lon="9.14189">
        <ele>1294.5999755859</ele>
        <time>2014-05-14T08:20:02.000Z</time>
      </trkpt>
      <trkpt lat="42.11521" lon="9.1419">
        <ele>1295</ele>
        <time>2014-05-14T08:20:03.000Z</time>
      </trkpt>
      <trkpt lat="42.11518" lon="9.14194">
        <ele>1296.5999755859</ele>
        <time>2014-05-14T08:20:10.000Z</time>
      </trkpt>
      <trkpt lat="42.11516" lon="9.14197">
        <ele>1297.8000488281</ele>
        <time>2014-05-14T08:20:12.000Z</time>
      </trkpt>
      <trkpt lat="42.11514" lon="9.142">
        <ele>1299</ele>
        <time>2014-05-14T08:20:16.000Z</time>
      </trkpt>
      <trkpt lat="42.11513" lon="9.14201">
        <ele>1299.8000488281</ele>
        <time>2014-05-14T08:20:18.000Z</time>
      </trkpt>
      <trkpt lat="42.11512" lon="9.14206">
        <ele>1301.8000488281</ele>
        <time>2014-05-14T08:20:23.000Z</time>
      </trkpt>
      <trkpt lat="42.11509" lon="9.14212">
        <ele>1304.1999511719</ele>
        <time>2014-05-14T08:20:30.000Z</time>
      </trkpt>
      <trkpt lat="42.11508" lon="9.14219">
        <ele>1306.5999755859</ele>
        <time>2014-05-14T08:20:37.000Z</time>
      </trkpt>
      <trkpt lat="42.11507" lon="9.14225">
        <ele>1308.8000488281</ele>
        <time>2014-05-14T08:20:44.000Z</time>
      </trkpt>
      <trkpt lat="42.11506" lon="9.14231">
        <ele>1311</ele>
        <time>2014-05-14T08:20:50.000Z</time>
      </trkpt>
      <trkpt lat="42.11503" lon="9.14239">
        <ele>1313.4000244141</ele>
        <time>2014-05-14T08:20:58.000Z</time>
      </trkpt>
      <trkpt lat="42.11503" lon="9.14241">
        <ele>1314</ele>
        <time>2014-05-14T08:20:59.000Z</time>
      </trkpt>
      <trkpt lat="42.11503" lon="9.14245">
        <ele>1315.4000244141</ele>
        <time>2014-05-14T08:21:02.000Z</time>
      </trkpt>
      <trkpt lat="42.11502" lon="9.14247">
        <ele>1316</ele>
        <time>2014-05-14T08:21:04.000Z</time>
      </trkpt>
      <trkpt lat="42.11502" lon="9.1425">
        <ele>1317</ele>
        <time>2014-05-14T08:21:07.000Z</time>
      </trkpt>
      <trkpt lat="42.11501" lon="9.14252">
        <ele>1318</ele>
        <time>2014-05-14T08:21:09.000Z</time>
      </trkpt>
      <trkpt lat="42.11501" lon="9.14255">
        <ele>1318.8000488281</ele>
        <time>2014-05-14T08:21:11.000Z</time>
      </trkpt>
      <trkpt lat="42.11501" lon="9.14256">
        <ele>1319</ele>
        <time>2014-05-14T08:21:12.000Z</time>
      </trkpt>
      <trkpt lat="42.115" lon="9.14259">
        <ele>1320</ele>
        <time>2014-05-14T08:21:15.000Z</time>
      </trkpt>
      <trkpt lat="42.115" lon="9.14259">
        <ele>1320.1999511719</ele>
        <time>2014-05-14T08:21:16.000Z</time>
      </trkpt>
      <trkpt lat="42.115" lon="9.14261">
        <ele>1320.8000488281</ele>
        <time>2014-05-14T08:21:17.000Z</time>
      </trkpt>
      <trkpt lat="42.11499" lon="9.14264">
        <ele>1322</ele>
        <time>2014-05-14T08:21:21.000Z</time>
      </trkpt>
      <trkpt lat="42.115" lon="9.14268">
        <ele>1323.4000244141</ele>
        <time>2014-05-14T08:21:25.000Z</time>
      </trkpt>
      <trkpt lat="42.11498" lon="9.14276">
        <ele>1326</ele>
        <time>2014-05-14T08:21:34.000Z</time>
      </trkpt>
      <trkpt lat="42.11496" lon="9.14283">
        <ele>1328.4000244141</ele>
        <time>2014-05-14T08:21:42.000Z</time>
      </trkpt>
      <trkpt lat="42.11494" lon="9.14293">
        <ele>1332</ele>
        <time>2014-05-14T08:22:34.000Z</time>
      </trkpt>
      <trkpt lat="42.11496" lon="9.14295">
        <ele>1333.1999511719</ele>
        <time>2014-05-14T08:23:38.000Z</time>
      </trkpt>
      <trkpt lat="42.11496" lon="9.14297">
        <ele>1334</ele>
        <time>2014-05-14T08:24:30.000Z</time>
      </trkpt>
      <trkpt lat="42.11489" lon="9.14303">
        <ele>1335</ele>
        <time>2014-05-14T08:25:20.000Z</time>
      </trkpt>
      <trkpt lat="42.11488" lon="9.14305">
        <ele>1335.4000244141</ele>
        <time>2014-05-14T08:25:25.000Z</time>
      </trkpt>
      <trkpt lat="42.11487" lon="9.14309">
        <ele>1336.5999755859</ele>
        <time>2014-05-14T08:25:31.000Z</time>
      </trkpt>
      <trkpt lat="42.11488" lon="9.14306">
        <ele>1336</ele>
        <time>2014-05-14T08:25:36.000Z</time>
      </trkpt>
      <trkpt lat="42.1149" lon="9.14303">
        <ele>1335.1999511719</ele>
        <time>2014-05-14T08:25:41.000Z</time>
      </trkpt>
      <trkpt lat="42.11493" lon="9.14299">
        <ele>1334.1999511719</ele>
        <time>2014-05-14T08:25:46.000Z</time>
      </trkpt>
      <trkpt lat="42.11498" lon="9.14292">
        <ele>1332.5999755859</ele>
        <time>2014-05-14T08:25:54.000Z</time>
      </trkpt>
      <trkpt lat="42.11502" lon="9.14287">
        <ele>1331.4000244141</ele>
        <time>2014-05-14T08:25:59.000Z</time>
      </trkpt>
      <trkpt lat="42.11503" lon="9.14283">
        <ele>1330</ele>
        <time>2014-05-14T08:26:02.000Z</time>
      </trkpt>
      <trkpt lat="42.11506" lon="9.14278">
        <ele>1327.8000488281</ele>
        <time>2014-05-14T08:26:08.000Z</time>
      </trkpt>
      <trkpt lat="42.11508" lon="9.14276">
        <ele>1327.4000244141</ele>
        <time>2014-05-14T08:26:11.000Z</time>
      </trkpt>
      <trkpt lat="42.11512" lon="9.14273">
        <ele>1326.5999755859</ele>
        <time>2014-05-14T08:26:17.000Z</time>
      </trkpt>
      <trkpt lat="42.11517" lon="9.14269">
        <ele>1325.8000488281</ele>
        <time>2014-05-14T08:26:22.000Z</time>
      </trkpt>
      <trkpt lat="42.11518" lon="9.14269">
        <ele>1326</ele>
        <time>2014-05-14T08:26:24.000Z</time>
      </trkpt>
      <trkpt lat="42.11519" lon="9.14269">
        <ele>1326</ele>
        <time>2014-05-14T08:26:26.000Z</time>
      </trkpt>
      <trkpt lat="42.11521" lon="9.14269">
        <ele>1326.1999511719</ele>
        <time>2014-05-14T08:26:28.000Z</time>
      </trkpt>
      <trkpt lat="42.11526" lon="9.14268">
        <ele>1326.4000244141</ele>
        <time>2014-05-14T08:26:33.000Z</time>
      </trkpt>
      <trkpt lat="42.11533" lon="9.14267">
        <ele>1327</ele>
        <time>2014-05-14T08:26:40.000Z</time>
      </trkpt>
      <trkpt lat="42.11534" lon="9.14268">
        <ele>1327.1999511719</ele>
        <time>2014-05-14T08:26:42.000Z</time>
      </trkpt>
      <trkpt lat="42.11537" lon="9.14268">
        <ele>1328</ele>
        <time>2014-05-14T08:26:48.000Z</time>
      </trkpt>
      <trkpt lat="42.11542" lon="9.14268">
        <ele>1328.5999755859</ele>
        <time>2014-05-14T08:26:54.000Z</time>
      </trkpt>
      <trkpt lat="42.11547" lon="9.14268">
        <ele>1329</ele>
        <time>2014-05-14T08:26:59.000Z</time>
      </trkpt>
      <trkpt lat="42.11547" lon="9.14268">
        <ele>1329</ele>
        <time>2014-05-14T08:27:00.000Z</time>
      </trkpt>
      <trkpt lat="42.11553" lon="9.14268">
        <ele>1329.8000488281</ele>
        <time>2014-05-14T08:27:07.000Z</time>
      </trkpt>
      <trkpt lat="42.11554" lon="9.14269">
        <ele>1330</ele>
        <time>2014-05-14T08:27:08.000Z</time>
      </trkpt>
      <trkpt lat="42.11558" lon="9.1427">
        <ele>1330.8000488281</ele>
        <time>2014-05-14T08:27:13.000Z</time>
      </trkpt>
      <trkpt lat="42.1156" lon="9.14271">
        <ele>1331.5999755859</ele>
        <time>2014-05-14T08:27:20.000Z</time>
      </trkpt>
      <trkpt lat="42.11564" lon="9.14274">
        <ele>1333.1999511719</ele>
        <time>2014-05-14T08:27:44.000Z</time>
      </trkpt>
      <trkpt lat="42.11567" lon="9.14275">
        <ele>1333.8000488281</ele>
        <time>2014-05-14T08:27:47.000Z</time>
      </trkpt>
      <trkpt lat="42.11567" lon="9.14277">
        <ele>1334.5999755859</ele>
        <time>2014-05-14T08:27:50.000Z</time>
      </trkpt>
      <trkpt lat="42.11562" lon="9.1428">
        <ele>1335.5999755859</ele>
        <time>2014-05-14T08:27:58.000Z</time>
      </trkpt>
      <trkpt lat="42.11559" lon="9.14285">
        <ele>1337.4000244141</ele>
        <time>2014-05-14T08:28:05.000Z</time>
      </trkpt>
      <trkpt lat="42.11556" lon="9.14288">
        <ele>1338.4000244141</ele>
        <time>2014-05-14T08:28:11.000Z</time>
      </trkpt>
      <trkpt lat="42.11554" lon="9.14291">
        <ele>1339.5999755859</ele>
        <time>2014-05-14T08:28:16.000Z</time>
      </trkpt>
      <trkpt lat="42.11553" lon="9.14295">
        <ele>1341.4000244141</ele>
        <time>2014-05-14T08:28:21.000Z</time>
      </trkpt>
      <trkpt lat="42.11552" lon="9.14295">
        <ele>1341.5999755859</ele>
        <time>2014-05-14T08:28:26.000Z</time>
      </trkpt>
      <trkpt lat="42.11545" lon="9.14285">
        <ele>1335.8000488281</ele>
        <time>2014-05-14T08:30:17.000Z</time>
      </trkpt>
      <trkpt lat="42.11545" lon="9.14287">
        <ele>1336.8000488281</ele>
        <time>2014-05-14T08:30:26.000Z</time>
      </trkpt>
      <trkpt lat="42.11544" lon="9.14294">
        <ele>1339.8000488281</ele>
        <time>2014-05-14T08:30:32.000Z</time>
      </trkpt>
      <trkpt lat="42.11544" lon="9.14298">
        <ele>1342.1999511719</ele>
        <time>2014-05-14T08:30:36.000Z</time>
      </trkpt>
      <trkpt lat="42.11544" lon="9.14301">
        <ele>1343.4000244141</ele>
        <time>2014-05-14T08:30:38.000Z</time>
      </trkpt>
      <trkpt lat="42.11543" lon="9.14305">
        <ele>1345.1999511719</ele>
        <time>2014-05-14T08:30:41.000Z</time>
      </trkpt>
      <trkpt lat="42.11543" lon="9.14308">
        <ele>1346.5999755859</ele>
        <time>2014-05-14T08:30:45.000Z</time>
      </trkpt>
      <trkpt lat="42.11543" lon="9.1431">
        <ele>1347.5999755859</ele>
        <time>2014-05-14T08:30:47.000Z</time>
      </trkpt>
      <trkpt lat="42.11544" lon="9.14314">
        <ele>1349.5999755859</ele>
        <time>2014-05-14T08:30:54.000Z</time>
      </trkpt>
      <trkpt lat="42.11548" lon="9.14313">
        <ele>1349.5999755859</ele>
        <time>2014-05-14T08:31:00.000Z</time>
      </trkpt>
      <trkpt lat="42.11553" lon="9.14314">
        <ele>1350.5999755859</ele>
        <time>2014-05-14T08:31:06.000Z</time>
      </trkpt>
      <trkpt lat="42.11557" lon="9.14315">
        <ele>1351.5999755859</ele>
        <time>2014-05-14T08:31:12.000Z</time>
      </trkpt>
      <trkpt lat="42.11558" lon="9.14315">
        <ele>1351.8000488281</ele>
        <time>2014-05-14T08:31:13.000Z</time>
      </trkpt>
      <trkpt lat="42.1156" lon="9.14315">
        <ele>1352.1999511719</ele>
        <time>2014-05-14T08:31:17.000Z</time>
      </trkpt>
      <trkpt lat="42.11564" lon="9.14315">
        <ele>1352.5999755859</ele>
        <time>2014-05-14T08:31:24.000Z</time>
      </trkpt>
      <trkpt lat="42.11564" lon="9.14316">
        <ele>1352.8000488281</ele>
        <time>2014-05-14T08:31:27.000Z</time>
      </trkpt>
      <trkpt lat="42.11563" lon="9.14316">
        <ele>1352.5999755859</ele>
        <time>2014-05-14T08:31:28.000Z</time>
      </trkpt>
      <trkpt lat="42.11566" lon="9.14318">
        <ele>1354.1999511719</ele>
        <time>2014-05-14T08:31:34.000Z</time>
      </trkpt>
      <trkpt lat="42.11568" lon="9.14319">
        <ele>1354.5999755859</ele>
        <time>2014-05-14T08:31:41.000Z</time>
      </trkpt>
      <trkpt lat="42.1157" lon="9.14319">
        <ele>1355.1999511719</ele>
        <time>2014-05-14T08:31:52.000Z</time>
      </trkpt>
      <trkpt lat="42.11569" lon="9.14321">
        <ele>1356.1999511719</ele>
        <time>2014-05-14T08:32:06.000Z</time>
      </trkpt>
      <trkpt lat="42.11575" lon="9.14325">
        <ele>1358.8000488281</ele>
        <time>2014-05-14T08:33:20.000Z</time>
      </trkpt>
      <trkpt lat="42.11578" lon="9.14326">
        <ele>1359.5999755859</ele>
        <time>2014-05-14T08:33:26.000Z</time>
      </trkpt>
      <trkpt lat="42.1158" lon="9.1433">
        <ele>1361.4000244141</ele>
        <time>2014-05-14T08:33:32.000Z</time>
      </trkpt>
      <trkpt lat="42.11583" lon="9.14332">
        <ele>1361.8000488281</ele>
        <time>2014-05-14T08:33:37.000Z</time>
      </trkpt>
      <trkpt lat="42.11586" lon="9.14333">
        <ele>1362.4000244141</ele>
        <time>2014-05-14T08:33:42.000Z</time>
      </trkpt>
      <trkpt lat="42.1159" lon="9.14337">
        <ele>1364</ele>
        <time>2014-05-14T08:33:50.000Z</time>
      </trkpt>
      <trkpt lat="42.11594" lon="9.14339">
        <ele>1364.8000488281</ele>
        <time>2014-05-14T08:33:55.000Z</time>
      </trkpt>
      <trkpt lat="42.11592" lon="9.14342">
        <ele>1366.1999511719</ele>
        <time>2014-05-14T08:34:00.000Z</time>
      </trkpt>
      <trkpt lat="42.11589" lon="9.14345">
        <ele>1367.8000488281</ele>
        <time>2014-05-14T08:34:07.000Z</time>
      </trkpt>
      <trkpt lat="42.11585" lon="9.14348">
        <ele>1369.5999755859</ele>
        <time>2014-05-14T08:34:12.000Z</time>
      </trkpt>
      <trkpt lat="42.11581" lon="9.14352">
        <ele>1371.8000488281</ele>
        <time>2014-05-14T08:34:19.000Z</time>
      </trkpt>
      <trkpt lat="42.11577" lon="9.14356">
        <ele>1373.5999755859</ele>
        <time>2014-05-14T08:34:27.000Z</time>
      </trkpt>
      <trkpt lat="42.11573" lon="9.14359">
        <ele>1374.4000244141</ele>
        <time>2014-05-14T08:34:32.000Z</time>
      </trkpt>
      <trkpt lat="42.1157" lon="9.14364">
        <ele>1375.8000488281</ele>
        <time>2014-05-14T08:34:39.000Z</time>
      </trkpt>
      <trkpt lat="42.11568" lon="9.14368">
        <ele>1377</ele>
        <time>2014-05-14T08:34:44.000Z</time>
      </trkpt>
      <trkpt lat="42.11567" lon="9.14373">
        <ele>1378.5999755859</ele>
        <time>2014-05-14T08:34:50.000Z</time>
      </trkpt>
      <trkpt lat="42.11564" lon="9.14377">
        <ele>1379.4000244141</ele>
        <time>2014-05-14T08:34:56.000Z</time>
      </trkpt>
      <trkpt lat="42.11562" lon="9.1438">
        <ele>1380.4000244141</ele>
        <time>2014-05-14T08:35:02.000Z</time>
      </trkpt>
      <trkpt lat="42.11559" lon="9.14385">
        <ele>1381.8000488281</ele>
        <time>2014-05-14T08:35:08.000Z</time>
      </trkpt>
      <trkpt lat="42.11557" lon="9.1439">
        <ele>1383.1999511719</ele>
        <time>2014-05-14T08:35:14.000Z</time>
      </trkpt>
      <trkpt lat="42.11557" lon="9.14391">
        <ele>1383.5999755859</ele>
        <time>2014-05-14T08:35:21.000Z</time>
      </trkpt>
      <trkpt lat="42.1156" lon="9.14389">
        <ele>1383.5999755859</ele>
        <time>2014-05-14T08:35:26.000Z</time>
      </trkpt>
      <trkpt lat="42.11562" lon="9.14389">
        <ele>1383.8000488281</ele>
        <time>2014-05-14T08:35:31.000Z</time>
      </trkpt>
      <trkpt lat="42.11566" lon="9.14389">
        <ele>1384.5999755859</ele>
        <time>2014-05-14T08:35:37.000Z</time>
      </trkpt>
      <trkpt lat="42.11568" lon="9.14388">
        <ele>1384.8000488281</ele>
        <time>2014-05-14T08:35:41.000Z</time>
      </trkpt>
      <trkpt lat="42.1157" lon="9.14389">
        <ele>1385.5999755859</ele>
        <time>2014-05-14T08:35:46.000Z</time>
      </trkpt>
      <trkpt lat="42.11576" lon="9.14387">
        <ele>1386</ele>
        <time>2014-05-14T08:35:54.000Z</time>
      </trkpt>
      <trkpt lat="42.11581" lon="9.14387">
        <ele>1386.5999755859</ele>
        <time>2014-05-14T08:36:01.000Z</time>
      </trkpt>
      <trkpt lat="42.11586" lon="9.1439">
        <ele>1388</ele>
        <time>2014-05-14T08:36:08.000Z</time>
      </trkpt>
      <trkpt lat="42.11584" lon="9.14393">
        <ele>1389.1999511719</ele>
        <time>2014-05-14T08:36:14.000Z</time>
      </trkpt>
      <trkpt lat="42.11581" lon="9.14398">
        <ele>1391</ele>
        <time>2014-05-14T08:36:21.000Z</time>
      </trkpt>
      <trkpt lat="42.11579" lon="9.14402">
        <ele>1392.4000244141</ele>
        <time>2014-05-14T08:36:27.000Z</time>
      </trkpt>
      <trkpt lat="42.11579" lon="9.14406">
        <ele>1394.1999511719</ele>
        <time>2014-05-14T08:36:32.000Z</time>
      </trkpt>
      <trkpt lat="42.1158" lon="9.14407">
        <ele>1394.4000244141</ele>
        <time>2014-05-14T08:36:39.000Z</time>
      </trkpt>
      <trkpt lat="42.11581" lon="9.14408">
        <ele>1395</ele>
        <time>2014-05-14T08:36:45.000Z</time>
      </trkpt>
      <trkpt lat="42.11584" lon="9.14409">
        <ele>1395.4000244141</ele>
        <time>2014-05-14T08:36:50.000Z</time>
      </trkpt>
      <trkpt lat="42.11586" lon="9.14409">
        <ele>1395.4000244141</ele>
        <time>2014-05-14T08:36:55.000Z</time>
      </trkpt>
      <trkpt lat="42.11588" lon="9.14409">
        <ele>1395.5999755859</ele>
        <time>2014-05-14T08:37:01.000Z</time>
      </trkpt>
      <trkpt lat="42.11592" lon="9.1441">
        <ele>1396.1999511719</ele>
        <time>2014-05-14T08:37:11.000Z</time>
      </trkpt>
      <trkpt lat="42.11596" lon="9.14413">
        <ele>1397.5999755859</ele>
        <time>2014-05-14T08:37:18.000Z</time>
      </trkpt>
      <trkpt lat="42.116" lon="9.14413">
        <ele>1397.5999755859</ele>
        <time>2014-05-14T08:37:24.000Z</time>
      </trkpt>
      <trkpt lat="42.11605" lon="9.14414">
        <ele>1398.4000244141</ele>
        <time>2014-05-14T08:37:32.000Z</time>
      </trkpt>
      <trkpt lat="42.11609" lon="9.14415">
        <ele>1398.8000488281</ele>
        <time>2014-05-14T08:37:38.000Z</time>
      </trkpt>
      <trkpt lat="42.11612" lon="9.14419">
        <ele>1400.8000488281</ele>
        <time>2014-05-14T08:37:45.000Z</time>
      </trkpt>
      <trkpt lat="42.11615" lon="9.14422">
        <ele>1402</ele>
        <time>2014-05-14T08:37:51.000Z</time>
      </trkpt>
      <trkpt lat="42.11616" lon="9.14425">
        <ele>1403.4000244141</ele>
        <time>2014-05-14T08:38:00.000Z</time>
      </trkpt>
      <trkpt lat="42.11616" lon="9.14427">
        <ele>1404</ele>
        <time>2014-05-14T08:38:06.000Z</time>
      </trkpt>
      <trkpt lat="42.11618" lon="9.14428">
        <ele>1404.8000488281</ele>
        <time>2014-05-14T08:38:17.000Z</time>
      </trkpt>
      <trkpt lat="42.11617" lon="9.1443">
        <ele>1405.1999511719</ele>
        <time>2014-05-14T08:38:26.000Z</time>
      </trkpt>
      <trkpt lat="42.11617" lon="9.14433">
        <ele>1406.4000244141</ele>
        <time>2014-05-14T08:39:23.000Z</time>
      </trkpt>
      <trkpt lat="42.11615" lon="9.14433">
        <ele>1406.4000244141</ele>
        <time>2014-05-14T08:39:28.000Z</time>
      </trkpt>
      <trkpt lat="42.11616" lon="9.14432">
        <ele>1405.8000488281</ele>
        <time>2014-05-14T08:39:34.000Z</time>
      </trkpt>
      <trkpt lat="42.11616" lon="9.14432">
        <ele>1406.1999511719</ele>
        <time>2014-05-14T08:40:01.000Z</time>
      </trkpt>
      <trkpt lat="42.11619" lon="9.14432">
        <ele>1406.1999511719</ele>
        <time>2014-05-14T08:40:25.000Z</time>
      </trkpt>
      <trkpt lat="42.11619" lon="9.14434">
        <ele>1406.8000488281</ele>
        <time>2014-05-14T08:41:25.000Z</time>
      </trkpt>
      <trkpt lat="42.11618" lon="9.14431">
        <ele>1406</ele>
        <time>2014-05-14T08:42:05.000Z</time>
      </trkpt>
      <trkpt lat="42.11621" lon="9.14426">
        <ele>1404</ele>
        <time>2014-05-14T08:43:38.000Z</time>
      </trkpt>
      <trkpt lat="42.11621" lon="9.14426">
        <ele>1404</ele>
        <time>2014-05-14T08:43:49.000Z</time>
      </trkpt>
      <trkpt lat="42.11619" lon="9.14428">
        <ele>1404.5999755859</ele>
        <time>2014-05-14T08:44:04.000Z</time>
      </trkpt>
      <trkpt lat="42.11616" lon="9.14429">
        <ele>1404.8000488281</ele>
        <time>2014-05-14T08:44:09.000Z</time>
      </trkpt>
      <trkpt lat="42.11613" lon="9.14432">
        <ele>1405.8000488281</ele>
        <time>2014-05-14T08:44:16.000Z</time>
      </trkpt>
      <trkpt lat="42.11615" lon="9.14436">
        <ele>1407.5999755859</ele>
        <time>2014-05-14T08:44:22.000Z</time>
      </trkpt>
      <trkpt lat="42.11611" lon="9.14436">
        <ele>1407.4000244141</ele>
        <time>2014-05-14T08:44:27.000Z</time>
      </trkpt>
      <trkpt lat="42.11606" lon="9.14439">
        <ele>1408.4000244141</ele>
        <time>2014-05-14T08:44:34.000Z</time>
      </trkpt>
      <trkpt lat="42.11603" lon="9.1444">
        <ele>1408.5999755859</ele>
        <time>2014-05-14T08:44:39.000Z</time>
      </trkpt>
      <trkpt lat="42.11601" lon="9.14443">
        <ele>1409.5999755859</ele>
        <time>2014-05-14T08:44:46.000Z</time>
      </trkpt>
      <trkpt lat="42.116" lon="9.14445">
        <ele>1410.4000244141</ele>
        <time>2014-05-14T08:44:50.000Z</time>
      </trkpt>
      <trkpt lat="42.11597" lon="9.14449">
        <ele>1412</ele>
        <time>2014-05-14T08:44:56.000Z</time>
      </trkpt>
      <trkpt lat="42.11597" lon="9.14453">
        <ele>1413.5999755859</ele>
        <time>2014-05-14T08:45:01.000Z</time>
      </trkpt>
      <trkpt lat="42.11593" lon="9.14458">
        <ele>1415.1999511719</ele>
        <time>2014-05-14T08:45:08.000Z</time>
      </trkpt>
      <trkpt lat="42.1159" lon="9.14463">
        <ele>1417</ele>
        <time>2014-05-14T08:45:14.000Z</time>
      </trkpt>
      <trkpt lat="42.11588" lon="9.14466">
        <ele>1418.4000244141</ele>
        <time>2014-05-14T08:45:19.000Z</time>
      </trkpt>
      <trkpt lat="42.11585" lon="9.14471">
        <ele>1420.1999511719</ele>
        <time>2014-05-14T08:45:26.000Z</time>
      </trkpt>
      <trkpt lat="42.1158" lon="9.14473">
        <ele>1421.4000244141</ele>
        <time>2014-05-14T08:45:33.000Z</time>
      </trkpt>
      <trkpt lat="42.1158" lon="9.14474">
        <ele>1421.5999755859</ele>
        <time>2014-05-14T08:45:42.000Z</time>
      </trkpt>
      <trkpt lat="42.11582" lon="9.14475">
        <ele>1422.1999511719</ele>
        <time>2014-05-14T08:45:47.000Z</time>
      </trkpt>
      <trkpt lat="42.11584" lon="9.14475">
        <ele>1422.1999511719</ele>
        <time>2014-05-14T08:45:52.000Z</time>
      </trkpt>
      <trkpt lat="42.11586" lon="9.14475">
        <ele>1422</ele>
        <time>2014-05-14T08:45:57.000Z</time>
      </trkpt>
      <trkpt lat="42.11589" lon="9.14475">
        <ele>1422.1999511719</ele>
        <time>2014-05-14T08:46:03.000Z</time>
      </trkpt>
      <trkpt lat="42.11592" lon="9.14473">
        <ele>1421.5999755859</ele>
        <time>2014-05-14T08:46:08.000Z</time>
      </trkpt>
      <trkpt lat="42.11598" lon="9.14471">
        <ele>1420.5999755859</ele>
        <time>2014-05-14T08:46:15.000Z</time>
      </trkpt>
      <trkpt lat="42.11599" lon="9.14471">
        <ele>1421</ele>
        <time>2014-05-14T08:46:17.000Z</time>
      </trkpt>
      <trkpt lat="42.116" lon="9.14472">
        <ele>1421.4000244141</ele>
        <time>2014-05-14T08:46:21.000Z</time>
      </trkpt>
      <trkpt lat="42.11603" lon="9.14475">
        <ele>1422.5999755859</ele>
        <time>2014-05-14T08:46:27.000Z</time>
      </trkpt>
      <trkpt lat="42.11607" lon="9.14477">
        <ele>1423.5999755859</ele>
        <time>2014-05-14T08:46:33.000Z</time>
      </trkpt>
      <trkpt lat="42.11613" lon="9.1448">
        <ele>1424.8000488281</ele>
        <time>2014-05-14T08:46:40.000Z</time>
      </trkpt>
      <trkpt lat="42.11614" lon="9.1448">
        <ele>1425.1999511719</ele>
        <time>2014-05-14T08:46:42.000Z</time>
      </trkpt>
      <trkpt lat="42.11617" lon="9.14482">
        <ele>1426</ele>
        <time>2014-05-14T08:46:46.000Z</time>
      </trkpt>
      <trkpt lat="42.1162" lon="9.14484">
        <ele>1426.8000488281</ele>
        <time>2014-05-14T08:46:50.000Z</time>
      </trkpt>
      <trkpt lat="42.11622" lon="9.14484">
        <ele>1427.1999511719</ele>
        <time>2014-05-14T08:46:52.000Z</time>
      </trkpt>
      <trkpt lat="42.11625" lon="9.14485">
        <ele>1427.5999755859</ele>
        <time>2014-05-14T08:46:55.000Z</time>
      </trkpt>
      <trkpt lat="42.11626" lon="9.14485">
        <ele>1427.5999755859</ele>
        <time>2014-05-14T08:46:56.000Z</time>
      </trkpt>
      <trkpt lat="42.11628" lon="9.14486">
        <ele>1428</ele>
        <time>2014-05-14T08:47:00.000Z</time>
      </trkpt>
      <trkpt lat="42.11631" lon="9.14485">
        <ele>1428</ele>
        <time>2014-05-14T08:47:05.000Z</time>
      </trkpt>
      <trkpt lat="42.11636" lon="9.14482">
        <ele>1427</ele>
        <time>2014-05-14T08:47:10.000Z</time>
      </trkpt>
      <trkpt lat="42.11639" lon="9.14481">
        <ele>1426.8000488281</ele>
        <time>2014-05-14T08:47:14.000Z</time>
      </trkpt>
      <trkpt lat="42.11641" lon="9.14482">
        <ele>1427</ele>
        <time>2014-05-14T08:47:17.000Z</time>
      </trkpt>
      <trkpt lat="42.11646" lon="9.14481">
        <ele>1426.8000488281</ele>
        <time>2014-05-14T08:47:22.000Z</time>
      </trkpt>
      <trkpt lat="42.11652" lon="9.14483">
        <ele>1427.8000488281</ele>
        <time>2014-05-14T08:47:27.000Z</time>
      </trkpt>
      <trkpt lat="42.11653" lon="9.14483">
        <ele>1428</ele>
        <time>2014-05-14T08:47:28.000Z</time>
      </trkpt>
      <trkpt lat="42.11656" lon="9.14482">
        <ele>1428</ele>
        <time>2014-05-14T08:47:32.000Z</time>
      </trkpt>
      <trkpt lat="42.11657" lon="9.14482">
        <ele>1427.8000488281</ele>
        <time>2014-05-14T08:47:34.000Z</time>
      </trkpt>
      <trkpt lat="42.11658" lon="9.14482">
        <ele>1428</ele>
        <time>2014-05-14T08:47:36.000Z</time>
      </trkpt>
      <trkpt lat="42.1166" lon="9.14483">
        <ele>1428.4000244141</ele>
        <time>2014-05-14T08:47:40.000Z</time>
      </trkpt>
      <trkpt lat="42.11664" lon="9.14485">
        <ele>1428.1999511719</ele>
        <time>2014-05-14T08:47:46.000Z</time>
      </trkpt>
      <trkpt lat="42.11666" lon="9.14492">
        <ele>1429.8000488281</ele>
        <time>2014-05-14T08:47:54.000Z</time>
      </trkpt>
      <trkpt lat="42.11668" lon="9.14497">
        <ele>1431.1999511719</ele>
        <time>2014-05-14T08:47:59.000Z</time>
      </trkpt>
      <trkpt lat="42.11668" lon="9.14499">
        <ele>1432</ele>
        <time>2014-05-14T08:48:05.000Z</time>
      </trkpt>
      <trkpt lat="42.11668" lon="9.14504">
        <ele>1433.8000488281</ele>
        <time>2014-05-14T08:48:11.000Z</time>
      </trkpt>
      <trkpt lat="42.11669" lon="9.14509">
        <ele>1435.4000244141</ele>
        <time>2014-05-14T08:48:17.000Z</time>
      </trkpt>
      <trkpt lat="42.11669" lon="9.1451">
        <ele>1436</ele>
        <time>2014-05-14T08:48:28.000Z</time>
      </trkpt>
      <trkpt lat="42.1167" lon="9.14513">
        <ele>1436.8000488281</ele>
        <time>2014-05-14T08:48:45.000Z</time>
      </trkpt>
      <trkpt lat="42.1167" lon="9.14519">
        <ele>1439</ele>
        <time>2014-05-14T08:48:51.000Z</time>
      </trkpt>
      <trkpt lat="42.11671" lon="9.14523">
        <ele>1440.5999755859</ele>
        <time>2014-05-14T08:48:57.000Z</time>
      </trkpt>
      <trkpt lat="42.11673" lon="9.1453">
        <ele>1442</ele>
        <time>2014-05-14T08:49:04.000Z</time>
      </trkpt>
      <trkpt lat="42.11675" lon="9.14537">
        <ele>1442.8000488281</ele>
        <time>2014-05-14T08:49:10.000Z</time>
      </trkpt>
      <trkpt lat="42.11676" lon="9.1454">
        <ele>1443</ele>
        <time>2014-05-14T08:49:12.000Z</time>
      </trkpt>
      <trkpt lat="42.11677" lon="9.14544">
        <ele>1443.5999755859</ele>
        <time>2014-05-14T08:49:15.000Z</time>
      </trkpt>
      <trkpt lat="42.11678" lon="9.14545">
        <ele>1443.5999755859</ele>
        <time>2014-05-14T08:49:16.000Z</time>
      </trkpt>
      <trkpt lat="42.11679" lon="9.1455">
        <ele>1444.4000244141</ele>
        <time>2014-05-14T08:49:21.000Z</time>
      </trkpt>
      <trkpt lat="42.11681" lon="9.14551">
        <ele>1444.4000244141</ele>
        <time>2014-05-14T08:49:23.000Z</time>
      </trkpt>
      <trkpt lat="42.11683" lon="9.14556">
        <ele>1445</ele>
        <time>2014-05-14T08:49:28.000Z</time>
      </trkpt>
      <trkpt lat="42.11684" lon="9.1456">
        <ele>1445.8000488281</ele>
        <time>2014-05-14T08:49:32.000Z</time>
      </trkpt>
      <trkpt lat="42.11685" lon="9.14564">
        <ele>1446.5999755859</ele>
        <time>2014-05-14T08:49:35.000Z</time>
      </trkpt>
      <trkpt lat="42.11688" lon="9.14571">
        <ele>1447.4000244141</ele>
        <time>2014-05-14T08:49:41.000Z</time>
      </trkpt>
      <trkpt lat="42.1169" lon="9.14579">
        <ele>1448.8000488281</ele>
        <time>2014-05-14T08:49:47.000Z</time>
      </trkpt>
      <trkpt lat="42.11693" lon="9.14587">
        <ele>1450.1999511719</ele>
        <time>2014-05-14T08:49:53.000Z</time>
      </trkpt>
      <trkpt lat="42.11693" lon="9.14588">
        <ele>1450.4000244141</ele>
        <time>2014-05-14T08:49:54.000Z</time>
      </trkpt>
      <trkpt lat="42.11694" lon="9.14591">
        <ele>1450.5999755859</ele>
        <time>2014-05-14T08:49:56.000Z</time>
      </trkpt>
      <trkpt lat="42.11695" lon="9.14595">
        <ele>1451.8000488281</ele>
        <time>2014-05-14T08:49:59.000Z</time>
      </trkpt>
      <trkpt lat="42.11696" lon="9.14602">
        <ele>1453.4000244141</ele>
        <time>2014-05-14T08:50:04.000Z</time>
      </trkpt>
      <trkpt lat="42.11697" lon="9.14603">
        <ele>1453.1999511719</ele>
        <time>2014-05-14T08:50:05.000Z</time>
      </trkpt>
      <trkpt lat="42.11699" lon="9.14604">
        <ele>1452.8000488281</ele>
        <time>2014-05-14T08:50:08.000Z</time>
      </trkpt>
      <trkpt lat="42.117" lon="9.14612">
        <ele>1454.8000488281</ele>
        <time>2014-05-14T08:51:09.000Z</time>
      </trkpt>
      <trkpt lat="42.11705" lon="9.14616">
        <ele>1453.5999755859</ele>
        <time>2014-05-14T08:51:39.000Z</time>
      </trkpt>
      <trkpt lat="42.11706" lon="9.14617">
        <ele>1453.5999755859</ele>
        <time>2014-05-14T08:51:40.000Z</time>
      </trkpt>
      <trkpt lat="42.11708" lon="9.14622">
        <ele>1454.1999511719</ele>
        <time>2014-05-14T08:51:45.000Z</time>
      </trkpt>
      <trkpt lat="42.11709" lon="9.14624">
        <ele>1454.1999511719</ele>
        <time>2014-05-14T08:51:47.000Z</time>
      </trkpt>
      <trkpt lat="42.1171" lon="9.14625">
        <ele>1454.4000244141</ele>
        <time>2014-05-14T08:51:49.000Z</time>
      </trkpt>
      <trkpt lat="42.11713" lon="9.14629">
        <ele>1454.1999511719</ele>
        <time>2014-05-14T08:51:54.000Z</time>
      </trkpt>
      <trkpt lat="42.11714" lon="9.14632">
        <ele>1454.8000488281</ele>
        <time>2014-05-14T08:51:59.000Z</time>
      </trkpt>
      <trkpt lat="42.11716" lon="9.14636">
        <ele>1455</ele>
        <time>2014-05-14T08:52:04.000Z</time>
      </trkpt>
      <trkpt lat="42.11718" lon="9.14642">
        <ele>1455.8000488281</ele>
        <time>2014-05-14T08:52:10.000Z</time>
      </trkpt>
      <trkpt lat="42.11718" lon="9.14644">
        <ele>1456.5999755859</ele>
        <time>2014-05-14T08:52:12.000Z</time>
      </trkpt>
      <trkpt lat="42.11719" lon="9.14646">
        <ele>1456.8000488281</ele>
        <time>2014-05-14T08:52:14.000Z</time>
      </trkpt>
      <trkpt lat="42.1172" lon="9.14649">
        <ele>1457.4000244141</ele>
        <time>2014-05-14T08:52:16.000Z</time>
      </trkpt>
      <trkpt lat="42.11721" lon="9.14651">
        <ele>1457.8000488281</ele>
        <time>2014-05-14T08:52:18.000Z</time>
      </trkpt>
      <trkpt lat="42.11721" lon="9.14653">
        <ele>1458.1999511719</ele>
        <time>2014-05-14T08:52:19.000Z</time>
      </trkpt>
      <trkpt lat="42.11721" lon="9.14655">
        <ele>1459</ele>
        <time>2014-05-14T08:52:21.000Z</time>
      </trkpt>
      <trkpt lat="42.11722" lon="9.14659">
        <ele>1459.8000488281</ele>
        <time>2014-05-14T08:52:25.000Z</time>
      </trkpt>
      <trkpt lat="42.11722" lon="9.14659">
        <ele>1459.5999755859</ele>
        <time>2014-05-14T08:52:26.000Z</time>
      </trkpt>
      <trkpt lat="42.11723" lon="9.14662">
        <ele>1460</ele>
        <time>2014-05-14T08:52:40.000Z</time>
      </trkpt>
      <trkpt lat="42.11724" lon="9.14664">
        <ele>1460</ele>
        <time>2014-05-14T08:52:41.000Z</time>
      </trkpt>
      <trkpt lat="42.11728" lon="9.14673">
        <ele>1461.1999511719</ele>
        <time>2014-05-14T08:52:48.000Z</time>
      </trkpt>
      <trkpt lat="42.11728" lon="9.14674">
        <ele>1461.5999755859</ele>
        <time>2014-05-14T08:52:49.000Z</time>
      </trkpt>
      <trkpt lat="42.1173" lon="9.14682">
        <ele>1463.4000244141</ele>
        <time>2014-05-14T08:52:55.000Z</time>
      </trkpt>
      <trkpt lat="42.11731" lon="9.14689">
        <ele>1464.8000488281</ele>
        <time>2014-05-14T08:53:01.000Z</time>
      </trkpt>
      <trkpt lat="42.11731" lon="9.1469">
        <ele>1465</ele>
        <time>2014-05-14T08:53:02.000Z</time>
      </trkpt>
      <trkpt lat="42.11733" lon="9.14695">
        <ele>1465.5999755859</ele>
        <time>2014-05-14T08:53:08.000Z</time>
      </trkpt>
      <trkpt lat="42.11733" lon="9.14695">
        <ele>1465.5999755859</ele>
        <time>2014-05-14T08:53:09.000Z</time>
      </trkpt>
      <trkpt lat="42.11738" lon="9.14701">
        <ele>1465</ele>
        <time>2014-05-14T08:53:47.000Z</time>
      </trkpt>
      <trkpt lat="42.11741" lon="9.14708">
        <ele>1465</ele>
        <time>2014-05-14T08:53:54.000Z</time>
      </trkpt>
      <trkpt lat="42.11743" lon="9.1471">
        <ele>1465</ele>
        <time>2014-05-14T08:53:56.000Z</time>
      </trkpt>
      <trkpt lat="42.11746" lon="9.14716">
        <ele>1465.1999511719</ele>
        <time>2014-05-14T08:54:01.000Z</time>
      </trkpt>
      <trkpt lat="42.11751" lon="9.14724">
        <ele>1466</ele>
        <time>2014-05-14T08:54:08.000Z</time>
      </trkpt>
      <trkpt lat="42.11752" lon="9.14729">
        <ele>1466.8000488281</ele>
        <time>2014-05-14T08:54:16.000Z</time>
      </trkpt>
      <trkpt lat="42.11751" lon="9.14734">
        <ele>1468.1999511719</ele>
        <time>2014-05-14T08:54:22.000Z</time>
      </trkpt>
      <trkpt lat="42.1175" lon="9.14736">
        <ele>1468.8000488281</ele>
        <time>2014-05-14T08:54:28.000Z</time>
      </trkpt>
      <trkpt lat="42.1175" lon="9.14737">
        <ele>1469</ele>
        <time>2014-05-14T08:54:37.000Z</time>
      </trkpt>
      <trkpt lat="42.11748" lon="9.14738">
        <ele>1469.5999755859</ele>
        <time>2014-05-14T08:54:55.000Z</time>
      </trkpt>
      <trkpt lat="42.11747" lon="9.14738">
        <ele>1470</ele>
        <time>2014-05-14T08:55:02.000Z</time>
      </trkpt>
      <trkpt lat="42.11747" lon="9.14738">
        <ele>1469.8000488281</ele>
        <time>2014-05-14T08:55:08.000Z</time>
      </trkpt>
      <trkpt lat="42.11747" lon="9.1474">
        <ele>1470.1999511719</ele>
        <time>2014-05-14T08:55:15.000Z</time>
      </trkpt>
      <trkpt lat="42.11748" lon="9.1474">
        <ele>1470.1999511719</ele>
        <time>2014-05-14T08:55:24.000Z</time>
      </trkpt>
      <trkpt lat="42.11748" lon="9.14741">
        <ele>1470.1999511719</ele>
        <time>2014-05-14T08:55:32.000Z</time>
      </trkpt>
      <trkpt lat="42.11746" lon="9.1474">
        <ele>1470.4000244141</ele>
        <time>2014-05-14T08:55:40.000Z</time>
      </trkpt>
      <trkpt lat="42.11746" lon="9.1474">
        <ele>1470.5999755859</ele>
        <time>2014-05-14T08:55:42.000Z</time>
      </trkpt>
      <trkpt lat="42.11748" lon="9.1474">
        <ele>1470</ele>
        <time>2014-05-14T08:55:51.000Z</time>
      </trkpt>
      <trkpt lat="42.1175" lon="9.14741">
        <ele>1470</ele>
        <time>2014-05-14T08:55:56.000Z</time>
      </trkpt>
      <trkpt lat="42.11749" lon="9.14742">
        <ele>1470.1999511719</ele>
        <time>2014-05-14T08:56:00.000Z</time>
      </trkpt>
      <trkpt lat="42.11748" lon="9.14741">
        <ele>1470.1999511719</ele>
        <time>2014-05-14T08:56:11.000Z</time>
      </trkpt>
      <trkpt lat="42.1175" lon="9.14741">
        <ele>1470</ele>
        <time>2014-05-14T08:56:39.000Z</time>
      </trkpt>
      <trkpt lat="42.11751" lon="9.1474">
        <ele>1469.5999755859</ele>
        <time>2014-05-14T08:56:45.000Z</time>
      </trkpt>
      <trkpt lat="42.11752" lon="9.14742">
        <ele>1469.8000488281</ele>
        <time>2014-05-14T08:56:50.000Z</time>
      </trkpt>
      <trkpt lat="42.11753" lon="9.1474">
        <ele>1469.1999511719</ele>
        <time>2014-05-14T08:56:55.000Z</time>
      </trkpt>
      <trkpt lat="42.11753" lon="9.14739">
        <ele>1469</ele>
        <time>2014-05-14T08:57:06.000Z</time>
      </trkpt>
      <trkpt lat="42.11752" lon="9.14741">
        <ele>1469.5999755859</ele>
        <time>2014-05-14T08:57:14.000Z</time>
      </trkpt>
      <trkpt lat="42.11751" lon="9.14741">
        <ele>1469.5999755859</ele>
        <time>2014-05-14T08:57:16.000Z</time>
      </trkpt>
      <trkpt lat="42.11751" lon="9.14742">
        <ele>1470</ele>
        <time>2014-05-14T08:57:28.000Z</time>
      </trkpt>
      <trkpt lat="42.11752" lon="9.14742">
        <ele>1469.8000488281</ele>
        <time>2014-05-14T08:57:43.000Z</time>
      </trkpt>
      <trkpt lat="42.11753" lon="9.14747">
        <ele>1470.5999755859</ele>
        <time>2014-05-14T08:59:30.000Z</time>
      </trkpt>
      <trkpt lat="42.11754" lon="9.14748">
        <ele>1470.8000488281</ele>
        <time>2014-05-14T08:59:32.000Z</time>
      </trkpt>
      <trkpt lat="42.11753" lon="9.14746">
        <ele>1470.4000244141</ele>
        <time>2014-05-14T09:00:16.000Z</time>
      </trkpt>
      <trkpt lat="42.11751" lon="9.14746">
        <ele>1470.8000488281</ele>
        <time>2014-05-14T09:02:58.000Z</time>
      </trkpt>
      <trkpt lat="42.11752" lon="9.14746">
        <ele>1470.4000244141</ele>
        <time>2014-05-14T09:03:38.000Z</time>
      </trkpt>
      <trkpt lat="42.11751" lon="9.14746">
        <ele>1470.8000488281</ele>
        <time>2014-05-14T09:04:54.000Z</time>
      </trkpt>
      <trkpt lat="42.11749" lon="9.14745">
        <ele>1470.8000488281</ele>
        <time>2014-05-14T09:05:00.000Z</time>
      </trkpt>
      <trkpt lat="42.11749" lon="9.14741">
        <ele>1470.1999511719</ele>
        <time>2014-05-14T09:06:56.000Z</time>
      </trkpt>
      <trkpt lat="42.11748" lon="9.14739">
        <ele>1469.8000488281</ele>
        <time>2014-05-14T09:07:01.000Z</time>
      </trkpt>
      <trkpt lat="42.11751" lon="9.14739">
        <ele>1469.1999511719</ele>
        <time>2014-05-14T09:07:12.000Z</time>
      </trkpt>
      <trkpt lat="42.11749" lon="9.1474">
        <ele>1470</ele>
        <time>2014-05-14T09:07:16.000Z</time>
      </trkpt>
      <trkpt lat="42.11749" lon="9.1474">
        <ele>1469.8000488281</ele>
        <time>2014-05-14T09:07:23.000Z</time>
      </trkpt>
      <trkpt lat="42.11748" lon="9.1474">
        <ele>1470.1999511719</ele>
        <time>2014-05-14T09:07:29.000Z</time>
      </trkpt>
      <trkpt lat="42.11747" lon="9.14739">
        <ele>1470.1999511719</ele>
        <time>2014-05-14T09:07:37.000Z</time>
      </trkpt>
      <trkpt lat="42.11745" lon="9.1474">
        <ele>1470.8000488281</ele>
        <time>2014-05-14T09:07:41.000Z</time>
      </trkpt>
      <trkpt lat="42.11747" lon="9.14742">
        <ele>1470.8000488281</ele>
        <time>2014-05-14T09:08:08.000Z</time>
      </trkpt>
      <trkpt lat="42.11748" lon="9.14741">
        <ele>1470.4000244141</ele>
        <time>2014-05-14T09:08:34.000Z</time>
      </trkpt>
      <trkpt lat="42.1175" lon="9.14739">
        <ele>1469.5999755859</ele>
        <time>2014-05-14T09:08:40.000Z</time>
      </trkpt>
      <trkpt lat="42.1175" lon="9.14739">
        <ele>1469.5999755859</ele>
        <time>2014-05-14T09:08:47.000Z</time>
      </trkpt>
      <trkpt lat="42.11753" lon="9.14739">
        <ele>1468.8000488281</ele>
        <time>2014-05-14T09:09:11.000Z</time>
      </trkpt>
      <trkpt lat="42.11756" lon="9.14742">
        <ele>1469</ele>
        <time>2014-05-14T09:09:14.000Z</time>
      </trkpt>
      <trkpt lat="42.11756" lon="9.14745">
        <ele>1469.5999755859</ele>
        <time>2014-05-14T09:09:20.000Z</time>
      </trkpt>
      <trkpt lat="42.11756" lon="9.14751">
        <ele>1470.8000488281</ele>
        <time>2014-05-14T09:09:28.000Z</time>
      </trkpt>
      <trkpt lat="42.11755" lon="9.14759">
        <ele>1472.8000488281</ele>
        <time>2014-05-14T09:09:34.000Z</time>
      </trkpt>
      <trkpt lat="42.11753" lon="9.14769">
        <ele>1475.4000244141</ele>
        <time>2014-05-14T09:09:42.000Z</time>
      </trkpt>
      <trkpt lat="42.11752" lon="9.14773">
        <ele>1476.4000244141</ele>
        <time>2014-05-14T09:09:47.000Z</time>
      </trkpt>
      <trkpt lat="42.1175" lon="9.14782">
        <ele>1477.5999755859</ele>
        <time>2014-05-14T09:09:54.000Z</time>
      </trkpt>
      <trkpt lat="42.11747" lon="9.14794">
        <ele>1478.8000488281</ele>
        <time>2014-05-14T09:10:04.000Z</time>
      </trkpt>
      <trkpt lat="42.11744" lon="9.14803">
        <ele>1479.5999755859</ele>
        <time>2014-05-14T09:10:11.000Z</time>
      </trkpt>
      <trkpt lat="42.11744" lon="9.14804">
        <ele>1479.8000488281</ele>
        <time>2014-05-14T09:10:12.000Z</time>
      </trkpt>
      <trkpt lat="42.11742" lon="9.14811">
        <ele>1481</ele>
        <time>2014-05-14T09:10:18.000Z</time>
      </trkpt>
      <trkpt lat="42.11741" lon="9.14812">
        <ele>1481.4000244141</ele>
        <time>2014-05-14T09:10:19.000Z</time>
      </trkpt>
      <trkpt lat="42.11737" lon="9.14816">
        <ele>1483.1999511719</ele>
        <time>2014-05-14T09:10:24.000Z</time>
      </trkpt>
      <trkpt lat="42.11734" lon="9.14824">
        <ele>1485</ele>
        <time>2014-05-14T09:10:31.000Z</time>
      </trkpt>
      <trkpt lat="42.11731" lon="9.1483">
        <ele>1486.5999755859</ele>
        <time>2014-05-14T09:10:36.000Z</time>
      </trkpt>
      <trkpt lat="42.11727" lon="9.14838">
        <ele>1488.4000244141</ele>
        <time>2014-05-14T09:10:42.000Z</time>
      </trkpt>
      <trkpt lat="42.11726" lon="9.14839">
        <ele>1488.8000488281</ele>
        <time>2014-05-14T09:10:43.000Z</time>
      </trkpt>
      <trkpt lat="42.11723" lon="9.14846">
        <ele>1490.5999755859</ele>
        <time>2014-05-14T09:10:48.000Z</time>
      </trkpt>
      <trkpt lat="42.11722" lon="9.14848">
        <ele>1490.8000488281</ele>
        <time>2014-05-14T09:10:49.000Z</time>
      </trkpt>
      <trkpt lat="42.1172" lon="9.14856">
        <ele>1492.1999511719</ele>
        <time>2014-05-14T09:10:54.000Z</time>
      </trkpt>
      <trkpt lat="42.1172" lon="9.14858">
        <ele>1492.1999511719</ele>
        <time>2014-05-14T09:10:55.000Z</time>
      </trkpt>
      <trkpt lat="42.11719" lon="9.14862">
        <ele>1492.5999755859</ele>
        <time>2014-05-14T09:10:58.000Z</time>
      </trkpt>
      <trkpt lat="42.11719" lon="9.14863">
        <ele>1492.5999755859</ele>
        <time>2014-05-14T09:10:59.000Z</time>
      </trkpt>
      <trkpt lat="42.11718" lon="9.14867">
        <ele>1492.5999755859</ele>
        <time>2014-05-14T09:11:04.000Z</time>
      </trkpt>
      <trkpt lat="42.11718" lon="9.14869">
        <ele>1492</ele>
        <time>2014-05-14T09:11:22.000Z</time>
      </trkpt>
      <trkpt lat="42.11716" lon="9.14874">
        <ele>1492.1999511719</ele>
        <time>2014-05-14T09:11:27.000Z</time>
      </trkpt>
      <trkpt lat="42.11716" lon="9.14877">
        <ele>1491.8000488281</ele>
        <time>2014-05-14T09:11:36.000Z</time>
      </trkpt>
      <trkpt lat="42.11714" lon="9.14883">
        <ele>1492</ele>
        <time>2014-05-14T09:11:51.000Z</time>
      </trkpt>
      <trkpt lat="42.11712" lon="9.14887">
        <ele>1492.4000244141</ele>
        <time>2014-05-14T09:11:56.000Z</time>
      </trkpt>
      <trkpt lat="42.11706" lon="9.14895">
        <ele>1493.8000488281</ele>
        <time>2014-05-14T09:12:02.000Z</time>
      </trkpt>
      <trkpt lat="42.11702" lon="9.14902">
        <ele>1494.8000488281</ele>
        <time>2014-05-14T09:12:07.000Z</time>
      </trkpt>
      <trkpt lat="42.11697" lon="9.14908">
        <ele>1496.8000488281</ele>
        <time>2014-05-14T09:12:12.000Z</time>
      </trkpt>
      <trkpt lat="42.11693" lon="9.14915">
        <ele>1498.5999755859</ele>
        <time>2014-05-14T09:12:17.000Z</time>
      </trkpt>
      <trkpt lat="42.1169" lon="9.14918">
        <ele>1499.4000244141</ele>
        <time>2014-05-14T09:12:20.000Z</time>
      </trkpt>
      <trkpt lat="42.11687" lon="9.14921">
        <ele>1500.5999755859</ele>
        <time>2014-05-14T09:12:23.000Z</time>
      </trkpt>
      <trkpt lat="42.11684" lon="9.14924">
        <ele>1502</ele>
        <time>2014-05-14T09:12:26.000Z</time>
      </trkpt>
      <trkpt lat="42.11681" lon="9.14927">
        <ele>1503.4000244141</ele>
        <time>2014-05-14T09:12:29.000Z</time>
      </trkpt>
      <trkpt lat="42.11678" lon="9.14932">
        <ele>1504.5999755859</ele>
        <time>2014-05-14T09:12:33.000Z</time>
      </trkpt>
      <trkpt lat="42.11676" lon="9.14934">
        <ele>1505.8000488281</ele>
        <time>2014-05-14T09:12:36.000Z</time>
      </trkpt>
      <trkpt lat="42.11674" lon="9.14937">
        <ele>1506.4000244141</ele>
        <time>2014-05-14T09:12:38.000Z</time>
      </trkpt>
      <trkpt lat="42.11669" lon="9.1494">
        <ele>1509</ele>
        <time>2014-05-14T09:12:43.000Z</time>
      </trkpt>
      <trkpt lat="42.11668" lon="9.14941">
        <ele>1509.4000244141</ele>
        <time>2014-05-14T09:12:44.000Z</time>
      </trkpt>
      <trkpt lat="42.11664" lon="9.14944">
        <ele>1511.1999511719</ele>
        <time>2014-05-14T09:12:48.000Z</time>
      </trkpt>
      <trkpt lat="42.11663" lon="9.14945">
        <ele>1511.8000488281</ele>
        <time>2014-05-14T09:12:49.000Z</time>
      </trkpt>
      <trkpt lat="42.11658" lon="9.14948">
        <ele>1512.8000488281</ele>
        <time>2014-05-14T09:12:54.000Z</time>
      </trkpt>
      <trkpt lat="42.11653" lon="9.14955">
        <ele>1513.4000244141</ele>
        <time>2014-05-14T09:13:00.000Z</time>
      </trkpt>
      <trkpt lat="42.11646" lon="9.14963">
        <ele>1514.1999511719</ele>
        <time>2014-05-14T09:13:07.000Z</time>
      </trkpt>
      <trkpt lat="42.11642" lon="9.14971">
        <ele>1514</ele>
        <time>2014-05-14T09:13:13.000Z</time>
      </trkpt>
      <trkpt lat="42.11641" lon="9.14973">
        <ele>1514</ele>
        <time>2014-05-14T09:13:16.000Z</time>
      </trkpt>
      <trkpt lat="42.11638" lon="9.14977">
        <ele>1514.1999511719</ele>
        <time>2014-05-14T09:13:20.000Z</time>
      </trkpt>
      <trkpt lat="42.11633" lon="9.14982">
        <ele>1515.1999511719</ele>
        <time>2014-05-14T09:13:26.000Z</time>
      </trkpt>
      <trkpt lat="42.11626" lon="9.1499">
        <ele>1516</ele>
        <time>2014-05-14T09:13:33.000Z</time>
      </trkpt>
      <trkpt lat="42.11624" lon="9.14993">
        <ele>1516.1999511719</ele>
        <time>2014-05-14T09:13:35.000Z</time>
      </trkpt>
      <trkpt lat="42.11621" lon="9.14997">
        <ele>1516.4000244141</ele>
        <time>2014-05-14T09:13:38.000Z</time>
      </trkpt>
      <trkpt lat="42.11619" lon="9.14999">
        <ele>1516.5999755859</ele>
        <time>2014-05-14T09:13:41.000Z</time>
      </trkpt>
      <trkpt lat="42.11616" lon="9.15005">
        <ele>1517</ele>
        <time>2014-05-14T09:13:45.000Z</time>
      </trkpt>
      <trkpt lat="42.11613" lon="9.15008">
        <ele>1517.4000244141</ele>
        <time>2014-05-14T09:13:48.000Z</time>
      </trkpt>
      <trkpt lat="42.11612" lon="9.15009">
        <ele>1517.4000244141</ele>
        <time>2014-05-14T09:13:49.000Z</time>
      </trkpt>
      <trkpt lat="42.1161" lon="9.15014">
        <ele>1517.4000244141</ele>
        <time>2014-05-14T09:13:53.000Z</time>
      </trkpt>
      <trkpt lat="42.11607" lon="9.15019">
        <ele>1517.4000244141</ele>
        <time>2014-05-14T09:13:57.000Z</time>
      </trkpt>
      <trkpt lat="42.11604" lon="9.15023">
        <ele>1517.8000488281</ele>
        <time>2014-05-14T09:14:00.000Z</time>
      </trkpt>
      <trkpt lat="42.11599" lon="9.15028">
        <ele>1518.5999755859</ele>
        <time>2014-05-14T09:14:05.000Z</time>
      </trkpt>
      <trkpt lat="42.11596" lon="9.15034">
        <ele>1519</ele>
        <time>2014-05-14T09:14:10.000Z</time>
      </trkpt>
      <trkpt lat="42.11595" lon="9.15035">
        <ele>1519.1999511719</ele>
        <time>2014-05-14T09:14:11.000Z</time>
      </trkpt>
      <trkpt lat="42.11589" lon="9.15045">
        <ele>1520</ele>
        <time>2014-05-14T09:14:19.000Z</time>
      </trkpt>
      <trkpt lat="42.11588" lon="9.15047">
        <ele>1520</ele>
        <time>2014-05-14T09:14:21.000Z</time>
      </trkpt>
      <trkpt lat="42.11586" lon="9.15048">
        <ele>1520.4000244141</ele>
        <time>2014-05-14T09:14:22.000Z</time>
      </trkpt>
      <trkpt lat="42.11583" lon="9.15051">
        <ele>1521.1999511719</ele>
        <time>2014-05-14T09:14:26.000Z</time>
      </trkpt>
      <trkpt lat="42.11582" lon="9.15052">
        <ele>1521.4000244141</ele>
        <time>2014-05-14T09:14:27.000Z</time>
      </trkpt>
      <trkpt lat="42.11576" lon="9.15057">
        <ele>1523.1999511719</ele>
        <time>2014-05-14T09:14:34.000Z</time>
      </trkpt>
      <trkpt lat="42.11571" lon="9.15061">
        <ele>1524.4000244141</ele>
        <time>2014-05-14T09:14:39.000Z</time>
      </trkpt>
      <trkpt lat="42.1157" lon="9.15062">
        <ele>1524.8000488281</ele>
        <time>2014-05-14T09:14:41.000Z</time>
      </trkpt>
      <trkpt lat="42.11567" lon="9.15063">
        <ele>1525.8000488281</ele>
        <time>2014-05-14T09:14:45.000Z</time>
      </trkpt>
      <trkpt lat="42.11565" lon="9.15065">
        <ele>1526.5999755859</ele>
        <time>2014-05-14T09:14:47.000Z</time>
      </trkpt>
      <trkpt lat="42.11561" lon="9.15072">
        <ele>1527</ele>
        <time>2014-05-14T09:14:53.000Z</time>
      </trkpt>
      <trkpt lat="42.11557" lon="9.1508">
        <ele>1527.1999511719</ele>
        <time>2014-05-14T09:15:00.000Z</time>
      </trkpt>
      <trkpt lat="42.11557" lon="9.15081">
        <ele>1527</ele>
        <time>2014-05-14T09:15:01.000Z</time>
      </trkpt>
      <trkpt lat="42.11555" lon="9.15084">
        <ele>1527</ele>
        <time>2014-05-14T09:15:05.000Z</time>
      </trkpt>
      <trkpt lat="42.11554" lon="9.15088">
        <ele>1527.1999511719</ele>
        <time>2014-05-14T09:15:08.000Z</time>
      </trkpt>
      <trkpt lat="42.11551" lon="9.15091">
        <ele>1528</ele>
        <time>2014-05-14T09:15:12.000Z</time>
      </trkpt>
      <trkpt lat="42.11548" lon="9.15099">
        <ele>1528.1999511719</ele>
        <time>2014-05-14T09:15:18.000Z</time>
      </trkpt>
      <trkpt lat="42.11543" lon="9.15107">
        <ele>1529.5999755859</ele>
        <time>2014-05-14T09:15:26.000Z</time>
      </trkpt>
      <trkpt lat="42.11538" lon="9.15112">
        <ele>1531.1999511719</ele>
        <time>2014-05-14T09:15:32.000Z</time>
      </trkpt>
      <trkpt lat="42.11534" lon="9.15117">
        <ele>1532.5999755859</ele>
        <time>2014-05-14T09:15:38.000Z</time>
      </trkpt>
      <trkpt lat="42.11533" lon="9.15118">
        <ele>1533</ele>
        <time>2014-05-14T09:15:39.000Z</time>
      </trkpt>
      <trkpt lat="42.11532" lon="9.15118">
        <ele>1533.4000244141</ele>
        <time>2014-05-14T09:15:40.000Z</time>
      </trkpt>
      <trkpt lat="42.11527" lon="9.15123">
        <ele>1535.4000244141</ele>
        <time>2014-05-14T09:15:46.000Z</time>
      </trkpt>
      <trkpt lat="42.11523" lon="9.15128">
        <ele>1536.8000488281</ele>
        <time>2014-05-14T09:15:51.000Z</time>
      </trkpt>
      <trkpt lat="42.11518" lon="9.15134">
        <ele>1538.5999755859</ele>
        <time>2014-05-14T09:15:58.000Z</time>
      </trkpt>
      <trkpt lat="42.11513" lon="9.15141">
        <ele>1539.1999511719</ele>
        <time>2014-05-14T09:16:05.000Z</time>
      </trkpt>
      <trkpt lat="42.11508" lon="9.15144">
        <ele>1540.1999511719</ele>
        <time>2014-05-14T09:16:11.000Z</time>
      </trkpt>
      <trkpt lat="42.11505" lon="9.15148">
        <ele>1540.8000488281</ele>
        <time>2014-05-14T09:16:15.000Z</time>
      </trkpt>
      <trkpt lat="42.11501" lon="9.15151">
        <ele>1541.5999755859</ele>
        <time>2014-05-14T09:16:20.000Z</time>
      </trkpt>
      <trkpt lat="42.11501" lon="9.15151">
        <ele>1541.8000488281</ele>
        <time>2014-05-14T09:16:21.000Z</time>
      </trkpt>
      <trkpt lat="42.11499" lon="9.15154">
        <ele>1541.8000488281</ele>
        <time>2014-05-14T09:16:24.000Z</time>
      </trkpt>
      <trkpt lat="42.11497" lon="9.15156">
        <ele>1542</ele>
        <time>2014-05-14T09:16:27.000Z</time>
      </trkpt>
      <trkpt lat="42.11496" lon="9.15157">
        <ele>1542.1999511719</ele>
        <time>2014-05-14T09:16:29.000Z</time>
      </trkpt>
      <trkpt lat="42.11494" lon="9.15159">
        <ele>1542.4000244141</ele>
        <time>2014-05-14T09:16:32.000Z</time>
      </trkpt>
      <trkpt lat="42.11492" lon="9.15165">
        <ele>1542.4000244141</ele>
        <time>2014-05-14T09:16:38.000Z</time>
      </trkpt>
      <trkpt lat="42.11489" lon="9.15171">
        <ele>1542</ele>
        <time>2014-05-14T09:16:44.000Z</time>
      </trkpt>
      <trkpt lat="42.11486" lon="9.15178">
        <ele>1541.8000488281</ele>
        <time>2014-05-14T09:16:51.000Z</time>
      </trkpt>
      <trkpt lat="42.11482" lon="9.15186">
        <ele>1541.8000488281</ele>
        <time>2014-05-14T09:16:59.000Z</time>
      </trkpt>
      <trkpt lat="42.1148" lon="9.15189">
        <ele>1542</ele>
        <time>2014-05-14T09:17:02.000Z</time>
      </trkpt>
      <trkpt lat="42.11478" lon="9.15193">
        <ele>1542.1999511719</ele>
        <time>2014-05-14T09:17:06.000Z</time>
      </trkpt>
      <trkpt lat="42.11477" lon="9.15197">
        <ele>1542.5999755859</ele>
        <time>2014-05-14T09:17:09.000Z</time>
      </trkpt>
      <trkpt lat="42.11475" lon="9.15204">
        <ele>1543.4000244141</ele>
        <time>2014-05-14T09:17:15.000Z</time>
      </trkpt>
      <trkpt lat="42.11472" lon="9.15211">
        <ele>1544.1999511719</ele>
        <time>2014-05-14T09:17:21.000Z</time>
      </trkpt>
      <trkpt lat="42.11469" lon="9.15218">
        <ele>1545.4000244141</ele>
        <time>2014-05-14T09:17:28.000Z</time>
      </trkpt>
      <trkpt lat="42.11467" lon="9.15225">
        <ele>1546.1999511719</ele>
        <time>2014-05-14T09:17:34.000Z</time>
      </trkpt>
      <trkpt lat="42.11467" lon="9.15226">
        <ele>1546.4000244141</ele>
        <time>2014-05-14T09:17:35.000Z</time>
      </trkpt>
      <trkpt lat="42.11465" lon="9.15232">
        <ele>1546.8000488281</ele>
        <time>2014-05-14T09:17:41.000Z</time>
      </trkpt>
      <trkpt lat="42.11465" lon="9.15233">
        <ele>1547</ele>
        <time>2014-05-14T09:17:42.000Z</time>
      </trkpt>
      <trkpt lat="42.11463" lon="9.15239">
        <ele>1547.5999755859</ele>
        <time>2014-05-14T09:17:48.000Z</time>
      </trkpt>
      <trkpt lat="42.11462" lon="9.15242">
        <ele>1548</ele>
        <time>2014-05-14T09:17:50.000Z</time>
      </trkpt>
      <trkpt lat="42.1146" lon="9.15246">
        <ele>1548.4000244141</ele>
        <time>2014-05-14T09:17:54.000Z</time>
      </trkpt>
      <trkpt lat="42.1146" lon="9.15251">
        <ele>1548</ele>
        <time>2014-05-14T09:17:59.000Z</time>
      </trkpt>
      <trkpt lat="42.1146" lon="9.15253">
        <ele>1547.8000488281</ele>
        <time>2014-05-14T09:18:01.000Z</time>
      </trkpt>
      <trkpt lat="42.1146" lon="9.15255">
        <ele>1547.8000488281</ele>
        <time>2014-05-14T09:18:03.000Z</time>
      </trkpt>
      <trkpt lat="42.11459" lon="9.15259">
        <ele>1547.5999755859</ele>
        <time>2014-05-14T09:18:07.000Z</time>
      </trkpt>
      <trkpt lat="42.11461" lon="9.15265">
        <ele>1546.4000244141</ele>
        <time>2014-05-14T09:18:14.000Z</time>
      </trkpt>
      <trkpt lat="42.11462" lon="9.15273">
        <ele>1545.4000244141</ele>
        <time>2014-05-14T09:18:21.000Z</time>
      </trkpt>
      <trkpt lat="42.11464" lon="9.15282">
        <ele>1545.1999511719</ele>
        <time>2014-05-14T09:18:29.000Z</time>
      </trkpt>
      <trkpt lat="42.11466" lon="9.15291">
        <ele>1546.5999755859</ele>
        <time>2014-05-14T09:18:36.000Z</time>
      </trkpt>
      <trkpt lat="42.1147" lon="9.15299">
        <ele>1547.1999511719</ele>
        <time>2014-05-14T09:18:44.000Z</time>
      </trkpt>
      <trkpt lat="42.11471" lon="9.15302">
        <ele>1547.4000244141</ele>
        <time>2014-05-14T09:18:47.000Z</time>
      </trkpt>
      <trkpt lat="42.11471" lon="9.15307">
        <ele>1548.1999511719</ele>
        <time>2014-05-14T09:18:51.000Z</time>
      </trkpt>
      <trkpt lat="42.11474" lon="9.15311">
        <ele>1548.4000244141</ele>
        <time>2014-05-14T09:18:55.000Z</time>
      </trkpt>
      <trkpt lat="42.11476" lon="9.15314">
        <ele>1548.4000244141</ele>
        <time>2014-05-14T09:18:58.000Z</time>
      </trkpt>
      <trkpt lat="42.1148" lon="9.15324">
        <ele>1549.4000244141</ele>
        <time>2014-05-14T09:19:07.000Z</time>
      </trkpt>
      <trkpt lat="42.11484" lon="9.15332">
        <ele>1549.5999755859</ele>
        <time>2014-05-14T09:19:15.000Z</time>
      </trkpt>
      <trkpt lat="42.11488" lon="9.15339">
        <ele>1550.1999511719</ele>
        <time>2014-05-14T09:19:22.000Z</time>
      </trkpt>
      <trkpt lat="42.11488" lon="9.15342">
        <ele>1550.4000244141</ele>
        <time>2014-05-14T09:19:24.000Z</time>
      </trkpt>
      <trkpt lat="42.11488" lon="9.15343">
        <ele>1551</ele>
        <time>2014-05-14T09:19:28.000Z</time>
      </trkpt>
      <trkpt lat="42.11483" lon="9.15343">
        <ele>1552.1999511719</ele>
        <time>2014-05-14T09:19:33.000Z</time>
      </trkpt>
      <trkpt lat="42.11479" lon="9.15346">
        <ele>1554.4000244141</ele>
        <time>2014-05-14T09:19:39.000Z</time>
      </trkpt>
      <trkpt lat="42.11474" lon="9.15346">
        <ele>1555.4000244141</ele>
        <time>2014-05-14T09:19:44.000Z</time>
      </trkpt>
      <trkpt lat="42.11472" lon="9.15345">
        <ele>1555.8000488281</ele>
        <time>2014-05-14T09:19:47.000Z</time>
      </trkpt>
      <trkpt lat="42.1147" lon="9.15345">
        <ele>1556</ele>
        <time>2014-05-14T09:19:50.000Z</time>
      </trkpt>
      <trkpt lat="42.11466" lon="9.15346">
        <ele>1557.1999511719</ele>
        <time>2014-05-14T09:19:58.000Z</time>
      </trkpt>
      <trkpt lat="42.11463" lon="9.15346">
        <ele>1557.8000488281</ele>
        <time>2014-05-14T09:20:02.000Z</time>
      </trkpt>
      <trkpt lat="42.11462" lon="9.15346">
        <ele>1558.1999511719</ele>
        <time>2014-05-14T09:20:04.000Z</time>
      </trkpt>
      <trkpt lat="42.11458" lon="9.15344">
        <ele>1558.5999755859</ele>
        <time>2014-05-14T09:20:09.000Z</time>
      </trkpt>
      <trkpt lat="42.11457" lon="9.15344">
        <ele>1558.8000488281</ele>
        <time>2014-05-14T09:20:10.000Z</time>
      </trkpt>
      <trkpt lat="42.1145" lon="9.15341">
        <ele>1560.1999511719</ele>
        <time>2014-05-14T09:20:19.000Z</time>
      </trkpt>
      <trkpt lat="42.11445" lon="9.15341">
        <ele>1561</ele>
        <time>2014-05-14T09:20:25.000Z</time>
      </trkpt>
      <trkpt lat="42.11439" lon="9.15341">
        <ele>1562.4000244141</ele>
        <time>2014-05-14T09:20:33.000Z</time>
      </trkpt>
      <trkpt lat="42.11434" lon="9.15337">
        <ele>1563</ele>
        <time>2014-05-14T09:20:40.000Z</time>
      </trkpt>
      <trkpt lat="42.11433" lon="9.15337">
        <ele>1563.1999511719</ele>
        <time>2014-05-14T09:20:41.000Z</time>
      </trkpt>
      <trkpt lat="42.1143" lon="9.15335">
        <ele>1563.5999755859</ele>
        <time>2014-05-14T09:20:45.000Z</time>
      </trkpt>
      <trkpt lat="42.11429" lon="9.15335">
        <ele>1563.8000488281</ele>
        <time>2014-05-14T09:20:46.000Z</time>
      </trkpt>
      <trkpt lat="42.11424" lon="9.15333">
        <ele>1564.8000488281</ele>
        <time>2014-05-14T09:20:53.000Z</time>
      </trkpt>
      <trkpt lat="42.11417" lon="9.15329">
        <ele>1565.8000488281</ele>
        <time>2014-05-14T09:21:01.000Z</time>
      </trkpt>
      <trkpt lat="42.11412" lon="9.15327">
        <ele>1566.5999755859</ele>
        <time>2014-05-14T09:21:07.000Z</time>
      </trkpt>
      <trkpt lat="42.11409" lon="9.15324">
        <ele>1567.1999511719</ele>
        <time>2014-05-14T09:21:11.000Z</time>
      </trkpt>
      <trkpt lat="42.11407" lon="9.15323">
        <ele>1568</ele>
        <time>2014-05-14T09:21:14.000Z</time>
      </trkpt>
      <trkpt lat="42.11407" lon="9.15328">
        <ele>1568.4000244141</ele>
        <time>2014-05-14T09:21:20.000Z</time>
      </trkpt>
      <trkpt lat="42.11411" lon="9.15335">
        <ele>1567.8000488281</ele>
        <time>2014-05-14T09:21:27.000Z</time>
      </trkpt>
      <trkpt lat="42.11412" lon="9.15341">
        <ele>1568.1999511719</ele>
        <time>2014-05-14T09:21:32.000Z</time>
      </trkpt>
      <trkpt lat="42.11416" lon="9.15347">
        <ele>1568.1999511719</ele>
        <time>2014-05-14T09:21:39.000Z</time>
      </trkpt>
      <trkpt lat="42.11416" lon="9.15347">
        <ele>1568</ele>
        <time>2014-05-14T09:21:40.000Z</time>
      </trkpt>
      <trkpt lat="42.11419" lon="9.15353">
        <ele>1568</ele>
        <time>2014-05-14T09:21:46.000Z</time>
      </trkpt>
      <trkpt lat="42.1142" lon="9.15355">
        <ele>1568</ele>
        <time>2014-05-14T09:21:48.000Z</time>
      </trkpt>
      <trkpt lat="42.11425" lon="9.1536">
        <ele>1567.8000488281</ele>
        <time>2014-05-14T09:21:54.000Z</time>
      </trkpt>
      <trkpt lat="42.11428" lon="9.15368">
        <ele>1568.5999755859</ele>
        <time>2014-05-14T09:22:01.000Z</time>
      </trkpt>
      <trkpt lat="42.11433" lon="9.15376">
        <ele>1569</ele>
        <time>2014-05-14T09:22:11.000Z</time>
      </trkpt>
      <trkpt lat="42.11437" lon="9.15383">
        <ele>1569.4000244141</ele>
        <time>2014-05-14T09:22:18.000Z</time>
      </trkpt>
      <trkpt lat="42.11442" lon="9.1539">
        <ele>1569.5999755859</ele>
        <time>2014-05-14T09:22:26.000Z</time>
      </trkpt>
      <trkpt lat="42.11446" lon="9.15397">
        <ele>1570.1999511719</ele>
        <time>2014-05-14T09:22:34.000Z</time>
      </trkpt>
      <trkpt lat="42.11447" lon="9.15401">
        <ele>1571</ele>
        <time>2014-05-14T09:22:38.000Z</time>
      </trkpt>
      <trkpt lat="42.11446" lon="9.15402">
        <ele>1571.4000244141</ele>
        <time>2014-05-14T09:22:40.000Z</time>
      </trkpt>
      <trkpt lat="42.11441" lon="9.15403">
        <ele>1572.8000488281</ele>
        <time>2014-05-14T09:22:47.000Z</time>
      </trkpt>
      <trkpt lat="42.1144" lon="9.15402">
        <ele>1572.8000488281</ele>
        <time>2014-05-14T09:22:52.000Z</time>
      </trkpt>
      <trkpt lat="42.11439" lon="9.15405">
        <ele>1573.8000488281</ele>
        <time>2014-05-14T09:22:58.000Z</time>
      </trkpt>
      <trkpt lat="42.11438" lon="9.15405">
        <ele>1574</ele>
        <time>2014-05-14T09:23:04.000Z</time>
      </trkpt>
      <trkpt lat="42.11439" lon="9.15404">
        <ele>1573.4000244141</ele>
        <time>2014-05-14T09:23:18.000Z</time>
      </trkpt>
      <trkpt lat="42.11439" lon="9.15403">
        <ele>1573.1999511719</ele>
        <time>2014-05-14T09:23:23.000Z</time>
      </trkpt>
      <trkpt lat="42.11438" lon="9.15404">
        <ele>1573.8000488281</ele>
        <time>2014-05-14T09:24:03.000Z</time>
      </trkpt>
      <trkpt lat="42.11434" lon="9.15402">
        <ele>1574.1999511719</ele>
        <time>2014-05-14T09:24:11.000Z</time>
      </trkpt>
      <trkpt lat="42.11434" lon="9.15401">
        <ele>1574.1999511719</ele>
        <time>2014-05-14T09:24:12.000Z</time>
      </trkpt>
      <trkpt lat="42.11431" lon="9.154">
        <ele>1574.5999755859</ele>
        <time>2014-05-14T09:24:17.000Z</time>
      </trkpt>
      <trkpt lat="42.11425" lon="9.15397">
        <ele>1575.4000244141</ele>
        <time>2014-05-14T09:24:23.000Z</time>
      </trkpt>
      <trkpt lat="42.11423" lon="9.15397">
        <ele>1576</ele>
        <time>2014-05-14T09:24:25.000Z</time>
      </trkpt>
      <trkpt lat="42.1142" lon="9.15396">
        <ele>1576.8000488281</ele>
        <time>2014-05-14T09:24:29.000Z</time>
      </trkpt>
      <trkpt lat="42.11417" lon="9.15397">
        <ele>1577.5999755859</ele>
        <time>2014-05-14T09:24:32.000Z</time>
      </trkpt>
      <trkpt lat="42.11414" lon="9.15397">
        <ele>1578.1999511719</ele>
        <time>2014-05-14T09:24:36.000Z</time>
      </trkpt>
      <trkpt lat="42.11409" lon="9.15396">
        <ele>1579.4000244141</ele>
        <time>2014-05-14T09:24:43.000Z</time>
      </trkpt>
      <trkpt lat="42.11404" lon="9.15395">
        <ele>1580.5999755859</ele>
        <time>2014-05-14T09:24:48.000Z</time>
      </trkpt>
      <trkpt lat="42.11404" lon="9.15395">
        <ele>1581</ele>
        <time>2014-05-14T09:24:49.000Z</time>
      </trkpt>
      <trkpt lat="42.11403" lon="9.15396">
        <ele>1581.4000244141</ele>
        <time>2014-05-14T09:24:54.000Z</time>
      </trkpt>
      <trkpt lat="42.11401" lon="9.15395">
        <ele>1581.8000488281</ele>
        <time>2014-05-14T09:25:02.000Z</time>
      </trkpt>
      <trkpt lat="42.11398" lon="9.1539">
        <ele>1581.5999755859</ele>
        <time>2014-05-14T09:25:12.000Z</time>
      </trkpt>
      <trkpt lat="42.11397" lon="9.15388">
        <ele>1581.5999755859</ele>
        <time>2014-05-14T09:25:14.000Z</time>
      </trkpt>
      <trkpt lat="42.11395" lon="9.15386">
        <ele>1581.8000488281</ele>
        <time>2014-05-14T09:25:18.000Z</time>
      </trkpt>
      <trkpt lat="42.1139" lon="9.15385">
        <ele>1583.1999511719</ele>
        <time>2014-05-14T09:25:23.000Z</time>
      </trkpt>
      <trkpt lat="42.11384" lon="9.15381">
        <ele>1584.4000244141</ele>
        <time>2014-05-14T09:25:30.000Z</time>
      </trkpt>
      <trkpt lat="42.11379" lon="9.15382">
        <ele>1586</ele>
        <time>2014-05-14T09:25:36.000Z</time>
      </trkpt>
      <trkpt lat="42.11378" lon="9.15382">
        <ele>1586.1999511719</ele>
        <time>2014-05-14T09:25:37.000Z</time>
      </trkpt>
      <trkpt lat="42.11371" lon="9.15378">
        <ele>1587.8000488281</ele>
        <time>2014-05-14T09:25:45.000Z</time>
      </trkpt>
      <trkpt lat="42.11368" lon="9.15378">
        <ele>1588.5999755859</ele>
        <time>2014-05-14T09:25:48.000Z</time>
      </trkpt>
      <trkpt lat="42.11366" lon="9.15377">
        <ele>1589</ele>
        <time>2014-05-14T09:25:50.000Z</time>
      </trkpt>
      <trkpt lat="42.11362" lon="9.15377">
        <ele>1590.1999511719</ele>
        <time>2014-05-14T09:25:58.000Z</time>
      </trkpt>
      <trkpt lat="42.11366" lon="9.15383">
        <ele>1590.1999511719</ele>
        <time>2014-05-14T09:26:04.000Z</time>
      </trkpt>
      <trkpt lat="42.11371" lon="9.1539">
        <ele>1590.4000244141</ele>
        <time>2014-05-14T09:26:12.000Z</time>
      </trkpt>
      <trkpt lat="42.11372" lon="9.15392">
        <ele>1590.4000244141</ele>
        <time>2014-05-14T09:26:14.000Z</time>
      </trkpt>
      <trkpt lat="42.11376" lon="9.15395">
        <ele>1589.8000488281</ele>
        <time>2014-05-14T09:26:19.000Z</time>
      </trkpt>
      <trkpt lat="42.11381" lon="9.15399">
        <ele>1589</ele>
        <time>2014-05-14T09:26:25.000Z</time>
      </trkpt>
      <trkpt lat="42.11383" lon="9.15401">
        <ele>1589</ele>
        <time>2014-05-14T09:26:28.000Z</time>
      </trkpt>
      <trkpt lat="42.11386" lon="9.15405">
        <ele>1589</ele>
        <time>2014-05-14T09:26:32.000Z</time>
      </trkpt>
      <trkpt lat="42.11392" lon="9.15414">
        <ele>1589.1999511719</ele>
        <time>2014-05-14T09:26:41.000Z</time>
      </trkpt>
      <trkpt lat="42.11394" lon="9.15419">
        <ele>1589.5999755859</ele>
        <time>2014-05-14T09:26:46.000Z</time>
      </trkpt>
      <trkpt lat="42.11396" lon="9.15421">
        <ele>1589.4000244141</ele>
        <time>2014-05-14T09:26:48.000Z</time>
      </trkpt>
      <trkpt lat="42.11398" lon="9.15423">
        <ele>1589.1999511719</ele>
        <time>2014-05-14T09:26:51.000Z</time>
      </trkpt>
      <trkpt lat="42.11401" lon="9.15427">
        <ele>1588.8000488281</ele>
        <time>2014-05-14T09:26:55.000Z</time>
      </trkpt>
      <trkpt lat="42.11405" lon="9.1543">
        <ele>1588.5999755859</ele>
        <time>2014-05-14T09:26:59.000Z</time>
      </trkpt>
      <trkpt lat="42.11408" lon="9.15434">
        <ele>1588.4000244141</ele>
        <time>2014-05-14T09:27:03.000Z</time>
      </trkpt>
      <trkpt lat="42.1141" lon="9.15437">
        <ele>1588.4000244141</ele>
        <time>2014-05-14T09:27:07.000Z</time>
      </trkpt>
      <trkpt lat="42.11412" lon="9.15439">
        <ele>1588.5999755859</ele>
        <time>2014-05-14T09:27:09.000Z</time>
      </trkpt>
      <trkpt lat="42.11414" lon="9.15442">
        <ele>1588.5999755859</ele>
        <time>2014-05-14T09:27:13.000Z</time>
      </trkpt>
      <trkpt lat="42.11418" lon="9.15444">
        <ele>1588.1999511719</ele>
        <time>2014-05-14T09:27:17.000Z</time>
      </trkpt>
      <trkpt lat="42.1142" lon="9.15445">
        <ele>1587.8000488281</ele>
        <time>2014-05-14T09:27:20.000Z</time>
      </trkpt>
      <trkpt lat="42.11422" lon="9.15446">
        <ele>1587.5999755859</ele>
        <time>2014-05-14T09:27:22.000Z</time>
      </trkpt>
      <trkpt lat="42.11426" lon="9.15452">
        <ele>1587.8000488281</ele>
        <time>2014-05-14T09:27:27.000Z</time>
      </trkpt>
      <trkpt lat="42.11428" lon="9.15456">
        <ele>1588.5999755859</ele>
        <time>2014-05-14T09:27:30.000Z</time>
      </trkpt>
      <trkpt lat="42.11431" lon="9.15458">
        <ele>1588.4000244141</ele>
        <time>2014-05-14T09:27:35.000Z</time>
      </trkpt>
      <trkpt lat="42.11434" lon="9.15464">
        <ele>1589.1999511719</ele>
        <time>2014-05-14T09:27:40.000Z</time>
      </trkpt>
      <trkpt lat="42.11438" lon="9.15468">
        <ele>1589</ele>
        <time>2014-05-14T09:27:45.000Z</time>
      </trkpt>
      <trkpt lat="42.1144" lon="9.15474">
        <ele>1589.8000488281</ele>
        <time>2014-05-14T09:27:51.000Z</time>
      </trkpt>
      <trkpt lat="42.11441" lon="9.15475">
        <ele>1590</ele>
        <time>2014-05-14T09:27:52.000Z</time>
      </trkpt>
      <trkpt lat="42.11444" lon="9.15482">
        <ele>1591</ele>
        <time>2014-05-14T09:28:00.000Z</time>
      </trkpt>
      <trkpt lat="42.11446" lon="9.15489">
        <ele>1592.1999511719</ele>
        <time>2014-05-14T09:28:07.000Z</time>
      </trkpt>
      <trkpt lat="42.11447" lon="9.15493">
        <ele>1593</ele>
        <time>2014-05-14T09:28:11.000Z</time>
      </trkpt>
      <trkpt lat="42.11448" lon="9.15496">
        <ele>1593.5999755859</ele>
        <time>2014-05-14T09:28:14.000Z</time>
      </trkpt>
      <trkpt lat="42.11449" lon="9.155">
        <ele>1594.1999511719</ele>
        <time>2014-05-14T09:28:19.000Z</time>
      </trkpt>
      <trkpt lat="42.1145" lon="9.15505">
        <ele>1595.4000244141</ele>
        <time>2014-05-14T09:28:25.000Z</time>
      </trkpt>
      <trkpt lat="42.1145" lon="9.1551">
        <ele>1596.4000244141</ele>
        <time>2014-05-14T09:28:30.000Z</time>
      </trkpt>
      <trkpt lat="42.11451" lon="9.15516">
        <ele>1597.8000488281</ele>
        <time>2014-05-14T09:28:36.000Z</time>
      </trkpt>
      <trkpt lat="42.11455" lon="9.15524">
        <ele>1599</ele>
        <time>2014-05-14T09:28:43.000Z</time>
      </trkpt>
      <trkpt lat="42.11455" lon="9.15529">
        <ele>1600</ele>
        <time>2014-05-14T09:28:48.000Z</time>
      </trkpt>
      <trkpt lat="42.11455" lon="9.1553">
        <ele>1600.1999511719</ele>
        <time>2014-05-14T09:28:49.000Z</time>
      </trkpt>
      <trkpt lat="42.11456" lon="9.15536">
        <ele>1601.1999511719</ele>
        <time>2014-05-14T09:28:54.000Z</time>
      </trkpt>
      <trkpt lat="42.11456" lon="9.15537">
        <ele>1601.4000244141</ele>
        <time>2014-05-14T09:28:55.000Z</time>
      </trkpt>
      <trkpt lat="42.11458" lon="9.15541">
        <ele>1601.8000488281</ele>
        <time>2014-05-14T09:28:59.000Z</time>
      </trkpt>
      <trkpt lat="42.11458" lon="9.15545">
        <ele>1602.4000244141</ele>
        <time>2014-05-14T09:29:02.000Z</time>
      </trkpt>
      <trkpt lat="42.11458" lon="9.15546">
        <ele>1602.5999755859</ele>
        <time>2014-05-14T09:29:03.000Z</time>
      </trkpt>
      <trkpt lat="42.11458" lon="9.15553">
        <ele>1604</ele>
        <time>2014-05-14T09:29:10.000Z</time>
      </trkpt>
      <trkpt lat="42.11459" lon="9.15555">
        <ele>1604.1999511719</ele>
        <time>2014-05-14T09:29:12.000Z</time>
      </trkpt>
      <trkpt lat="42.11459" lon="9.15555">
        <ele>1604.1999511719</ele>
        <time>2014-05-14T09:29:17.000Z</time>
      </trkpt>
      <trkpt lat="42.11462" lon="9.1556">
        <ele>1604.5999755859</ele>
        <time>2014-05-14T09:29:22.000Z</time>
      </trkpt>
      <trkpt lat="42.11462" lon="9.15569">
        <ele>1606.1999511719</ele>
        <time>2014-05-14T09:29:29.000Z</time>
      </trkpt>
      <trkpt lat="42.11463" lon="9.15574">
        <ele>1607.1999511719</ele>
        <time>2014-05-14T09:29:33.000Z</time>
      </trkpt>
      <trkpt lat="42.11463" lon="9.15578">
        <ele>1607.8000488281</ele>
        <time>2014-05-14T09:29:36.000Z</time>
      </trkpt>
      <trkpt lat="42.11463" lon="9.15579">
        <ele>1608</ele>
        <time>2014-05-14T09:29:37.000Z</time>
      </trkpt>
      <trkpt lat="42.11464" lon="9.15589">
        <ele>1610</ele>
        <time>2014-05-14T09:29:45.000Z</time>
      </trkpt>
      <trkpt lat="42.11464" lon="9.15592">
        <ele>1610.8000488281</ele>
        <time>2014-05-14T09:29:47.000Z</time>
      </trkpt>
      <trkpt lat="42.11464" lon="9.15595">
        <ele>1611.4000244141</ele>
        <time>2014-05-14T09:29:50.000Z</time>
      </trkpt>
      <trkpt lat="42.11464" lon="9.15597">
        <ele>1611.8000488281</ele>
        <time>2014-05-14T09:29:52.000Z</time>
      </trkpt>
      <trkpt lat="42.11463" lon="9.15603">
        <ele>1613.5999755859</ele>
        <time>2014-05-14T09:29:57.000Z</time>
      </trkpt>
      <trkpt lat="42.11461" lon="9.15609">
        <ele>1615.5999755859</ele>
        <time>2014-05-14T09:30:02.000Z</time>
      </trkpt>
      <trkpt lat="42.1146" lon="9.15611">
        <ele>1616.1999511719</ele>
        <time>2014-05-14T09:30:04.000Z</time>
      </trkpt>
      <trkpt lat="42.11459" lon="9.15613">
        <ele>1616.8000488281</ele>
        <time>2014-05-14T09:30:06.000Z</time>
      </trkpt>
      <trkpt lat="42.11457" lon="9.15618">
        <ele>1618.1999511719</ele>
        <time>2014-05-14T09:30:11.000Z</time>
      </trkpt>
      <trkpt lat="42.11457" lon="9.15621">
        <ele>1618.8000488281</ele>
        <time>2014-05-14T09:30:15.000Z</time>
      </trkpt>
      <trkpt lat="42.11457" lon="9.15622">
        <ele>1618.8000488281</ele>
        <time>2014-05-14T09:30:16.000Z</time>
      </trkpt>
      <trkpt lat="42.11456" lon="9.15628">
        <ele>1620.4000244141</ele>
        <time>2014-05-14T09:30:22.000Z</time>
      </trkpt>
      <trkpt lat="42.11457" lon="9.15632">
        <ele>1620.5999755859</ele>
        <time>2014-05-14T09:30:27.000Z</time>
      </trkpt>
      <trkpt lat="42.11457" lon="9.15639">
        <ele>1622</ele>
        <time>2014-05-14T09:30:34.000Z</time>
      </trkpt>
      <trkpt lat="42.11456" lon="9.15648">
        <ele>1623.5999755859</ele>
        <time>2014-05-14T09:30:41.000Z</time>
      </trkpt>
      <trkpt lat="42.11454" lon="9.15654">
        <ele>1625</ele>
        <time>2014-05-14T09:30:49.000Z</time>
      </trkpt>
      <trkpt lat="42.11452" lon="9.15661">
        <ele>1626.1999511719</ele>
        <time>2014-05-14T09:30:57.000Z</time>
      </trkpt>
      <trkpt lat="42.11448" lon="9.15662">
        <ele>1627</ele>
        <time>2014-05-14T09:31:01.000Z</time>
      </trkpt>
      <trkpt lat="42.11448" lon="9.15662">
        <ele>1627.1999511719</ele>
        <time>2014-05-14T09:31:02.000Z</time>
      </trkpt>
      <trkpt lat="42.11444" lon="9.15667">
        <ele>1628.4000244141</ele>
        <time>2014-05-14T09:31:09.000Z</time>
      </trkpt>
      <trkpt lat="42.1144" lon="9.15668">
        <ele>1629</ele>
        <time>2014-05-14T09:31:15.000Z</time>
      </trkpt>
      <trkpt lat="42.11438" lon="9.15674">
        <ele>1630</ele>
        <time>2014-05-14T09:31:21.000Z</time>
      </trkpt>
      <trkpt lat="42.11436" lon="9.15679">
        <ele>1630.8000488281</ele>
        <time>2014-05-14T09:31:26.000Z</time>
      </trkpt>
      <trkpt lat="42.11435" lon="9.15682">
        <ele>1631.1999511719</ele>
        <time>2014-05-14T09:31:28.000Z</time>
      </trkpt>
      <trkpt lat="42.11432" lon="9.15689">
        <ele>1632.4000244141</ele>
        <time>2014-05-14T09:31:34.000Z</time>
      </trkpt>
      <trkpt lat="42.11429" lon="9.15693">
        <ele>1633.4000244141</ele>
        <time>2014-05-14T09:31:39.000Z</time>
      </trkpt>
      <trkpt lat="42.11421" lon="9.15699">
        <ele>1635.8000488281</ele>
        <time>2014-05-14T09:31:48.000Z</time>
      </trkpt>
      <trkpt lat="42.11414" lon="9.15704">
        <ele>1637.1999511719</ele>
        <time>2014-05-14T09:31:56.000Z</time>
      </trkpt>
      <trkpt lat="42.11411" lon="9.15707">
        <ele>1637.5999755859</ele>
        <time>2014-05-14T09:32:04.000Z</time>
      </trkpt>
      <trkpt lat="42.1141" lon="9.15709">
        <ele>1637.8000488281</ele>
        <time>2014-05-14T09:36:33.000Z</time>
      </trkpt>
      <trkpt lat="42.11409" lon="9.15715">
        <ele>1638.1999511719</ele>
        <time>2014-05-14T09:36:40.000Z</time>
      </trkpt>
      <trkpt lat="42.11407" lon="9.15726">
        <ele>1639.1999511719</ele>
        <time>2014-05-14T09:36:49.000Z</time>
      </trkpt>
      <trkpt lat="42.11406" lon="9.15741">
        <ele>1640.1999511719</ele>
        <time>2014-05-14T09:36:59.000Z</time>
      </trkpt>
      <trkpt lat="42.11405" lon="9.15751">
        <ele>1640.8000488281</ele>
        <time>2014-05-14T09:37:07.000Z</time>
      </trkpt>
      <trkpt lat="42.11405" lon="9.15753">
        <ele>1641</ele>
        <time>2014-05-14T09:37:10.000Z</time>
      </trkpt>
      <trkpt lat="42.11404" lon="9.15757">
        <ele>1641.1999511719</ele>
        <time>2014-05-14T09:37:13.000Z</time>
      </trkpt>
      <trkpt lat="42.11404" lon="9.15763">
        <ele>1641.5999755859</ele>
        <time>2014-05-14T09:37:20.000Z</time>
      </trkpt>
      <trkpt lat="42.11404" lon="9.15769">
        <ele>1641.8000488281</ele>
        <time>2014-05-14T09:37:27.000Z</time>
      </trkpt>
      <trkpt lat="42.11404" lon="9.1577">
        <ele>1641.8000488281</ele>
        <time>2014-05-14T09:37:36.000Z</time>
      </trkpt>
      <trkpt lat="42.11404" lon="9.1577">
        <ele>1641.8000488281</ele>
        <time>2014-05-14T09:37:48.000Z</time>
      </trkpt>
      <trkpt lat="42.11404" lon="9.15768">
        <ele>1641.8000488281</ele>
        <time>2014-05-14T09:38:08.000Z</time>
      </trkpt>
      <trkpt lat="42.11405" lon="9.15768">
        <ele>1641.5999755859</ele>
        <time>2014-05-14T09:38:14.000Z</time>
      </trkpt>
      <trkpt lat="42.11405" lon="9.15769">
        <ele>1641.5999755859</ele>
        <time>2014-05-14T09:38:20.000Z</time>
      </trkpt>
      <trkpt lat="42.11405" lon="9.15769">
        <ele>1641.5999755859</ele>
        <time>2014-05-14T09:38:35.000Z</time>
      </trkpt>
      <trkpt lat="42.11405" lon="9.15769">
        <ele>1641.5999755859</ele>
        <time>2014-05-14T09:39:07.000Z</time>
      </trkpt>
      <trkpt lat="42.11405" lon="9.1577">
        <ele>1641.5999755859</ele>
        <time>2014-05-14T09:39:11.000Z</time>
      </trkpt>
      <trkpt lat="42.11405" lon="9.15769">
        <ele>1641.8000488281</ele>
        <time>2014-05-14T09:40:12.000Z</time>
      </trkpt>
      <trkpt lat="42.11405" lon="9.15765">
        <ele>1641.4000244141</ele>
        <time>2014-05-14T09:40:17.000Z</time>
      </trkpt>
      <trkpt lat="42.1141" lon="9.15761">
        <ele>1640.4000244141</ele>
        <time>2014-05-14T09:40:23.000Z</time>
      </trkpt>
      <trkpt lat="42.11412" lon="9.15759">
        <ele>1640</ele>
        <time>2014-05-14T09:40:25.000Z</time>
      </trkpt>
      <trkpt lat="42.11416" lon="9.15758">
        <ele>1639.8000488281</ele>
        <time>2014-05-14T09:40:29.000Z</time>
      </trkpt>
      <trkpt lat="42.11419" lon="9.15757">
        <ele>1639.5999755859</ele>
        <time>2014-05-14T09:40:32.000Z</time>
      </trkpt>
      <trkpt lat="42.11425" lon="9.15759">
        <ele>1639.4000244141</ele>
        <time>2014-05-14T09:40:39.000Z</time>
      </trkpt>
      <trkpt lat="42.11427" lon="9.15761">
        <ele>1639.4000244141</ele>
        <time>2014-05-14T09:40:41.000Z</time>
      </trkpt>
      <trkpt lat="42.11429" lon="9.15762">
        <ele>1639.4000244141</ele>
        <time>2014-05-14T09:40:43.000Z</time>
      </trkpt>
      <trkpt lat="42.11431" lon="9.15763">
        <ele>1639.1999511719</ele>
        <time>2014-05-14T09:40:45.000Z</time>
      </trkpt>
      <trkpt lat="42.11437" lon="9.15768">
        <ele>1639.1999511719</ele>
        <time>2014-05-14T09:40:52.000Z</time>
      </trkpt>
      <trkpt lat="42.11438" lon="9.15768">
        <ele>1639.1999511719</ele>
        <time>2014-05-14T09:40:53.000Z</time>
      </trkpt>
      <trkpt lat="42.1144" lon="9.15773">
        <ele>1639.4000244141</ele>
        <time>2014-05-14T09:40:57.000Z</time>
      </trkpt>
      <trkpt lat="42.11444" lon="9.15773">
        <ele>1639.1999511719</ele>
        <time>2014-05-14T09:41:01.000Z</time>
      </trkpt>
      <trkpt lat="42.11445" lon="9.15774">
        <ele>1639.1999511719</ele>
        <time>2014-05-14T09:41:02.000Z</time>
      </trkpt>
      <trkpt lat="42.11446" lon="9.15775">
        <ele>1639.1999511719</ele>
        <time>2014-05-14T09:41:03.000Z</time>
      </trkpt>
      <trkpt lat="42.11447" lon="9.15777">
        <ele>1639.1999511719</ele>
        <time>2014-05-14T09:41:06.000Z</time>
      </trkpt>
      <trkpt lat="42.11449" lon="9.1578">
        <ele>1639.4000244141</ele>
        <time>2014-05-14T09:41:09.000Z</time>
      </trkpt>
      <trkpt lat="42.11453" lon="9.15785">
        <ele>1639.4000244141</ele>
        <time>2014-05-14T09:41:14.000Z</time>
      </trkpt>
      <trkpt lat="42.11456" lon="9.15788">
        <ele>1639.4000244141</ele>
        <time>2014-05-14T09:41:18.000Z</time>
      </trkpt>
      <trkpt lat="42.11456" lon="9.15788">
        <ele>1639.4000244141</ele>
        <time>2014-05-14T09:41:19.000Z</time>
      </trkpt>
      <trkpt lat="42.11457" lon="9.15788">
        <ele>1639.4000244141</ele>
        <time>2014-05-14T09:41:20.000Z</time>
      </trkpt>
      <trkpt lat="42.11459" lon="9.1579">
        <ele>1639.4000244141</ele>
        <time>2014-05-14T09:41:23.000Z</time>
      </trkpt>
      <trkpt lat="42.11459" lon="9.15791">
        <ele>1639.4000244141</ele>
        <time>2014-05-14T09:41:24.000Z</time>
      </trkpt>
      <trkpt lat="42.11463" lon="9.15795">
        <ele>1639.5999755859</ele>
        <time>2014-05-14T09:41:29.000Z</time>
      </trkpt>
      <trkpt lat="42.11464" lon="9.15797">
        <ele>1639.5999755859</ele>
        <time>2014-05-14T09:41:30.000Z</time>
      </trkpt>
      <trkpt lat="42.1147" lon="9.15801">
        <ele>1639.5999755859</ele>
        <time>2014-05-14T09:41:37.000Z</time>
      </trkpt>
      <trkpt lat="42.11477" lon="9.15805">
        <ele>1639.4000244141</ele>
        <time>2014-05-14T09:41:45.000Z</time>
      </trkpt>
      <trkpt lat="42.11477" lon="9.15811">
        <ele>1639.8000488281</ele>
        <time>2014-05-14T09:41:49.000Z</time>
      </trkpt>
      <trkpt lat="42.11478" lon="9.15812">
        <ele>1639.8000488281</ele>
        <time>2014-05-14T09:41:50.000Z</time>
      </trkpt>
      <trkpt lat="42.11479" lon="9.15814">
        <ele>1640</ele>
        <time>2014-05-14T09:41:52.000Z</time>
      </trkpt>
      <trkpt lat="42.11483" lon="9.15819">
        <ele>1640</ele>
        <time>2014-05-14T09:41:58.000Z</time>
      </trkpt>
      <trkpt lat="42.11486" lon="9.15821">
        <ele>1640</ele>
        <time>2014-05-14T09:42:03.000Z</time>
      </trkpt>
      <trkpt lat="42.11488" lon="9.15824">
        <ele>1640</ele>
        <time>2014-05-14T09:42:06.000Z</time>
      </trkpt>
      <trkpt lat="42.11489" lon="9.15829">
        <ele>1640.4000244141</ele>
        <time>2014-05-14T09:42:11.000Z</time>
      </trkpt>
      <trkpt lat="42.1149" lon="9.1583">
        <ele>1640.4000244141</ele>
        <time>2014-05-14T09:42:12.000Z</time>
      </trkpt>
      <trkpt lat="42.11489" lon="9.1583">
        <ele>1640.4000244141</ele>
        <time>2014-05-14T09:42:17.000Z</time>
      </trkpt>
      <trkpt lat="42.11489" lon="9.15825">
        <ele>1640</ele>
        <time>2014-05-14T09:42:22.000Z</time>
      </trkpt>
      <trkpt lat="42.1149" lon="9.15825">
        <ele>1640</ele>
        <time>2014-05-14T09:42:26.000Z</time>
      </trkpt>
      <trkpt lat="42.1149" lon="9.15826">
        <ele>1640</ele>
        <time>2014-05-14T09:42:32.000Z</time>
      </trkpt>
      <trkpt lat="42.1149" lon="9.15824">
        <ele>1640</ele>
        <time>2014-05-14T09:44:20.000Z</time>
      </trkpt>
      <trkpt lat="42.11489" lon="9.15824">
        <ele>1640</ele>
        <time>2014-05-14T09:44:26.000Z</time>
      </trkpt>
      <trkpt lat="42.11487" lon="9.15826">
        <ele>1640.1999511719</ele>
        <time>2014-05-14T09:44:31.000Z</time>
      </trkpt>
      <trkpt lat="42.11487" lon="9.15831">
        <ele>1640.5999755859</ele>
        <time>2014-05-14T09:44:40.000Z</time>
      </trkpt>
      <trkpt lat="42.11487" lon="9.15836">
        <ele>1640.8000488281</ele>
        <time>2014-05-14T09:44:46.000Z</time>
      </trkpt>
      <trkpt lat="42.1149" lon="9.1584">
        <ele>1641</ele>
        <time>2014-05-14T09:44:52.000Z</time>
      </trkpt>
      <trkpt lat="42.11495" lon="9.15844">
        <ele>1640.5999755859</ele>
        <time>2014-05-14T09:44:57.000Z</time>
      </trkpt>
      <trkpt lat="42.11495" lon="9.15846">
        <ele>1640.8000488281</ele>
        <time>2014-05-14T09:44:58.000Z</time>
      </trkpt>
      <trkpt lat="42.11496" lon="9.15854">
        <ele>1640.8000488281</ele>
        <time>2014-05-14T09:45:05.000Z</time>
      </trkpt>
      <trkpt lat="42.11497" lon="9.15859">
        <ele>1640.8000488281</ele>
        <time>2014-05-14T09:45:10.000Z</time>
      </trkpt>
      <trkpt lat="42.11498" lon="9.15862">
        <ele>1640.8000488281</ele>
        <time>2014-05-14T09:45:12.000Z</time>
      </trkpt>
      <trkpt lat="42.115" lon="9.15868">
        <ele>1640.1999511719</ele>
        <time>2014-05-14T09:45:18.000Z</time>
      </trkpt>
      <trkpt lat="42.115" lon="9.15869">
        <ele>1640.1999511719</ele>
        <time>2014-05-14T09:45:25.000Z</time>
      </trkpt>
      <trkpt lat="42.11503" lon="9.15874">
        <ele>1639</ele>
        <time>2014-05-14T09:45:33.000Z</time>
      </trkpt>
      <trkpt lat="42.11501" lon="9.15876">
        <ele>1639</ele>
        <time>2014-05-14T09:45:37.000Z</time>
      </trkpt>
      <trkpt lat="42.11499" lon="9.15882">
        <ele>1638.1999511719</ele>
        <time>2014-05-14T09:45:43.000Z</time>
      </trkpt>
      <trkpt lat="42.11498" lon="9.15888">
        <ele>1637.4000244141</ele>
        <time>2014-05-14T09:45:50.000Z</time>
      </trkpt>
      <trkpt lat="42.11493" lon="9.15892">
        <ele>1637</ele>
        <time>2014-05-14T09:45:57.000Z</time>
      </trkpt>
      <trkpt lat="42.11493" lon="9.15893">
        <ele>1636.8000488281</ele>
        <time>2014-05-14T09:45:58.000Z</time>
      </trkpt>
      <trkpt lat="42.11492" lon="9.15897">
        <ele>1636.1999511719</ele>
        <time>2014-05-14T09:46:04.000Z</time>
      </trkpt>
      <trkpt lat="42.11495" lon="9.15901">
        <ele>1635.5999755859</ele>
        <time>2014-05-14T09:46:09.000Z</time>
      </trkpt>
      <trkpt lat="42.11496" lon="9.15907">
        <ele>1634.5999755859</ele>
        <time>2014-05-14T09:46:15.000Z</time>
      </trkpt>
      <trkpt lat="42.11493" lon="9.15913">
        <ele>1633.8000488281</ele>
        <time>2014-05-14T09:46:22.000Z</time>
      </trkpt>
      <trkpt lat="42.11493" lon="9.15918">
        <ele>1633</ele>
        <time>2014-05-14T09:46:28.000Z</time>
      </trkpt>
      <trkpt lat="42.11493" lon="9.15923">
        <ele>1632.1999511719</ele>
        <time>2014-05-14T09:46:34.000Z</time>
      </trkpt>
      <trkpt lat="42.11492" lon="9.15929">
        <ele>1631</ele>
        <time>2014-05-14T09:46:42.000Z</time>
      </trkpt>
      <trkpt lat="42.11489" lon="9.15933">
        <ele>1629.8000488281</ele>
        <time>2014-05-14T09:46:49.000Z</time>
      </trkpt>
      <trkpt lat="42.11488" lon="9.15936">
        <ele>1629</ele>
        <time>2014-05-14T09:46:54.000Z</time>
      </trkpt>
      <trkpt lat="42.11482" lon="9.1594">
        <ele>1626.8000488281</ele>
        <time>2014-05-14T09:47:01.000Z</time>
      </trkpt>
      <trkpt lat="42.11477" lon="9.15942">
        <ele>1624.8000488281</ele>
        <time>2014-05-14T09:47:09.000Z</time>
      </trkpt>
      <trkpt lat="42.11476" lon="9.15944">
        <ele>1624</ele>
        <time>2014-05-14T09:47:14.000Z</time>
      </trkpt>
      <trkpt lat="42.11477" lon="9.15951">
        <ele>1622.1999511719</ele>
        <time>2014-05-14T09:47:21.000Z</time>
      </trkpt>
      <trkpt lat="42.11477" lon="9.15954">
        <ele>1620.8000488281</ele>
        <time>2014-05-14T09:47:27.000Z</time>
      </trkpt>
      <trkpt lat="42.11476" lon="9.15957">
        <ele>1619.5999755859</ele>
        <time>2014-05-14T09:47:31.000Z</time>
      </trkpt>
      <trkpt lat="42.11471" lon="9.15959">
        <ele>1617.1999511719</ele>
        <time>2014-05-14T09:47:37.000Z</time>
      </trkpt>
      <trkpt lat="42.11468" lon="9.15962">
        <ele>1615.1999511719</ele>
        <time>2014-05-14T09:47:44.000Z</time>
      </trkpt>
      <trkpt lat="42.11467" lon="9.15961">
        <ele>1615.4000244141</ele>
        <time>2014-05-14T09:47:57.000Z</time>
      </trkpt>
      <trkpt lat="42.11469" lon="9.15962">
        <ele>1615.5999755859</ele>
        <time>2014-05-14T09:48:33.000Z</time>
      </trkpt>
      <trkpt lat="42.11468" lon="9.15961">
        <ele>1615.8000488281</ele>
        <time>2014-05-14T09:48:53.000Z</time>
      </trkpt>
      <trkpt lat="42.11466" lon="9.1596">
        <ele>1615.5999755859</ele>
        <time>2014-05-14T09:49:18.000Z</time>
      </trkpt>
      <trkpt lat="42.11465" lon="9.15954">
        <ele>1617.5999755859</ele>
        <time>2014-05-14T09:50:14.000Z</time>
      </trkpt>
      <trkpt lat="42.11462" lon="9.1595">
        <ele>1618.1999511719</ele>
        <time>2014-05-14T09:50:22.000Z</time>
      </trkpt>
      <trkpt lat="42.11457" lon="9.15947">
        <ele>1617.8000488281</ele>
        <time>2014-05-14T09:50:28.000Z</time>
      </trkpt>
      <trkpt lat="42.11454" lon="9.15942">
        <ele>1618.5999755859</ele>
        <time>2014-05-14T09:50:35.000Z</time>
      </trkpt>
      <trkpt lat="42.11453" lon="9.15938">
        <ele>1619.1999511719</ele>
        <time>2014-05-14T09:50:50.000Z</time>
      </trkpt>
      <trkpt lat="42.11449" lon="9.15934">
        <ele>1619.1999511719</ele>
        <time>2014-05-14T09:50:56.000Z</time>
      </trkpt>
      <trkpt lat="42.11444" lon="9.15927">
        <ele>1619.4000244141</ele>
        <time>2014-05-14T09:51:04.000Z</time>
      </trkpt>
      <trkpt lat="42.11443" lon="9.15926">
        <ele>1619.5999755859</ele>
        <time>2014-05-14T09:51:05.000Z</time>
      </trkpt>
      <trkpt lat="42.11439" lon="9.15918">
        <ele>1620.1999511719</ele>
        <time>2014-05-14T09:51:13.000Z</time>
      </trkpt>
      <trkpt lat="42.11438" lon="9.15918">
        <ele>1620</ele>
        <time>2014-05-14T09:51:14.000Z</time>
      </trkpt>
      <trkpt lat="42.11436" lon="9.15917">
        <ele>1619.8000488281</ele>
        <time>2014-05-14T09:51:16.000Z</time>
      </trkpt>
      <trkpt lat="42.11434" lon="9.15914">
        <ele>1620</ele>
        <time>2014-05-14T09:51:19.000Z</time>
      </trkpt>
      <trkpt lat="42.11429" lon="9.15908">
        <ele>1620</ele>
        <time>2014-05-14T09:51:27.000Z</time>
      </trkpt>
      <trkpt lat="42.11423" lon="9.15903">
        <ele>1619.5999755859</ele>
        <time>2014-05-14T09:51:35.000Z</time>
      </trkpt>
      <trkpt lat="42.11419" lon="9.15895">
        <ele>1620.1999511719</ele>
        <time>2014-05-14T09:51:42.000Z</time>
      </trkpt>
      <trkpt lat="42.11414" lon="9.15889">
        <ele>1620.4000244141</ele>
        <time>2014-05-14T09:51:49.000Z</time>
      </trkpt>
      <trkpt lat="42.11414" lon="9.15888">
        <ele>1620.4000244141</ele>
        <time>2014-05-14T09:51:50.000Z</time>
      </trkpt>
      <trkpt lat="42.1141" lon="9.15884">
        <ele>1620.4000244141</ele>
        <time>2014-05-14T09:51:55.000Z</time>
      </trkpt>
      <trkpt lat="42.11406" lon="9.15878">
        <ele>1621</ele>
        <time>2014-05-14T09:52:01.000Z</time>
      </trkpt>
      <trkpt lat="42.11406" lon="9.15877">
        <ele>1621.1999511719</ele>
        <time>2014-05-14T09:52:02.000Z</time>
      </trkpt>
      <trkpt lat="42.11405" lon="9.1587">
        <ele>1622.8000488281</ele>
        <time>2014-05-14T09:52:09.000Z</time>
      </trkpt>
      <trkpt lat="42.11404" lon="9.15868">
        <ele>1623.1999511719</ele>
        <time>2014-05-14T09:52:11.000Z</time>
      </trkpt>
      <trkpt lat="42.11403" lon="9.15863">
        <ele>1624</ele>
        <time>2014-05-14T09:52:15.000Z</time>
      </trkpt>
      <trkpt lat="42.11402" lon="9.15862">
        <ele>1624.1999511719</ele>
        <time>2014-05-14T09:52:16.000Z</time>
      </trkpt>
      <trkpt lat="42.11401" lon="9.15856">
        <ele>1625.8000488281</ele>
        <time>2014-05-14T09:52:21.000Z</time>
      </trkpt>
      <trkpt lat="42.11403" lon="9.1585">
        <ele>1627.5999755859</ele>
        <time>2014-05-14T09:52:27.000Z</time>
      </trkpt>
      <trkpt lat="42.11404" lon="9.15849">
        <ele>1627.8000488281</ele>
        <time>2014-05-14T09:52:29.000Z</time>
      </trkpt>
      <trkpt lat="42.11405" lon="9.15847">
        <ele>1628.1999511719</ele>
        <time>2014-05-14T09:52:32.000Z</time>
      </trkpt>
      <trkpt lat="42.11405" lon="9.15843">
        <ele>1629</ele>
        <time>2014-05-14T09:52:38.000Z</time>
      </trkpt>
      <trkpt lat="42.11403" lon="9.15838">
        <ele>1629.8000488281</ele>
        <time>2014-05-14T09:52:44.000Z</time>
      </trkpt>
      <trkpt lat="42.114" lon="9.1583">
        <ele>1631</ele>
        <time>2014-05-14T09:52:52.000Z</time>
      </trkpt>
      <trkpt lat="42.11397" lon="9.15825">
        <ele>1632</ele>
        <time>2014-05-14T09:52:59.000Z</time>
      </trkpt>
      <trkpt lat="42.11396" lon="9.15819">
        <ele>1632.8000488281</ele>
        <time>2014-05-14T09:53:12.000Z</time>
      </trkpt>
      <trkpt lat="42.11394" lon="9.15812">
        <ele>1634</ele>
        <time>2014-05-14T09:53:20.000Z</time>
      </trkpt>
      <trkpt lat="42.11391" lon="9.15808">
        <ele>1634.5999755859</ele>
        <time>2014-05-14T09:53:27.000Z</time>
      </trkpt>
      <trkpt lat="42.1139" lon="9.15803">
        <ele>1635.4000244141</ele>
        <time>2014-05-14T09:53:35.000Z</time>
      </trkpt>
      <trkpt lat="42.11386" lon="9.158">
        <ele>1635.8000488281</ele>
        <time>2014-05-14T09:53:41.000Z</time>
      </trkpt>
      <trkpt lat="42.11383" lon="9.15795">
        <ele>1636.5999755859</ele>
        <time>2014-05-14T09:53:47.000Z</time>
      </trkpt>
      <trkpt lat="42.11383" lon="9.15794">
        <ele>1636.5999755859</ele>
        <time>2014-05-14T09:53:48.000Z</time>
      </trkpt>
      <trkpt lat="42.11382" lon="9.15791">
        <ele>1637.1999511719</ele>
        <time>2014-05-14T09:53:55.000Z</time>
      </trkpt>
      <trkpt lat="42.1138" lon="9.15788">
        <ele>1637.8000488281</ele>
        <time>2014-05-14T09:54:00.000Z</time>
      </trkpt>
      <trkpt lat="42.11375" lon="9.15785">
        <ele>1638</ele>
        <time>2014-05-14T09:54:07.000Z</time>
      </trkpt>
      <trkpt lat="42.11372" lon="9.15782">
        <ele>1638.4000244141</ele>
        <time>2014-05-14T09:54:11.000Z</time>
      </trkpt>
      <trkpt lat="42.1137" lon="9.15782">
        <ele>1638.4000244141</ele>
        <time>2014-05-14T09:54:13.000Z</time>
      </trkpt>
      <trkpt lat="42.11368" lon="9.1578">
        <ele>1638.5999755859</ele>
        <time>2014-05-14T09:54:16.000Z</time>
      </trkpt>
      <trkpt lat="42.11366" lon="9.15777">
        <ele>1639</ele>
        <time>2014-05-14T09:54:20.000Z</time>
      </trkpt>
      <trkpt lat="42.11361" lon="9.15778">
        <ele>1638.5999755859</ele>
        <time>2014-05-14T09:54:25.000Z</time>
      </trkpt>
      <trkpt lat="42.11356" lon="9.15778">
        <ele>1638.4000244141</ele>
        <time>2014-05-14T09:54:31.000Z</time>
      </trkpt>
      <trkpt lat="42.11355" lon="9.15777">
        <ele>1638.4000244141</ele>
        <time>2014-05-14T09:54:33.000Z</time>
      </trkpt>
      <trkpt lat="42.11353" lon="9.15777">
        <ele>1638.4000244141</ele>
        <time>2014-05-14T09:54:37.000Z</time>
      </trkpt>
      <trkpt lat="42.1135" lon="9.15778">
        <ele>1638</ele>
        <time>2014-05-14T09:55:58.000Z</time>
      </trkpt>
      <trkpt lat="42.11343" lon="9.15779">
        <ele>1637.5999755859</ele>
        <time>2014-05-14T09:56:06.000Z</time>
      </trkpt>
      <trkpt lat="42.11337" lon="9.1578">
        <ele>1637</ele>
        <time>2014-05-14T09:56:13.000Z</time>
      </trkpt>
      <trkpt lat="42.11331" lon="9.15783">
        <ele>1636</ele>
        <time>2014-05-14T09:56:19.000Z</time>
      </trkpt>
      <trkpt lat="42.11327" lon="9.15784">
        <ele>1635</ele>
        <time>2014-05-14T09:56:23.000Z</time>
      </trkpt>
      <trkpt lat="42.11325" lon="9.15785">
        <ele>1634.4000244141</ele>
        <time>2014-05-14T09:56:25.000Z</time>
      </trkpt>
      <trkpt lat="42.1132" lon="9.15787">
        <ele>1633.4000244141</ele>
        <time>2014-05-14T09:56:31.000Z</time>
      </trkpt>
      <trkpt lat="42.11318" lon="9.15788">
        <ele>1632.8000488281</ele>
        <time>2014-05-14T09:56:33.000Z</time>
      </trkpt>
      <trkpt lat="42.11316" lon="9.15787">
        <ele>1633</ele>
        <time>2014-05-14T09:56:34.000Z</time>
      </trkpt>
      <trkpt lat="42.11314" lon="9.15787">
        <ele>1632.8000488281</ele>
        <time>2014-05-14T09:56:37.000Z</time>
      </trkpt>
      <trkpt lat="42.11313" lon="9.15787">
        <ele>1632.5999755859</ele>
        <time>2014-05-14T09:56:38.000Z</time>
      </trkpt>
      <trkpt lat="42.11308" lon="9.15789">
        <ele>1631.5999755859</ele>
        <time>2014-05-14T09:56:44.000Z</time>
      </trkpt>
      <trkpt lat="42.113" lon="9.1579">
        <ele>1630.4000244141</ele>
        <time>2014-05-14T09:56:53.000Z</time>
      </trkpt>
      <trkpt lat="42.11299" lon="9.15791">
        <ele>1630.1999511719</ele>
        <time>2014-05-14T09:56:55.000Z</time>
      </trkpt>
      <trkpt lat="42.11296" lon="9.15793">
        <ele>1629.1999511719</ele>
        <time>2014-05-14T09:56:59.000Z</time>
      </trkpt>
      <trkpt lat="42.11294" lon="9.15794">
        <ele>1628.5999755859</ele>
        <time>2014-05-14T09:57:05.000Z</time>
      </trkpt>
      <trkpt lat="42.11289" lon="9.15794">
        <ele>1628.4000244141</ele>
        <time>2014-05-14T09:57:41.000Z</time>
      </trkpt>
      <trkpt lat="42.11286" lon="9.15795">
        <ele>1627.8000488281</ele>
        <time>2014-05-14T09:57:44.000Z</time>
      </trkpt>
      <trkpt lat="42.11284" lon="9.15796">
        <ele>1627.4000244141</ele>
        <time>2014-05-14T09:57:46.000Z</time>
      </trkpt>
      <trkpt lat="42.11283" lon="9.15797">
        <ele>1626.8000488281</ele>
        <time>2014-05-14T09:57:48.000Z</time>
      </trkpt>
      <trkpt lat="42.11274" lon="9.158">
        <ele>1625.1999511719</ele>
        <time>2014-05-14T09:57:56.000Z</time>
      </trkpt>
      <trkpt lat="42.11274" lon="9.158">
        <ele>1625</ele>
        <time>2014-05-14T09:57:57.000Z</time>
      </trkpt>
      <trkpt lat="42.11269" lon="9.15803">
        <ele>1623.5999755859</ele>
        <time>2014-05-14T09:58:02.000Z</time>
      </trkpt>
      <trkpt lat="42.11261" lon="9.15805">
        <ele>1622</ele>
        <time>2014-05-14T09:58:10.000Z</time>
      </trkpt>
      <trkpt lat="42.11252" lon="9.15807">
        <ele>1620.5999755859</ele>
        <time>2014-05-14T09:58:19.000Z</time>
      </trkpt>
      <trkpt lat="42.11249" lon="9.15807">
        <ele>1620.4000244141</ele>
        <time>2014-05-14T09:58:22.000Z</time>
      </trkpt>
      <trkpt lat="42.11245" lon="9.15808">
        <ele>1619.5999755859</ele>
        <time>2014-05-14T09:58:26.000Z</time>
      </trkpt>
      <trkpt lat="42.11238" lon="9.1581">
        <ele>1617.4000244141</ele>
        <time>2014-05-14T09:58:33.000Z</time>
      </trkpt>
      <trkpt lat="42.11231" lon="9.15811">
        <ele>1615.1999511719</ele>
        <time>2014-05-14T09:58:40.000Z</time>
      </trkpt>
      <trkpt lat="42.11225" lon="9.15811">
        <ele>1613.4000244141</ele>
        <time>2014-05-14T09:58:47.000Z</time>
      </trkpt>
      <trkpt lat="42.11217" lon="9.15812">
        <ele>1610.8000488281</ele>
        <time>2014-05-14T09:58:55.000Z</time>
      </trkpt>
      <trkpt lat="42.11208" lon="9.15815">
        <ele>1607.5999755859</ele>
        <time>2014-05-14T09:59:03.000Z</time>
      </trkpt>
      <trkpt lat="42.11202" lon="9.15814">
        <ele>1606.4000244141</ele>
        <time>2014-05-14T09:59:10.000Z</time>
      </trkpt>
      <trkpt lat="42.11196" lon="9.15813">
        <ele>1605.1999511719</ele>
        <time>2014-05-14T09:59:16.000Z</time>
      </trkpt>
      <trkpt lat="42.11192" lon="9.15809">
        <ele>1605.4000244141</ele>
        <time>2014-05-14T09:59:22.000Z</time>
      </trkpt>
      <trkpt lat="42.11187" lon="9.15808">
        <ele>1604.8000488281</ele>
        <time>2014-05-14T09:59:28.000Z</time>
      </trkpt>
      <trkpt lat="42.11182" lon="9.15802">
        <ele>1605.5999755859</ele>
        <time>2014-05-14T09:59:34.000Z</time>
      </trkpt>
      <trkpt lat="42.11181" lon="9.15801">
        <ele>1605.4000244141</ele>
        <time>2014-05-14T09:59:35.000Z</time>
      </trkpt>
      <trkpt lat="42.11175" lon="9.15796">
        <ele>1605.8000488281</ele>
        <time>2014-05-14T09:59:42.000Z</time>
      </trkpt>
      <trkpt lat="42.11169" lon="9.1579">
        <ele>1606</ele>
        <time>2014-05-14T09:59:50.000Z</time>
      </trkpt>
      <trkpt lat="42.11163" lon="9.15788">
        <ele>1605.5999755859</ele>
        <time>2014-05-14T09:59:59.000Z</time>
      </trkpt>
      <trkpt lat="42.11159" lon="9.15787">
        <ele>1604.8000488281</ele>
        <time>2014-05-14T10:00:06.000Z</time>
      </trkpt>
      <trkpt lat="42.11155" lon="9.15788">
        <ele>1603.4000244141</ele>
        <time>2014-05-14T10:00:12.000Z</time>
      </trkpt>
      <trkpt lat="42.11151" lon="9.15782">
        <ele>1603.5999755859</ele>
        <time>2014-05-14T10:00:19.000Z</time>
      </trkpt>
      <trkpt lat="42.11147" lon="9.15777">
        <ele>1603.4000244141</ele>
        <time>2014-05-14T10:00:25.000Z</time>
      </trkpt>
      <trkpt lat="42.11146" lon="9.15776">
        <ele>1603.4000244141</ele>
        <time>2014-05-14T10:00:27.000Z</time>
      </trkpt>
      <trkpt lat="42.11144" lon="9.15776">
        <ele>1602.5999755859</ele>
        <time>2014-05-14T10:00:31.000Z</time>
      </trkpt>
      <trkpt lat="42.11141" lon="9.15776">
        <ele>1601.4000244141</ele>
        <time>2014-05-14T10:00:39.000Z</time>
      </trkpt>
      <trkpt lat="42.11137" lon="9.15777">
        <ele>1599.8000488281</ele>
        <time>2014-05-14T10:00:45.000Z</time>
      </trkpt>
      <trkpt lat="42.11132" lon="9.15775">
        <ele>1598.4000244141</ele>
        <time>2014-05-14T10:00:52.000Z</time>
      </trkpt>
      <trkpt lat="42.11125" lon="9.1577">
        <ele>1597.4000244141</ele>
        <time>2014-05-14T10:00:59.000Z</time>
      </trkpt>
      <trkpt lat="42.11124" lon="9.15769">
        <ele>1597.1999511719</ele>
        <time>2014-05-14T10:01:01.000Z</time>
      </trkpt>
      <trkpt lat="42.11123" lon="9.15768">
        <ele>1596.8000488281</ele>
        <time>2014-05-14T10:01:04.000Z</time>
      </trkpt>
      <trkpt lat="42.11121" lon="9.15768">
        <ele>1596.4000244141</ele>
        <time>2014-05-14T10:01:05.000Z</time>
      </trkpt>
      <trkpt lat="42.1112" lon="9.15767">
        <ele>1596.1999511719</ele>
        <time>2014-05-14T10:01:06.000Z</time>
      </trkpt>
      <trkpt lat="42.11117" lon="9.15762">
        <ele>1596.4000244141</ele>
        <time>2014-05-14T10:01:11.000Z</time>
      </trkpt>
      <trkpt lat="42.11116" lon="9.15761">
        <ele>1596.5999755859</ele>
        <time>2014-05-14T10:01:13.000Z</time>
      </trkpt>
      <trkpt lat="42.11113" lon="9.15757">
        <ele>1596.5999755859</ele>
        <time>2014-05-14T10:01:20.000Z</time>
      </trkpt>
      <trkpt lat="42.1111" lon="9.15759">
        <ele>1594.8000488281</ele>
        <time>2014-05-14T10:01:27.000Z</time>
      </trkpt>
      <trkpt lat="42.11105" lon="9.15757">
        <ele>1593.5999755859</ele>
        <time>2014-05-14T10:01:34.000Z</time>
      </trkpt>
      <trkpt lat="42.111" lon="9.15749">
        <ele>1594</ele>
        <time>2014-05-14T10:01:42.000Z</time>
      </trkpt>
      <trkpt lat="42.11094" lon="9.15743">
        <ele>1593.8000488281</ele>
        <time>2014-05-14T10:01:49.000Z</time>
      </trkpt>
      <trkpt lat="42.11088" lon="9.15738">
        <ele>1593</ele>
        <time>2014-05-14T10:01:57.000Z</time>
      </trkpt>
      <trkpt lat="42.11082" lon="9.15732">
        <ele>1592.5999755859</ele>
        <time>2014-05-14T10:02:05.000Z</time>
      </trkpt>
      <trkpt lat="42.11077" lon="9.15727">
        <ele>1592</ele>
        <time>2014-05-14T10:02:11.000Z</time>
      </trkpt>
      <trkpt lat="42.11069" lon="9.15722">
        <ele>1591.8000488281</ele>
        <time>2014-05-14T10:02:19.000Z</time>
      </trkpt>
      <trkpt lat="42.11061" lon="9.15715">
        <ele>1592.1999511719</ele>
        <time>2014-05-14T10:02:28.000Z</time>
      </trkpt>
      <trkpt lat="42.11061" lon="9.15715">
        <ele>1592.1999511719</ele>
        <time>2014-05-14T10:02:29.000Z</time>
      </trkpt>
      <trkpt lat="42.11058" lon="9.15714">
        <ele>1591.8000488281</ele>
        <time>2014-05-14T10:02:33.000Z</time>
      </trkpt>
      <trkpt lat="42.11057" lon="9.15713">
        <ele>1591.5999755859</ele>
        <time>2014-05-14T10:02:34.000Z</time>
      </trkpt>
      <trkpt lat="42.11054" lon="9.15713">
        <ele>1591.1999511719</ele>
        <time>2014-05-14T10:02:38.000Z</time>
      </trkpt>
      <trkpt lat="42.11053" lon="9.15713">
        <ele>1591</ele>
        <time>2014-05-14T10:02:39.000Z</time>
      </trkpt>
      <trkpt lat="42.11045" lon="9.15711">
        <ele>1589.8000488281</ele>
        <time>2014-05-14T10:02:46.000Z</time>
      </trkpt>
      <trkpt lat="42.11044" lon="9.1571">
        <ele>1589.5999755859</ele>
        <time>2014-05-14T10:02:47.000Z</time>
      </trkpt>
      <trkpt lat="42.11043" lon="9.1571">
        <ele>1589.4000244141</ele>
        <time>2014-05-14T10:02:49.000Z</time>
      </trkpt>
      <trkpt lat="42.11042" lon="9.1571">
        <ele>1589.4000244141</ele>
        <time>2014-05-14T10:02:52.000Z</time>
      </trkpt>
      <trkpt lat="42.11038" lon="9.15709">
        <ele>1588.5999755859</ele>
        <time>2014-05-14T10:02:59.000Z</time>
      </trkpt>
      <trkpt lat="42.11032" lon="9.15706">
        <ele>1588.4000244141</ele>
        <time>2014-05-14T10:03:06.000Z</time>
      </trkpt>
      <trkpt lat="42.11025" lon="9.15703">
        <ele>1587.5999755859</ele>
        <time>2014-05-14T10:03:13.000Z</time>
      </trkpt>
      <trkpt lat="42.11021" lon="9.15702">
        <ele>1587</ele>
        <time>2014-05-14T10:03:18.000Z</time>
      </trkpt>
      <trkpt lat="42.11019" lon="9.15702">
        <ele>1586.5999755859</ele>
        <time>2014-05-14T10:03:20.000Z</time>
      </trkpt>
      <trkpt lat="42.11017" lon="9.157">
        <ele>1586.8000488281</ele>
        <time>2014-05-14T10:03:22.000Z</time>
      </trkpt>
      <trkpt lat="42.11012" lon="9.15699">
        <ele>1585.8000488281</ele>
        <time>2014-05-14T10:03:27.000Z</time>
      </trkpt>
      <trkpt lat="42.11008" lon="9.15697">
        <ele>1585.4000244141</ele>
        <time>2014-05-14T10:03:31.000Z</time>
      </trkpt>
      <trkpt lat="42.11008" lon="9.15697">
        <ele>1585.4000244141</ele>
        <time>2014-05-14T10:03:32.000Z</time>
      </trkpt>
      <trkpt lat="42.11007" lon="9.15697">
        <ele>1585.4000244141</ele>
        <time>2014-05-14T10:03:33.000Z</time>
      </trkpt>
      <trkpt lat="42.10999" lon="9.15694">
        <ele>1584.4000244141</ele>
        <time>2014-05-14T10:03:40.000Z</time>
      </trkpt>
      <trkpt lat="42.10999" lon="9.15694">
        <ele>1584.4000244141</ele>
        <time>2014-05-14T10:03:41.000Z</time>
      </trkpt>
      <trkpt lat="42.10998" lon="9.15693">
        <ele>1584.4000244141</ele>
        <time>2014-05-14T10:03:43.000Z</time>
      </trkpt>
      <trkpt lat="42.10996" lon="9.15693">
        <ele>1584.1999511719</ele>
        <time>2014-05-14T10:03:45.000Z</time>
      </trkpt>
      <trkpt lat="42.10994" lon="9.15691">
        <ele>1584.4000244141</ele>
        <time>2014-05-14T10:03:48.000Z</time>
      </trkpt>
      <trkpt lat="42.10993" lon="9.1569">
        <ele>1584.5999755859</ele>
        <time>2014-05-14T10:03:51.000Z</time>
      </trkpt>
      <trkpt lat="42.10989" lon="9.15688">
        <ele>1585.1999511719</ele>
        <time>2014-05-14T10:03:59.000Z</time>
      </trkpt>
      <trkpt lat="42.10985" lon="9.15686">
        <ele>1585.8000488281</ele>
        <time>2014-05-14T10:04:06.000Z</time>
      </trkpt>
      <trkpt lat="42.10981" lon="9.15685">
        <ele>1586</ele>
        <time>2014-05-14T10:04:13.000Z</time>
      </trkpt>
      <trkpt lat="42.10977" lon="9.15685">
        <ele>1586</ele>
        <time>2014-05-14T10:04:20.000Z</time>
      </trkpt>
      <trkpt lat="42.10973" lon="9.15686">
        <ele>1585.5999755859</ele>
        <time>2014-05-14T10:04:28.000Z</time>
      </trkpt>
      <trkpt lat="42.1097" lon="9.15687">
        <ele>1585.4000244141</ele>
        <time>2014-05-14T10:04:34.000Z</time>
      </trkpt>
      <trkpt lat="42.10968" lon="9.15687">
        <ele>1585.4000244141</ele>
        <time>2014-05-14T10:04:39.000Z</time>
      </trkpt>
      <trkpt lat="42.10965" lon="9.15688">
        <ele>1585</ele>
        <time>2014-05-14T10:04:44.000Z</time>
      </trkpt>
      <trkpt lat="42.10963" lon="9.15688">
        <ele>1585</ele>
        <time>2014-05-14T10:04:48.000Z</time>
      </trkpt>
      <trkpt lat="42.10962" lon="9.15687">
        <ele>1585.4000244141</ele>
        <time>2014-05-14T10:05:00.000Z</time>
      </trkpt>
      <trkpt lat="42.10961" lon="9.15686">
        <ele>1585.5999755859</ele>
        <time>2014-05-14T10:05:36.000Z</time>
      </trkpt>
      <trkpt lat="42.10959" lon="9.15687">
        <ele>1585.4000244141</ele>
        <time>2014-05-14T10:05:43.000Z</time>
      </trkpt>
      <trkpt lat="42.10956" lon="9.15689">
        <ele>1584.5999755859</ele>
        <time>2014-05-14T10:06:03.000Z</time>
      </trkpt>
      <trkpt lat="42.10954" lon="9.15692">
        <ele>1583.8000488281</ele>
        <time>2014-05-14T10:06:09.000Z</time>
      </trkpt>
      <trkpt lat="42.1095" lon="9.15696">
        <ele>1582.4000244141</ele>
        <time>2014-05-14T10:06:16.000Z</time>
      </trkpt>
      <trkpt lat="42.10946" lon="9.15701">
        <ele>1581.1999511719</ele>
        <time>2014-05-14T10:06:28.000Z</time>
      </trkpt>
      <trkpt lat="42.1094" lon="9.15704">
        <ele>1580.1999511719</ele>
        <time>2014-05-14T10:06:35.000Z</time>
      </trkpt>
      <trkpt lat="42.10939" lon="9.15705">
        <ele>1580</ele>
        <time>2014-05-14T10:06:36.000Z</time>
      </trkpt>
      <trkpt lat="42.10938" lon="9.15707">
        <ele>1579.4000244141</ele>
        <time>2014-05-14T10:06:39.000Z</time>
      </trkpt>
      <trkpt lat="42.10937" lon="9.15707">
        <ele>1579.4000244141</ele>
        <time>2014-05-14T10:06:40.000Z</time>
      </trkpt>
      <trkpt lat="42.10936" lon="9.15707">
        <ele>1579.5999755859</ele>
        <time>2014-05-14T10:06:46.000Z</time>
      </trkpt>
      <trkpt lat="42.10935" lon="9.15705">
        <ele>1580.1999511719</ele>
        <time>2014-05-14T10:06:53.000Z</time>
      </trkpt>
      <trkpt lat="42.10934" lon="9.15706">
        <ele>1579.5999755859</ele>
        <time>2014-05-14T10:07:02.000Z</time>
      </trkpt>
      <trkpt lat="42.10933" lon="9.15706">
        <ele>1579.5999755859</ele>
        <time>2014-05-14T10:07:03.000Z</time>
      </trkpt>
      <trkpt lat="42.10931" lon="9.15705">
        <ele>1580</ele>
        <time>2014-05-14T10:07:06.000Z</time>
      </trkpt>
      <trkpt lat="42.10931" lon="9.15705">
        <ele>1580.1999511719</ele>
        <time>2014-05-14T10:07:08.000Z</time>
      </trkpt>
      <trkpt lat="42.10931" lon="9.15705">
        <ele>1580</ele>
        <time>2014-05-14T10:07:22.000Z</time>
      </trkpt>
      <trkpt lat="42.10932" lon="9.157">
        <ele>1581.5999755859</ele>
        <time>2014-05-14T10:07:31.000Z</time>
      </trkpt>
      <trkpt lat="42.10933" lon="9.15698">
        <ele>1581.8000488281</ele>
        <time>2014-05-14T10:07:32.000Z</time>
      </trkpt>
      <trkpt lat="42.10934" lon="9.15697">
        <ele>1582.1999511719</ele>
        <time>2014-05-14T10:07:34.000Z</time>
      </trkpt>
      <trkpt lat="42.10934" lon="9.15697">
        <ele>1582.1999511719</ele>
        <time>2014-05-14T10:07:36.000Z</time>
      </trkpt>
      <trkpt lat="42.10934" lon="9.15698">
        <ele>1582</ele>
        <time>2014-05-14T10:07:45.000Z</time>
      </trkpt>
      <trkpt lat="42.10937" lon="9.15701">
        <ele>1581.1999511719</ele>
        <time>2014-05-14T10:08:16.000Z</time>
      </trkpt>
      <trkpt lat="42.10941" lon="9.15707">
        <ele>1579.5999755859</ele>
        <time>2014-05-14T10:08:22.000Z</time>
      </trkpt>
      <trkpt lat="42.10947" lon="9.15712">
        <ele>1578</ele>
        <time>2014-05-14T10:08:28.000Z</time>
      </trkpt>
      <trkpt lat="42.10949" lon="9.15712">
        <ele>1578.1999511719</ele>
        <time>2014-05-14T10:08:34.000Z</time>
      </trkpt>
      <trkpt lat="42.10946" lon="9.15717">
        <ele>1576.5999755859</ele>
        <time>2014-05-14T10:09:37.000Z</time>
      </trkpt>
      <trkpt lat="42.10948" lon="9.15722">
        <ele>1575.4000244141</ele>
        <time>2014-05-14T10:09:44.000Z</time>
      </trkpt>
      <trkpt lat="42.10948" lon="9.15723">
        <ele>1575</ele>
        <time>2014-05-14T10:09:51.000Z</time>
      </trkpt>
      <trkpt lat="42.1095" lon="9.15722">
        <ele>1575.4000244141</ele>
        <time>2014-05-14T10:09:57.000Z</time>
      </trkpt>
      <trkpt lat="42.10952" lon="9.15722">
        <ele>1575.4000244141</ele>
        <time>2014-05-14T10:09:58.000Z</time>
      </trkpt>
      <trkpt lat="42.10954" lon="9.15722">
        <ele>1575.4000244141</ele>
        <time>2014-05-14T10:10:02.000Z</time>
      </trkpt>
      <trkpt lat="42.1095" lon="9.15717">
        <ele>1576.8000488281</ele>
        <time>2014-05-14T10:10:48.000Z</time>
      </trkpt>
      <trkpt lat="42.10952" lon="9.1572">
        <ele>1575.8000488281</ele>
        <time>2014-05-14T10:10:53.000Z</time>
      </trkpt>
      <trkpt lat="42.10949" lon="9.15714">
        <ele>1577.5999755859</ele>
        <time>2014-05-14T10:11:13.000Z</time>
      </trkpt>
      <trkpt lat="42.10949" lon="9.15713">
        <ele>1577.8000488281</ele>
        <time>2014-05-14T10:11:14.000Z</time>
      </trkpt>
      <trkpt lat="42.10945" lon="9.15709">
        <ele>1578.8000488281</ele>
        <time>2014-05-14T10:11:20.000Z</time>
      </trkpt>
      <trkpt lat="42.10939" lon="9.15707">
        <ele>1579.5999755859</ele>
        <time>2014-05-14T10:11:26.000Z</time>
      </trkpt>
      <trkpt lat="42.10939" lon="9.15706">
        <ele>1579.5999755859</ele>
        <time>2014-05-14T10:11:27.000Z</time>
      </trkpt>
      <trkpt lat="42.10936" lon="9.15706">
        <ele>1579.8000488281</ele>
        <time>2014-05-14T10:11:31.000Z</time>
      </trkpt>
      <trkpt lat="42.10936" lon="9.15706">
        <ele>1579.5999755859</ele>
        <time>2014-05-14T10:11:33.000Z</time>
      </trkpt>
      <trkpt lat="42.10934" lon="9.15709">
        <ele>1578.8000488281</ele>
        <time>2014-05-14T10:11:45.000Z</time>
      </trkpt>
      <trkpt lat="42.10933" lon="9.1571">
        <ele>1578.5999755859</ele>
        <time>2014-05-14T10:11:46.000Z</time>
      </trkpt>
      <trkpt lat="42.10931" lon="9.15713">
        <ele>1577.8000488281</ele>
        <time>2014-05-14T10:11:50.000Z</time>
      </trkpt>
      <trkpt lat="42.10928" lon="9.15718">
        <ele>1576.4000244141</ele>
        <time>2014-05-14T10:11:55.000Z</time>
      </trkpt>
      <trkpt lat="42.10928" lon="9.1572">
        <ele>1575.4000244141</ele>
        <time>2014-05-14T10:11:57.000Z</time>
      </trkpt>
      <trkpt lat="42.10927" lon="9.15722">
        <ele>1575</ele>
        <time>2014-05-14T10:11:58.000Z</time>
      </trkpt>
      <trkpt lat="42.10925" lon="9.15725">
        <ele>1574</ele>
        <time>2014-05-14T10:12:02.000Z</time>
      </trkpt>
      <trkpt lat="42.10921" lon="9.15731">
        <ele>1571.8000488281</ele>
        <time>2014-05-14T10:12:08.000Z</time>
      </trkpt>
      <trkpt lat="42.10916" lon="9.15739">
        <ele>1569.4000244141</ele>
        <time>2014-05-14T10:12:15.000Z</time>
      </trkpt>
      <trkpt lat="42.10913" lon="9.15745">
        <ele>1567.1999511719</ele>
        <time>2014-05-14T10:12:22.000Z</time>
      </trkpt>
      <trkpt lat="42.10911" lon="9.15754">
        <ele>1564.4000244141</ele>
        <time>2014-05-14T10:12:28.000Z</time>
      </trkpt>
      <trkpt lat="42.1091" lon="9.15758">
        <ele>1563.1999511719</ele>
        <time>2014-05-14T10:12:31.000Z</time>
      </trkpt>
      <trkpt lat="42.10908" lon="9.15762">
        <ele>1562.1999511719</ele>
        <time>2014-05-14T10:12:34.000Z</time>
      </trkpt>
      <trkpt lat="42.10905" lon="9.15772">
        <ele>1559.4000244141</ele>
        <time>2014-05-14T10:12:42.000Z</time>
      </trkpt>
      <trkpt lat="42.10902" lon="9.15779">
        <ele>1558.5999755859</ele>
        <time>2014-05-14T10:12:48.000Z</time>
      </trkpt>
      <trkpt lat="42.10899" lon="9.1579">
        <ele>1556.8000488281</ele>
        <time>2014-05-14T10:12:56.000Z</time>
      </trkpt>
      <trkpt lat="42.10895" lon="9.15798">
        <ele>1556.1999511719</ele>
        <time>2014-05-14T10:13:03.000Z</time>
      </trkpt>
      <trkpt lat="42.10887" lon="9.15803">
        <ele>1556.8000488281</ele>
        <time>2014-05-14T10:13:11.000Z</time>
      </trkpt>
      <trkpt lat="42.10881" lon="9.15804">
        <ele>1558</ele>
        <time>2014-05-14T10:13:18.000Z</time>
      </trkpt>
      <trkpt lat="42.10877" lon="9.15805">
        <ele>1558.8000488281</ele>
        <time>2014-05-14T10:13:22.000Z</time>
      </trkpt>
      <trkpt lat="42.10875" lon="9.15804">
        <ele>1559.4000244141</ele>
        <time>2014-05-14T10:13:24.000Z</time>
      </trkpt>
      <trkpt lat="42.10872" lon="9.15805">
        <ele>1559.8000488281</ele>
        <time>2014-05-14T10:13:28.000Z</time>
      </trkpt>
      <trkpt lat="42.1087" lon="9.15805">
        <ele>1560.1999511719</ele>
        <time>2014-05-14T10:13:30.000Z</time>
      </trkpt>
      <trkpt lat="42.1087" lon="9.15805">
        <ele>1560.5999755859</ele>
        <time>2014-05-14T10:13:31.000Z</time>
      </trkpt>
      <trkpt lat="42.10867" lon="9.15804">
        <ele>1561.1999511719</ele>
        <time>2014-05-14T10:13:34.000Z</time>
      </trkpt>
      <trkpt lat="42.10867" lon="9.15804">
        <ele>1561.1999511719</ele>
        <time>2014-05-14T10:13:37.000Z</time>
      </trkpt>
      <trkpt lat="42.10865" lon="9.15805">
        <ele>1561.8000488281</ele>
        <time>2014-05-14T10:13:53.000Z</time>
      </trkpt>
      <trkpt lat="42.10862" lon="9.15806">
        <ele>1562</ele>
        <time>2014-05-14T10:14:10.000Z</time>
      </trkpt>
      <trkpt lat="42.10859" lon="9.15809">
        <ele>1562</ele>
        <time>2014-05-14T10:15:13.000Z</time>
      </trkpt>
      <trkpt lat="42.10859" lon="9.15809">
        <ele>1562.1999511719</ele>
        <time>2014-05-14T10:15:22.000Z</time>
      </trkpt>
      <trkpt lat="42.10858" lon="9.15807">
        <ele>1562.8000488281</ele>
        <time>2014-05-14T10:16:04.000Z</time>
      </trkpt>
      <trkpt lat="42.10857" lon="9.15809">
        <ele>1562.5999755859</ele>
        <time>2014-05-14T10:16:09.000Z</time>
      </trkpt>
      <trkpt lat="42.10857" lon="9.15813">
        <ele>1562.1999511719</ele>
        <time>2014-05-14T10:16:14.000Z</time>
      </trkpt>
      <trkpt lat="42.10858" lon="9.15816">
        <ele>1561.5999755859</ele>
        <time>2014-05-14T10:16:19.000Z</time>
      </trkpt>
      <trkpt lat="42.10859" lon="9.15824">
        <ele>1560.1999511719</ele>
        <time>2014-05-14T10:16:25.000Z</time>
      </trkpt>
      <trkpt lat="42.10859" lon="9.15826">
        <ele>1560</ele>
        <time>2014-05-14T10:16:26.000Z</time>
      </trkpt>
      <trkpt lat="42.1086" lon="9.15829">
        <ele>1559.1999511719</ele>
        <time>2014-05-14T10:16:29.000Z</time>
      </trkpt>
      <trkpt lat="42.10862" lon="9.15833">
        <ele>1558.1999511719</ele>
        <time>2014-05-14T10:16:32.000Z</time>
      </trkpt>
      <trkpt lat="42.10862" lon="9.15834">
        <ele>1558.1999511719</ele>
        <time>2014-05-14T10:16:33.000Z</time>
      </trkpt>
      <trkpt lat="42.10863" lon="9.15842">
        <ele>1556.8000488281</ele>
        <time>2014-05-14T10:16:39.000Z</time>
      </trkpt>
      <trkpt lat="42.10863" lon="9.15843">
        <ele>1556.5999755859</ele>
        <time>2014-05-14T10:16:40.000Z</time>
      </trkpt>
      <trkpt lat="42.10864" lon="9.15851">
        <ele>1555.1999511719</ele>
        <time>2014-05-14T10:16:46.000Z</time>
      </trkpt>
      <trkpt lat="42.10867" lon="9.15862">
        <ele>1552.8000488281</ele>
        <time>2014-05-14T10:16:54.000Z</time>
      </trkpt>
      <trkpt lat="42.10867" lon="9.15873">
        <ele>1551.8000488281</ele>
        <time>2014-05-14T10:17:01.000Z</time>
      </trkpt>
      <trkpt lat="42.10863" lon="9.1588">
        <ele>1552.5999755859</ele>
        <time>2014-05-14T10:17:08.000Z</time>
      </trkpt>
      <trkpt lat="42.10858" lon="9.15886">
        <ele>1553.8000488281</ele>
        <time>2014-05-14T10:17:15.000Z</time>
      </trkpt>
      <trkpt lat="42.10857" lon="9.15886">
        <ele>1554</ele>
        <time>2014-05-14T10:17:16.000Z</time>
      </trkpt>
      <trkpt lat="42.10855" lon="9.15888">
        <ele>1554.5999755859</ele>
        <time>2014-05-14T10:17:21.000Z</time>
      </trkpt>
      <trkpt lat="42.10854" lon="9.15896">
        <ele>1554.4000244141</ele>
        <time>2014-05-14T10:17:29.000Z</time>
      </trkpt>
      <trkpt lat="42.10856" lon="9.15903">
        <ele>1553.4000244141</ele>
        <time>2014-05-14T10:17:35.000Z</time>
      </trkpt>
      <trkpt lat="42.10856" lon="9.15906">
        <ele>1553.4000244141</ele>
        <time>2014-05-14T10:17:41.000Z</time>
      </trkpt>
      <trkpt lat="42.10856" lon="9.15912">
        <ele>1553.1999511719</ele>
        <time>2014-05-14T10:18:08.000Z</time>
      </trkpt>
      <trkpt lat="42.10856" lon="9.15919">
        <ele>1552.8000488281</ele>
        <time>2014-05-14T10:18:13.000Z</time>
      </trkpt>
      <trkpt lat="42.10856" lon="9.1592">
        <ele>1552.8000488281</ele>
        <time>2014-05-14T10:18:14.000Z</time>
      </trkpt>
      <trkpt lat="42.10855" lon="9.15925">
        <ele>1553</ele>
        <time>2014-05-14T10:18:18.000Z</time>
      </trkpt>
      <trkpt lat="42.10855" lon="9.15929">
        <ele>1553</ele>
        <time>2014-05-14T10:18:21.000Z</time>
      </trkpt>
      <trkpt lat="42.10855" lon="9.15931">
        <ele>1553</ele>
        <time>2014-05-14T10:18:22.000Z</time>
      </trkpt>
      <trkpt lat="42.10854" lon="9.15937">
        <ele>1553</ele>
        <time>2014-05-14T10:18:27.000Z</time>
      </trkpt>
      <trkpt lat="42.10854" lon="9.15945">
        <ele>1552.8000488281</ele>
        <time>2014-05-14T10:18:33.000Z</time>
      </trkpt>
      <trkpt lat="42.10854" lon="9.15951">
        <ele>1552.5999755859</ele>
        <time>2014-05-14T10:18:37.000Z</time>
      </trkpt>
      <trkpt lat="42.10853" lon="9.15955">
        <ele>1552.5999755859</ele>
        <time>2014-05-14T10:18:40.000Z</time>
      </trkpt>
      <trkpt lat="42.1085" lon="9.15962">
        <ele>1553.4000244141</ele>
        <time>2014-05-14T10:18:46.000Z</time>
      </trkpt>
      <trkpt lat="42.10849" lon="9.15963">
        <ele>1553.4000244141</ele>
        <time>2014-05-14T10:18:47.000Z</time>
      </trkpt>
      <trkpt lat="42.10849" lon="9.15969">
        <ele>1553.4000244141</ele>
        <time>2014-05-14T10:18:52.000Z</time>
      </trkpt>
      <trkpt lat="42.10847" lon="9.15979">
        <ele>1554</ele>
        <time>2014-05-14T10:18:59.000Z</time>
      </trkpt>
      <trkpt lat="42.10846" lon="9.15986">
        <ele>1554.4000244141</ele>
        <time>2014-05-14T10:19:04.000Z</time>
      </trkpt>
      <trkpt lat="42.10843" lon="9.15996">
        <ele>1555.1999511719</ele>
        <time>2014-05-14T10:19:11.000Z</time>
      </trkpt>
      <trkpt lat="42.10842" lon="9.16">
        <ele>1555.5999755859</ele>
        <time>2014-05-14T10:19:14.000Z</time>
      </trkpt>
      <trkpt lat="42.10841" lon="9.16006">
        <ele>1556.1999511719</ele>
        <time>2014-05-14T10:19:18.000Z</time>
      </trkpt>
      <trkpt lat="42.10838" lon="9.16016">
        <ele>1557.1999511719</ele>
        <time>2014-05-14T10:19:25.000Z</time>
      </trkpt>
      <trkpt lat="42.10837" lon="9.16025">
        <ele>1557.5999755859</ele>
        <time>2014-05-14T10:19:32.000Z</time>
      </trkpt>
      <trkpt lat="42.10835" lon="9.16035">
        <ele>1557.8000488281</ele>
        <time>2014-05-14T10:19:40.000Z</time>
      </trkpt>
      <trkpt lat="42.10834" lon="9.16039">
        <ele>1557.8000488281</ele>
        <time>2014-05-14T10:19:43.000Z</time>
      </trkpt>
      <trkpt lat="42.10834" lon="9.16043">
        <ele>1558</ele>
        <time>2014-05-14T10:19:46.000Z</time>
      </trkpt>
      <trkpt lat="42.10834" lon="9.16044">
        <ele>1558</ele>
        <time>2014-05-14T10:19:47.000Z</time>
      </trkpt>
      <trkpt lat="42.10835" lon="9.16051">
        <ele>1557.4000244141</ele>
        <time>2014-05-14T10:19:54.000Z</time>
      </trkpt>
      <trkpt lat="42.10835" lon="9.16053">
        <ele>1557.1999511719</ele>
        <time>2014-05-14T10:19:59.000Z</time>
      </trkpt>
      <trkpt lat="42.10836" lon="9.16059">
        <ele>1556.5999755859</ele>
        <time>2014-05-14T10:20:04.000Z</time>
      </trkpt>
      <trkpt lat="42.10835" lon="9.1606">
        <ele>1556.5999755859</ele>
        <time>2014-05-14T10:20:05.000Z</time>
      </trkpt>
      <trkpt lat="42.10834" lon="9.16066">
        <ele>1557</ele>
        <time>2014-05-14T10:20:09.000Z</time>
      </trkpt>
      <trkpt lat="42.10833" lon="9.16078">
        <ele>1557.4000244141</ele>
        <time>2014-05-14T10:20:18.000Z</time>
      </trkpt>
      <trkpt lat="42.10834" lon="9.16084">
        <ele>1557.1999511719</ele>
        <time>2014-05-14T10:20:25.000Z</time>
      </trkpt>
      <trkpt lat="42.10833" lon="9.16088">
        <ele>1557.1999511719</ele>
        <time>2014-05-14T10:20:28.000Z</time>
      </trkpt>
      <trkpt lat="42.10834" lon="9.16092">
        <ele>1556.8000488281</ele>
        <time>2014-05-14T10:20:31.000Z</time>
      </trkpt>
      <trkpt lat="42.10834" lon="9.16099">
        <ele>1556.4000244141</ele>
        <time>2014-05-14T10:20:36.000Z</time>
      </trkpt>
      <trkpt lat="42.10835" lon="9.16101">
        <ele>1556</ele>
        <time>2014-05-14T10:20:39.000Z</time>
      </trkpt>
      <trkpt lat="42.10835" lon="9.16105">
        <ele>1555.8000488281</ele>
        <time>2014-05-14T10:20:45.000Z</time>
      </trkpt>
      <trkpt lat="42.10835" lon="9.16105">
        <ele>1556</ele>
        <time>2014-05-14T10:20:58.000Z</time>
      </trkpt>
      <trkpt lat="42.10835" lon="9.16106">
        <ele>1555.5999755859</ele>
        <time>2014-05-14T10:21:02.000Z</time>
      </trkpt>
      <trkpt lat="42.10835" lon="9.16106">
        <ele>1555.5999755859</ele>
        <time>2014-05-14T10:21:08.000Z</time>
      </trkpt>
      <trkpt lat="42.10838" lon="9.16107">
        <ele>1554</ele>
        <time>2014-05-14T10:21:23.000Z</time>
      </trkpt>
      <trkpt lat="42.10838" lon="9.16109">
        <ele>1554.4000244141</ele>
        <time>2014-05-14T10:21:37.000Z</time>
      </trkpt>
      <trkpt lat="42.10837" lon="9.16111">
        <ele>1554.4000244141</ele>
        <time>2014-05-14T10:21:47.000Z</time>
      </trkpt>
      <trkpt lat="42.10839" lon="9.16119">
        <ele>1553.1999511719</ele>
        <time>2014-05-14T10:21:54.000Z</time>
      </trkpt>
      <trkpt lat="42.10839" lon="9.16122">
        <ele>1553</ele>
        <time>2014-05-14T10:21:56.000Z</time>
      </trkpt>
      <trkpt lat="42.10838" lon="9.16128">
        <ele>1553.4000244141</ele>
        <time>2014-05-14T10:22:01.000Z</time>
      </trkpt>
      <trkpt lat="42.10839" lon="9.16137">
        <ele>1553.4000244141</ele>
        <time>2014-05-14T10:22:08.000Z</time>
      </trkpt>
      <trkpt lat="42.10839" lon="9.16144">
        <ele>1553.5999755859</ele>
        <time>2014-05-14T10:22:14.000Z</time>
      </trkpt>
      <trkpt lat="42.1084" lon="9.16148">
        <ele>1553.5999755859</ele>
        <time>2014-05-14T10:22:21.000Z</time>
      </trkpt>
      <trkpt lat="42.1084" lon="9.16154">
        <ele>1553.8000488281</ele>
        <time>2014-05-14T10:22:27.000Z</time>
      </trkpt>
      <trkpt lat="42.1084" lon="9.16163">
        <ele>1554.1999511719</ele>
        <time>2014-05-14T10:22:35.000Z</time>
      </trkpt>
      <trkpt lat="42.1084" lon="9.16167">
        <ele>1554.8000488281</ele>
        <time>2014-05-14T10:22:38.000Z</time>
      </trkpt>
      <trkpt lat="42.1084" lon="9.1617">
        <ele>1555</ele>
        <time>2014-05-14T10:22:41.000Z</time>
      </trkpt>
      <trkpt lat="42.10839" lon="9.16176">
        <ele>1555.8000488281</ele>
        <time>2014-05-14T10:22:48.000Z</time>
      </trkpt>
      <trkpt lat="42.10841" lon="9.16184">
        <ele>1555.4000244141</ele>
        <time>2014-05-14T10:22:55.000Z</time>
      </trkpt>
      <trkpt lat="42.10841" lon="9.16188">
        <ele>1555.4000244141</ele>
        <time>2014-05-14T10:23:01.000Z</time>
      </trkpt>
      <trkpt lat="42.10841" lon="9.16191">
        <ele>1555.4000244141</ele>
        <time>2014-05-14T10:23:03.000Z</time>
      </trkpt>
      <trkpt lat="42.10841" lon="9.16196">
        <ele>1555.8000488281</ele>
        <time>2014-05-14T10:23:07.000Z</time>
      </trkpt>
      <trkpt lat="42.10841" lon="9.16198">
        <ele>1555.5999755859</ele>
        <time>2014-05-14T10:23:10.000Z</time>
      </trkpt>
      <trkpt lat="42.10843" lon="9.16203">
        <ele>1554.8000488281</ele>
        <time>2014-05-14T10:23:14.000Z</time>
      </trkpt>
      <trkpt lat="42.10842" lon="9.1621">
        <ele>1556.4000244141</ele>
        <time>2014-05-14T10:23:20.000Z</time>
      </trkpt>
      <trkpt lat="42.1084" lon="9.1622">
        <ele>1558.5999755859</ele>
        <time>2014-05-14T10:23:27.000Z</time>
      </trkpt>
      <trkpt lat="42.1084" lon="9.16227">
        <ele>1559.1999511719</ele>
        <time>2014-05-14T10:23:32.000Z</time>
      </trkpt>
      <trkpt lat="42.10841" lon="9.1623">
        <ele>1558.8000488281</ele>
        <time>2014-05-14T10:23:34.000Z</time>
      </trkpt>
      <trkpt lat="42.10842" lon="9.16239">
        <ele>1559</ele>
        <time>2014-05-14T10:23:41.000Z</time>
      </trkpt>
      <trkpt lat="42.10843" lon="9.16241">
        <ele>1558.5999755859</ele>
        <time>2014-05-14T10:23:42.000Z</time>
      </trkpt>
      <trkpt lat="42.10845" lon="9.16249">
        <ele>1557.8000488281</ele>
        <time>2014-05-14T10:23:49.000Z</time>
      </trkpt>
      <trkpt lat="42.10846" lon="9.16251">
        <ele>1557.5999755859</ele>
        <time>2014-05-14T10:23:52.000Z</time>
      </trkpt>
      <trkpt lat="42.10846" lon="9.16253">
        <ele>1557.5999755859</ele>
        <time>2014-05-14T10:23:54.000Z</time>
      </trkpt>
      <trkpt lat="42.10846" lon="9.1626">
        <ele>1558</ele>
        <time>2014-05-14T10:24:00.000Z</time>
      </trkpt>
      <trkpt lat="42.10848" lon="9.16265">
        <ele>1557.5999755859</ele>
        <time>2014-05-14T10:24:06.000Z</time>
      </trkpt>
      <trkpt lat="42.10852" lon="9.16273">
        <ele>1555.5999755859</ele>
        <time>2014-05-14T10:24:15.000Z</time>
      </trkpt>
      <trkpt lat="42.10854" lon="9.16277">
        <ele>1554</ele>
        <time>2014-05-14T10:24:20.000Z</time>
      </trkpt>
      <trkpt lat="42.10856" lon="9.16278">
        <ele>1553.4000244141</ele>
        <time>2014-05-14T10:24:22.000Z</time>
      </trkpt>
      <trkpt lat="42.10857" lon="9.16285">
        <ele>1552.5999755859</ele>
        <time>2014-05-14T10:24:30.000Z</time>
      </trkpt>
      <trkpt lat="42.10857" lon="9.16286">
        <ele>1552.8000488281</ele>
        <time>2014-05-14T10:24:36.000Z</time>
      </trkpt>
      <trkpt lat="42.10862" lon="9.16292">
        <ele>1550.4000244141</ele>
        <time>2014-05-14T10:24:52.000Z</time>
      </trkpt>
      <trkpt lat="42.10865" lon="9.163">
        <ele>1549</ele>
        <time>2014-05-14T10:24:58.000Z</time>
      </trkpt>
      <trkpt lat="42.10868" lon="9.16309">
        <ele>1547.5999755859</ele>
        <time>2014-05-14T10:25:05.000Z</time>
      </trkpt>
      <trkpt lat="42.1087" lon="9.16317">
        <ele>1546.8000488281</ele>
        <time>2014-05-14T10:25:10.000Z</time>
      </trkpt>
      <trkpt lat="42.10871" lon="9.16321">
        <ele>1546.4000244141</ele>
        <time>2014-05-14T10:25:13.000Z</time>
      </trkpt>
      <trkpt lat="42.10871" lon="9.16333">
        <ele>1547.8000488281</ele>
        <time>2014-05-14T10:25:21.000Z</time>
      </trkpt>
      <trkpt lat="42.10872" lon="9.16346">
        <ele>1549</ele>
        <time>2014-05-14T10:25:29.000Z</time>
      </trkpt>
      <trkpt lat="42.10873" lon="9.16354">
        <ele>1549.5999755859</ele>
        <time>2014-05-14T10:25:36.000Z</time>
      </trkpt>
      <trkpt lat="42.10873" lon="9.16356">
        <ele>1549.8000488281</ele>
        <time>2014-05-14T10:25:37.000Z</time>
      </trkpt>
      <trkpt lat="42.10874" lon="9.16361">
        <ele>1549.8000488281</ele>
        <time>2014-05-14T10:25:41.000Z</time>
      </trkpt>
      <trkpt lat="42.10874" lon="9.16364">
        <ele>1550</ele>
        <time>2014-05-14T10:25:45.000Z</time>
      </trkpt>
      <trkpt lat="42.10874" lon="9.16366">
        <ele>1549.8000488281</ele>
        <time>2014-05-14T10:25:47.000Z</time>
      </trkpt>
      <trkpt lat="42.10874" lon="9.16373">
        <ele>1550.1999511719</ele>
        <time>2014-05-14T10:25:52.000Z</time>
      </trkpt>
      <trkpt lat="42.10874" lon="9.16381">
        <ele>1550.8000488281</ele>
        <time>2014-05-14T10:25:58.000Z</time>
      </trkpt>
      <trkpt lat="42.10876" lon="9.16389">
        <ele>1550.4000244141</ele>
        <time>2014-05-14T10:26:04.000Z</time>
      </trkpt>
      <trkpt lat="42.10876" lon="9.1639">
        <ele>1550.4000244141</ele>
        <time>2014-05-14T10:26:05.000Z</time>
      </trkpt>
      <trkpt lat="42.10877" lon="9.16395">
        <ele>1549.8000488281</ele>
        <time>2014-05-14T10:26:10.000Z</time>
      </trkpt>
      <trkpt lat="42.10878" lon="9.16399">
        <ele>1549.5999755859</ele>
        <time>2014-05-14T10:26:13.000Z</time>
      </trkpt>
      <trkpt lat="42.10879" lon="9.16402">
        <ele>1549.4000244141</ele>
        <time>2014-05-14T10:26:16.000Z</time>
      </trkpt>
      <trkpt lat="42.10881" lon="9.16409">
        <ele>1548.5999755859</ele>
        <time>2014-05-14T10:26:23.000Z</time>
      </trkpt>
      <trkpt lat="42.10881" lon="9.16417">
        <ele>1549</ele>
        <time>2014-05-14T10:26:30.000Z</time>
      </trkpt>
      <trkpt lat="42.10883" lon="9.16422">
        <ele>1548.1999511719</ele>
        <time>2014-05-14T10:26:34.000Z</time>
      </trkpt>
      <trkpt lat="42.10883" lon="9.16427">
        <ele>1548</ele>
        <time>2014-05-14T10:26:38.000Z</time>
      </trkpt>
      <trkpt lat="42.10884" lon="9.16434">
        <ele>1548</ele>
        <time>2014-05-14T10:26:45.000Z</time>
      </trkpt>
      <trkpt lat="42.10886" lon="9.16439">
        <ele>1547</ele>
        <time>2014-05-14T10:26:50.000Z</time>
      </trkpt>
      <trkpt lat="42.10886" lon="9.16441">
        <ele>1547</ele>
        <time>2014-05-14T10:26:52.000Z</time>
      </trkpt>
      <trkpt lat="42.10888" lon="9.16444">
        <ele>1546.4000244141</ele>
        <time>2014-05-14T10:27:51.000Z</time>
      </trkpt>
      <trkpt lat="42.10889" lon="9.16448">
        <ele>1546</ele>
        <time>2014-05-14T10:27:57.000Z</time>
      </trkpt>
      <trkpt lat="42.10889" lon="9.16449">
        <ele>1545.5999755859</ele>
        <time>2014-05-14T10:28:06.000Z</time>
      </trkpt>
      <trkpt lat="42.10891" lon="9.16453">
        <ele>1544.5999755859</ele>
        <time>2014-05-14T10:28:14.000Z</time>
      </trkpt>
      <trkpt lat="42.10893" lon="9.16461">
        <ele>1543.4000244141</ele>
        <time>2014-05-14T10:28:21.000Z</time>
      </trkpt>
      <trkpt lat="42.10896" lon="9.16471">
        <ele>1542</ele>
        <time>2014-05-14T10:28:29.000Z</time>
      </trkpt>
      <trkpt lat="42.10897" lon="9.16473">
        <ele>1541.4000244141</ele>
        <time>2014-05-14T10:28:31.000Z</time>
      </trkpt>
      <trkpt lat="42.109" lon="9.1648">
        <ele>1540.1999511719</ele>
        <time>2014-05-14T10:28:36.000Z</time>
      </trkpt>
      <trkpt lat="42.109" lon="9.16481">
        <ele>1540.1999511719</ele>
        <time>2014-05-14T10:28:37.000Z</time>
      </trkpt>
      <trkpt lat="42.10901" lon="9.16488">
        <ele>1540.1999511719</ele>
        <time>2014-05-14T10:28:42.000Z</time>
      </trkpt>
      <trkpt lat="42.10901" lon="9.16491">
        <ele>1540.4000244141</ele>
        <time>2014-05-14T10:28:44.000Z</time>
      </trkpt>
      <trkpt lat="42.10901" lon="9.16497">
        <ele>1540.5999755859</ele>
        <time>2014-05-14T10:28:48.000Z</time>
      </trkpt>
      <trkpt lat="42.109" lon="9.16504">
        <ele>1541.5999755859</ele>
        <time>2014-05-14T10:28:53.000Z</time>
      </trkpt>
      <trkpt lat="42.109" lon="9.16505">
        <ele>1542</ele>
        <time>2014-05-14T10:28:54.000Z</time>
      </trkpt>
      <trkpt lat="42.109" lon="9.16512">
        <ele>1542</ele>
        <time>2014-05-14T10:28:59.000Z</time>
      </trkpt>
      <trkpt lat="42.10903" lon="9.16524">
        <ele>1540.5999755859</ele>
        <time>2014-05-14T10:29:07.000Z</time>
      </trkpt>
      <trkpt lat="42.10907" lon="9.16532">
        <ele>1538.8000488281</ele>
        <time>2014-05-14T10:29:13.000Z</time>
      </trkpt>
      <trkpt lat="42.10907" lon="9.1654">
        <ele>1539.5999755859</ele>
        <time>2014-05-14T10:29:19.000Z</time>
      </trkpt>
      <trkpt lat="42.1091" lon="9.16551">
        <ele>1539.4000244141</ele>
        <time>2014-05-14T10:29:27.000Z</time>
      </trkpt>
      <trkpt lat="42.10911" lon="9.16558">
        <ele>1539.4000244141</ele>
        <time>2014-05-14T10:29:33.000Z</time>
      </trkpt>
      <trkpt lat="42.10912" lon="9.16561">
        <ele>1539.4000244141</ele>
        <time>2014-05-14T10:29:35.000Z</time>
      </trkpt>
      <trkpt lat="42.10912" lon="9.16565">
        <ele>1539.8000488281</ele>
        <time>2014-05-14T10:29:39.000Z</time>
      </trkpt>
      <trkpt lat="42.10913" lon="9.16567">
        <ele>1539.8000488281</ele>
        <time>2014-05-14T10:29:41.000Z</time>
      </trkpt>
      <trkpt lat="42.10913" lon="9.16568">
        <ele>1540</ele>
        <time>2014-05-14T10:29:42.000Z</time>
      </trkpt>
      <trkpt lat="42.10913" lon="9.16572">
        <ele>1540.5999755859</ele>
        <time>2014-05-14T10:29:45.000Z</time>
      </trkpt>
      <trkpt lat="42.10913" lon="9.16579">
        <ele>1541.1999511719</ele>
        <time>2014-05-14T10:29:51.000Z</time>
      </trkpt>
      <trkpt lat="42.10914" lon="9.1658">
        <ele>1541</ele>
        <time>2014-05-14T10:29:52.000Z</time>
      </trkpt>
      <trkpt lat="42.10916" lon="9.16587">
        <ele>1540.8000488281</ele>
        <time>2014-05-14T10:29:58.000Z</time>
      </trkpt>
      <trkpt lat="42.10916" lon="9.1659">
        <ele>1541</ele>
        <time>2014-05-14T10:30:00.000Z</time>
      </trkpt>
      <trkpt lat="42.10918" lon="9.16596">
        <ele>1541</ele>
        <time>2014-05-14T10:30:04.000Z</time>
      </trkpt>
      <trkpt lat="42.10918" lon="9.16599">
        <ele>1541</ele>
        <time>2014-05-14T10:30:06.000Z</time>
      </trkpt>
      <trkpt lat="42.1092" lon="9.16605">
        <ele>1541</ele>
        <time>2014-05-14T10:30:10.000Z</time>
      </trkpt>
      <trkpt lat="42.10922" lon="9.16614">
        <ele>1541.1999511719</ele>
        <time>2014-05-14T10:30:17.000Z</time>
      </trkpt>
      <trkpt lat="42.10924" lon="9.16623">
        <ele>1540.8000488281</ele>
        <time>2014-05-14T10:30:23.000Z</time>
      </trkpt>
      <trkpt lat="42.10925" lon="9.16628">
        <ele>1541.1999511719</ele>
        <time>2014-05-14T10:30:27.000Z</time>
      </trkpt>
      <trkpt lat="42.10926" lon="9.16631">
        <ele>1541.1999511719</ele>
        <time>2014-05-14T10:30:29.000Z</time>
      </trkpt>
      <trkpt lat="42.10927" lon="9.16639">
        <ele>1541.5999755859</ele>
        <time>2014-05-14T10:30:35.000Z</time>
      </trkpt>
      <trkpt lat="42.10929" lon="9.16649">
        <ele>1541.4000244141</ele>
        <time>2014-05-14T10:30:42.000Z</time>
      </trkpt>
      <trkpt lat="42.10929" lon="9.16656">
        <ele>1542.1999511719</ele>
        <time>2014-05-14T10:30:48.000Z</time>
      </trkpt>
      <trkpt lat="42.1093" lon="9.16661">
        <ele>1542.4000244141</ele>
        <time>2014-05-14T10:30:51.000Z</time>
      </trkpt>
      <trkpt lat="42.1093" lon="9.16668">
        <ele>1543</ele>
        <time>2014-05-14T10:30:56.000Z</time>
      </trkpt>
      <trkpt lat="42.10932" lon="9.16681">
        <ele>1543.5999755859</ele>
        <time>2014-05-14T10:31:04.000Z</time>
      </trkpt>
      <trkpt lat="42.10933" lon="9.16694">
        <ele>1544.4000244141</ele>
        <time>2014-05-14T10:31:12.000Z</time>
      </trkpt>
      <trkpt lat="42.10935" lon="9.16703">
        <ele>1543.8000488281</ele>
        <time>2014-05-14T10:31:18.000Z</time>
      </trkpt>
      <trkpt lat="42.10936" lon="9.16713">
        <ele>1543.8000488281</ele>
        <time>2014-05-14T10:31:26.000Z</time>
      </trkpt>
      <trkpt lat="42.10935" lon="9.16722">
        <ele>1544</ele>
        <time>2014-05-14T10:31:32.000Z</time>
      </trkpt>
      <trkpt lat="42.10935" lon="9.16723">
        <ele>1544</ele>
        <time>2014-05-14T10:31:33.000Z</time>
      </trkpt>
      <trkpt lat="42.10936" lon="9.1673">
        <ele>1543.1999511719</ele>
        <time>2014-05-14T10:31:37.000Z</time>
      </trkpt>
      <trkpt lat="42.10935" lon="9.16731">
        <ele>1543.1999511719</ele>
        <time>2014-05-14T10:31:38.000Z</time>
      </trkpt>
      <trkpt lat="42.10935" lon="9.16742">
        <ele>1542.8000488281</ele>
        <time>2014-05-14T10:31:45.000Z</time>
      </trkpt>
      <trkpt lat="42.10934" lon="9.16756">
        <ele>1542.5999755859</ele>
        <time>2014-05-14T10:31:53.000Z</time>
      </trkpt>
      <trkpt lat="42.10933" lon="9.16771">
        <ele>1542</ele>
        <time>2014-05-14T10:32:02.000Z</time>
      </trkpt>
      <trkpt lat="42.10932" lon="9.16781">
        <ele>1542</ele>
        <time>2014-05-14T10:32:08.000Z</time>
      </trkpt>
      <trkpt lat="42.10931" lon="9.16792">
        <ele>1542.1999511719</ele>
        <time>2014-05-14T10:32:16.000Z</time>
      </trkpt>
      <trkpt lat="42.10929" lon="9.16798">
        <ele>1542.8000488281</ele>
        <time>2014-05-14T10:32:22.000Z</time>
      </trkpt>
      <trkpt lat="42.10928" lon="9.16799">
        <ele>1542.5999755859</ele>
        <time>2014-05-14T10:32:23.000Z</time>
      </trkpt>
      <trkpt lat="42.10926" lon="9.16807">
        <ele>1542</ele>
        <time>2014-05-14T10:32:30.000Z</time>
      </trkpt>
      <trkpt lat="42.10924" lon="9.16812">
        <ele>1541.4000244141</ele>
        <time>2014-05-14T10:32:35.000Z</time>
      </trkpt>
      <trkpt lat="42.10923" lon="9.16814">
        <ele>1541.4000244141</ele>
        <time>2014-05-14T10:32:37.000Z</time>
      </trkpt>
      <trkpt lat="42.10918" lon="9.16819">
        <ele>1541.8000488281</ele>
        <time>2014-05-14T10:32:44.000Z</time>
      </trkpt>
      <trkpt lat="42.10916" lon="9.1682">
        <ele>1542.1999511719</ele>
        <time>2014-05-14T10:32:52.000Z</time>
      </trkpt>
      <trkpt lat="42.10919" lon="9.16821">
        <ele>1541.1999511719</ele>
        <time>2014-05-14T10:32:56.000Z</time>
      </trkpt>
      <trkpt lat="42.10919" lon="9.16822">
        <ele>1541</ele>
        <time>2014-05-14T10:32:57.000Z</time>
      </trkpt>
      <trkpt lat="42.10917" lon="9.16823">
        <ele>1541.4000244141</ele>
        <time>2014-05-14T10:33:03.000Z</time>
      </trkpt>
      <trkpt lat="42.10914" lon="9.16823">
        <ele>1542.1999511719</ele>
        <time>2014-05-14T10:33:09.000Z</time>
      </trkpt>
      <trkpt lat="42.10912" lon="9.16818">
        <ele>1544</ele>
        <time>2014-05-14T10:33:30.000Z</time>
      </trkpt>
      <trkpt lat="42.10905" lon="9.16812">
        <ele>1545.5999755859</ele>
        <time>2014-05-14T10:33:38.000Z</time>
      </trkpt>
      <trkpt lat="42.10905" lon="9.16811">
        <ele>1545.5999755859</ele>
        <time>2014-05-14T10:33:39.000Z</time>
      </trkpt>
      <trkpt lat="42.10901" lon="9.1681">
        <ele>1546</ele>
        <time>2014-05-14T10:33:43.000Z</time>
      </trkpt>
      <trkpt lat="42.10899" lon="9.16809">
        <ele>1546</ele>
        <time>2014-05-14T10:33:45.000Z</time>
      </trkpt>
      <trkpt lat="42.10893" lon="9.16803">
        <ele>1547.4000244141</ele>
        <time>2014-05-14T10:33:54.000Z</time>
      </trkpt>
      <trkpt lat="42.10889" lon="9.16799">
        <ele>1548.1999511719</ele>
        <time>2014-05-14T10:34:01.000Z</time>
      </trkpt>
      <trkpt lat="42.10885" lon="9.16796">
        <ele>1548.8000488281</ele>
        <time>2014-05-14T10:34:07.000Z</time>
      </trkpt>
      <trkpt lat="42.1088" lon="9.16795">
        <ele>1549</ele>
        <time>2014-05-14T10:34:13.000Z</time>
      </trkpt>
      <trkpt lat="42.10874" lon="9.16793">
        <ele>1549.5999755859</ele>
        <time>2014-05-14T10:34:21.000Z</time>
      </trkpt>
      <trkpt lat="42.1087" lon="9.16788">
        <ele>1550.5999755859</ele>
        <time>2014-05-14T10:34:28.000Z</time>
      </trkpt>
      <trkpt lat="42.10866" lon="9.16786">
        <ele>1551</ele>
        <time>2014-05-14T10:34:34.000Z</time>
      </trkpt>
      <trkpt lat="42.10863" lon="9.16784">
        <ele>1551.4000244141</ele>
        <time>2014-05-14T10:34:39.000Z</time>
      </trkpt>
      <trkpt lat="42.10863" lon="9.16783">
        <ele>1551.5999755859</ele>
        <time>2014-05-14T10:34:43.000Z</time>
      </trkpt>
      <trkpt lat="42.10864" lon="9.16783">
        <ele>1551.5999755859</ele>
        <time>2014-05-14T10:34:49.000Z</time>
      </trkpt>
      <trkpt lat="42.10864" lon="9.16782">
        <ele>1551.8000488281</ele>
        <time>2014-05-14T10:34:59.000Z</time>
      </trkpt>
      <trkpt lat="42.10863" lon="9.16781">
        <ele>1552</ele>
        <time>2014-05-14T10:35:21.000Z</time>
      </trkpt>
      <trkpt lat="42.10864" lon="9.16779">
        <ele>1552.4000244141</ele>
        <time>2014-05-14T10:35:29.000Z</time>
      </trkpt>
      <trkpt lat="42.10859" lon="9.1678">
        <ele>1552.1999511719</ele>
        <time>2014-05-14T10:36:53.000Z</time>
      </trkpt>
      <trkpt lat="42.10856" lon="9.16779">
        <ele>1552.4000244141</ele>
        <time>2014-05-14T10:36:56.000Z</time>
      </trkpt>
      <trkpt lat="42.10854" lon="9.16777">
        <ele>1553</ele>
        <time>2014-05-14T10:37:00.000Z</time>
      </trkpt>
      <trkpt lat="42.10849" lon="9.16772">
        <ele>1554.5999755859</ele>
        <time>2014-05-14T10:37:06.000Z</time>
      </trkpt>
      <trkpt lat="42.10842" lon="9.16769">
        <ele>1556</ele>
        <time>2014-05-14T10:37:13.000Z</time>
      </trkpt>
      <trkpt lat="42.10838" lon="9.16767">
        <ele>1556.8000488281</ele>
        <time>2014-05-14T10:37:18.000Z</time>
      </trkpt>
      <trkpt lat="42.10832" lon="9.16764">
        <ele>1557.8000488281</ele>
        <time>2014-05-14T10:37:24.000Z</time>
      </trkpt>
      <trkpt lat="42.1083" lon="9.16762">
        <ele>1558.5999755859</ele>
        <time>2014-05-14T10:37:26.000Z</time>
      </trkpt>
      <trkpt lat="42.10826" lon="9.16758">
        <ele>1560</ele>
        <time>2014-05-14T10:37:32.000Z</time>
      </trkpt>
      <trkpt lat="42.10825" lon="9.16757">
        <ele>1560.1999511719</ele>
        <time>2014-05-14T10:37:33.000Z</time>
      </trkpt>
      <trkpt lat="42.1082" lon="9.16754">
        <ele>1560.8000488281</ele>
        <time>2014-05-14T10:37:39.000Z</time>
      </trkpt>
      <trkpt lat="42.10817" lon="9.1675">
        <ele>1561.5999755859</ele>
        <time>2014-05-14T10:37:44.000Z</time>
      </trkpt>
      <trkpt lat="42.10815" lon="9.16749">
        <ele>1561.8000488281</ele>
        <time>2014-05-14T10:37:46.000Z</time>
      </trkpt>
      <trkpt lat="42.10812" lon="9.16747">
        <ele>1562</ele>
        <time>2014-05-14T10:37:50.000Z</time>
      </trkpt>
      <trkpt lat="42.1081" lon="9.16745">
        <ele>1562.4000244141</ele>
        <time>2014-05-14T10:37:53.000Z</time>
      </trkpt>
      <trkpt lat="42.10808" lon="9.16744">
        <ele>1562.5999755859</ele>
        <time>2014-05-14T10:37:55.000Z</time>
      </trkpt>
      <trkpt lat="42.10806" lon="9.16743">
        <ele>1562.8000488281</ele>
        <time>2014-05-14T10:37:59.000Z</time>
      </trkpt>
      <trkpt lat="42.10803" lon="9.16741">
        <ele>1563</ele>
        <time>2014-05-14T10:38:04.000Z</time>
      </trkpt>
      <trkpt lat="42.10797" lon="9.16737">
        <ele>1563.5999755859</ele>
        <time>2014-05-14T10:38:11.000Z</time>
      </trkpt>
      <trkpt lat="42.10792" lon="9.16734">
        <ele>1564</ele>
        <time>2014-05-14T10:38:17.000Z</time>
      </trkpt>
      <trkpt lat="42.10788" lon="9.16729">
        <ele>1565.5999755859</ele>
        <time>2014-05-14T10:38:24.000Z</time>
      </trkpt>
      <trkpt lat="42.10785" lon="9.16727">
        <ele>1565.8000488281</ele>
        <time>2014-05-14T10:38:29.000Z</time>
      </trkpt>
      <trkpt lat="42.10785" lon="9.16727">
        <ele>1565.5999755859</ele>
        <time>2014-05-14T10:38:30.000Z</time>
      </trkpt>
      <trkpt lat="42.1078" lon="9.16729">
        <ele>1564.5999755859</ele>
        <time>2014-05-14T10:38:36.000Z</time>
      </trkpt>
      <trkpt lat="42.10774" lon="9.16726">
        <ele>1564.5999755859</ele>
        <time>2014-05-14T10:38:43.000Z</time>
      </trkpt>
      <trkpt lat="42.10771" lon="9.16725">
        <ele>1564.5999755859</ele>
        <time>2014-05-14T10:38:47.000Z</time>
      </trkpt>
      <trkpt lat="42.10769" lon="9.16724">
        <ele>1564.5999755859</ele>
        <time>2014-05-14T10:38:49.000Z</time>
      </trkpt>
      <trkpt lat="42.10767" lon="9.16722">
        <ele>1564.8000488281</ele>
        <time>2014-05-14T10:38:52.000Z</time>
      </trkpt>
      <trkpt lat="42.10765" lon="9.16721">
        <ele>1565</ele>
        <time>2014-05-14T10:38:55.000Z</time>
      </trkpt>
      <trkpt lat="42.10761" lon="9.16719">
        <ele>1565</ele>
        <time>2014-05-14T10:39:00.000Z</time>
      </trkpt>
      <trkpt lat="42.10758" lon="9.1672">
        <ele>1564</ele>
        <time>2014-05-14T10:39:05.000Z</time>
      </trkpt>
      <trkpt lat="42.10753" lon="9.16722">
        <ele>1562.1999511719</ele>
        <time>2014-05-14T10:39:11.000Z</time>
      </trkpt>
      <trkpt lat="42.10748" lon="9.16727">
        <ele>1559.1999511719</ele>
        <time>2014-05-14T10:39:17.000Z</time>
      </trkpt>
      <trkpt lat="42.10744" lon="9.16732">
        <ele>1556.5999755859</ele>
        <time>2014-05-14T10:39:23.000Z</time>
      </trkpt>
      <trkpt lat="42.10743" lon="9.16732">
        <ele>1556.1999511719</ele>
        <time>2014-05-14T10:39:24.000Z</time>
      </trkpt>
      <trkpt lat="42.10741" lon="9.16732">
        <ele>1556.1999511719</ele>
        <time>2014-05-14T10:39:27.000Z</time>
      </trkpt>
      <trkpt lat="42.1074" lon="9.16733">
        <ele>1556</ele>
        <time>2014-05-14T10:39:28.000Z</time>
      </trkpt>
      <trkpt lat="42.1074" lon="9.16734">
        <ele>1555.5999755859</ele>
        <time>2014-05-14T10:39:29.000Z</time>
      </trkpt>
      <trkpt lat="42.10739" lon="9.16735">
        <ele>1555</ele>
        <time>2014-05-14T10:39:31.000Z</time>
      </trkpt>
      <trkpt lat="42.10734" lon="9.16739">
        <ele>1553.1999511719</ele>
        <time>2014-05-14T10:39:37.000Z</time>
      </trkpt>
      <trkpt lat="42.10732" lon="9.1674">
        <ele>1552.5999755859</ele>
        <time>2014-05-14T10:39:40.000Z</time>
      </trkpt>
      <trkpt lat="42.1073" lon="9.16742">
        <ele>1551.5999755859</ele>
        <time>2014-05-14T10:39:43.000Z</time>
      </trkpt>
      <trkpt lat="42.10725" lon="9.16745">
        <ele>1550.4000244141</ele>
        <time>2014-05-14T10:39:50.000Z</time>
      </trkpt>
      <trkpt lat="42.10721" lon="9.16748">
        <ele>1549.4000244141</ele>
        <time>2014-05-14T10:39:56.000Z</time>
      </trkpt>
      <trkpt lat="42.10719" lon="9.16748">
        <ele>1549.4000244141</ele>
        <time>2014-05-14T10:40:02.000Z</time>
      </trkpt>
      <trkpt lat="42.10715" lon="9.16747">
        <ele>1549.5999755859</ele>
        <time>2014-05-14T10:40:46.000Z</time>
      </trkpt>
      <trkpt lat="42.10715" lon="9.16746">
        <ele>1549.8000488281</ele>
        <time>2014-05-14T10:40:58.000Z</time>
      </trkpt>
      <trkpt lat="42.10711" lon="9.16749">
        <ele>1548.5999755859</ele>
        <time>2014-05-14T10:41:15.000Z</time>
      </trkpt>
      <trkpt lat="42.10709" lon="9.16752">
        <ele>1547.4000244141</ele>
        <time>2014-05-14T10:41:22.000Z</time>
      </trkpt>
      <trkpt lat="42.10711" lon="9.16756">
        <ele>1545.5999755859</ele>
        <time>2014-05-14T10:41:29.000Z</time>
      </trkpt>
      <trkpt lat="42.10706" lon="9.16757">
        <ele>1545.4000244141</ele>
        <time>2014-05-14T10:41:35.000Z</time>
      </trkpt>
      <trkpt lat="42.10702" lon="9.16756">
        <ele>1545.8000488281</ele>
        <time>2014-05-14T10:41:39.000Z</time>
      </trkpt>
      <trkpt lat="42.107" lon="9.16755">
        <ele>1546</ele>
        <time>2014-05-14T10:41:42.000Z</time>
      </trkpt>
      <trkpt lat="42.10696" lon="9.16756">
        <ele>1545.8000488281</ele>
        <time>2014-05-14T10:41:46.000Z</time>
      </trkpt>
      <trkpt lat="42.10696" lon="9.16755">
        <ele>1546</ele>
        <time>2014-05-14T10:41:47.000Z</time>
      </trkpt>
      <trkpt lat="42.10695" lon="9.16755">
        <ele>1546</ele>
        <time>2014-05-14T10:41:50.000Z</time>
      </trkpt>
      <trkpt lat="42.10693" lon="9.16756">
        <ele>1545.4000244141</ele>
        <time>2014-05-14T10:41:53.000Z</time>
      </trkpt>
      <trkpt lat="42.10686" lon="9.16757">
        <ele>1544.8000488281</ele>
        <time>2014-05-14T10:42:01.000Z</time>
      </trkpt>
      <trkpt lat="42.1068" lon="9.16759">
        <ele>1544</ele>
        <time>2014-05-14T10:42:08.000Z</time>
      </trkpt>
      <trkpt lat="42.10678" lon="9.16759">
        <ele>1544</ele>
        <time>2014-05-14T10:42:13.000Z</time>
      </trkpt>
      <trkpt lat="42.10673" lon="9.16758">
        <ele>1544.4000244141</ele>
        <time>2014-05-14T10:42:20.000Z</time>
      </trkpt>
      <trkpt lat="42.10671" lon="9.16759">
        <ele>1544.1999511719</ele>
        <time>2014-05-14T10:42:24.000Z</time>
      </trkpt>
      <trkpt lat="42.10668" lon="9.16759">
        <ele>1544</ele>
        <time>2014-05-14T10:42:29.000Z</time>
      </trkpt>
      <trkpt lat="42.10662" lon="9.16759">
        <ele>1544</ele>
        <time>2014-05-14T10:42:37.000Z</time>
      </trkpt>
      <trkpt lat="42.10657" lon="9.16757">
        <ele>1545.5999755859</ele>
        <time>2014-05-14T10:42:43.000Z</time>
      </trkpt>
      <trkpt lat="42.10655" lon="9.16757">
        <ele>1545.5999755859</ele>
        <time>2014-05-14T10:42:45.000Z</time>
      </trkpt>
      <trkpt lat="42.10652" lon="9.16757">
        <ele>1546.1999511719</ele>
        <time>2014-05-14T10:42:49.000Z</time>
      </trkpt>
      <trkpt lat="42.10646" lon="9.16756">
        <ele>1548</ele>
        <time>2014-05-14T10:42:57.000Z</time>
      </trkpt>
      <trkpt lat="42.10642" lon="9.16755">
        <ele>1549</ele>
        <time>2014-05-14T10:43:04.000Z</time>
      </trkpt>
      <trkpt lat="42.10638" lon="9.16758">
        <ele>1548.8000488281</ele>
        <time>2014-05-14T10:43:11.000Z</time>
      </trkpt>
      <trkpt lat="42.10637" lon="9.16761">
        <ele>1548</ele>
        <time>2014-05-14T10:43:17.000Z</time>
      </trkpt>
      <trkpt lat="42.10636" lon="9.16767">
        <ele>1546.1999511719</ele>
        <time>2014-05-14T10:43:23.000Z</time>
      </trkpt>
      <trkpt lat="42.10635" lon="9.16777">
        <ele>1543</ele>
        <time>2014-05-14T10:43:30.000Z</time>
      </trkpt>
      <trkpt lat="42.10633" lon="9.16784">
        <ele>1540.1999511719</ele>
        <time>2014-05-14T10:43:36.000Z</time>
      </trkpt>
      <trkpt lat="42.10631" lon="9.16795">
        <ele>1535.5999755859</ele>
        <time>2014-05-14T10:43:45.000Z</time>
      </trkpt>
      <trkpt lat="42.1063" lon="9.168">
        <ele>1533.5999755859</ele>
        <time>2014-05-14T10:43:52.000Z</time>
      </trkpt>
      <trkpt lat="42.10629" lon="9.16805">
        <ele>1531.4000244141</ele>
        <time>2014-05-14T10:44:04.000Z</time>
      </trkpt>
      <trkpt lat="42.10625" lon="9.16813">
        <ele>1529</ele>
        <time>2014-05-14T10:44:12.000Z</time>
      </trkpt>
      <trkpt lat="42.10622" lon="9.16818">
        <ele>1527.4000244141</ele>
        <time>2014-05-14T10:44:17.000Z</time>
      </trkpt>
      <trkpt lat="42.10622" lon="9.16819">
        <ele>1527</ele>
        <time>2014-05-14T10:44:18.000Z</time>
      </trkpt>
      <trkpt lat="42.10619" lon="9.16823">
        <ele>1525.8000488281</ele>
        <time>2014-05-14T10:44:22.000Z</time>
      </trkpt>
      <trkpt lat="42.10617" lon="9.16825">
        <ele>1526</ele>
        <time>2014-05-14T10:44:24.000Z</time>
      </trkpt>
      <trkpt lat="42.10612" lon="9.1683">
        <ele>1526.4000244141</ele>
        <time>2014-05-14T10:44:30.000Z</time>
      </trkpt>
      <trkpt lat="42.10608" lon="9.16834">
        <ele>1526.5999755859</ele>
        <time>2014-05-14T10:44:36.000Z</time>
      </trkpt>
      <trkpt lat="42.10606" lon="9.1684">
        <ele>1525.5999755859</ele>
        <time>2014-05-14T10:44:41.000Z</time>
      </trkpt>
      <trkpt lat="42.10605" lon="9.16843">
        <ele>1525</ele>
        <time>2014-05-14T10:44:44.000Z</time>
      </trkpt>
      <trkpt lat="42.10603" lon="9.16846">
        <ele>1524.4000244141</ele>
        <time>2014-05-14T10:44:47.000Z</time>
      </trkpt>
      <trkpt lat="42.10602" lon="9.16848">
        <ele>1524.4000244141</ele>
        <time>2014-05-14T10:44:48.000Z</time>
      </trkpt>
      <trkpt lat="42.10602" lon="9.16851">
        <ele>1523.4000244141</ele>
        <time>2014-05-14T10:44:51.000Z</time>
      </trkpt>
      <trkpt lat="42.10601" lon="9.16857">
        <ele>1521.5999755859</ele>
        <time>2014-05-14T10:44:55.000Z</time>
      </trkpt>
      <trkpt lat="42.10599" lon="9.1687">
        <ele>1518.4000244141</ele>
        <time>2014-05-14T10:45:03.000Z</time>
      </trkpt>
      <trkpt lat="42.10596" lon="9.16878">
        <ele>1516.4000244141</ele>
        <time>2014-05-14T10:45:10.000Z</time>
      </trkpt>
      <trkpt lat="42.10596" lon="9.16882">
        <ele>1515.4000244141</ele>
        <time>2014-05-14T10:45:13.000Z</time>
      </trkpt>
      <trkpt lat="42.10595" lon="9.16887">
        <ele>1514.8000488281</ele>
        <time>2014-05-14T10:45:17.000Z</time>
      </trkpt>
      <trkpt lat="42.10593" lon="9.16891">
        <ele>1514.8000488281</ele>
        <time>2014-05-14T10:45:22.000Z</time>
      </trkpt>
      <trkpt lat="42.10592" lon="9.16897">
        <ele>1513.8000488281</ele>
        <time>2014-05-14T10:45:28.000Z</time>
      </trkpt>
      <trkpt lat="42.10591" lon="9.16902">
        <ele>1513</ele>
        <time>2014-05-14T10:45:34.000Z</time>
      </trkpt>
      <trkpt lat="42.10588" lon="9.16906">
        <ele>1513.5999755859</ele>
        <time>2014-05-14T10:45:39.000Z</time>
      </trkpt>
      <trkpt lat="42.10586" lon="9.16911">
        <ele>1513.4000244141</ele>
        <time>2014-05-14T10:45:45.000Z</time>
      </trkpt>
      <trkpt lat="42.10583" lon="9.16915">
        <ele>1514.1999511719</ele>
        <time>2014-05-14T10:45:50.000Z</time>
      </trkpt>
      <trkpt lat="42.10582" lon="9.16915">
        <ele>1514.4000244141</ele>
        <time>2014-05-14T10:45:51.000Z</time>
      </trkpt>
      <trkpt lat="42.10578" lon="9.16921">
        <ele>1514.8000488281</ele>
        <time>2014-05-14T10:45:56.000Z</time>
      </trkpt>
      <trkpt lat="42.10577" lon="9.16922">
        <ele>1515</ele>
        <time>2014-05-14T10:45:57.000Z</time>
      </trkpt>
      <trkpt lat="42.10572" lon="9.16929">
        <ele>1516</ele>
        <time>2014-05-14T10:46:03.000Z</time>
      </trkpt>
      <trkpt lat="42.10567" lon="9.16936">
        <ele>1516.4000244141</ele>
        <time>2014-05-14T10:46:09.000Z</time>
      </trkpt>
      <trkpt lat="42.10566" lon="9.16939">
        <ele>1516.4000244141</ele>
        <time>2014-05-14T10:46:11.000Z</time>
      </trkpt>
      <trkpt lat="42.10561" lon="9.16947">
        <ele>1517.4000244141</ele>
        <time>2014-05-14T10:46:18.000Z</time>
      </trkpt>
      <trkpt lat="42.10557" lon="9.16956">
        <ele>1517.4000244141</ele>
        <time>2014-05-14T10:46:25.000Z</time>
      </trkpt>
      <trkpt lat="42.10554" lon="9.16961">
        <ele>1517.8000488281</ele>
        <time>2014-05-14T10:46:30.000Z</time>
      </trkpt>
      <trkpt lat="42.10553" lon="9.16962">
        <ele>1517.8000488281</ele>
        <time>2014-05-14T10:46:31.000Z</time>
      </trkpt>
      <trkpt lat="42.1055" lon="9.16971">
        <ele>1517.4000244141</ele>
        <time>2014-05-14T10:46:39.000Z</time>
      </trkpt>
      <trkpt lat="42.10548" lon="9.16976">
        <ele>1517.4000244141</ele>
        <time>2014-05-14T10:46:45.000Z</time>
      </trkpt>
      <trkpt lat="42.10547" lon="9.16978">
        <ele>1517.1999511719</ele>
        <time>2014-05-14T10:46:47.000Z</time>
      </trkpt>
      <trkpt lat="42.10545" lon="9.16981">
        <ele>1517.5999755859</ele>
        <time>2014-05-14T10:46:50.000Z</time>
      </trkpt>
      <trkpt lat="42.10544" lon="9.16987">
        <ele>1517</ele>
        <time>2014-05-14T10:46:56.000Z</time>
      </trkpt>
      <trkpt lat="42.10544" lon="9.16988">
        <ele>1516.4000244141</ele>
        <time>2014-05-14T10:47:03.000Z</time>
      </trkpt>
      <trkpt lat="42.10544" lon="9.16991">
        <ele>1515.8000488281</ele>
        <time>2014-05-14T10:47:24.000Z</time>
      </trkpt>
      <trkpt lat="42.10539" lon="9.16995">
        <ele>1517.8000488281</ele>
        <time>2014-05-14T10:47:30.000Z</time>
      </trkpt>
      <trkpt lat="42.10537" lon="9.16996">
        <ele>1518.4000244141</ele>
        <time>2014-05-14T10:47:32.000Z</time>
      </trkpt>
      <trkpt lat="42.10535" lon="9.16999">
        <ele>1518.8000488281</ele>
        <time>2014-05-14T10:47:36.000Z</time>
      </trkpt>
      <trkpt lat="42.10533" lon="9.17003">
        <ele>1519</ele>
        <time>2014-05-14T10:47:40.000Z</time>
      </trkpt>
      <trkpt lat="42.10532" lon="9.17004">
        <ele>1519.1999511719</ele>
        <time>2014-05-14T10:47:41.000Z</time>
      </trkpt>
      <trkpt lat="42.10531" lon="9.17006">
        <ele>1519.5999755859</ele>
        <time>2014-05-14T10:47:43.000Z</time>
      </trkpt>
      <trkpt lat="42.10527" lon="9.17014">
        <ele>1520</ele>
        <time>2014-05-14T10:47:50.000Z</time>
      </trkpt>
      <trkpt lat="42.10526" lon="9.17016">
        <ele>1520</ele>
        <time>2014-05-14T10:47:52.000Z</time>
      </trkpt>
      <trkpt lat="42.10521" lon="9.17022">
        <ele>1521.1999511719</ele>
        <time>2014-05-14T10:47:58.000Z</time>
      </trkpt>
      <trkpt lat="42.10516" lon="9.17029">
        <ele>1522.5999755859</ele>
        <time>2014-05-14T10:48:05.000Z</time>
      </trkpt>
      <trkpt lat="42.10513" lon="9.17032">
        <ele>1523.4000244141</ele>
        <time>2014-05-14T10:48:08.000Z</time>
      </trkpt>
      <trkpt lat="42.10512" lon="9.17033">
        <ele>1523.4000244141</ele>
        <time>2014-05-14T10:48:09.000Z</time>
      </trkpt>
      <trkpt lat="42.10509" lon="9.17037">
        <ele>1524</ele>
        <time>2014-05-14T10:48:12.000Z</time>
      </trkpt>
      <trkpt lat="42.10508" lon="9.17038">
        <ele>1524</ele>
        <time>2014-05-14T10:48:13.000Z</time>
      </trkpt>
      <trkpt lat="42.10505" lon="9.17042">
        <ele>1524.4000244141</ele>
        <time>2014-05-14T10:48:17.000Z</time>
      </trkpt>
      <trkpt lat="42.10505" lon="9.17043">
        <ele>1524.4000244141</ele>
        <time>2014-05-14T10:48:18.000Z</time>
      </trkpt>
      <trkpt lat="42.10502" lon="9.17046">
        <ele>1524.5999755859</ele>
        <time>2014-05-14T10:48:21.000Z</time>
      </trkpt>
      <trkpt lat="42.10499" lon="9.17049">
        <ele>1525.1999511719</ele>
        <time>2014-05-14T10:48:24.000Z</time>
      </trkpt>
      <trkpt lat="42.10494" lon="9.17052">
        <ele>1526.5999755859</ele>
        <time>2014-05-14T10:48:29.000Z</time>
      </trkpt>
      <trkpt lat="42.1049" lon="9.17055">
        <ele>1527</ele>
        <time>2014-05-14T10:48:32.000Z</time>
      </trkpt>
      <trkpt lat="42.10482" lon="9.17061">
        <ele>1527.5999755859</ele>
        <time>2014-05-14T10:48:40.000Z</time>
      </trkpt>
      <trkpt lat="42.10478" lon="9.17066">
        <ele>1527.1999511719</ele>
        <time>2014-05-14T10:48:45.000Z</time>
      </trkpt>
      <trkpt lat="42.10477" lon="9.17067">
        <ele>1527</ele>
        <time>2014-05-14T10:48:46.000Z</time>
      </trkpt>
      <trkpt lat="42.10473" lon="9.17071">
        <ele>1526.5999755859</ele>
        <time>2014-05-14T10:48:51.000Z</time>
      </trkpt>
      <trkpt lat="42.10468" lon="9.1708">
        <ele>1525.1999511719</ele>
        <time>2014-05-14T10:48:58.000Z</time>
      </trkpt>
      <trkpt lat="42.10463" lon="9.1709">
        <ele>1523.8000488281</ele>
        <time>2014-05-14T10:49:06.000Z</time>
      </trkpt>
      <trkpt lat="42.1046" lon="9.17096">
        <ele>1522.8000488281</ele>
        <time>2014-05-14T10:49:11.000Z</time>
      </trkpt>
      <trkpt lat="42.10459" lon="9.17098">
        <ele>1522.5999755859</ele>
        <time>2014-05-14T10:49:13.000Z</time>
      </trkpt>
      <trkpt lat="42.10458" lon="9.171">
        <ele>1522.4000244141</ele>
        <time>2014-05-14T10:49:15.000Z</time>
      </trkpt>
      <trkpt lat="42.10455" lon="9.17103">
        <ele>1522.4000244141</ele>
        <time>2014-05-14T10:49:19.000Z</time>
      </trkpt>
      <trkpt lat="42.10451" lon="9.17107">
        <ele>1522.4000244141</ele>
        <time>2014-05-14T10:49:24.000Z</time>
      </trkpt>
      <trkpt lat="42.10449" lon="9.17108">
        <ele>1522.8000488281</ele>
        <time>2014-05-14T10:49:26.000Z</time>
      </trkpt>
      <trkpt lat="42.10442" lon="9.17114">
        <ele>1523.1999511719</ele>
        <time>2014-05-14T10:49:35.000Z</time>
      </trkpt>
      <trkpt lat="42.10441" lon="9.17114">
        <ele>1523.1999511719</ele>
        <time>2014-05-14T10:49:36.000Z</time>
      </trkpt>
      <trkpt lat="42.10438" lon="9.17116">
        <ele>1524</ele>
        <time>2014-05-14T10:49:40.000Z</time>
      </trkpt>
      <trkpt lat="42.10437" lon="9.17116">
        <ele>1524.1999511719</ele>
        <time>2014-05-14T10:49:41.000Z</time>
      </trkpt>
      <trkpt lat="42.10435" lon="9.17116">
        <ele>1524.4000244141</ele>
        <time>2014-05-14T10:49:43.000Z</time>
      </trkpt>
      <trkpt lat="42.10434" lon="9.17118">
        <ele>1524.4000244141</ele>
        <time>2014-05-14T10:49:46.000Z</time>
      </trkpt>
      <trkpt lat="42.10433" lon="9.17119">
        <ele>1524.1999511719</ele>
        <time>2014-05-14T10:49:47.000Z</time>
      </trkpt>
      <trkpt lat="42.10428" lon="9.17123">
        <ele>1524.4000244141</ele>
        <time>2014-05-14T10:49:52.000Z</time>
      </trkpt>
      <trkpt lat="42.10422" lon="9.17126">
        <ele>1525</ele>
        <time>2014-05-14T10:49:58.000Z</time>
      </trkpt>
      <trkpt lat="42.10419" lon="9.17128">
        <ele>1525</ele>
        <time>2014-05-14T10:50:01.000Z</time>
      </trkpt>
      <trkpt lat="42.10417" lon="9.1713">
        <ele>1524.4000244141</ele>
        <time>2014-05-14T10:50:03.000Z</time>
      </trkpt>
      <trkpt lat="42.10416" lon="9.17131">
        <ele>1524.5999755859</ele>
        <time>2014-05-14T10:50:05.000Z</time>
      </trkpt>
      <trkpt lat="42.10411" lon="9.17134">
        <ele>1524.4000244141</ele>
        <time>2014-05-14T10:50:10.000Z</time>
      </trkpt>
      <trkpt lat="42.10408" lon="9.17136">
        <ele>1524</ele>
        <time>2014-05-14T10:50:14.000Z</time>
      </trkpt>
      <trkpt lat="42.10407" lon="9.17137">
        <ele>1523.5999755859</ele>
        <time>2014-05-14T10:50:15.000Z</time>
      </trkpt>
      <trkpt lat="42.10406" lon="9.17137">
        <ele>1523.5999755859</ele>
        <time>2014-05-14T10:50:16.000Z</time>
      </trkpt>
      <trkpt lat="42.10402" lon="9.17139">
        <ele>1522.8000488281</ele>
        <time>2014-05-14T10:50:19.000Z</time>
      </trkpt>
      <trkpt lat="42.10396" lon="9.17143">
        <ele>1521.8000488281</ele>
        <time>2014-05-14T10:50:24.000Z</time>
      </trkpt>
      <trkpt lat="42.1039" lon="9.17148">
        <ele>1519.8000488281</ele>
        <time>2014-05-14T10:50:31.000Z</time>
      </trkpt>
      <trkpt lat="42.10384" lon="9.17153">
        <ele>1518.4000244141</ele>
        <time>2014-05-14T10:50:38.000Z</time>
      </trkpt>
      <trkpt lat="42.10376" lon="9.17159">
        <ele>1516</ele>
        <time>2014-05-14T10:50:45.000Z</time>
      </trkpt>
      <trkpt lat="42.1037" lon="9.17165">
        <ele>1515.8000488281</ele>
        <time>2014-05-14T10:50:52.000Z</time>
      </trkpt>
      <trkpt lat="42.10364" lon="9.17173">
        <ele>1515.8000488281</ele>
        <time>2014-05-14T10:50:59.000Z</time>
      </trkpt>
      <trkpt lat="42.10363" lon="9.17173">
        <ele>1516</ele>
        <time>2014-05-14T10:51:00.000Z</time>
      </trkpt>
      <trkpt lat="42.10356" lon="9.17178">
        <ele>1516.5999755859</ele>
        <time>2014-05-14T10:51:06.000Z</time>
      </trkpt>
      <trkpt lat="42.10354" lon="9.1718">
        <ele>1516.8000488281</ele>
        <time>2014-05-14T10:51:12.000Z</time>
      </trkpt>
      <trkpt lat="42.1035" lon="9.1718">
        <ele>1518</ele>
        <time>2014-05-14T10:51:58.000Z</time>
      </trkpt>
      <trkpt lat="42.10347" lon="9.17183">
        <ele>1518.1999511719</ele>
        <time>2014-05-14T10:52:01.000Z</time>
      </trkpt>
      <trkpt lat="42.10342" lon="9.1719">
        <ele>1517.5999755859</ele>
        <time>2014-05-14T10:52:07.000Z</time>
      </trkpt>
      <trkpt lat="42.10336" lon="9.17196">
        <ele>1517.5999755859</ele>
        <time>2014-05-14T10:52:14.000Z</time>
      </trkpt>
      <trkpt lat="42.10331" lon="9.17201">
        <ele>1517.4000244141</ele>
        <time>2014-05-14T10:52:19.000Z</time>
      </trkpt>
      <trkpt lat="42.10329" lon="9.17202">
        <ele>1517.8000488281</ele>
        <time>2014-05-14T10:52:21.000Z</time>
      </trkpt>
      <trkpt lat="42.10327" lon="9.17205">
        <ele>1518.1999511719</ele>
        <time>2014-05-14T10:52:25.000Z</time>
      </trkpt>
      <trkpt lat="42.10326" lon="9.17206">
        <ele>1517.5999755859</ele>
        <time>2014-05-14T10:52:27.000Z</time>
      </trkpt>
      <trkpt lat="42.10324" lon="9.17209">
        <ele>1516.5999755859</ele>
        <time>2014-05-14T10:52:30.000Z</time>
      </trkpt>
      <trkpt lat="42.10322" lon="9.17211">
        <ele>1516</ele>
        <time>2014-05-14T10:52:34.000Z</time>
      </trkpt>
      <trkpt lat="42.10318" lon="9.17218">
        <ele>1513.8000488281</ele>
        <time>2014-05-14T10:52:40.000Z</time>
      </trkpt>
      <trkpt lat="42.10315" lon="9.17222">
        <ele>1512.4000244141</ele>
        <time>2014-05-14T10:52:44.000Z</time>
      </trkpt>
      <trkpt lat="42.10314" lon="9.17224">
        <ele>1511.8000488281</ele>
        <time>2014-05-14T10:52:46.000Z</time>
      </trkpt>
      <trkpt lat="42.10308" lon="9.1723">
        <ele>1509.5999755859</ele>
        <time>2014-05-14T10:52:53.000Z</time>
      </trkpt>
      <trkpt lat="42.103" lon="9.17237">
        <ele>1507</ele>
        <time>2014-05-14T10:53:01.000Z</time>
      </trkpt>
      <trkpt lat="42.10293" lon="9.17243">
        <ele>1505</ele>
        <time>2014-05-14T10:53:10.000Z</time>
      </trkpt>
      <trkpt lat="42.10287" lon="9.17247">
        <ele>1504.8000488281</ele>
        <time>2014-05-14T10:53:29.000Z</time>
      </trkpt>
      <trkpt lat="42.10282" lon="9.1725">
        <ele>1505</ele>
        <time>2014-05-14T10:53:36.000Z</time>
      </trkpt>
      <trkpt lat="42.1028" lon="9.17251">
        <ele>1505</ele>
        <time>2014-05-14T10:53:42.000Z</time>
      </trkpt>
      <trkpt lat="42.10274" lon="9.17254">
        <ele>1505.4000244141</ele>
        <time>2014-05-14T10:54:10.000Z</time>
      </trkpt>
      <trkpt lat="42.10267" lon="9.1726">
        <ele>1505.4000244141</ele>
        <time>2014-05-14T10:54:18.000Z</time>
      </trkpt>
      <trkpt lat="42.10263" lon="9.17264">
        <ele>1505.4000244141</ele>
        <time>2014-05-14T10:54:23.000Z</time>
      </trkpt>
      <trkpt lat="42.1026" lon="9.17264">
        <ele>1505.8000488281</ele>
        <time>2014-05-14T10:54:25.000Z</time>
      </trkpt>
      <trkpt lat="42.10254" lon="9.17267">
        <ele>1506</ele>
        <time>2014-05-14T10:54:32.000Z</time>
      </trkpt>
      <trkpt lat="42.10249" lon="9.17277">
        <ele>1505.5999755859</ele>
        <time>2014-05-14T10:54:40.000Z</time>
      </trkpt>
      <trkpt lat="42.10247" lon="9.17282">
        <ele>1505</ele>
        <time>2014-05-14T10:54:44.000Z</time>
      </trkpt>
      <trkpt lat="42.10246" lon="9.17284">
        <ele>1505</ele>
        <time>2014-05-14T10:54:45.000Z</time>
      </trkpt>
      <trkpt lat="42.10235" lon="9.173">
        <ele>1501.5999755859</ele>
        <time>2014-05-14T12:17:45.000Z</time>
      </trkpt>
      <trkpt lat="42.10235" lon="9.173">
        <ele>1501.5999755859</ele>
        <time>2014-05-14T12:17:46.000Z</time>
      </trkpt>
      <trkpt lat="42.10235" lon="9.17298">
        <ele>1501.5999755859</ele>
        <time>2014-05-14T12:17:52.000Z</time>
      </trkpt>
      <trkpt lat="42.10235" lon="9.17298">
        <ele>1501.8000488281</ele>
        <time>2014-05-14T12:17:59.000Z</time>
      </trkpt>
      <trkpt lat="42.10237" lon="9.17301">
        <ele>1502.1999511719</ele>
        <time>2014-05-14T12:18:05.000Z</time>
      </trkpt>
      <trkpt lat="42.1024" lon="9.17299">
        <ele>1503.4000244141</ele>
        <time>2014-05-14T12:18:12.000Z</time>
      </trkpt>
      <trkpt lat="42.10242" lon="9.17288">
        <ele>1504.8000488281</ele>
        <time>2014-05-14T12:18:20.000Z</time>
      </trkpt>
      <trkpt lat="42.10247" lon="9.17276">
        <ele>1505.8000488281</ele>
        <time>2014-05-14T12:18:29.000Z</time>
      </trkpt>
      <trkpt lat="42.10252" lon="9.17264">
        <ele>1506.4000244141</ele>
        <time>2014-05-14T12:18:38.000Z</time>
      </trkpt>
      <trkpt lat="42.10258" lon="9.17255">
        <ele>1506.8000488281</ele>
        <time>2014-05-14T12:18:46.000Z</time>
      </trkpt>
      <trkpt lat="42.10259" lon="9.17255">
        <ele>1506.5999755859</ele>
        <time>2014-05-14T12:18:47.000Z</time>
      </trkpt>
      <trkpt lat="42.10259" lon="9.17254">
        <ele>1506.8000488281</ele>
        <time>2014-05-14T12:19:09.000Z</time>
      </trkpt>
      <trkpt lat="42.10258" lon="9.17248">
        <ele>1507.4000244141</ele>
        <time>2014-05-14T12:19:16.000Z</time>
      </trkpt>
      <trkpt lat="42.10257" lon="9.17239">
        <ele>1508.4000244141</ele>
        <time>2014-05-14T12:19:24.000Z</time>
      </trkpt>
      <trkpt lat="42.10257" lon="9.17234">
        <ele>1509</ele>
        <time>2014-05-14T12:19:28.000Z</time>
      </trkpt>
      <trkpt lat="42.10257" lon="9.17232">
        <ele>1509.1999511719</ele>
        <time>2014-05-14T12:19:30.000Z</time>
      </trkpt>
      <trkpt lat="42.10257" lon="9.1723">
        <ele>1509.4000244141</ele>
        <time>2014-05-14T12:19:31.000Z</time>
      </trkpt>
      <trkpt lat="42.10255" lon="9.1722">
        <ele>1510.5999755859</ele>
        <time>2014-05-14T12:19:38.000Z</time>
      </trkpt>
      <trkpt lat="42.10254" lon="9.17206">
        <ele>1511.8000488281</ele>
        <time>2014-05-14T12:19:47.000Z</time>
      </trkpt>
      <trkpt lat="42.10254" lon="9.17199">
        <ele>1513.5999755859</ele>
        <time>2014-05-14T12:19:53.000Z</time>
      </trkpt>
      <trkpt lat="42.10254" lon="9.17198">
        <ele>1513.8000488281</ele>
        <time>2014-05-14T12:19:54.000Z</time>
      </trkpt>
      <trkpt lat="42.10253" lon="9.17193">
        <ele>1515</ele>
        <time>2014-05-14T12:19:58.000Z</time>
      </trkpt>
      <trkpt lat="42.10253" lon="9.17189">
        <ele>1515</ele>
        <time>2014-05-14T12:20:01.000Z</time>
      </trkpt>
      <trkpt lat="42.10253" lon="9.17178">
        <ele>1515.5999755859</ele>
        <time>2014-05-14T12:20:08.000Z</time>
      </trkpt>
      <trkpt lat="42.10254" lon="9.17164">
        <ele>1516.4000244141</ele>
        <time>2014-05-14T12:20:17.000Z</time>
      </trkpt>
      <trkpt lat="42.10254" lon="9.1716">
        <ele>1516.5999755859</ele>
        <time>2014-05-14T12:20:20.000Z</time>
      </trkpt>
      <trkpt lat="42.10253" lon="9.17156">
        <ele>1516.5999755859</ele>
        <time>2014-05-14T12:20:22.000Z</time>
      </trkpt>
      <trkpt lat="42.10252" lon="9.17154">
        <ele>1516.8000488281</ele>
        <time>2014-05-14T12:20:24.000Z</time>
      </trkpt>
      <trkpt lat="42.10253" lon="9.17148">
        <ele>1517</ele>
        <time>2014-05-14T12:20:29.000Z</time>
      </trkpt>
      <trkpt lat="42.10253" lon="9.17138">
        <ele>1517.4000244141</ele>
        <time>2014-05-14T12:20:36.000Z</time>
      </trkpt>
      <trkpt lat="42.10252" lon="9.1713">
        <ele>1517.8000488281</ele>
        <time>2014-05-14T12:20:42.000Z</time>
      </trkpt>
      <trkpt lat="42.10253" lon="9.17128">
        <ele>1518</ele>
        <time>2014-05-14T12:20:44.000Z</time>
      </trkpt>
      <trkpt lat="42.10254" lon="9.17122">
        <ele>1518.4000244141</ele>
        <time>2014-05-14T12:20:49.000Z</time>
      </trkpt>
      <trkpt lat="42.10254" lon="9.17118">
        <ele>1519.1999511719</ele>
        <time>2014-05-14T12:20:52.000Z</time>
      </trkpt>
      <trkpt lat="42.10255" lon="9.17114">
        <ele>1520.4000244141</ele>
        <time>2014-05-14T12:20:56.000Z</time>
      </trkpt>
      <trkpt lat="42.10255" lon="9.17114">
        <ele>1520.5999755859</ele>
        <time>2014-05-14T12:20:57.000Z</time>
      </trkpt>
      <trkpt lat="42.10256" lon="9.17108">
        <ele>1521.1999511719</ele>
        <time>2014-05-14T12:21:02.000Z</time>
      </trkpt>
      <trkpt lat="42.10258" lon="9.17101">
        <ele>1521</ele>
        <time>2014-05-14T12:21:09.000Z</time>
      </trkpt>
      <trkpt lat="42.10261" lon="9.17091">
        <ele>1520.5999755859</ele>
        <time>2014-05-14T12:21:16.000Z</time>
      </trkpt>
      <trkpt lat="42.10262" lon="9.17088">
        <ele>1520.5999755859</ele>
        <time>2014-05-14T12:21:18.000Z</time>
      </trkpt>
      <trkpt lat="42.10263" lon="9.1708">
        <ele>1519.8000488281</ele>
        <time>2014-05-14T12:21:24.000Z</time>
      </trkpt>
      <trkpt lat="42.10265" lon="9.17075">
        <ele>1519.8000488281</ele>
        <time>2014-05-14T12:21:29.000Z</time>
      </trkpt>
      <trkpt lat="42.10265" lon="9.17073">
        <ele>1519.8000488281</ele>
        <time>2014-05-14T12:21:31.000Z</time>
      </trkpt>
      <trkpt lat="42.10265" lon="9.17072">
        <ele>1519.5999755859</ele>
        <time>2014-05-14T12:21:32.000Z</time>
      </trkpt>
      <trkpt lat="42.10271" lon="9.1706">
        <ele>1519.8000488281</ele>
        <time>2014-05-14T12:21:42.000Z</time>
      </trkpt>
      <trkpt lat="42.10272" lon="9.17056">
        <ele>1519.8000488281</ele>
        <time>2014-05-14T12:21:46.000Z</time>
      </trkpt>
      <trkpt lat="42.10272" lon="9.17055">
        <ele>1520</ele>
        <time>2014-05-14T12:21:47.000Z</time>
      </trkpt>
      <trkpt lat="42.10274" lon="9.17053">
        <ele>1521</ele>
        <time>2014-05-14T12:21:50.000Z</time>
      </trkpt>
      <trkpt lat="42.10276" lon="9.17048">
        <ele>1522.4000244141</ele>
        <time>2014-05-14T12:21:54.000Z</time>
      </trkpt>
      <trkpt lat="42.10277" lon="9.17046">
        <ele>1523</ele>
        <time>2014-05-14T12:21:56.000Z</time>
      </trkpt>
      <trkpt lat="42.10278" lon="9.1704">
        <ele>1524.1999511719</ele>
        <time>2014-05-14T12:22:01.000Z</time>
      </trkpt>
      <trkpt lat="42.10279" lon="9.17038">
        <ele>1524.5999755859</ele>
        <time>2014-05-14T12:22:02.000Z</time>
      </trkpt>
      <trkpt lat="42.10284" lon="9.17024">
        <ele>1526.8000488281</ele>
        <time>2014-05-14T12:22:12.000Z</time>
      </trkpt>
      <trkpt lat="42.10286" lon="9.17019">
        <ele>1526.4000244141</ele>
        <time>2014-05-14T12:22:18.000Z</time>
      </trkpt>
      <trkpt lat="42.10286" lon="9.17014">
        <ele>1525.1999511719</ele>
        <time>2014-05-14T12:22:21.000Z</time>
      </trkpt>
      <trkpt lat="42.1029" lon="9.17004">
        <ele>1524</ele>
        <time>2014-05-14T12:22:28.000Z</time>
      </trkpt>
      <trkpt lat="42.10291" lon="9.17">
        <ele>1523.5999755859</ele>
        <time>2014-05-14T12:22:31.000Z</time>
      </trkpt>
      <trkpt lat="42.10294" lon="9.16999">
        <ele>1524.4000244141</ele>
        <time>2014-05-14T12:22:34.000Z</time>
      </trkpt>
      <trkpt lat="42.10294" lon="9.16998">
        <ele>1524.4000244141</ele>
        <time>2014-05-14T12:22:35.000Z</time>
      </trkpt>
      <trkpt lat="42.10296" lon="9.16996">
        <ele>1524.5999755859</ele>
        <time>2014-05-14T12:22:38.000Z</time>
      </trkpt>
      <trkpt lat="42.10297" lon="9.16991">
        <ele>1525</ele>
        <time>2014-05-14T12:22:42.000Z</time>
      </trkpt>
      <trkpt lat="42.10299" lon="9.16989">
        <ele>1525.1999511719</ele>
        <time>2014-05-14T12:22:44.000Z</time>
      </trkpt>
      <trkpt lat="42.103" lon="9.16986">
        <ele>1525.5999755859</ele>
        <time>2014-05-14T12:22:47.000Z</time>
      </trkpt>
      <trkpt lat="42.10302" lon="9.16981">
        <ele>1525.8000488281</ele>
        <time>2014-05-14T12:22:51.000Z</time>
      </trkpt>
      <trkpt lat="42.10302" lon="9.1698">
        <ele>1526</ele>
        <time>2014-05-14T12:22:52.000Z</time>
      </trkpt>
      <trkpt lat="42.10304" lon="9.16979">
        <ele>1526.5999755859</ele>
        <time>2014-05-14T12:22:54.000Z</time>
      </trkpt>
      <trkpt lat="42.10306" lon="9.16974">
        <ele>1527</ele>
        <time>2014-05-14T12:22:58.000Z</time>
      </trkpt>
      <trkpt lat="42.10309" lon="9.16965">
        <ele>1527.5999755859</ele>
        <time>2014-05-14T12:23:05.000Z</time>
      </trkpt>
      <trkpt lat="42.10312" lon="9.16957">
        <ele>1528</ele>
        <time>2014-05-14T12:23:12.000Z</time>
      </trkpt>
      <trkpt lat="42.10315" lon="9.16948">
        <ele>1528.5999755859</ele>
        <time>2014-05-14T12:23:20.000Z</time>
      </trkpt>
      <trkpt lat="42.10316" lon="9.16947">
        <ele>1528.5999755859</ele>
        <time>2014-05-14T12:23:22.000Z</time>
      </trkpt>
      <trkpt lat="42.10317" lon="9.16945">
        <ele>1528.8000488281</ele>
        <time>2014-05-14T12:23:24.000Z</time>
      </trkpt>
      <trkpt lat="42.10318" lon="9.1694">
        <ele>1528.5999755859</ele>
        <time>2014-05-14T12:23:28.000Z</time>
      </trkpt>
      <trkpt lat="42.10319" lon="9.16939">
        <ele>1528.5999755859</ele>
        <time>2014-05-14T12:23:29.000Z</time>
      </trkpt>
      <trkpt lat="42.1032" lon="9.16937">
        <ele>1529</ele>
        <time>2014-05-14T12:23:31.000Z</time>
      </trkpt>
      <trkpt lat="42.10321" lon="9.16934">
        <ele>1529</ele>
        <time>2014-05-14T12:23:34.000Z</time>
      </trkpt>
      <trkpt lat="42.10322" lon="9.16933">
        <ele>1529</ele>
        <time>2014-05-14T12:23:36.000Z</time>
      </trkpt>
      <trkpt lat="42.10323" lon="9.16933">
        <ele>1529.4000244141</ele>
        <time>2014-05-14T12:23:37.000Z</time>
      </trkpt>
      <trkpt lat="42.10324" lon="9.16931">
        <ele>1530</ele>
        <time>2014-05-14T12:23:39.000Z</time>
      </trkpt>
      <trkpt lat="42.10326" lon="9.1693">
        <ele>1530.5999755859</ele>
        <time>2014-05-14T12:23:41.000Z</time>
      </trkpt>
      <trkpt lat="42.1033" lon="9.16925">
        <ele>1531.4000244141</ele>
        <time>2014-05-14T12:23:46.000Z</time>
      </trkpt>
      <trkpt lat="42.1033" lon="9.16924">
        <ele>1531.4000244141</ele>
        <time>2014-05-14T12:23:47.000Z</time>
      </trkpt>
      <trkpt lat="42.10333" lon="9.1692">
        <ele>1531.5999755859</ele>
        <time>2014-05-14T12:23:51.000Z</time>
      </trkpt>
      <trkpt lat="42.10339" lon="9.16911">
        <ele>1531.8000488281</ele>
        <time>2014-05-14T12:23:58.000Z</time>
      </trkpt>
      <trkpt lat="42.10346" lon="9.16904">
        <ele>1532.8000488281</ele>
        <time>2014-05-14T12:24:04.000Z</time>
      </trkpt>
      <trkpt lat="42.10351" lon="9.16896">
        <ele>1533</ele>
        <time>2014-05-14T12:24:11.000Z</time>
      </trkpt>
      <trkpt lat="42.10354" lon="9.1689">
        <ele>1532.5999755859</ele>
        <time>2014-05-14T12:24:17.000Z</time>
      </trkpt>
      <trkpt lat="42.10354" lon="9.16888">
        <ele>1532.4000244141</ele>
        <time>2014-05-14T12:24:18.000Z</time>
      </trkpt>
      <trkpt lat="42.10355" lon="9.16881">
        <ele>1533</ele>
        <time>2014-05-14T12:24:23.000Z</time>
      </trkpt>
      <trkpt lat="42.10355" lon="9.16878">
        <ele>1533</ele>
        <time>2014-05-14T12:24:26.000Z</time>
      </trkpt>
      <trkpt lat="42.10356" lon="9.16876">
        <ele>1533</ele>
        <time>2014-05-14T12:24:27.000Z</time>
      </trkpt>
      <trkpt lat="42.10357" lon="9.1687">
        <ele>1534</ele>
        <time>2014-05-14T12:24:32.000Z</time>
      </trkpt>
      <trkpt lat="42.10358" lon="9.16863">
        <ele>1534.4000244141</ele>
        <time>2014-05-14T12:24:38.000Z</time>
      </trkpt>
      <trkpt lat="42.10361" lon="9.16856">
        <ele>1535</ele>
        <time>2014-05-14T12:24:43.000Z</time>
      </trkpt>
      <trkpt lat="42.10364" lon="9.16847">
        <ele>1535.4000244141</ele>
        <time>2014-05-14T12:24:50.000Z</time>
      </trkpt>
      <trkpt lat="42.10365" lon="9.16843">
        <ele>1535.5999755859</ele>
        <time>2014-05-14T12:24:53.000Z</time>
      </trkpt>
      <trkpt lat="42.10367" lon="9.1684">
        <ele>1536</ele>
        <time>2014-05-14T12:24:57.000Z</time>
      </trkpt>
      <trkpt lat="42.10368" lon="9.16833">
        <ele>1535.5999755859</ele>
        <time>2014-05-14T12:25:02.000Z</time>
      </trkpt>
      <trkpt lat="42.10369" lon="9.16832">
        <ele>1535.8000488281</ele>
        <time>2014-05-14T12:25:03.000Z</time>
      </trkpt>
      <trkpt lat="42.10373" lon="9.16821">
        <ele>1536.5999755859</ele>
        <time>2014-05-14T12:25:11.000Z</time>
      </trkpt>
      <trkpt lat="42.10375" lon="9.16811">
        <ele>1537.4000244141</ele>
        <time>2014-05-14T12:25:19.000Z</time>
      </trkpt>
      <trkpt lat="42.10377" lon="9.16803">
        <ele>1537.8000488281</ele>
        <time>2014-05-14T12:25:25.000Z</time>
      </trkpt>
      <trkpt lat="42.10377" lon="9.16801">
        <ele>1537.8000488281</ele>
        <time>2014-05-14T12:25:26.000Z</time>
      </trkpt>
      <trkpt lat="42.10378" lon="9.16795">
        <ele>1538</ele>
        <time>2014-05-14T12:25:31.000Z</time>
      </trkpt>
      <trkpt lat="42.10378" lon="9.16792">
        <ele>1538</ele>
        <time>2014-05-14T12:25:33.000Z</time>
      </trkpt>
      <trkpt lat="42.10379" lon="9.1679">
        <ele>1538.1999511719</ele>
        <time>2014-05-14T12:25:35.000Z</time>
      </trkpt>
      <trkpt lat="42.10381" lon="9.16786">
        <ele>1539.1999511719</ele>
        <time>2014-05-14T12:25:39.000Z</time>
      </trkpt>
      <trkpt lat="42.10382" lon="9.16779">
        <ele>1539.1999511719</ele>
        <time>2014-05-14T12:25:44.000Z</time>
      </trkpt>
      <trkpt lat="42.10382" lon="9.16777">
        <ele>1539.4000244141</ele>
        <time>2014-05-14T12:25:45.000Z</time>
      </trkpt>
      <trkpt lat="42.10384" lon="9.16773">
        <ele>1541.4000244141</ele>
        <time>2014-05-14T12:25:49.000Z</time>
      </trkpt>
      <trkpt lat="42.10386" lon="9.16769">
        <ele>1542.5999755859</ele>
        <time>2014-05-14T12:25:54.000Z</time>
      </trkpt>
      <trkpt lat="42.10386" lon="9.16767">
        <ele>1543.4000244141</ele>
        <time>2014-05-14T12:25:56.000Z</time>
      </trkpt>
      <trkpt lat="42.10388" lon="9.16762">
        <ele>1544.8000488281</ele>
        <time>2014-05-14T12:26:00.000Z</time>
      </trkpt>
      <trkpt lat="42.10388" lon="9.16761">
        <ele>1545.1999511719</ele>
        <time>2014-05-14T12:26:01.000Z</time>
      </trkpt>
      <trkpt lat="42.10391" lon="9.16753">
        <ele>1547</ele>
        <time>2014-05-14T12:26:08.000Z</time>
      </trkpt>
      <trkpt lat="42.10394" lon="9.16746">
        <ele>1547.5999755859</ele>
        <time>2014-05-14T12:26:14.000Z</time>
      </trkpt>
      <trkpt lat="42.10395" lon="9.16744">
        <ele>1548</ele>
        <time>2014-05-14T12:26:16.000Z</time>
      </trkpt>
      <trkpt lat="42.10396" lon="9.16738">
        <ele>1547.8000488281</ele>
        <time>2014-05-14T12:26:20.000Z</time>
      </trkpt>
      <trkpt lat="42.10396" lon="9.16732">
        <ele>1547.4000244141</ele>
        <time>2014-05-14T12:26:25.000Z</time>
      </trkpt>
      <trkpt lat="42.10396" lon="9.16731">
        <ele>1547.4000244141</ele>
        <time>2014-05-14T12:26:26.000Z</time>
      </trkpt>
      <trkpt lat="42.10397" lon="9.16729">
        <ele>1547.4000244141</ele>
        <time>2014-05-14T12:26:28.000Z</time>
      </trkpt>
      <trkpt lat="42.10397" lon="9.16726">
        <ele>1547.4000244141</ele>
        <time>2014-05-14T12:26:31.000Z</time>
      </trkpt>
      <trkpt lat="42.10398" lon="9.16725">
        <ele>1547.5999755859</ele>
        <time>2014-05-14T12:26:32.000Z</time>
      </trkpt>
      <trkpt lat="42.104" lon="9.16717">
        <ele>1548</ele>
        <time>2014-05-14T12:26:38.000Z</time>
      </trkpt>
      <trkpt lat="42.10401" lon="9.16714">
        <ele>1548.1999511719</ele>
        <time>2014-05-14T12:26:41.000Z</time>
      </trkpt>
      <trkpt lat="42.10402" lon="9.16711">
        <ele>1548.1999511719</ele>
        <time>2014-05-14T12:26:44.000Z</time>
      </trkpt>
      <trkpt lat="42.10402" lon="9.1671">
        <ele>1548.1999511719</ele>
        <time>2014-05-14T12:26:45.000Z</time>
      </trkpt>
      <trkpt lat="42.10403" lon="9.16705">
        <ele>1548.1999511719</ele>
        <time>2014-05-14T12:26:48.000Z</time>
      </trkpt>
      <trkpt lat="42.10404" lon="9.16702">
        <ele>1548.4000244141</ele>
        <time>2014-05-14T12:26:51.000Z</time>
      </trkpt>
      <trkpt lat="42.10404" lon="9.16696">
        <ele>1548.1999511719</ele>
        <time>2014-05-14T12:26:55.000Z</time>
      </trkpt>
      <trkpt lat="42.10406" lon="9.16694">
        <ele>1548.8000488281</ele>
        <time>2014-05-14T12:26:57.000Z</time>
      </trkpt>
      <trkpt lat="42.10407" lon="9.16693">
        <ele>1550</ele>
        <time>2014-05-14T12:27:01.000Z</time>
      </trkpt>
      <trkpt lat="42.10411" lon="9.16682">
        <ele>1553.4000244141</ele>
        <time>2014-05-14T12:27:12.000Z</time>
      </trkpt>
      <trkpt lat="42.10411" lon="9.16681">
        <ele>1554</ele>
        <time>2014-05-14T12:27:13.000Z</time>
      </trkpt>
      <trkpt lat="42.10415" lon="9.16674">
        <ele>1556.8000488281</ele>
        <time>2014-05-14T12:27:18.000Z</time>
      </trkpt>
      <trkpt lat="42.10418" lon="9.16666">
        <ele>1560</ele>
        <time>2014-05-14T12:27:24.000Z</time>
      </trkpt>
      <trkpt lat="42.10418" lon="9.16665">
        <ele>1560.4000244141</ele>
        <time>2014-05-14T12:27:25.000Z</time>
      </trkpt>
      <trkpt lat="42.10419" lon="9.16661">
        <ele>1561.1999511719</ele>
        <time>2014-05-14T12:27:28.000Z</time>
      </trkpt>
      <trkpt lat="42.10419" lon="9.16656">
        <ele>1562.1999511719</ele>
        <time>2014-05-14T12:27:31.000Z</time>
      </trkpt>
      <trkpt lat="42.1042" lon="9.16652">
        <ele>1563.4000244141</ele>
        <time>2014-05-14T12:27:34.000Z</time>
      </trkpt>
      <trkpt lat="42.10419" lon="9.16648">
        <ele>1563.5999755859</ele>
        <time>2014-05-14T12:27:38.000Z</time>
      </trkpt>
      <trkpt lat="42.10417" lon="9.1664">
        <ele>1563.8000488281</ele>
        <time>2014-05-14T12:27:45.000Z</time>
      </trkpt>
      <trkpt lat="42.10417" lon="9.16639">
        <ele>1564</ele>
        <time>2014-05-14T12:27:46.000Z</time>
      </trkpt>
      <trkpt lat="42.10417" lon="9.1663">
        <ele>1565.4000244141</ele>
        <time>2014-05-14T12:27:53.000Z</time>
      </trkpt>
      <trkpt lat="42.10415" lon="9.16623">
        <ele>1565.4000244141</ele>
        <time>2014-05-14T12:27:58.000Z</time>
      </trkpt>
      <trkpt lat="42.10413" lon="9.16621">
        <ele>1565</ele>
        <time>2014-05-14T12:28:00.000Z</time>
      </trkpt>
      <trkpt lat="42.10408" lon="9.16615">
        <ele>1563.8000488281</ele>
        <time>2014-05-14T12:28:07.000Z</time>
      </trkpt>
      <trkpt lat="42.10405" lon="9.16612">
        <ele>1563</ele>
        <time>2014-05-14T12:28:11.000Z</time>
      </trkpt>
      <trkpt lat="42.104" lon="9.16609">
        <ele>1563</ele>
        <time>2014-05-14T12:28:16.000Z</time>
      </trkpt>
      <trkpt lat="42.10392" lon="9.16604">
        <ele>1562.5999755859</ele>
        <time>2014-05-14T12:28:24.000Z</time>
      </trkpt>
      <trkpt lat="42.10385" lon="9.16601">
        <ele>1562</ele>
        <time>2014-05-14T12:28:32.000Z</time>
      </trkpt>
      <trkpt lat="42.10378" lon="9.16595">
        <ele>1562.1999511719</ele>
        <time>2014-05-14T12:28:40.000Z</time>
      </trkpt>
      <trkpt lat="42.10371" lon="9.16591">
        <ele>1562.1999511719</ele>
        <time>2014-05-14T12:28:47.000Z</time>
      </trkpt>
      <trkpt lat="42.1037" lon="9.1659">
        <ele>1562.1999511719</ele>
        <time>2014-05-14T12:28:48.000Z</time>
      </trkpt>
      <trkpt lat="42.10368" lon="9.16588">
        <ele>1562.5999755859</ele>
        <time>2014-05-14T12:28:51.000Z</time>
      </trkpt>
      <trkpt lat="42.10368" lon="9.16588">
        <ele>1562.8000488281</ele>
        <time>2014-05-14T12:28:53.000Z</time>
      </trkpt>
      <trkpt lat="42.10364" lon="9.16586">
        <ele>1562.4000244141</ele>
        <time>2014-05-14T12:29:49.000Z</time>
      </trkpt>
      <trkpt lat="42.10355" lon="9.1658">
        <ele>1562.4000244141</ele>
        <time>2014-05-14T12:29:57.000Z</time>
      </trkpt>
      <trkpt lat="42.1035" lon="9.1658">
        <ele>1560.8000488281</ele>
        <time>2014-05-14T12:30:03.000Z</time>
      </trkpt>
      <trkpt lat="42.10348" lon="9.16578">
        <ele>1561.1999511719</ele>
        <time>2014-05-14T12:30:05.000Z</time>
      </trkpt>
      <trkpt lat="42.10345" lon="9.16576">
        <ele>1561.1999511719</ele>
        <time>2014-05-14T12:30:09.000Z</time>
      </trkpt>
      <trkpt lat="42.10344" lon="9.16575">
        <ele>1561.1999511719</ele>
        <time>2014-05-14T12:30:11.000Z</time>
      </trkpt>
      <trkpt lat="42.10337" lon="9.16572">
        <ele>1560.8000488281</ele>
        <time>2014-05-14T12:30:18.000Z</time>
      </trkpt>
      <trkpt lat="42.10331" lon="9.16569">
        <ele>1560.1999511719</ele>
        <time>2014-05-14T12:30:25.000Z</time>
      </trkpt>
      <trkpt lat="42.10323" lon="9.16565">
        <ele>1558.8000488281</ele>
        <time>2014-05-14T12:30:33.000Z</time>
      </trkpt>
      <trkpt lat="42.10313" lon="9.16565">
        <ele>1554.5999755859</ele>
        <time>2014-05-14T12:30:42.000Z</time>
      </trkpt>
      <trkpt lat="42.10306" lon="9.16563">
        <ele>1552.1999511719</ele>
        <time>2014-05-14T12:30:49.000Z</time>
      </trkpt>
      <trkpt lat="42.10304" lon="9.16563">
        <ele>1551.5999755859</ele>
        <time>2014-05-14T12:30:51.000Z</time>
      </trkpt>
      <trkpt lat="42.10301" lon="9.16563">
        <ele>1550.1999511719</ele>
        <time>2014-05-14T12:30:54.000Z</time>
      </trkpt>
      <trkpt lat="42.103" lon="9.16564">
        <ele>1549.4000244141</ele>
        <time>2014-05-14T12:30:55.000Z</time>
      </trkpt>
      <trkpt lat="42.10294" lon="9.16565">
        <ele>1546.1999511719</ele>
        <time>2014-05-14T12:31:01.000Z</time>
      </trkpt>
      <trkpt lat="42.10288" lon="9.16564">
        <ele>1544</ele>
        <time>2014-05-14T12:31:08.000Z</time>
      </trkpt>
      <trkpt lat="42.10286" lon="9.16561">
        <ele>1544.5999755859</ele>
        <time>2014-05-14T12:31:12.000Z</time>
      </trkpt>
      <trkpt lat="42.10285" lon="9.16557">
        <ele>1546</ele>
        <time>2014-05-14T12:31:15.000Z</time>
      </trkpt>
      <trkpt lat="42.10284" lon="9.1655">
        <ele>1549.4000244141</ele>
        <time>2014-05-14T12:31:22.000Z</time>
      </trkpt>
      <trkpt lat="42.10285" lon="9.16549">
        <ele>1549.8000488281</ele>
        <time>2014-05-14T12:31:23.000Z</time>
      </trkpt>
      <trkpt lat="42.10285" lon="9.16547">
        <ele>1551</ele>
        <time>2014-05-14T12:31:26.000Z</time>
      </trkpt>
      <trkpt lat="42.10284" lon="9.16541">
        <ele>1553.1999511719</ele>
        <time>2014-05-14T12:31:32.000Z</time>
      </trkpt>
      <trkpt lat="42.10283" lon="9.16536">
        <ele>1555.5999755859</ele>
        <time>2014-05-14T12:31:37.000Z</time>
      </trkpt>
      <trkpt lat="42.10283" lon="9.1653">
        <ele>1558.4000244141</ele>
        <time>2014-05-14T12:31:44.000Z</time>
      </trkpt>
      <trkpt lat="42.10283" lon="9.16528">
        <ele>1559.8000488281</ele>
        <time>2014-05-14T12:31:49.000Z</time>
      </trkpt>
      <trkpt lat="42.1028" lon="9.16523">
        <ele>1559.4000244141</ele>
        <time>2014-05-14T12:31:55.000Z</time>
      </trkpt>
      <trkpt lat="42.10276" lon="9.16514">
        <ele>1559.8000488281</ele>
        <time>2014-05-14T12:32:03.000Z</time>
      </trkpt>
      <trkpt lat="42.10275" lon="9.1651">
        <ele>1559.8000488281</ele>
        <time>2014-05-14T12:32:07.000Z</time>
      </trkpt>
      <trkpt lat="42.10274" lon="9.16508">
        <ele>1560</ele>
        <time>2014-05-14T12:32:09.000Z</time>
      </trkpt>
      <trkpt lat="42.10274" lon="9.16507">
        <ele>1560.1999511719</ele>
        <time>2014-05-14T12:32:11.000Z</time>
      </trkpt>
      <trkpt lat="42.10273" lon="9.16502">
        <ele>1561.1999511719</ele>
        <time>2014-05-14T12:32:15.000Z</time>
      </trkpt>
      <trkpt lat="42.10273" lon="9.165">
        <ele>1561.4000244141</ele>
        <time>2014-05-14T12:32:16.000Z</time>
      </trkpt>
      <trkpt lat="42.10271" lon="9.16492">
        <ele>1562.4000244141</ele>
        <time>2014-05-14T12:32:22.000Z</time>
      </trkpt>
      <trkpt lat="42.10271" lon="9.16491">
        <ele>1562.4000244141</ele>
        <time>2014-05-14T12:32:23.000Z</time>
      </trkpt>
      <trkpt lat="42.10267" lon="9.16483">
        <ele>1562.8000488281</ele>
        <time>2014-05-14T12:32:29.000Z</time>
      </trkpt>
      <trkpt lat="42.10267" lon="9.16482">
        <ele>1562.8000488281</ele>
        <time>2014-05-14T12:32:30.000Z</time>
      </trkpt>
      <trkpt lat="42.10261" lon="9.16475">
        <ele>1561.8000488281</ele>
        <time>2014-05-14T12:32:38.000Z</time>
      </trkpt>
      <trkpt lat="42.10254" lon="9.16472">
        <ele>1559.4000244141</ele>
        <time>2014-05-14T12:32:44.000Z</time>
      </trkpt>
      <trkpt lat="42.10248" lon="9.16469">
        <ele>1557.4000244141</ele>
        <time>2014-05-14T12:32:50.000Z</time>
      </trkpt>
      <trkpt lat="42.10241" lon="9.16463">
        <ele>1555.4000244141</ele>
        <time>2014-05-14T12:32:58.000Z</time>
      </trkpt>
      <trkpt lat="42.1024" lon="9.16462">
        <ele>1554.8000488281</ele>
        <time>2014-05-14T12:33:00.000Z</time>
      </trkpt>
      <trkpt lat="42.10238" lon="9.16458">
        <ele>1554.1999511719</ele>
        <time>2014-05-14T12:33:05.000Z</time>
      </trkpt>
      <trkpt lat="42.10236" lon="9.16449">
        <ele>1555</ele>
        <time>2014-05-14T12:33:11.000Z</time>
      </trkpt>
      <trkpt lat="42.10233" lon="9.16437">
        <ele>1554.8000488281</ele>
        <time>2014-05-14T12:33:19.000Z</time>
      </trkpt>
      <trkpt lat="42.10233" lon="9.16433">
        <ele>1555</ele>
        <time>2014-05-14T12:33:22.000Z</time>
      </trkpt>
      <trkpt lat="42.10232" lon="9.16425">
        <ele>1554.5999755859</ele>
        <time>2014-05-14T12:33:27.000Z</time>
      </trkpt>
      <trkpt lat="42.1023" lon="9.16412">
        <ele>1554.8000488281</ele>
        <time>2014-05-14T12:33:36.000Z</time>
      </trkpt>
      <trkpt lat="42.1023" lon="9.1641">
        <ele>1555.1999511719</ele>
        <time>2014-05-14T12:33:38.000Z</time>
      </trkpt>
      <trkpt lat="42.1023" lon="9.16407">
        <ele>1555.5999755859</ele>
        <time>2014-05-14T12:33:41.000Z</time>
      </trkpt>
      <trkpt lat="42.1023" lon="9.16405">
        <ele>1555.5999755859</ele>
        <time>2014-05-14T12:33:43.000Z</time>
      </trkpt>
      <trkpt lat="42.1023" lon="9.164">
        <ele>1555.8000488281</ele>
        <time>2014-05-14T12:33:47.000Z</time>
      </trkpt>
      <trkpt lat="42.1023" lon="9.16399">
        <ele>1556</ele>
        <time>2014-05-14T12:33:48.000Z</time>
      </trkpt>
      <trkpt lat="42.1023" lon="9.16393">
        <ele>1556.5999755859</ele>
        <time>2014-05-14T12:33:53.000Z</time>
      </trkpt>
      <trkpt lat="42.10229" lon="9.16384">
        <ele>1556.1999511719</ele>
        <time>2014-05-14T12:33:59.000Z</time>
      </trkpt>
      <trkpt lat="42.10229" lon="9.16379">
        <ele>1557</ele>
        <time>2014-05-14T12:34:03.000Z</time>
      </trkpt>
      <trkpt lat="42.10229" lon="9.16377">
        <ele>1557</ele>
        <time>2014-05-14T12:34:04.000Z</time>
      </trkpt>
      <trkpt lat="42.10229" lon="9.1637">
        <ele>1557.1999511719</ele>
        <time>2014-05-14T12:34:09.000Z</time>
      </trkpt>
      <trkpt lat="42.10228" lon="9.16363">
        <ele>1557.5999755859</ele>
        <time>2014-05-14T12:34:15.000Z</time>
      </trkpt>
      <trkpt lat="42.10228" lon="9.16362">
        <ele>1557.8000488281</ele>
        <time>2014-05-14T12:34:16.000Z</time>
      </trkpt>
      <trkpt lat="42.10228" lon="9.1636">
        <ele>1558</ele>
        <time>2014-05-14T12:34:18.000Z</time>
      </trkpt>
      <trkpt lat="42.10227" lon="9.16356">
        <ele>1558.1999511719</ele>
        <time>2014-05-14T12:34:21.000Z</time>
      </trkpt>
      <trkpt lat="42.10227" lon="9.16355">
        <ele>1558.1999511719</ele>
        <time>2014-05-14T12:34:22.000Z</time>
      </trkpt>
      <trkpt lat="42.10226" lon="9.16348">
        <ele>1558.8000488281</ele>
        <time>2014-05-14T12:34:26.000Z</time>
      </trkpt>
      <trkpt lat="42.10226" lon="9.1634">
        <ele>1560</ele>
        <time>2014-05-14T12:34:31.000Z</time>
      </trkpt>
      <trkpt lat="42.10226" lon="9.16339">
        <ele>1560.4000244141</ele>
        <time>2014-05-14T12:34:32.000Z</time>
      </trkpt>
      <trkpt lat="42.10227" lon="9.1633">
        <ele>1561</ele>
        <time>2014-05-14T12:34:38.000Z</time>
      </trkpt>
      <trkpt lat="42.10227" lon="9.16319">
        <ele>1561.8000488281</ele>
        <time>2014-05-14T12:34:44.000Z</time>
      </trkpt>
      <trkpt lat="42.10226" lon="9.16317">
        <ele>1561.1999511719</ele>
        <time>2014-05-14T12:34:46.000Z</time>
      </trkpt>
      <trkpt lat="42.10223" lon="9.16313">
        <ele>1559.8000488281</ele>
        <time>2014-05-14T12:34:51.000Z</time>
      </trkpt>
      <trkpt lat="42.10218" lon="9.16308">
        <ele>1557.5999755859</ele>
        <time>2014-05-14T12:34:58.000Z</time>
      </trkpt>
      <trkpt lat="42.10216" lon="9.16298">
        <ele>1556.8000488281</ele>
        <time>2014-05-14T12:35:05.000Z</time>
      </trkpt>
      <trkpt lat="42.10213" lon="9.16288">
        <ele>1556</ele>
        <time>2014-05-14T12:35:12.000Z</time>
      </trkpt>
      <trkpt lat="42.10212" lon="9.16276">
        <ele>1556.4000244141</ele>
        <time>2014-05-14T12:35:19.000Z</time>
      </trkpt>
      <trkpt lat="42.10211" lon="9.16264">
        <ele>1559.5999755859</ele>
        <time>2014-05-14T12:35:26.000Z</time>
      </trkpt>
      <trkpt lat="42.1021" lon="9.1625">
        <ele>1563.5999755859</ele>
        <time>2014-05-14T12:35:35.000Z</time>
      </trkpt>
      <trkpt lat="42.10211" lon="9.16247">
        <ele>1564.8000488281</ele>
        <time>2014-05-14T12:35:38.000Z</time>
      </trkpt>
      <trkpt lat="42.1021" lon="9.16244">
        <ele>1565.1999511719</ele>
        <time>2014-05-14T12:35:40.000Z</time>
      </trkpt>
      <trkpt lat="42.1021" lon="9.16238">
        <ele>1566.4000244141</ele>
        <time>2014-05-14T12:35:45.000Z</time>
      </trkpt>
      <trkpt lat="42.1021" lon="9.16237">
        <ele>1567</ele>
        <time>2014-05-14T12:35:46.000Z</time>
      </trkpt>
      <trkpt lat="42.10209" lon="9.16229">
        <ele>1568.1999511719</ele>
        <time>2014-05-14T12:35:53.000Z</time>
      </trkpt>
      <trkpt lat="42.10205" lon="9.16227">
        <ele>1567</ele>
        <time>2014-05-14T12:35:59.000Z</time>
      </trkpt>
      <trkpt lat="42.10199" lon="9.16228">
        <ele>1564.4000244141</ele>
        <time>2014-05-14T12:36:06.000Z</time>
      </trkpt>
      <trkpt lat="42.10196" lon="9.16226">
        <ele>1563.4000244141</ele>
        <time>2014-05-14T12:36:12.000Z</time>
      </trkpt>
      <trkpt lat="42.10192" lon="9.16227">
        <ele>1561.4000244141</ele>
        <time>2014-05-14T12:36:17.000Z</time>
      </trkpt>
      <trkpt lat="42.10189" lon="9.16225">
        <ele>1560.1999511719</ele>
        <time>2014-05-14T12:36:22.000Z</time>
      </trkpt>
      <trkpt lat="42.10185" lon="9.16225">
        <ele>1558.1999511719</ele>
        <time>2014-05-14T12:36:26.000Z</time>
      </trkpt>
      <trkpt lat="42.10183" lon="9.16224">
        <ele>1557.4000244141</ele>
        <time>2014-05-14T12:36:28.000Z</time>
      </trkpt>
      <trkpt lat="42.10179" lon="9.1622">
        <ele>1556.5999755859</ele>
        <time>2014-05-14T12:36:33.000Z</time>
      </trkpt>
      <trkpt lat="42.10178" lon="9.16218">
        <ele>1556.5999755859</ele>
        <time>2014-05-14T12:36:35.000Z</time>
      </trkpt>
      <trkpt lat="42.10172" lon="9.16209">
        <ele>1556.5999755859</ele>
        <time>2014-05-14T12:36:43.000Z</time>
      </trkpt>
      <trkpt lat="42.10168" lon="9.16203">
        <ele>1556.1999511719</ele>
        <time>2014-05-14T12:36:49.000Z</time>
      </trkpt>
      <trkpt lat="42.10161" lon="9.16201">
        <ele>1553.4000244141</ele>
        <time>2014-05-14T12:36:56.000Z</time>
      </trkpt>
      <trkpt lat="42.10153" lon="9.16197">
        <ele>1551.8000488281</ele>
        <time>2014-05-14T12:37:04.000Z</time>
      </trkpt>
      <trkpt lat="42.10152" lon="9.16197">
        <ele>1551.5999755859</ele>
        <time>2014-05-14T12:37:05.000Z</time>
      </trkpt>
      <trkpt lat="42.10149" lon="9.16197">
        <ele>1550.5999755859</ele>
        <time>2014-05-14T12:37:10.000Z</time>
      </trkpt>
      <trkpt lat="42.10146" lon="9.16197">
        <ele>1549.5999755859</ele>
        <time>2014-05-14T12:37:13.000Z</time>
      </trkpt>
      <trkpt lat="42.10144" lon="9.16196">
        <ele>1549</ele>
        <time>2014-05-14T12:37:16.000Z</time>
      </trkpt>
      <trkpt lat="42.10138" lon="9.16198">
        <ele>1546.5999755859</ele>
        <time>2014-05-14T12:37:21.000Z</time>
      </trkpt>
      <trkpt lat="42.10137" lon="9.16198">
        <ele>1546.1999511719</ele>
        <time>2014-05-14T12:37:22.000Z</time>
      </trkpt>
      <trkpt lat="42.10134" lon="9.16198">
        <ele>1545.1999511719</ele>
        <time>2014-05-14T12:37:25.000Z</time>
      </trkpt>
      <trkpt lat="42.1013" lon="9.162">
        <ele>1543.1999511719</ele>
        <time>2014-05-14T12:37:29.000Z</time>
      </trkpt>
      <trkpt lat="42.10129" lon="9.162">
        <ele>1542.8000488281</ele>
        <time>2014-05-14T12:37:31.000Z</time>
      </trkpt>
      <trkpt lat="42.10128" lon="9.16202">
        <ele>1541.8000488281</ele>
        <time>2014-05-14T12:37:34.000Z</time>
      </trkpt>
      <trkpt lat="42.10127" lon="9.16203">
        <ele>1541.1999511719</ele>
        <time>2014-05-14T12:37:36.000Z</time>
      </trkpt>
      <trkpt lat="42.10123" lon="9.16205">
        <ele>1539.1999511719</ele>
        <time>2014-05-14T12:37:40.000Z</time>
      </trkpt>
      <trkpt lat="42.10116" lon="9.16201">
        <ele>1538.1999511719</ele>
        <time>2014-05-14T12:37:49.000Z</time>
      </trkpt>
      <trkpt lat="42.10108" lon="9.16193">
        <ele>1537.8000488281</ele>
        <time>2014-05-14T12:37:57.000Z</time>
      </trkpt>
      <trkpt lat="42.10105" lon="9.16182">
        <ele>1538.4000244141</ele>
        <time>2014-05-14T12:38:06.000Z</time>
      </trkpt>
      <trkpt lat="42.10103" lon="9.16179">
        <ele>1538.4000244141</ele>
        <time>2014-05-14T12:38:12.000Z</time>
      </trkpt>
      <trkpt lat="42.10101" lon="9.16175">
        <ele>1538.5999755859</ele>
        <time>2014-05-14T12:38:16.000Z</time>
      </trkpt>
      <trkpt lat="42.10099" lon="9.16173">
        <ele>1538.1999511719</ele>
        <time>2014-05-14T12:38:22.000Z</time>
      </trkpt>
      <trkpt lat="42.10096" lon="9.16172">
        <ele>1537.1999511719</ele>
        <time>2014-05-14T12:38:29.000Z</time>
      </trkpt>
      <trkpt lat="42.10094" lon="9.16168">
        <ele>1537.1999511719</ele>
        <time>2014-05-14T12:38:35.000Z</time>
      </trkpt>
      <trkpt lat="42.10093" lon="9.16167">
        <ele>1537.1999511719</ele>
        <time>2014-05-14T12:38:36.000Z</time>
      </trkpt>
      <trkpt lat="42.1009" lon="9.16156">
        <ele>1538</ele>
        <time>2014-05-14T12:38:43.000Z</time>
      </trkpt>
      <trkpt lat="42.10088" lon="9.1615">
        <ele>1538</ele>
        <time>2014-05-14T12:38:47.000Z</time>
      </trkpt>
      <trkpt lat="42.10086" lon="9.16144">
        <ele>1538.5999755859</ele>
        <time>2014-05-14T12:38:51.000Z</time>
      </trkpt>
      <trkpt lat="42.10085" lon="9.16137">
        <ele>1539.4000244141</ele>
        <time>2014-05-14T12:38:56.000Z</time>
      </trkpt>
      <trkpt lat="42.10085" lon="9.16135">
        <ele>1539.5999755859</ele>
        <time>2014-05-14T12:38:58.000Z</time>
      </trkpt>
      <trkpt lat="42.10085" lon="9.16133">
        <ele>1540</ele>
        <time>2014-05-14T12:39:00.000Z</time>
      </trkpt>
      <trkpt lat="42.10084" lon="9.16129">
        <ele>1540.4000244141</ele>
        <time>2014-05-14T12:39:03.000Z</time>
      </trkpt>
      <trkpt lat="42.10084" lon="9.16128">
        <ele>1540.5999755859</ele>
        <time>2014-05-14T12:39:04.000Z</time>
      </trkpt>
      <trkpt lat="42.10084" lon="9.16125">
        <ele>1541</ele>
        <time>2014-05-14T12:39:07.000Z</time>
      </trkpt>
      <trkpt lat="42.10085" lon="9.16121">
        <ele>1542</ele>
        <time>2014-05-14T12:39:10.000Z</time>
      </trkpt>
      <trkpt lat="42.10085" lon="9.16116">
        <ele>1543.5999755859</ele>
        <time>2014-05-14T12:39:13.000Z</time>
      </trkpt>
      <trkpt lat="42.10085" lon="9.1611">
        <ele>1545.1999511719</ele>
        <time>2014-05-14T12:39:17.000Z</time>
      </trkpt>
      <trkpt lat="42.10084" lon="9.16099">
        <ele>1546</ele>
        <time>2014-05-14T12:39:24.000Z</time>
      </trkpt>
      <trkpt lat="42.10085" lon="9.16095">
        <ele>1546.5999755859</ele>
        <time>2014-05-14T12:39:27.000Z</time>
      </trkpt>
      <trkpt lat="42.10085" lon="9.16092">
        <ele>1546.8000488281</ele>
        <time>2014-05-14T12:39:30.000Z</time>
      </trkpt>
      <trkpt lat="42.10085" lon="9.16089">
        <ele>1547</ele>
        <time>2014-05-14T12:39:33.000Z</time>
      </trkpt>
      <trkpt lat="42.10084" lon="9.16086">
        <ele>1547</ele>
        <time>2014-05-14T12:39:36.000Z</time>
      </trkpt>
      <trkpt lat="42.10082" lon="9.16084">
        <ele>1546.4000244141</ele>
        <time>2014-05-14T12:39:39.000Z</time>
      </trkpt>
      <trkpt lat="42.10082" lon="9.16074">
        <ele>1547.1999511719</ele>
        <time>2014-05-14T12:39:46.000Z</time>
      </trkpt>
      <trkpt lat="42.10081" lon="9.16066">
        <ele>1547.4000244141</ele>
        <time>2014-05-14T12:39:51.000Z</time>
      </trkpt>
      <trkpt lat="42.1008" lon="9.16055">
        <ele>1548</ele>
        <time>2014-05-14T12:39:58.000Z</time>
      </trkpt>
      <trkpt lat="42.10079" lon="9.16046">
        <ele>1548.4000244141</ele>
        <time>2014-05-14T12:40:05.000Z</time>
      </trkpt>
      <trkpt lat="42.1008" lon="9.16041">
        <ele>1549.4000244141</ele>
        <time>2014-05-14T12:40:10.000Z</time>
      </trkpt>
      <trkpt lat="42.10079" lon="9.16033">
        <ele>1549.5999755859</ele>
        <time>2014-05-14T12:40:15.000Z</time>
      </trkpt>
      <trkpt lat="42.10078" lon="9.16027">
        <ele>1549.8000488281</ele>
        <time>2014-05-14T12:40:19.000Z</time>
      </trkpt>
      <trkpt lat="42.10077" lon="9.16023">
        <ele>1550</ele>
        <time>2014-05-14T12:40:21.000Z</time>
      </trkpt>
      <trkpt lat="42.10076" lon="9.16015">
        <ele>1550.1999511719</ele>
        <time>2014-05-14T12:40:26.000Z</time>
      </trkpt>
      <trkpt lat="42.10076" lon="9.16011">
        <ele>1551</ele>
        <time>2014-05-14T12:40:29.000Z</time>
      </trkpt>
      <trkpt lat="42.10076" lon="9.16007">
        <ele>1551.1999511719</ele>
        <time>2014-05-14T12:40:32.000Z</time>
      </trkpt>
      <trkpt lat="42.10075" lon="9.16003">
        <ele>1551.4000244141</ele>
        <time>2014-05-14T12:40:34.000Z</time>
      </trkpt>
      <trkpt lat="42.10072" lon="9.15995">
        <ele>1551</ele>
        <time>2014-05-14T12:40:40.000Z</time>
      </trkpt>
      <trkpt lat="42.10071" lon="9.15989">
        <ele>1551.4000244141</ele>
        <time>2014-05-14T12:40:45.000Z</time>
      </trkpt>
      <trkpt lat="42.10071" lon="9.15976">
        <ele>1553</ele>
        <time>2014-05-14T12:40:54.000Z</time>
      </trkpt>
      <trkpt lat="42.10072" lon="9.15968">
        <ele>1554.4000244141</ele>
        <time>2014-05-14T12:41:00.000Z</time>
      </trkpt>
      <trkpt lat="42.10072" lon="9.15958">
        <ele>1555.8000488281</ele>
        <time>2014-05-14T12:41:08.000Z</time>
      </trkpt>
      <trkpt lat="42.10071" lon="9.15955">
        <ele>1555.8000488281</ele>
        <time>2014-05-14T12:41:11.000Z</time>
      </trkpt>
      <trkpt lat="42.1007" lon="9.15953">
        <ele>1555.5999755859</ele>
        <time>2014-05-14T12:41:15.000Z</time>
      </trkpt>
      <trkpt lat="42.10066" lon="9.1595">
        <ele>1554.4000244141</ele>
        <time>2014-05-14T12:41:23.000Z</time>
      </trkpt>
      <trkpt lat="42.10062" lon="9.15945">
        <ele>1553</ele>
        <time>2014-05-14T12:41:30.000Z</time>
      </trkpt>
      <trkpt lat="42.10058" lon="9.1594">
        <ele>1552.8000488281</ele>
        <time>2014-05-14T12:41:36.000Z</time>
      </trkpt>
      <trkpt lat="42.10053" lon="9.15932">
        <ele>1552.8000488281</ele>
        <time>2014-05-14T12:41:43.000Z</time>
      </trkpt>
      <trkpt lat="42.10047" lon="9.15923">
        <ele>1553.4000244141</ele>
        <time>2014-05-14T12:41:51.000Z</time>
      </trkpt>
      <trkpt lat="42.10045" lon="9.1592">
        <ele>1553.4000244141</ele>
        <time>2014-05-14T12:41:54.000Z</time>
      </trkpt>
      <trkpt lat="42.10044" lon="9.15918">
        <ele>1553.8000488281</ele>
        <time>2014-05-14T12:41:56.000Z</time>
      </trkpt>
      <trkpt lat="42.10039" lon="9.1591">
        <ele>1554.1999511719</ele>
        <time>2014-05-14T12:42:03.000Z</time>
      </trkpt>
      <trkpt lat="42.10038" lon="9.15908">
        <ele>1554.5999755859</ele>
        <time>2014-05-14T12:42:05.000Z</time>
      </trkpt>
      <trkpt lat="42.10037" lon="9.15904">
        <ele>1555.1999511719</ele>
        <time>2014-05-14T12:42:09.000Z</time>
      </trkpt>
      <trkpt lat="42.10036" lon="9.15903">
        <ele>1555.4000244141</ele>
        <time>2014-05-14T12:42:10.000Z</time>
      </trkpt>
      <trkpt lat="42.10033" lon="9.15898">
        <ele>1555.4000244141</ele>
        <time>2014-05-14T12:42:15.000Z</time>
      </trkpt>
      <trkpt lat="42.10033" lon="9.15895">
        <ele>1556.1999511719</ele>
        <time>2014-05-14T12:42:17.000Z</time>
      </trkpt>
      <trkpt lat="42.10032" lon="9.15889">
        <ele>1557.8000488281</ele>
        <time>2014-05-14T12:42:23.000Z</time>
      </trkpt>
      <trkpt lat="42.10031" lon="9.15878">
        <ele>1560.4000244141</ele>
        <time>2014-05-14T12:42:31.000Z</time>
      </trkpt>
      <trkpt lat="42.10031" lon="9.15876">
        <ele>1561</ele>
        <time>2014-05-14T12:42:33.000Z</time>
      </trkpt>
      <trkpt lat="42.10032" lon="9.15873">
        <ele>1562.4000244141</ele>
        <time>2014-05-14T12:42:37.000Z</time>
      </trkpt>
      <trkpt lat="42.1003" lon="9.15867">
        <ele>1563.1999511719</ele>
        <time>2014-05-14T12:42:51.000Z</time>
      </trkpt>
      <trkpt lat="42.10027" lon="9.15864">
        <ele>1563</ele>
        <time>2014-05-14T12:42:58.000Z</time>
      </trkpt>
      <trkpt lat="42.1002" lon="9.15864">
        <ele>1560</ele>
        <time>2014-05-14T12:43:05.000Z</time>
      </trkpt>
      <trkpt lat="42.10014" lon="9.15862">
        <ele>1558</ele>
        <time>2014-05-14T12:43:11.000Z</time>
      </trkpt>
      <trkpt lat="42.10013" lon="9.15861">
        <ele>1558</ele>
        <time>2014-05-14T12:43:12.000Z</time>
      </trkpt>
      <trkpt lat="42.10007" lon="9.15858">
        <ele>1556.4000244141</ele>
        <time>2014-05-14T12:43:19.000Z</time>
      </trkpt>
      <trkpt lat="42.10004" lon="9.15859">
        <ele>1555.1999511719</ele>
        <time>2014-05-14T12:43:22.000Z</time>
      </trkpt>
      <trkpt lat="42.10002" lon="9.15859">
        <ele>1554.4000244141</ele>
        <time>2014-05-14T12:43:24.000Z</time>
      </trkpt>
      <trkpt lat="42.09997" lon="9.15852">
        <ele>1555.1999511719</ele>
        <time>2014-05-14T12:43:31.000Z</time>
      </trkpt>
      <trkpt lat="42.09997" lon="9.15851">
        <ele>1555.8000488281</ele>
        <time>2014-05-14T12:43:32.000Z</time>
      </trkpt>
      <trkpt lat="42.09997" lon="9.15847">
        <ele>1557.4000244141</ele>
        <time>2014-05-14T12:43:35.000Z</time>
      </trkpt>
      <trkpt lat="42.09996" lon="9.15844">
        <ele>1557.8000488281</ele>
        <time>2014-05-14T12:43:38.000Z</time>
      </trkpt>
      <trkpt lat="42.09994" lon="9.15843">
        <ele>1557.4000244141</ele>
        <time>2014-05-14T12:43:40.000Z</time>
      </trkpt>
      <trkpt lat="42.0999" lon="9.15843">
        <ele>1556.4000244141</ele>
        <time>2014-05-14T12:43:44.000Z</time>
      </trkpt>
      <trkpt lat="42.09989" lon="9.15843">
        <ele>1556.1999511719</ele>
        <time>2014-05-14T12:43:45.000Z</time>
      </trkpt>
      <trkpt lat="42.09988" lon="9.15843">
        <ele>1555.1999511719</ele>
        <time>2014-05-14T12:43:48.000Z</time>
      </trkpt>
      <trkpt lat="42.09987" lon="9.15843">
        <ele>1555</ele>
        <time>2014-05-14T12:43:49.000Z</time>
      </trkpt>
      <trkpt lat="42.09982" lon="9.15843">
        <ele>1553.5999755859</ele>
        <time>2014-05-14T12:43:54.000Z</time>
      </trkpt>
      <trkpt lat="42.09976" lon="9.1584">
        <ele>1552.4000244141</ele>
        <time>2014-05-14T12:44:01.000Z</time>
      </trkpt>
      <trkpt lat="42.09975" lon="9.15838">
        <ele>1552.5999755859</ele>
        <time>2014-05-14T12:44:03.000Z</time>
      </trkpt>
      <trkpt lat="42.09973" lon="9.15836">
        <ele>1553.1999511719</ele>
        <time>2014-05-14T12:44:06.000Z</time>
      </trkpt>
      <trkpt lat="42.09971" lon="9.15835">
        <ele>1553</ele>
        <time>2014-05-14T12:44:08.000Z</time>
      </trkpt>
      <trkpt lat="42.0997" lon="9.15834">
        <ele>1553</ele>
        <time>2014-05-14T12:44:09.000Z</time>
      </trkpt>
      <trkpt lat="42.09967" lon="9.15831">
        <ele>1552.8000488281</ele>
        <time>2014-05-14T12:44:14.000Z</time>
      </trkpt>
      <trkpt lat="42.09965" lon="9.1583">
        <ele>1552.8000488281</ele>
        <time>2014-05-14T12:44:16.000Z</time>
      </trkpt>
      <trkpt lat="42.09961" lon="9.15825">
        <ele>1553.4000244141</ele>
        <time>2014-05-14T12:44:21.000Z</time>
      </trkpt>
      <trkpt lat="42.09959" lon="9.15824">
        <ele>1553.4000244141</ele>
        <time>2014-05-14T12:44:23.000Z</time>
      </trkpt>
      <trkpt lat="42.09955" lon="9.15821">
        <ele>1553</ele>
        <time>2014-05-14T12:44:27.000Z</time>
      </trkpt>
      <trkpt lat="42.09954" lon="9.15819">
        <ele>1553.1999511719</ele>
        <time>2014-05-14T12:44:29.000Z</time>
      </trkpt>
      <trkpt lat="42.09953" lon="9.15819">
        <ele>1553.1999511719</ele>
        <time>2014-05-14T12:44:30.000Z</time>
      </trkpt>
      <trkpt lat="42.09948" lon="9.15815">
        <ele>1553.1999511719</ele>
        <time>2014-05-14T12:44:36.000Z</time>
      </trkpt>
      <trkpt lat="42.09944" lon="9.1581">
        <ele>1553.5999755859</ele>
        <time>2014-05-14T12:44:42.000Z</time>
      </trkpt>
      <trkpt lat="42.09943" lon="9.15809">
        <ele>1553.8000488281</ele>
        <time>2014-05-14T12:44:43.000Z</time>
      </trkpt>
      <trkpt lat="42.09938" lon="9.15797">
        <ele>1556.8000488281</ele>
        <time>2014-05-14T12:44:52.000Z</time>
      </trkpt>
      <trkpt lat="42.09934" lon="9.15791">
        <ele>1557.8000488281</ele>
        <time>2014-05-14T12:44:58.000Z</time>
      </trkpt>
      <trkpt lat="42.0993" lon="9.15786">
        <ele>1558.1999511719</ele>
        <time>2014-05-14T12:45:04.000Z</time>
      </trkpt>
      <trkpt lat="42.09929" lon="9.15786">
        <ele>1558.1999511719</ele>
        <time>2014-05-14T12:45:05.000Z</time>
      </trkpt>
      <trkpt lat="42.09926" lon="9.15784">
        <ele>1557.5999755859</ele>
        <time>2014-05-14T12:45:09.000Z</time>
      </trkpt>
      <trkpt lat="42.09926" lon="9.15784">
        <ele>1557.5999755859</ele>
        <time>2014-05-14T12:45:10.000Z</time>
      </trkpt>
      <trkpt lat="42.09922" lon="9.1578">
        <ele>1558.1999511719</ele>
        <time>2014-05-14T12:46:44.000Z</time>
      </trkpt>
      <trkpt lat="42.09921" lon="9.1578">
        <ele>1558</ele>
        <time>2014-05-14T12:46:45.000Z</time>
      </trkpt>
      <trkpt lat="42.09914" lon="9.15776">
        <ele>1556.8000488281</ele>
        <time>2014-05-14T12:46:52.000Z</time>
      </trkpt>
      <trkpt lat="42.0991" lon="9.15771">
        <ele>1557.1999511719</ele>
        <time>2014-05-14T12:46:58.000Z</time>
      </trkpt>
      <trkpt lat="42.09909" lon="9.15769">
        <ele>1557.1999511719</ele>
        <time>2014-05-14T12:47:00.000Z</time>
      </trkpt>
      <trkpt lat="42.09906" lon="9.15765">
        <ele>1557</ele>
        <time>2014-05-14T12:47:04.000Z</time>
      </trkpt>
      <trkpt lat="42.09899" lon="9.15755">
        <ele>1556.8000488281</ele>
        <time>2014-05-14T12:47:13.000Z</time>
      </trkpt>
      <trkpt lat="42.09894" lon="9.15747">
        <ele>1557.1999511719</ele>
        <time>2014-05-14T12:47:20.000Z</time>
      </trkpt>
      <trkpt lat="42.09888" lon="9.15738">
        <ele>1556.8000488281</ele>
        <time>2014-05-14T12:47:28.000Z</time>
      </trkpt>
      <trkpt lat="42.09886" lon="9.15734">
        <ele>1557.1999511719</ele>
        <time>2014-05-14T12:47:32.000Z</time>
      </trkpt>
      <trkpt lat="42.09885" lon="9.15732">
        <ele>1557.4000244141</ele>
        <time>2014-05-14T12:47:34.000Z</time>
      </trkpt>
      <trkpt lat="42.09884" lon="9.1573">
        <ele>1557.4000244141</ele>
        <time>2014-05-14T12:47:36.000Z</time>
      </trkpt>
      <trkpt lat="42.09881" lon="9.15727">
        <ele>1557</ele>
        <time>2014-05-14T12:47:40.000Z</time>
      </trkpt>
      <trkpt lat="42.0988" lon="9.15727">
        <ele>1556.5999755859</ele>
        <time>2014-05-14T12:47:41.000Z</time>
      </trkpt>
      <trkpt lat="42.09876" lon="9.15725">
        <ele>1555.4000244141</ele>
        <time>2014-05-14T12:47:45.000Z</time>
      </trkpt>
      <trkpt lat="42.09874" lon="9.15723">
        <ele>1555</ele>
        <time>2014-05-14T12:47:47.000Z</time>
      </trkpt>
      <trkpt lat="42.09871" lon="9.15721">
        <ele>1554</ele>
        <time>2014-05-14T12:47:50.000Z</time>
      </trkpt>
      <trkpt lat="42.09862" lon="9.15713">
        <ele>1552.5999755859</ele>
        <time>2014-05-14T12:48:01.000Z</time>
      </trkpt>
      <trkpt lat="42.09856" lon="9.15708">
        <ele>1550.8000488281</ele>
        <time>2014-05-14T12:48:09.000Z</time>
      </trkpt>
      <trkpt lat="42.09854" lon="9.15708">
        <ele>1550.1999511719</ele>
        <time>2014-05-14T12:48:11.000Z</time>
      </trkpt>
      <trkpt lat="42.09853" lon="9.15708">
        <ele>1549.1999511719</ele>
        <time>2014-05-14T12:48:13.000Z</time>
      </trkpt>
      <trkpt lat="42.0985" lon="9.15705">
        <ele>1548.8000488281</ele>
        <time>2014-05-14T12:48:18.000Z</time>
      </trkpt>
      <trkpt lat="42.09846" lon="9.15702">
        <ele>1548.1999511719</ele>
        <time>2014-05-14T12:48:22.000Z</time>
      </trkpt>
      <trkpt lat="42.09844" lon="9.15701">
        <ele>1547.5999755859</ele>
        <time>2014-05-14T12:48:24.000Z</time>
      </trkpt>
      <trkpt lat="42.09839" lon="9.15698">
        <ele>1546</ele>
        <time>2014-05-14T12:48:29.000Z</time>
      </trkpt>
      <trkpt lat="42.09837" lon="9.15696">
        <ele>1545.5999755859</ele>
        <time>2014-05-14T12:48:31.000Z</time>
      </trkpt>
      <trkpt lat="42.09836" lon="9.15695">
        <ele>1545.4000244141</ele>
        <time>2014-05-14T12:48:33.000Z</time>
      </trkpt>
      <trkpt lat="42.09833" lon="9.15693">
        <ele>1544.8000488281</ele>
        <time>2014-05-14T12:48:36.000Z</time>
      </trkpt>
      <trkpt lat="42.09829" lon="9.15687">
        <ele>1544</ele>
        <time>2014-05-14T12:48:42.000Z</time>
      </trkpt>
      <trkpt lat="42.09828" lon="9.15686">
        <ele>1543.8000488281</ele>
        <time>2014-05-14T12:48:43.000Z</time>
      </trkpt>
      <trkpt lat="42.09824" lon="9.15675">
        <ele>1544.5999755859</ele>
        <time>2014-05-14T12:48:51.000Z</time>
      </trkpt>
      <trkpt lat="42.09822" lon="9.15667">
        <ele>1546.4000244141</ele>
        <time>2014-05-14T12:48:57.000Z</time>
      </trkpt>
      <trkpt lat="42.09822" lon="9.15663">
        <ele>1547.1999511719</ele>
        <time>2014-05-14T12:49:00.000Z</time>
      </trkpt>
      <trkpt lat="42.09821" lon="9.1566">
        <ele>1547.5999755859</ele>
        <time>2014-05-14T12:49:02.000Z</time>
      </trkpt>
      <trkpt lat="42.09819" lon="9.15653">
        <ele>1548.5999755859</ele>
        <time>2014-05-14T12:49:07.000Z</time>
      </trkpt>
      <trkpt lat="42.09819" lon="9.15651">
        <ele>1549.1999511719</ele>
        <time>2014-05-14T12:49:09.000Z</time>
      </trkpt>
      <trkpt lat="42.09818" lon="9.15647">
        <ele>1549.8000488281</ele>
        <time>2014-05-14T12:49:11.000Z</time>
      </trkpt>
      <trkpt lat="42.09819" lon="9.1564">
        <ele>1552</ele>
        <time>2014-05-14T12:49:16.000Z</time>
      </trkpt>
      <trkpt lat="42.09818" lon="9.15634">
        <ele>1553.1999511719</ele>
        <time>2014-05-14T12:49:20.000Z</time>
      </trkpt>
      <trkpt lat="42.09818" lon="9.15632">
        <ele>1553.4000244141</ele>
        <time>2014-05-14T12:49:21.000Z</time>
      </trkpt>
      <trkpt lat="42.09818" lon="9.15629">
        <ele>1554.1999511719</ele>
        <time>2014-05-14T12:49:23.000Z</time>
      </trkpt>
      <trkpt lat="42.09818" lon="9.15626">
        <ele>1555.1999511719</ele>
        <time>2014-05-14T12:49:25.000Z</time>
      </trkpt>
      <trkpt lat="42.09818" lon="9.15622">
        <ele>1556.1999511719</ele>
        <time>2014-05-14T12:49:29.000Z</time>
      </trkpt>
      <trkpt lat="42.09818" lon="9.15621">
        <ele>1556.1999511719</ele>
        <time>2014-05-14T12:49:30.000Z</time>
      </trkpt>
      <trkpt lat="42.09816" lon="9.15616">
        <ele>1556.8000488281</ele>
        <time>2014-05-14T12:49:36.000Z</time>
      </trkpt>
      <trkpt lat="42.09809" lon="9.15612">
        <ele>1555.4000244141</ele>
        <time>2014-05-14T12:49:44.000Z</time>
      </trkpt>
      <trkpt lat="42.09802" lon="9.15607">
        <ele>1554.4000244141</ele>
        <time>2014-05-14T12:49:52.000Z</time>
      </trkpt>
      <trkpt lat="42.09797" lon="9.15601">
        <ele>1554.8000488281</ele>
        <time>2014-05-14T12:49:59.000Z</time>
      </trkpt>
      <trkpt lat="42.09797" lon="9.15601">
        <ele>1554.8000488281</ele>
        <time>2014-05-14T12:50:00.000Z</time>
      </trkpt>
      <trkpt lat="42.09793" lon="9.15598">
        <ele>1554.5999755859</ele>
        <time>2014-05-14T12:50:04.000Z</time>
      </trkpt>
      <trkpt lat="42.09793" lon="9.15598">
        <ele>1554.4000244141</ele>
        <time>2014-05-14T12:50:05.000Z</time>
      </trkpt>
      <trkpt lat="42.0979" lon="9.15597">
        <ele>1554</ele>
        <time>2014-05-14T12:50:08.000Z</time>
      </trkpt>
      <trkpt lat="42.09789" lon="9.15597">
        <ele>1553.8000488281</ele>
        <time>2014-05-14T12:50:09.000Z</time>
      </trkpt>
      <trkpt lat="42.09785" lon="9.15594">
        <ele>1553</ele>
        <time>2014-05-14T12:50:15.000Z</time>
      </trkpt>
      <trkpt lat="42.09782" lon="9.15593">
        <ele>1552.4000244141</ele>
        <time>2014-05-14T12:50:19.000Z</time>
      </trkpt>
      <trkpt lat="42.09779" lon="9.15591">
        <ele>1551.8000488281</ele>
        <time>2014-05-14T12:50:22.000Z</time>
      </trkpt>
      <trkpt lat="42.09776" lon="9.15587">
        <ele>1552.4000244141</ele>
        <time>2014-05-14T12:50:27.000Z</time>
      </trkpt>
      <trkpt lat="42.09775" lon="9.15586">
        <ele>1552.4000244141</ele>
        <time>2014-05-14T12:50:28.000Z</time>
      </trkpt>
      <trkpt lat="42.09771" lon="9.15582">
        <ele>1552.1999511719</ele>
        <time>2014-05-14T12:50:34.000Z</time>
      </trkpt>
      <trkpt lat="42.0977" lon="9.15582">
        <ele>1552</ele>
        <time>2014-05-14T12:50:35.000Z</time>
      </trkpt>
      <trkpt lat="42.09766" lon="9.1558">
        <ele>1551.4000244141</ele>
        <time>2014-05-14T12:50:39.000Z</time>
      </trkpt>
      <trkpt lat="42.09765" lon="9.15579">
        <ele>1551.5999755859</ele>
        <time>2014-05-14T12:50:41.000Z</time>
      </trkpt>
      <trkpt lat="42.09761" lon="9.15575">
        <ele>1551.4000244141</ele>
        <time>2014-05-14T12:50:47.000Z</time>
      </trkpt>
      <trkpt lat="42.09758" lon="9.15572">
        <ele>1551.5999755859</ele>
        <time>2014-05-14T12:50:52.000Z</time>
      </trkpt>
      <trkpt lat="42.09756" lon="9.15566">
        <ele>1552.5999755859</ele>
        <time>2014-05-14T12:50:59.000Z</time>
      </trkpt>
      <trkpt lat="42.09754" lon="9.15561">
        <ele>1553.8000488281</ele>
        <time>2014-05-14T12:51:04.000Z</time>
      </trkpt>
      <trkpt lat="42.09753" lon="9.15558">
        <ele>1554.4000244141</ele>
        <time>2014-05-14T12:51:10.000Z</time>
      </trkpt>
      <trkpt lat="42.09747" lon="9.1555">
        <ele>1555.4000244141</ele>
        <time>2014-05-14T12:53:29.000Z</time>
      </trkpt>
      <trkpt lat="42.09744" lon="9.15541">
        <ele>1557.4000244141</ele>
        <time>2014-05-14T12:53:35.000Z</time>
      </trkpt>
      <trkpt lat="42.09739" lon="9.15531">
        <ele>1560</ele>
        <time>2014-05-14T12:53:40.000Z</time>
      </trkpt>
      <trkpt lat="42.09735" lon="9.15524">
        <ele>1561.4000244141</ele>
        <time>2014-05-14T12:53:46.000Z</time>
      </trkpt>
      <trkpt lat="42.09734" lon="9.15524">
        <ele>1561.1999511719</ele>
        <time>2014-05-14T12:53:47.000Z</time>
      </trkpt>
      <trkpt lat="42.09728" lon="9.15527">
        <ele>1559.4000244141</ele>
        <time>2014-05-14T12:53:54.000Z</time>
      </trkpt>
      <trkpt lat="42.09723" lon="9.15529">
        <ele>1557.5999755859</ele>
        <time>2014-05-14T12:54:01.000Z</time>
      </trkpt>
      <trkpt lat="42.09722" lon="9.1553">
        <ele>1557.1999511719</ele>
        <time>2014-05-14T12:54:02.000Z</time>
      </trkpt>
      <trkpt lat="42.09717" lon="9.15532">
        <ele>1555.4000244141</ele>
        <time>2014-05-14T12:54:08.000Z</time>
      </trkpt>
      <trkpt lat="42.09715" lon="9.15533">
        <ele>1554.8000488281</ele>
        <time>2014-05-14T12:54:10.000Z</time>
      </trkpt>
      <trkpt lat="42.09711" lon="9.15534">
        <ele>1553.4000244141</ele>
        <time>2014-05-14T12:54:15.000Z</time>
      </trkpt>
      <trkpt lat="42.09706" lon="9.15534">
        <ele>1552.4000244141</ele>
        <time>2014-05-14T12:54:20.000Z</time>
      </trkpt>
      <trkpt lat="42.09704" lon="9.15533">
        <ele>1552.4000244141</ele>
        <time>2014-05-14T12:54:22.000Z</time>
      </trkpt>
      <trkpt lat="42.097" lon="9.15531">
        <ele>1552.1999511719</ele>
        <time>2014-05-14T12:54:28.000Z</time>
      </trkpt>
      <trkpt lat="42.09698" lon="9.15531">
        <ele>1552</ele>
        <time>2014-05-14T12:54:30.000Z</time>
      </trkpt>
      <trkpt lat="42.09694" lon="9.15529">
        <ele>1552.1999511719</ele>
        <time>2014-05-14T12:54:36.000Z</time>
      </trkpt>
      <trkpt lat="42.09687" lon="9.15528">
        <ele>1551</ele>
        <time>2014-05-14T12:54:44.000Z</time>
      </trkpt>
      <trkpt lat="42.09684" lon="9.15527">
        <ele>1551</ele>
        <time>2014-05-14T12:54:47.000Z</time>
      </trkpt>
      <trkpt lat="42.09681" lon="9.15526">
        <ele>1550.4000244141</ele>
        <time>2014-05-14T12:54:51.000Z</time>
      </trkpt>
      <trkpt lat="42.09674" lon="9.15524">
        <ele>1549.5999755859</ele>
        <time>2014-05-14T12:54:59.000Z</time>
      </trkpt>
      <trkpt lat="42.09669" lon="9.15523">
        <ele>1548.8000488281</ele>
        <time>2014-05-14T12:55:06.000Z</time>
      </trkpt>
      <trkpt lat="42.09663" lon="9.15521">
        <ele>1548.4000244141</ele>
        <time>2014-05-14T12:55:13.000Z</time>
      </trkpt>
      <trkpt lat="42.09662" lon="9.1552">
        <ele>1548.5999755859</ele>
        <time>2014-05-14T12:55:14.000Z</time>
      </trkpt>
      <trkpt lat="42.09662" lon="9.15519">
        <ele>1548.8000488281</ele>
        <time>2014-05-14T12:55:19.000Z</time>
      </trkpt>
      <trkpt lat="42.09659" lon="9.15514">
        <ele>1549.5999755859</ele>
        <time>2014-05-14T12:55:26.000Z</time>
      </trkpt>
      <trkpt lat="42.09658" lon="9.15508">
        <ele>1551.1999511719</ele>
        <time>2014-05-14T12:55:33.000Z</time>
      </trkpt>
      <trkpt lat="42.09661" lon="9.15507">
        <ele>1552</ele>
        <time>2014-05-14T12:56:18.000Z</time>
      </trkpt>
      <trkpt lat="42.0966" lon="9.15504">
        <ele>1552.4000244141</ele>
        <time>2014-05-14T12:56:26.000Z</time>
      </trkpt>
      <trkpt lat="42.09662" lon="9.15505">
        <ele>1552.5999755859</ele>
        <time>2014-05-14T12:56:43.000Z</time>
      </trkpt>
      <trkpt lat="42.09662" lon="9.15504">
        <ele>1553</ele>
        <time>2014-05-14T12:57:37.000Z</time>
      </trkpt>
      <trkpt lat="42.09665" lon="9.15502">
        <ele>1554.1999511719</ele>
        <time>2014-05-14T12:58:04.000Z</time>
      </trkpt>
      <trkpt lat="42.09666" lon="9.15503">
        <ele>1554</ele>
        <time>2014-05-14T12:58:11.000Z</time>
      </trkpt>
      <trkpt lat="42.09663" lon="9.15503">
        <ele>1553.1999511719</ele>
        <time>2014-05-14T12:58:19.000Z</time>
      </trkpt>
      <trkpt lat="42.09663" lon="9.15505">
        <ele>1553</ele>
        <time>2014-05-14T12:58:24.000Z</time>
      </trkpt>
      <trkpt lat="42.09663" lon="9.15506">
        <ele>1552.5999755859</ele>
        <time>2014-05-14T12:58:39.000Z</time>
      </trkpt>
      <trkpt lat="42.09665" lon="9.15507">
        <ele>1552.8000488281</ele>
        <time>2014-05-14T12:58:44.000Z</time>
      </trkpt>
      <trkpt lat="42.09664" lon="9.15508">
        <ele>1552.1999511719</ele>
        <time>2014-05-14T12:59:03.000Z</time>
      </trkpt>
      <trkpt lat="42.09661" lon="9.15507">
        <ele>1551.8000488281</ele>
        <time>2014-05-14T12:59:32.000Z</time>
      </trkpt>
      <trkpt lat="42.09659" lon="9.15506">
        <ele>1551.8000488281</ele>
        <time>2014-05-14T12:59:37.000Z</time>
      </trkpt>
      <trkpt lat="42.09659" lon="9.15506">
        <ele>1551.8000488281</ele>
        <time>2014-05-14T12:59:40.000Z</time>
      </trkpt>
      <trkpt lat="42.09659" lon="9.15506">
        <ele>1551.8000488281</ele>
        <time>2014-05-14T12:59:46.000Z</time>
      </trkpt>
      <trkpt lat="42.09659" lon="9.15509">
        <ele>1551</ele>
        <time>2014-05-14T12:59:50.000Z</time>
      </trkpt>
      <trkpt lat="42.09659" lon="9.15509">
        <ele>1551</ele>
        <time>2014-05-14T13:00:01.000Z</time>
      </trkpt>
      <trkpt lat="42.09658" lon="9.15509">
        <ele>1551</ele>
        <time>2014-05-14T13:00:08.000Z</time>
      </trkpt>
      <trkpt lat="42.09663" lon="9.15501">
        <ele>1554.1999511719</ele>
        <time>2014-05-14T13:00:58.000Z</time>
      </trkpt>
      <trkpt lat="42.09662" lon="9.15497">
        <ele>1554.8000488281</ele>
        <time>2014-05-14T13:01:04.000Z</time>
      </trkpt>
      <trkpt lat="42.09661" lon="9.15492">
        <ele>1556</ele>
        <time>2014-05-14T13:01:09.000Z</time>
      </trkpt>
      <trkpt lat="42.0966" lon="9.15482">
        <ele>1558.5999755859</ele>
        <time>2014-05-14T13:01:17.000Z</time>
      </trkpt>
      <trkpt lat="42.09657" lon="9.15473">
        <ele>1560.5999755859</ele>
        <time>2014-05-14T13:01:23.000Z</time>
      </trkpt>
      <trkpt lat="42.09655" lon="9.15468">
        <ele>1562</ele>
        <time>2014-05-14T13:01:28.000Z</time>
      </trkpt>
      <trkpt lat="42.09655" lon="9.15465">
        <ele>1562.5999755859</ele>
        <time>2014-05-14T13:01:30.000Z</time>
      </trkpt>
      <trkpt lat="42.09654" lon="9.15463">
        <ele>1563</ele>
        <time>2014-05-14T13:01:33.000Z</time>
      </trkpt>
      <trkpt lat="42.09654" lon="9.15462">
        <ele>1563.1999511719</ele>
        <time>2014-05-14T13:01:35.000Z</time>
      </trkpt>
      <trkpt lat="42.09653" lon="9.15458">
        <ele>1564.4000244141</ele>
        <time>2014-05-14T13:01:40.000Z</time>
      </trkpt>
      <trkpt lat="42.09651" lon="9.15455">
        <ele>1565</ele>
        <time>2014-05-14T13:01:44.000Z</time>
      </trkpt>
      <trkpt lat="42.09648" lon="9.1545">
        <ele>1565.8000488281</ele>
        <time>2014-05-14T13:01:51.000Z</time>
      </trkpt>
      <trkpt lat="42.09645" lon="9.15446">
        <ele>1566.4000244141</ele>
        <time>2014-05-14T13:01:56.000Z</time>
      </trkpt>
      <trkpt lat="42.09641" lon="9.15443">
        <ele>1567</ele>
        <time>2014-05-14T13:02:03.000Z</time>
      </trkpt>
      <trkpt lat="42.09638" lon="9.15442">
        <ele>1566.8000488281</ele>
        <time>2014-05-14T13:02:10.000Z</time>
      </trkpt>
      <trkpt lat="42.09634" lon="9.15442">
        <ele>1566.4000244141</ele>
        <time>2014-05-14T13:02:15.000Z</time>
      </trkpt>
      <trkpt lat="42.09631" lon="9.15442">
        <ele>1566</ele>
        <time>2014-05-14T13:02:20.000Z</time>
      </trkpt>
      <trkpt lat="42.09629" lon="9.15441">
        <ele>1566.1999511719</ele>
        <time>2014-05-14T13:02:25.000Z</time>
      </trkpt>
      <trkpt lat="42.09625" lon="9.15439">
        <ele>1565.8000488281</ele>
        <time>2014-05-14T13:02:32.000Z</time>
      </trkpt>
      <trkpt lat="42.09621" lon="9.15439">
        <ele>1565.5999755859</ele>
        <time>2014-05-14T13:02:35.000Z</time>
      </trkpt>
      <trkpt lat="42.09621" lon="9.15439">
        <ele>1565.5999755859</ele>
        <time>2014-05-14T13:02:37.000Z</time>
      </trkpt>
      <trkpt lat="42.09619" lon="9.15438">
        <ele>1565.4000244141</ele>
        <time>2014-05-14T13:02:42.000Z</time>
      </trkpt>
      <trkpt lat="42.09617" lon="9.1544">
        <ele>1564.8000488281</ele>
        <time>2014-05-14T13:02:49.000Z</time>
      </trkpt>
      <trkpt lat="42.09615" lon="9.15441">
        <ele>1564</ele>
        <time>2014-05-14T13:02:53.000Z</time>
      </trkpt>
      <trkpt lat="42.09611" lon="9.15442">
        <ele>1563.1999511719</ele>
        <time>2014-05-14T13:02:58.000Z</time>
      </trkpt>
      <trkpt lat="42.09604" lon="9.15444">
        <ele>1561.8000488281</ele>
        <time>2014-05-14T13:03:04.000Z</time>
      </trkpt>
      <trkpt lat="42.09601" lon="9.15445">
        <ele>1561</ele>
        <time>2014-05-14T13:03:08.000Z</time>
      </trkpt>
      <trkpt lat="42.09599" lon="9.15445">
        <ele>1560.8000488281</ele>
        <time>2014-05-14T13:03:10.000Z</time>
      </trkpt>
      <trkpt lat="42.09592" lon="9.15445">
        <ele>1559.8000488281</ele>
        <time>2014-05-14T13:03:17.000Z</time>
      </trkpt>
      <trkpt lat="42.09589" lon="9.15446">
        <ele>1559.1999511719</ele>
        <time>2014-05-14T13:03:20.000Z</time>
      </trkpt>
      <trkpt lat="42.09587" lon="9.15444">
        <ele>1559.5999755859</ele>
        <time>2014-05-14T13:03:23.000Z</time>
      </trkpt>
      <trkpt lat="42.09583" lon="9.15441">
        <ele>1559.8000488281</ele>
        <time>2014-05-14T13:03:27.000Z</time>
      </trkpt>
      <trkpt lat="42.09578" lon="9.15438">
        <ele>1560.1999511719</ele>
        <time>2014-05-14T13:03:34.000Z</time>
      </trkpt>
      <trkpt lat="42.09577" lon="9.15438">
        <ele>1560.1999511719</ele>
        <time>2014-05-14T13:03:40.000Z</time>
      </trkpt>
      <trkpt lat="42.0958" lon="9.1544">
        <ele>1559.8000488281</ele>
        <time>2014-05-14T13:03:45.000Z</time>
      </trkpt>
      <trkpt lat="42.09579" lon="9.15439">
        <ele>1560</ele>
        <time>2014-05-14T13:03:50.000Z</time>
      </trkpt>
      <trkpt lat="42.09577" lon="9.15438">
        <ele>1560</ele>
        <time>2014-05-14T13:03:56.000Z</time>
      </trkpt>
      <trkpt lat="42.09571" lon="9.15436">
        <ele>1560.5999755859</ele>
        <time>2014-05-14T13:04:02.000Z</time>
      </trkpt>
      <trkpt lat="42.0957" lon="9.15436">
        <ele>1560.5999755859</ele>
        <time>2014-05-14T13:04:03.000Z</time>
      </trkpt>
      <trkpt lat="42.09567" lon="9.15435">
        <ele>1561</ele>
        <time>2014-05-14T13:04:06.000Z</time>
      </trkpt>
      <trkpt lat="42.09566" lon="9.15436">
        <ele>1561</ele>
        <time>2014-05-14T13:04:08.000Z</time>
      </trkpt>
      <trkpt lat="42.0956" lon="9.15435">
        <ele>1561.4000244141</ele>
        <time>2014-05-14T13:04:17.000Z</time>
      </trkpt>
      <trkpt lat="42.09555" lon="9.15432">
        <ele>1562.5999755859</ele>
        <time>2014-05-14T13:04:23.000Z</time>
      </trkpt>
      <trkpt lat="42.09553" lon="9.15431">
        <ele>1563</ele>
        <time>2014-05-14T13:04:25.000Z</time>
      </trkpt>
      <trkpt lat="42.09549" lon="9.15428">
        <ele>1564</ele>
        <time>2014-05-14T13:04:30.000Z</time>
      </trkpt>
      <trkpt lat="42.09547" lon="9.15426">
        <ele>1564.8000488281</ele>
        <time>2014-05-14T13:04:33.000Z</time>
      </trkpt>
      <trkpt lat="42.09546" lon="9.15423">
        <ele>1565.4000244141</ele>
        <time>2014-05-14T13:04:35.000Z</time>
      </trkpt>
      <trkpt lat="42.09545" lon="9.15422">
        <ele>1565.8000488281</ele>
        <time>2014-05-14T13:04:36.000Z</time>
      </trkpt>
      <trkpt lat="42.09539" lon="9.15414">
        <ele>1568.4000244141</ele>
        <time>2014-05-14T13:04:45.000Z</time>
      </trkpt>
      <trkpt lat="42.09536" lon="9.15411">
        <ele>1569.1999511719</ele>
        <time>2014-05-14T13:04:51.000Z</time>
      </trkpt>
      <trkpt lat="42.09525" lon="9.15414">
        <ele>1569</ele>
        <time>2014-05-14T13:06:13.000Z</time>
      </trkpt>
      <trkpt lat="42.09522" lon="9.15412">
        <ele>1569.8000488281</ele>
        <time>2014-05-14T13:06:18.000Z</time>
      </trkpt>
      <trkpt lat="42.09522" lon="9.15412">
        <ele>1569.5999755859</ele>
        <time>2014-05-14T13:06:24.000Z</time>
      </trkpt>
      <trkpt lat="42.09523" lon="9.15411">
        <ele>1570</ele>
        <time>2014-05-14T13:06:30.000Z</time>
      </trkpt>
      <trkpt lat="42.09522" lon="9.15409">
        <ele>1570.5999755859</ele>
        <time>2014-05-14T13:06:34.000Z</time>
      </trkpt>
      <trkpt lat="42.09519" lon="9.15409">
        <ele>1570.8000488281</ele>
        <time>2014-05-14T13:06:41.000Z</time>
      </trkpt>
      <trkpt lat="42.09516" lon="9.15407">
        <ele>1571.4000244141</ele>
        <time>2014-05-14T13:06:47.000Z</time>
      </trkpt>
      <trkpt lat="42.09515" lon="9.15407">
        <ele>1571.4000244141</ele>
        <time>2014-05-14T13:07:06.000Z</time>
      </trkpt>
      <trkpt lat="42.09513" lon="9.15406">
        <ele>1571.8000488281</ele>
        <time>2014-05-14T13:07:14.000Z</time>
      </trkpt>
      <trkpt lat="42.09511" lon="9.15407">
        <ele>1571.5999755859</ele>
        <time>2014-05-14T13:07:20.000Z</time>
      </trkpt>
      <trkpt lat="42.09509" lon="9.15409">
        <ele>1571.4000244141</ele>
        <time>2014-05-14T13:07:28.000Z</time>
      </trkpt>
      <trkpt lat="42.09507" lon="9.1541">
        <ele>1571.1999511719</ele>
        <time>2014-05-14T13:07:32.000Z</time>
      </trkpt>
      <trkpt lat="42.09506" lon="9.15413">
        <ele>1570.5999755859</ele>
        <time>2014-05-14T13:07:36.000Z</time>
      </trkpt>
      <trkpt lat="42.09505" lon="9.15415">
        <ele>1570</ele>
        <time>2014-05-14T13:07:40.000Z</time>
      </trkpt>
      <trkpt lat="42.09502" lon="9.15415">
        <ele>1570</ele>
        <time>2014-05-14T13:07:58.000Z</time>
      </trkpt>
      <trkpt lat="42.09504" lon="9.15419">
        <ele>1569</ele>
        <time>2014-05-14T13:08:13.000Z</time>
      </trkpt>
      <trkpt lat="42.09508" lon="9.15417">
        <ele>1569.1999511719</ele>
        <time>2014-05-14T13:08:20.000Z</time>
      </trkpt>
      <trkpt lat="42.09511" lon="9.15421">
        <ele>1568</ele>
        <time>2014-05-14T13:08:33.000Z</time>
      </trkpt>
      <trkpt lat="42.09508" lon="9.15427">
        <ele>1566.8000488281</ele>
        <time>2014-05-14T13:08:39.000Z</time>
      </trkpt>
      <trkpt lat="42.09508" lon="9.15429">
        <ele>1566.1999511719</ele>
        <time>2014-05-14T13:08:41.000Z</time>
      </trkpt>
      <trkpt lat="42.09508" lon="9.15433">
        <ele>1565</ele>
        <time>2014-05-14T13:08:44.000Z</time>
      </trkpt>
      <trkpt lat="42.09506" lon="9.15443">
        <ele>1562.5999755859</ele>
        <time>2014-05-14T13:08:50.000Z</time>
      </trkpt>
      <trkpt lat="42.09503" lon="9.15449">
        <ele>1560.4000244141</ele>
        <time>2014-05-14T13:08:56.000Z</time>
      </trkpt>
      <trkpt lat="42.095" lon="9.15452">
        <ele>1559.4000244141</ele>
        <time>2014-05-14T13:08:59.000Z</time>
      </trkpt>
      <trkpt lat="42.09499" lon="9.15454">
        <ele>1558.8000488281</ele>
        <time>2014-05-14T13:09:01.000Z</time>
      </trkpt>
      <trkpt lat="42.09497" lon="9.1546">
        <ele>1557.4000244141</ele>
        <time>2014-05-14T13:09:07.000Z</time>
      </trkpt>
      <trkpt lat="42.09496" lon="9.15464">
        <ele>1556.1999511719</ele>
        <time>2014-05-14T13:09:11.000Z</time>
      </trkpt>
      <trkpt lat="42.09494" lon="9.15469">
        <ele>1554.8000488281</ele>
        <time>2014-05-14T13:09:16.000Z</time>
      </trkpt>
      <trkpt lat="42.09491" lon="9.15472">
        <ele>1554.5999755859</ele>
        <time>2014-05-14T13:09:19.000Z</time>
      </trkpt>
      <trkpt lat="42.09488" lon="9.15475">
        <ele>1554.4000244141</ele>
        <time>2014-05-14T13:09:22.000Z</time>
      </trkpt>
      <trkpt lat="42.09488" lon="9.15475">
        <ele>1554.1999511719</ele>
        <time>2014-05-14T13:09:23.000Z</time>
      </trkpt>
      <trkpt lat="42.09487" lon="9.15478">
        <ele>1553.5999755859</ele>
        <time>2014-05-14T13:09:26.000Z</time>
      </trkpt>
      <trkpt lat="42.09486" lon="9.15482">
        <ele>1553</ele>
        <time>2014-05-14T13:09:30.000Z</time>
      </trkpt>
      <trkpt lat="42.09486" lon="9.15483">
        <ele>1552.8000488281</ele>
        <time>2014-05-14T13:09:31.000Z</time>
      </trkpt>
      <trkpt lat="42.09486" lon="9.15485">
        <ele>1551.8000488281</ele>
        <time>2014-05-14T13:09:35.000Z</time>
      </trkpt>
      <trkpt lat="42.09484" lon="9.15489">
        <ele>1551</ele>
        <time>2014-05-14T13:09:39.000Z</time>
      </trkpt>
      <trkpt lat="42.09483" lon="9.15494">
        <ele>1549.8000488281</ele>
        <time>2014-05-14T13:09:44.000Z</time>
      </trkpt>
      <trkpt lat="42.09482" lon="9.15497">
        <ele>1549.4000244141</ele>
        <time>2014-05-14T13:09:46.000Z</time>
      </trkpt>
      <trkpt lat="42.09478" lon="9.15505">
        <ele>1548</ele>
        <time>2014-05-14T13:09:51.000Z</time>
      </trkpt>
      <trkpt lat="42.09478" lon="9.15507">
        <ele>1547.4000244141</ele>
        <time>2014-05-14T13:09:53.000Z</time>
      </trkpt>
      <trkpt lat="42.09478" lon="9.1551">
        <ele>1546.4000244141</ele>
        <time>2014-05-14T13:09:56.000Z</time>
      </trkpt>
      <trkpt lat="42.09476" lon="9.15517">
        <ele>1545.4000244141</ele>
        <time>2014-05-14T13:10:02.000Z</time>
      </trkpt>
      <trkpt lat="42.09473" lon="9.15526">
        <ele>1545</ele>
        <time>2014-05-14T13:10:09.000Z</time>
      </trkpt>
      <trkpt lat="42.0947" lon="9.15532">
        <ele>1544.4000244141</ele>
        <time>2014-05-14T13:10:13.000Z</time>
      </trkpt>
      <trkpt lat="42.09468" lon="9.15538">
        <ele>1543.4000244141</ele>
        <time>2014-05-14T13:10:17.000Z</time>
      </trkpt>
      <trkpt lat="42.09466" lon="9.15548">
        <ele>1541</ele>
        <time>2014-05-14T13:10:23.000Z</time>
      </trkpt>
      <trkpt lat="42.09464" lon="9.15556">
        <ele>1539.4000244141</ele>
        <time>2014-05-14T13:10:29.000Z</time>
      </trkpt>
      <trkpt lat="42.09463" lon="9.15558">
        <ele>1538.8000488281</ele>
        <time>2014-05-14T13:10:31.000Z</time>
      </trkpt>
      <trkpt lat="42.09462" lon="9.15559">
        <ele>1538.8000488281</ele>
        <time>2014-05-14T13:10:32.000Z</time>
      </trkpt>
      <trkpt lat="42.09459" lon="9.15567">
        <ele>1537.8000488281</ele>
        <time>2014-05-14T13:10:38.000Z</time>
      </trkpt>
      <trkpt lat="42.09459" lon="9.15568">
        <ele>1537.5999755859</ele>
        <time>2014-05-14T13:10:39.000Z</time>
      </trkpt>
      <trkpt lat="42.09453" lon="9.15574">
        <ele>1538.1999511719</ele>
        <time>2014-05-14T13:10:45.000Z</time>
      </trkpt>
      <trkpt lat="42.0945" lon="9.15576">
        <ele>1538.5999755859</ele>
        <time>2014-05-14T13:10:48.000Z</time>
      </trkpt>
      <trkpt lat="42.09447" lon="9.15579">
        <ele>1538.8000488281</ele>
        <time>2014-05-14T13:10:52.000Z</time>
      </trkpt>
      <trkpt lat="42.09444" lon="9.15584">
        <ele>1538.1999511719</ele>
        <time>2014-05-14T13:10:57.000Z</time>
      </trkpt>
      <trkpt lat="42.0944" lon="9.1559">
        <ele>1538</ele>
        <time>2014-05-14T13:11:02.000Z</time>
      </trkpt>
      <trkpt lat="42.09436" lon="9.15597">
        <ele>1537.1999511719</ele>
        <time>2014-05-14T13:11:09.000Z</time>
      </trkpt>
      <trkpt lat="42.09436" lon="9.15597">
        <ele>1537.1999511719</ele>
        <time>2014-05-14T13:11:10.000Z</time>
      </trkpt>
      <trkpt lat="42.09435" lon="9.156">
        <ele>1536.5999755859</ele>
        <time>2014-05-14T13:11:15.000Z</time>
      </trkpt>
      <trkpt lat="42.09433" lon="9.15605">
        <ele>1535.4000244141</ele>
        <time>2014-05-14T13:11:21.000Z</time>
      </trkpt>
      <trkpt lat="42.09431" lon="9.15611">
        <ele>1534.4000244141</ele>
        <time>2014-05-14T13:11:26.000Z</time>
      </trkpt>
      <trkpt lat="42.09429" lon="9.15616">
        <ele>1533.5999755859</ele>
        <time>2014-05-14T13:11:30.000Z</time>
      </trkpt>
      <trkpt lat="42.09427" lon="9.15621">
        <ele>1533</ele>
        <time>2014-05-14T13:11:34.000Z</time>
      </trkpt>
      <trkpt lat="42.09427" lon="9.15622">
        <ele>1532.5999755859</ele>
        <time>2014-05-14T13:11:35.000Z</time>
      </trkpt>
      <trkpt lat="42.09427" lon="9.15626">
        <ele>1531.8000488281</ele>
        <time>2014-05-14T13:11:39.000Z</time>
      </trkpt>
      <trkpt lat="42.09426" lon="9.15626">
        <ele>1531.8000488281</ele>
        <time>2014-05-14T13:11:40.000Z</time>
      </trkpt>
      <trkpt lat="42.09424" lon="9.15633">
        <ele>1530.8000488281</ele>
        <time>2014-05-14T13:11:47.000Z</time>
      </trkpt>
      <trkpt lat="42.09422" lon="9.15636">
        <ele>1530.4000244141</ele>
        <time>2014-05-14T13:11:52.000Z</time>
      </trkpt>
      <trkpt lat="42.09415" lon="9.15643">
        <ele>1530.5999755859</ele>
        <time>2014-05-14T13:11:59.000Z</time>
      </trkpt>
      <trkpt lat="42.0941" lon="9.1565">
        <ele>1530.5999755859</ele>
        <time>2014-05-14T13:12:06.000Z</time>
      </trkpt>
      <trkpt lat="42.09408" lon="9.15651">
        <ele>1530.8000488281</ele>
        <time>2014-05-14T13:12:08.000Z</time>
      </trkpt>
      <trkpt lat="42.09404" lon="9.15655">
        <ele>1530.5999755859</ele>
        <time>2014-05-14T13:12:12.000Z</time>
      </trkpt>
      <trkpt lat="42.094" lon="9.15665">
        <ele>1528.1999511719</ele>
        <time>2014-05-14T13:12:34.000Z</time>
      </trkpt>
      <trkpt lat="42.09397" lon="9.15669">
        <ele>1528</ele>
        <time>2014-05-14T13:12:37.000Z</time>
      </trkpt>
      <trkpt lat="42.09396" lon="9.15669">
        <ele>1528</ele>
        <time>2014-05-14T13:12:38.000Z</time>
      </trkpt>
      <trkpt lat="42.09391" lon="9.15671">
        <ele>1528.8000488281</ele>
        <time>2014-05-14T13:12:42.000Z</time>
      </trkpt>
      <trkpt lat="42.09389" lon="9.15673">
        <ele>1529</ele>
        <time>2014-05-14T13:12:44.000Z</time>
      </trkpt>
      <trkpt lat="42.09384" lon="9.15676">
        <ele>1528.4000244141</ele>
        <time>2014-05-14T13:12:48.000Z</time>
      </trkpt>
      <trkpt lat="42.09384" lon="9.15677">
        <ele>1527.8000488281</ele>
        <time>2014-05-14T13:12:49.000Z</time>
      </trkpt>
      <trkpt lat="42.09377" lon="9.15683">
        <ele>1526.5999755859</ele>
        <time>2014-05-14T13:12:56.000Z</time>
      </trkpt>
      <trkpt lat="42.0937" lon="9.15687">
        <ele>1525.8000488281</ele>
        <time>2014-05-14T13:13:03.000Z</time>
      </trkpt>
      <trkpt lat="42.09364" lon="9.1569">
        <ele>1525</ele>
        <time>2014-05-14T13:13:09.000Z</time>
      </trkpt>
      <trkpt lat="42.09364" lon="9.15691">
        <ele>1525</ele>
        <time>2014-05-14T13:13:10.000Z</time>
      </trkpt>
      <trkpt lat="42.09362" lon="9.15695">
        <ele>1523.5999755859</ele>
        <time>2014-05-14T13:13:14.000Z</time>
      </trkpt>
      <trkpt lat="42.09362" lon="9.15695">
        <ele>1523.4000244141</ele>
        <time>2014-05-14T13:13:15.000Z</time>
      </trkpt>
      <trkpt lat="42.09361" lon="9.15695">
        <ele>1523.5999755859</ele>
        <time>2014-05-14T13:13:16.000Z</time>
      </trkpt>
      <trkpt lat="42.09359" lon="9.15695">
        <ele>1523.8000488281</ele>
        <time>2014-05-14T13:13:18.000Z</time>
      </trkpt>
      <trkpt lat="42.09353" lon="9.15699">
        <ele>1523.5999755859</ele>
        <time>2014-05-14T13:13:26.000Z</time>
      </trkpt>
      <trkpt lat="42.09352" lon="9.15699">
        <ele>1523.4000244141</ele>
        <time>2014-05-14T13:13:28.000Z</time>
      </trkpt>
      <trkpt lat="42.0935" lon="9.157">
        <ele>1523.4000244141</ele>
        <time>2014-05-14T13:13:31.000Z</time>
      </trkpt>
      <trkpt lat="42.09348" lon="9.15703">
        <ele>1523</ele>
        <time>2014-05-14T13:13:35.000Z</time>
      </trkpt>
      <trkpt lat="42.09344" lon="9.15708">
        <ele>1521.5999755859</ele>
        <time>2014-05-14T13:13:41.000Z</time>
      </trkpt>
      <trkpt lat="42.09341" lon="9.15712">
        <ele>1520.1999511719</ele>
        <time>2014-05-14T13:13:46.000Z</time>
      </trkpt>
      <trkpt lat="42.09339" lon="9.15716">
        <ele>1518.1999511719</ele>
        <time>2014-05-14T13:13:52.000Z</time>
      </trkpt>
      <trkpt lat="42.09337" lon="9.15718">
        <ele>1517.4000244141</ele>
        <time>2014-05-14T13:13:57.000Z</time>
      </trkpt>
      <trkpt lat="42.09331" lon="9.15718">
        <ele>1517.5999755859</ele>
        <time>2014-05-14T13:14:04.000Z</time>
      </trkpt>
      <trkpt lat="42.09328" lon="9.15721">
        <ele>1516.5999755859</ele>
        <time>2014-05-14T13:14:09.000Z</time>
      </trkpt>
      <trkpt lat="42.09323" lon="9.15723">
        <ele>1515.8000488281</ele>
        <time>2014-05-14T13:14:14.000Z</time>
      </trkpt>
      <trkpt lat="42.0932" lon="9.15726">
        <ele>1515</ele>
        <time>2014-05-14T13:14:18.000Z</time>
      </trkpt>
      <trkpt lat="42.09319" lon="9.15727">
        <ele>1515</ele>
        <time>2014-05-14T13:14:19.000Z</time>
      </trkpt>
      <trkpt lat="42.09314" lon="9.1573">
        <ele>1514</ele>
        <time>2014-05-14T13:14:23.000Z</time>
      </trkpt>
      <trkpt lat="42.09309" lon="9.15733">
        <ele>1513</ele>
        <time>2014-05-14T13:14:28.000Z</time>
      </trkpt>
      <trkpt lat="42.09308" lon="9.15734">
        <ele>1512.8000488281</ele>
        <time>2014-05-14T13:14:29.000Z</time>
      </trkpt>
      <trkpt lat="42.09303" lon="9.15737">
        <ele>1512.1999511719</ele>
        <time>2014-05-14T13:14:34.000Z</time>
      </trkpt>
      <trkpt lat="42.09299" lon="9.1574">
        <ele>1511</ele>
        <time>2014-05-14T13:14:39.000Z</time>
      </trkpt>
      <trkpt lat="42.09298" lon="9.15741">
        <ele>1511</ele>
        <time>2014-05-14T13:14:40.000Z</time>
      </trkpt>
      <trkpt lat="42.09296" lon="9.15743">
        <ele>1510.4000244141</ele>
        <time>2014-05-14T13:14:44.000Z</time>
      </trkpt>
      <trkpt lat="42.09294" lon="9.15744">
        <ele>1509.8000488281</ele>
        <time>2014-05-14T13:14:46.000Z</time>
      </trkpt>
      <trkpt lat="42.09292" lon="9.15747">
        <ele>1509.1999511719</ele>
        <time>2014-05-14T13:14:49.000Z</time>
      </trkpt>
      <trkpt lat="42.09287" lon="9.15752">
        <ele>1508.5999755859</ele>
        <time>2014-05-14T13:14:54.000Z</time>
      </trkpt>
      <trkpt lat="42.09282" lon="9.15756">
        <ele>1508.1999511719</ele>
        <time>2014-05-14T13:15:00.000Z</time>
      </trkpt>
      <trkpt lat="42.0928" lon="9.15758">
        <ele>1508.1999511719</ele>
        <time>2014-05-14T13:15:03.000Z</time>
      </trkpt>
      <trkpt lat="42.09279" lon="9.15761">
        <ele>1507.4000244141</ele>
        <time>2014-05-14T13:15:05.000Z</time>
      </trkpt>
      <trkpt lat="42.09277" lon="9.15764">
        <ele>1506.5999755859</ele>
        <time>2014-05-14T13:15:07.000Z</time>
      </trkpt>
      <trkpt lat="42.09273" lon="9.15767">
        <ele>1506.4000244141</ele>
        <time>2014-05-14T13:15:11.000Z</time>
      </trkpt>
      <trkpt lat="42.0927" lon="9.1577">
        <ele>1505.8000488281</ele>
        <time>2014-05-14T13:15:16.000Z</time>
      </trkpt>
      <trkpt lat="42.09268" lon="9.15774">
        <ele>1504.8000488281</ele>
        <time>2014-05-14T13:15:21.000Z</time>
      </trkpt>
      <trkpt lat="42.09267" lon="9.15778">
        <ele>1503.8000488281</ele>
        <time>2014-05-14T13:15:24.000Z</time>
      </trkpt>
      <trkpt lat="42.09266" lon="9.15778">
        <ele>1503.5999755859</ele>
        <time>2014-05-14T13:15:25.000Z</time>
      </trkpt>
      <trkpt lat="42.09263" lon="9.15782">
        <ele>1503.4000244141</ele>
        <time>2014-05-14T13:15:29.000Z</time>
      </trkpt>
      <trkpt lat="42.0926" lon="9.15786">
        <ele>1502.5999755859</ele>
        <time>2014-05-14T13:15:34.000Z</time>
      </trkpt>
      <trkpt lat="42.09255" lon="9.15792">
        <ele>1502</ele>
        <time>2014-05-14T13:15:40.000Z</time>
      </trkpt>
      <trkpt lat="42.0925" lon="9.15797">
        <ele>1501</ele>
        <time>2014-05-14T13:15:47.000Z</time>
      </trkpt>
      <trkpt lat="42.09246" lon="9.15801">
        <ele>1500</ele>
        <time>2014-05-14T13:15:51.000Z</time>
      </trkpt>
      <trkpt lat="42.09237" lon="9.15807">
        <ele>1498.5999755859</ele>
        <time>2014-05-14T13:15:59.000Z</time>
      </trkpt>
      <trkpt lat="42.09237" lon="9.15807">
        <ele>1498.1999511719</ele>
        <time>2014-05-14T13:16:00.000Z</time>
      </trkpt>
      <trkpt lat="42.09234" lon="9.1581">
        <ele>1497.5999755859</ele>
        <time>2014-05-14T13:16:04.000Z</time>
      </trkpt>
      <trkpt lat="42.09233" lon="9.1581">
        <ele>1497.4000244141</ele>
        <time>2014-05-14T13:16:05.000Z</time>
      </trkpt>
      <trkpt lat="42.09232" lon="9.15812">
        <ele>1497</ele>
        <time>2014-05-14T13:16:07.000Z</time>
      </trkpt>
      <trkpt lat="42.09227" lon="9.15814">
        <ele>1496.1999511719</ele>
        <time>2014-05-14T13:16:11.000Z</time>
      </trkpt>
      <trkpt lat="42.09223" lon="9.15815">
        <ele>1496.1999511719</ele>
        <time>2014-05-14T13:16:14.000Z</time>
      </trkpt>
      <trkpt lat="42.09221" lon="9.15817">
        <ele>1495.5999755859</ele>
        <time>2014-05-14T13:16:16.000Z</time>
      </trkpt>
      <trkpt lat="42.09213" lon="9.1582">
        <ele>1494.8000488281</ele>
        <time>2014-05-14T13:16:22.000Z</time>
      </trkpt>
      <trkpt lat="42.09204" lon="9.15823">
        <ele>1494.4000244141</ele>
        <time>2014-05-14T13:16:30.000Z</time>
      </trkpt>
      <trkpt lat="42.09198" lon="9.15824">
        <ele>1495.1999511719</ele>
        <time>2014-05-14T13:16:36.000Z</time>
      </trkpt>
      <trkpt lat="42.09193" lon="9.15826">
        <ele>1495.5999755859</ele>
        <time>2014-05-14T13:16:42.000Z</time>
      </trkpt>
      <trkpt lat="42.09191" lon="9.15826">
        <ele>1495.8000488281</ele>
        <time>2014-05-14T13:16:43.000Z</time>
      </trkpt>
      <trkpt lat="42.0919" lon="9.15826">
        <ele>1496</ele>
        <time>2014-05-14T13:16:44.000Z</time>
      </trkpt>
      <trkpt lat="42.09186" lon="9.15827">
        <ele>1496.4000244141</ele>
        <time>2014-05-14T13:16:48.000Z</time>
      </trkpt>
      <trkpt lat="42.09177" lon="9.15829">
        <ele>1497.4000244141</ele>
        <time>2014-05-14T13:16:55.000Z</time>
      </trkpt>
      <trkpt lat="42.09175" lon="9.1583">
        <ele>1497.5999755859</ele>
        <time>2014-05-14T13:16:57.000Z</time>
      </trkpt>
      <trkpt lat="42.09167" lon="9.15831">
        <ele>1498.8000488281</ele>
        <time>2014-05-14T13:17:03.000Z</time>
      </trkpt>
      <trkpt lat="42.09165" lon="9.15831">
        <ele>1499</ele>
        <time>2014-05-14T13:17:05.000Z</time>
      </trkpt>
      <trkpt lat="42.09158" lon="9.15832">
        <ele>1498.8000488281</ele>
        <time>2014-05-14T13:17:12.000Z</time>
      </trkpt>
      <trkpt lat="42.09149" lon="9.15832">
        <ele>1494.8000488281</ele>
        <time>2014-05-14T13:17:19.000Z</time>
      </trkpt>
      <trkpt lat="42.09145" lon="9.15832">
        <ele>1492.5999755859</ele>
        <time>2014-05-14T13:17:23.000Z</time>
      </trkpt>
      <trkpt lat="42.09143" lon="9.15832">
        <ele>1491.4000244141</ele>
        <time>2014-05-14T13:17:25.000Z</time>
      </trkpt>
      <trkpt lat="42.09137" lon="9.1583">
        <ele>1489</ele>
        <time>2014-05-14T13:17:32.000Z</time>
      </trkpt>
      <trkpt lat="42.09133" lon="9.15825">
        <ele>1489.1999511719</ele>
        <time>2014-05-14T13:17:38.000Z</time>
      </trkpt>
      <trkpt lat="42.09129" lon="9.15824">
        <ele>1487.4000244141</ele>
        <time>2014-05-14T13:17:42.000Z</time>
      </trkpt>
      <trkpt lat="42.09128" lon="9.15823">
        <ele>1487.1999511719</ele>
        <time>2014-05-14T13:17:43.000Z</time>
      </trkpt>
      <trkpt lat="42.09126" lon="9.15822">
        <ele>1486.5999755859</ele>
        <time>2014-05-14T13:17:45.000Z</time>
      </trkpt>
      <trkpt lat="42.09123" lon="9.1582">
        <ele>1485.8000488281</ele>
        <time>2014-05-14T13:17:48.000Z</time>
      </trkpt>
      <trkpt lat="42.09118" lon="9.15816">
        <ele>1484.1999511719</ele>
        <time>2014-05-14T13:17:54.000Z</time>
      </trkpt>
      <trkpt lat="42.09113" lon="9.15809">
        <ele>1484.1999511719</ele>
        <time>2014-05-14T13:18:01.000Z</time>
      </trkpt>
      <trkpt lat="42.09113" lon="9.15808">
        <ele>1484.1999511719</ele>
        <time>2014-05-14T13:18:02.000Z</time>
      </trkpt>
      <trkpt lat="42.09109" lon="9.15805">
        <ele>1483.5999755859</ele>
        <time>2014-05-14T13:18:07.000Z</time>
      </trkpt>
      <trkpt lat="42.09108" lon="9.15805">
        <ele>1482.5999755859</ele>
        <time>2014-05-14T13:18:09.000Z</time>
      </trkpt>
      <trkpt lat="42.09107" lon="9.15805">
        <ele>1482.1999511719</ele>
        <time>2014-05-14T13:18:10.000Z</time>
      </trkpt>
      <trkpt lat="42.09105" lon="9.15803">
        <ele>1481.8000488281</ele>
        <time>2014-05-14T13:18:12.000Z</time>
      </trkpt>
      <trkpt lat="42.09103" lon="9.15799">
        <ele>1482.1999511719</ele>
        <time>2014-05-14T13:18:16.000Z</time>
      </trkpt>
      <trkpt lat="42.09101" lon="9.15794">
        <ele>1482.8000488281</ele>
        <time>2014-05-14T13:18:20.000Z</time>
      </trkpt>
      <trkpt lat="42.091" lon="9.15792">
        <ele>1483</ele>
        <time>2014-05-14T13:18:22.000Z</time>
      </trkpt>
      <trkpt lat="42.09099" lon="9.15784">
        <ele>1484.8000488281</ele>
        <time>2014-05-14T13:18:27.000Z</time>
      </trkpt>
      <trkpt lat="42.09097" lon="9.15775">
        <ele>1486</ele>
        <time>2014-05-14T13:18:34.000Z</time>
      </trkpt>
      <trkpt lat="42.09095" lon="9.1577">
        <ele>1485.4000244141</ele>
        <time>2014-05-14T13:18:38.000Z</time>
      </trkpt>
      <trkpt lat="42.09094" lon="9.15767">
        <ele>1485.4000244141</ele>
        <time>2014-05-14T13:18:41.000Z</time>
      </trkpt>
      <trkpt lat="42.09092" lon="9.15764">
        <ele>1484.5999755859</ele>
        <time>2014-05-14T13:18:45.000Z</time>
      </trkpt>
      <trkpt lat="42.09091" lon="9.15762">
        <ele>1484.1999511719</ele>
        <time>2014-05-14T13:18:47.000Z</time>
      </trkpt>
      <trkpt lat="42.09088" lon="9.15757">
        <ele>1483.1999511719</ele>
        <time>2014-05-14T13:18:51.000Z</time>
      </trkpt>
      <trkpt lat="42.09086" lon="9.15753">
        <ele>1482.5999755859</ele>
        <time>2014-05-14T13:18:54.000Z</time>
      </trkpt>
      <trkpt lat="42.09082" lon="9.15742">
        <ele>1481.8000488281</ele>
        <time>2014-05-14T13:19:02.000Z</time>
      </trkpt>
      <trkpt lat="42.09081" lon="9.15735">
        <ele>1481.4000244141</ele>
        <time>2014-05-14T13:19:07.000Z</time>
      </trkpt>
      <trkpt lat="42.0908" lon="9.15732">
        <ele>1481.4000244141</ele>
        <time>2014-05-14T13:19:09.000Z</time>
      </trkpt>
      <trkpt lat="42.09078" lon="9.15724">
        <ele>1481.1999511719</ele>
        <time>2014-05-14T13:19:15.000Z</time>
      </trkpt>
      <trkpt lat="42.09078" lon="9.15724">
        <ele>1481.1999511719</ele>
        <time>2014-05-14T13:19:16.000Z</time>
      </trkpt>
      <trkpt lat="42.09075" lon="9.15718">
        <ele>1479.8000488281</ele>
        <time>2014-05-14T13:20:27.000Z</time>
      </trkpt>
      <trkpt lat="42.09074" lon="9.15711">
        <ele>1480</ele>
        <time>2014-05-14T13:20:38.000Z</time>
      </trkpt>
      <trkpt lat="42.09074" lon="9.15702">
        <ele>1480.4000244141</ele>
        <time>2014-05-14T13:20:45.000Z</time>
      </trkpt>
      <trkpt lat="42.09072" lon="9.15693">
        <ele>1479.8000488281</ele>
        <time>2014-05-14T13:20:51.000Z</time>
      </trkpt>
      <trkpt lat="42.09071" lon="9.15688">
        <ele>1479.1999511719</ele>
        <time>2014-05-14T13:20:55.000Z</time>
      </trkpt>
      <trkpt lat="42.09071" lon="9.15685">
        <ele>1478.8000488281</ele>
        <time>2014-05-14T13:20:57.000Z</time>
      </trkpt>
      <trkpt lat="42.09071" lon="9.15673">
        <ele>1478.4000244141</ele>
        <time>2014-05-14T13:21:05.000Z</time>
      </trkpt>
      <trkpt lat="42.09071" lon="9.1567">
        <ele>1478.4000244141</ele>
        <time>2014-05-14T13:21:07.000Z</time>
      </trkpt>
      <trkpt lat="42.09072" lon="9.15666">
        <ele>1478.5999755859</ele>
        <time>2014-05-14T13:21:09.000Z</time>
      </trkpt>
      <trkpt lat="42.09072" lon="9.15663">
        <ele>1478.5999755859</ele>
        <time>2014-05-14T13:21:11.000Z</time>
      </trkpt>
      <trkpt lat="42.09072" lon="9.1566">
        <ele>1478.4000244141</ele>
        <time>2014-05-14T13:21:13.000Z</time>
      </trkpt>
      <trkpt lat="42.09073" lon="9.15655">
        <ele>1478.1999511719</ele>
        <time>2014-05-14T13:21:16.000Z</time>
      </trkpt>
      <trkpt lat="42.09072" lon="9.15648">
        <ele>1477.5999755859</ele>
        <time>2014-05-14T13:21:21.000Z</time>
      </trkpt>
      <trkpt lat="42.09072" lon="9.15647">
        <ele>1477.4000244141</ele>
        <time>2014-05-14T13:21:22.000Z</time>
      </trkpt>
      <trkpt lat="42.09073" lon="9.1564">
        <ele>1477.5999755859</ele>
        <time>2014-05-14T13:21:27.000Z</time>
      </trkpt>
      <trkpt lat="42.09075" lon="9.1563">
        <ele>1478.1999511719</ele>
        <time>2014-05-14T13:21:34.000Z</time>
      </trkpt>
      <trkpt lat="42.09076" lon="9.1562">
        <ele>1478.4000244141</ele>
        <time>2014-05-14T13:21:41.000Z</time>
      </trkpt>
      <trkpt lat="42.09076" lon="9.15619">
        <ele>1478.1999511719</ele>
        <time>2014-05-14T13:21:42.000Z</time>
      </trkpt>
      <trkpt lat="42.09077" lon="9.15613">
        <ele>1478.5999755859</ele>
        <time>2014-05-14T13:21:47.000Z</time>
      </trkpt>
      <trkpt lat="42.09078" lon="9.15606">
        <ele>1478.4000244141</ele>
        <time>2014-05-14T13:21:52.000Z</time>
      </trkpt>
      <trkpt lat="42.09078" lon="9.15604">
        <ele>1478.1999511719</ele>
        <time>2014-05-14T13:21:54.000Z</time>
      </trkpt>
      <trkpt lat="42.0908" lon="9.15595">
        <ele>1479</ele>
        <time>2014-05-14T13:22:00.000Z</time>
      </trkpt>
      <trkpt lat="42.09082" lon="9.15586">
        <ele>1479</ele>
        <time>2014-05-14T13:22:06.000Z</time>
      </trkpt>
      <trkpt lat="42.09084" lon="9.15576">
        <ele>1479.4000244141</ele>
        <time>2014-05-14T13:22:13.000Z</time>
      </trkpt>
      <trkpt lat="42.09084" lon="9.15573">
        <ele>1479.4000244141</ele>
        <time>2014-05-14T13:22:15.000Z</time>
      </trkpt>
      <trkpt lat="42.09087" lon="9.15566">
        <ele>1480.5999755859</ele>
        <time>2014-05-14T13:22:20.000Z</time>
      </trkpt>
      <trkpt lat="42.09088" lon="9.15564">
        <ele>1481</ele>
        <time>2014-05-14T13:22:22.000Z</time>
      </trkpt>
      <trkpt lat="42.0909" lon="9.1556">
        <ele>1481.8000488281</ele>
        <time>2014-05-14T13:22:25.000Z</time>
      </trkpt>
      <trkpt lat="42.09093" lon="9.15553">
        <ele>1483</ele>
        <time>2014-05-14T13:22:31.000Z</time>
      </trkpt>
      <trkpt lat="42.09094" lon="9.15548">
        <ele>1483.4000244141</ele>
        <time>2014-05-14T13:22:36.000Z</time>
      </trkpt>
      <trkpt lat="42.09094" lon="9.15547">
        <ele>1483.5999755859</ele>
        <time>2014-05-14T13:22:37.000Z</time>
      </trkpt>
      <trkpt lat="42.09094" lon="9.15546">
        <ele>1483.5999755859</ele>
        <time>2014-05-14T13:22:38.000Z</time>
      </trkpt>
      <trkpt lat="42.09094" lon="9.15542">
        <ele>1483</ele>
        <time>2014-05-14T13:22:42.000Z</time>
      </trkpt>
      <trkpt lat="42.09093" lon="9.15535">
        <ele>1482.4000244141</ele>
        <time>2014-05-14T13:22:49.000Z</time>
      </trkpt>
      <trkpt lat="42.09093" lon="9.15529">
        <ele>1482.1999511719</ele>
        <time>2014-05-14T13:22:54.000Z</time>
      </trkpt>
      <trkpt lat="42.09093" lon="9.15522">
        <ele>1482.1999511719</ele>
        <time>2014-05-14T13:23:00.000Z</time>
      </trkpt>
      <trkpt lat="42.09093" lon="9.15521">
        <ele>1482.1999511719</ele>
        <time>2014-05-14T13:23:01.000Z</time>
      </trkpt>
      <trkpt lat="42.09093" lon="9.15516">
        <ele>1482.1999511719</ele>
        <time>2014-05-14T13:23:05.000Z</time>
      </trkpt>
      <trkpt lat="42.09093" lon="9.15513">
        <ele>1481.5999755859</ele>
        <time>2014-05-14T13:23:08.000Z</time>
      </trkpt>
      <trkpt lat="42.09092" lon="9.15508">
        <ele>1481</ele>
        <time>2014-05-14T13:23:12.000Z</time>
      </trkpt>
      <trkpt lat="42.09093" lon="9.15504">
        <ele>1481.5999755859</ele>
        <time>2014-05-14T13:23:15.000Z</time>
      </trkpt>
      <trkpt lat="42.09093" lon="9.15503">
        <ele>1481.4000244141</ele>
        <time>2014-05-14T13:23:16.000Z</time>
      </trkpt>
      <trkpt lat="42.09093" lon="9.15498">
        <ele>1481.5999755859</ele>
        <time>2014-05-14T13:23:20.000Z</time>
      </trkpt>
      <trkpt lat="42.09093" lon="9.15495">
        <ele>1481.4000244141</ele>
        <time>2014-05-14T13:23:22.000Z</time>
      </trkpt>
      <trkpt lat="42.09092" lon="9.15494">
        <ele>1481.1999511719</ele>
        <time>2014-05-14T13:23:23.000Z</time>
      </trkpt>
      <trkpt lat="42.09092" lon="9.15487">
        <ele>1480.5999755859</ele>
        <time>2014-05-14T13:23:29.000Z</time>
      </trkpt>
      <trkpt lat="42.09092" lon="9.15483">
        <ele>1480.5999755859</ele>
        <time>2014-05-14T13:23:32.000Z</time>
      </trkpt>
      <trkpt lat="42.09091" lon="9.15482">
        <ele>1480.1999511719</ele>
        <time>2014-05-14T13:23:33.000Z</time>
      </trkpt>
      <trkpt lat="42.09091" lon="9.15478">
        <ele>1479.8000488281</ele>
        <time>2014-05-14T13:23:35.000Z</time>
      </trkpt>
      <trkpt lat="42.0909" lon="9.15476">
        <ele>1479.4000244141</ele>
        <time>2014-05-14T13:23:37.000Z</time>
      </trkpt>
      <trkpt lat="42.09089" lon="9.15468">
        <ele>1478.5999755859</ele>
        <time>2014-05-14T13:23:42.000Z</time>
      </trkpt>
      <trkpt lat="42.09088" lon="9.1546">
        <ele>1477.5999755859</ele>
        <time>2014-05-14T13:23:48.000Z</time>
      </trkpt>
      <trkpt lat="42.09087" lon="9.15453">
        <ele>1476.8000488281</ele>
        <time>2014-05-14T13:23:54.000Z</time>
      </trkpt>
      <trkpt lat="42.09087" lon="9.15452">
        <ele>1476.1999511719</ele>
        <time>2014-05-14T13:23:58.000Z</time>
      </trkpt>
      <trkpt lat="42.09085" lon="9.15444">
        <ele>1474.8000488281</ele>
        <time>2014-05-14T13:24:06.000Z</time>
      </trkpt>
      <trkpt lat="42.09085" lon="9.15442">
        <ele>1474.4000244141</ele>
        <time>2014-05-14T13:24:08.000Z</time>
      </trkpt>
      <trkpt lat="42.09085" lon="9.15438">
        <ele>1474.1999511719</ele>
        <time>2014-05-14T13:24:11.000Z</time>
      </trkpt>
      <trkpt lat="42.09083" lon="9.15432">
        <ele>1472.5999755859</ele>
        <time>2014-05-14T13:24:16.000Z</time>
      </trkpt>
      <trkpt lat="42.09082" lon="9.15428">
        <ele>1472</ele>
        <time>2014-05-14T13:24:19.000Z</time>
      </trkpt>
      <trkpt lat="42.09081" lon="9.15424">
        <ele>1471.1999511719</ele>
        <time>2014-05-14T13:24:22.000Z</time>
      </trkpt>
      <trkpt lat="42.09079" lon="9.15415">
        <ele>1469.8000488281</ele>
        <time>2014-05-14T13:24:28.000Z</time>
      </trkpt>
      <trkpt lat="42.09079" lon="9.15414">
        <ele>1469.4000244141</ele>
        <time>2014-05-14T13:24:29.000Z</time>
      </trkpt>
      <trkpt lat="42.09077" lon="9.15407">
        <ele>1467.5999755859</ele>
        <time>2014-05-14T13:24:35.000Z</time>
      </trkpt>
      <trkpt lat="42.09075" lon="9.154">
        <ele>1467.1999511719</ele>
        <time>2014-05-14T13:24:40.000Z</time>
      </trkpt>
      <trkpt lat="42.09075" lon="9.15399">
        <ele>1467.1999511719</ele>
        <time>2014-05-14T13:24:41.000Z</time>
      </trkpt>
      <trkpt lat="42.09073" lon="9.15394">
        <ele>1466.8000488281</ele>
        <time>2014-05-14T13:24:45.000Z</time>
      </trkpt>
      <trkpt lat="42.09073" lon="9.15392">
        <ele>1466.5999755859</ele>
        <time>2014-05-14T13:24:47.000Z</time>
      </trkpt>
      <trkpt lat="42.09072" lon="9.15389">
        <ele>1466.4000244141</ele>
        <time>2014-05-14T13:24:50.000Z</time>
      </trkpt>
      <trkpt lat="42.09071" lon="9.15388">
        <ele>1466.1999511719</ele>
        <time>2014-05-14T13:24:52.000Z</time>
      </trkpt>
      <trkpt lat="42.09067" lon="9.15379">
        <ele>1465.1999511719</ele>
        <time>2014-05-14T13:24:58.000Z</time>
      </trkpt>
      <trkpt lat="42.09067" lon="9.15366">
        <ele>1464.8000488281</ele>
        <time>2014-05-14T13:25:06.000Z</time>
      </trkpt>
      <trkpt lat="42.09066" lon="9.15362">
        <ele>1464.5999755859</ele>
        <time>2014-05-14T13:25:09.000Z</time>
      </trkpt>
      <trkpt lat="42.09066" lon="9.15358">
        <ele>1465.4000244141</ele>
        <time>2014-05-14T13:25:12.000Z</time>
      </trkpt>
      <trkpt lat="42.09065" lon="9.15355">
        <ele>1466.4000244141</ele>
        <time>2014-05-14T13:25:14.000Z</time>
      </trkpt>
      <trkpt lat="42.09062" lon="9.15344">
        <ele>1469.8000488281</ele>
        <time>2014-05-14T13:25:22.000Z</time>
      </trkpt>
      <trkpt lat="42.09061" lon="9.15341">
        <ele>1470.1999511719</ele>
        <time>2014-05-14T13:25:24.000Z</time>
      </trkpt>
      <trkpt lat="42.09059" lon="9.15334">
        <ele>1471.4000244141</ele>
        <time>2014-05-14T13:25:30.000Z</time>
      </trkpt>
      <trkpt lat="42.09058" lon="9.15331">
        <ele>1471.8000488281</ele>
        <time>2014-05-14T13:25:32.000Z</time>
      </trkpt>
      <trkpt lat="42.09057" lon="9.15325">
        <ele>1472.5999755859</ele>
        <time>2014-05-14T13:25:36.000Z</time>
      </trkpt>
      <trkpt lat="42.09057" lon="9.15319">
        <ele>1473.4000244141</ele>
        <time>2014-05-14T13:25:40.000Z</time>
      </trkpt>
      <trkpt lat="42.09056" lon="9.15317">
        <ele>1473.8000488281</ele>
        <time>2014-05-14T13:25:42.000Z</time>
      </trkpt>
      <trkpt lat="42.09055" lon="9.15316">
        <ele>1474</ele>
        <time>2014-05-14T13:25:43.000Z</time>
      </trkpt>
      <trkpt lat="42.09052" lon="9.15315">
        <ele>1474.5999755859</ele>
        <time>2014-05-14T13:25:48.000Z</time>
      </trkpt>
      <trkpt lat="42.0905" lon="9.15313">
        <ele>1475</ele>
        <time>2014-05-14T13:25:51.000Z</time>
      </trkpt>
      <trkpt lat="42.09049" lon="9.15314">
        <ele>1475</ele>
        <time>2014-05-14T13:25:53.000Z</time>
      </trkpt>
      <trkpt lat="42.09047" lon="9.15313">
        <ele>1475.4000244141</ele>
        <time>2014-05-14T13:25:59.000Z</time>
      </trkpt>
      <trkpt lat="42.09044" lon="9.15314">
        <ele>1475.4000244141</ele>
        <time>2014-05-14T13:26:07.000Z</time>
      </trkpt>
      <trkpt lat="42.09041" lon="9.15323">
        <ele>1474.8000488281</ele>
        <time>2014-05-14T13:26:14.000Z</time>
      </trkpt>
      <trkpt lat="42.09042" lon="9.15326">
        <ele>1474.1999511719</ele>
        <time>2014-05-14T13:26:18.000Z</time>
      </trkpt>
      <trkpt lat="42.09041" lon="9.15334">
        <ele>1471.1999511719</ele>
        <time>2014-05-14T13:26:22.000Z</time>
      </trkpt>
      <trkpt lat="42.09041" lon="9.15338">
        <ele>1469.8000488281</ele>
        <time>2014-05-14T13:26:25.000Z</time>
      </trkpt>
      <trkpt lat="42.09041" lon="9.1534">
        <ele>1468.8000488281</ele>
        <time>2014-05-14T13:26:27.000Z</time>
      </trkpt>
      <trkpt lat="42.09042" lon="9.1535">
        <ele>1465.4000244141</ele>
        <time>2014-05-14T13:26:33.000Z</time>
      </trkpt>
      <trkpt lat="42.09042" lon="9.1535">
        <ele>1465</ele>
        <time>2014-05-14T13:26:34.000Z</time>
      </trkpt>
      <trkpt lat="42.09041" lon="9.15355">
        <ele>1463</ele>
        <time>2014-05-14T13:26:38.000Z</time>
      </trkpt>
      <trkpt lat="42.09042" lon="9.15361">
        <ele>1461</ele>
        <time>2014-05-14T13:26:42.000Z</time>
      </trkpt>
      <trkpt lat="42.09042" lon="9.15362">
        <ele>1461</ele>
        <time>2014-05-14T13:26:43.000Z</time>
      </trkpt>
      <trkpt lat="42.09041" lon="9.15364">
        <ele>1461</ele>
        <time>2014-05-14T13:26:44.000Z</time>
      </trkpt>
      <trkpt lat="42.09041" lon="9.15372">
        <ele>1461.1999511719</ele>
        <time>2014-05-14T13:26:49.000Z</time>
      </trkpt>
      <trkpt lat="42.09042" lon="9.15379">
        <ele>1461.5999755859</ele>
        <time>2014-05-14T13:26:55.000Z</time>
      </trkpt>
      <trkpt lat="42.09042" lon="9.1538">
        <ele>1461.5999755859</ele>
        <time>2014-05-14T13:26:56.000Z</time>
      </trkpt>
      <trkpt lat="42.0904" lon="9.15382">
        <ele>1461.5999755859</ele>
        <time>2014-05-14T13:27:01.000Z</time>
      </trkpt>
      <trkpt lat="42.09041" lon="9.15386">
        <ele>1461.8000488281</ele>
        <time>2014-05-14T13:27:06.000Z</time>
      </trkpt>
      <trkpt lat="42.09041" lon="9.15389">
        <ele>1462</ele>
        <time>2014-05-14T13:27:11.000Z</time>
      </trkpt>
      <trkpt lat="42.09038" lon="9.15388">
        <ele>1461.4000244141</ele>
        <time>2014-05-14T13:27:17.000Z</time>
      </trkpt>
      <trkpt lat="42.09037" lon="9.15387">
        <ele>1461.1999511719</ele>
        <time>2014-05-14T13:27:18.000Z</time>
      </trkpt>
      <trkpt lat="42.09034" lon="9.15385">
        <ele>1460.8000488281</ele>
        <time>2014-05-14T13:27:22.000Z</time>
      </trkpt>
      <trkpt lat="42.09032" lon="9.15384">
        <ele>1460.4000244141</ele>
        <time>2014-05-14T13:27:23.000Z</time>
      </trkpt>
      <trkpt lat="42.09031" lon="9.15384">
        <ele>1460.1999511719</ele>
        <time>2014-05-14T13:27:24.000Z</time>
      </trkpt>
      <trkpt lat="42.09027" lon="9.15377">
        <ele>1459.4000244141</ele>
        <time>2014-05-14T13:27:30.000Z</time>
      </trkpt>
      <trkpt lat="42.09025" lon="9.15374">
        <ele>1459</ele>
        <time>2014-05-14T13:27:33.000Z</time>
      </trkpt>
      <trkpt lat="42.09023" lon="9.15371">
        <ele>1458.8000488281</ele>
        <time>2014-05-14T13:27:36.000Z</time>
      </trkpt>
      <trkpt lat="42.09023" lon="9.15368">
        <ele>1458.4000244141</ele>
        <time>2014-05-14T13:27:39.000Z</time>
      </trkpt>
      <trkpt lat="42.09022" lon="9.15366">
        <ele>1458.4000244141</ele>
        <time>2014-05-14T13:27:40.000Z</time>
      </trkpt>
      <trkpt lat="42.09019" lon="9.1536">
        <ele>1458.1999511719</ele>
        <time>2014-05-14T13:27:46.000Z</time>
      </trkpt>
      <trkpt lat="42.09013" lon="9.15347">
        <ele>1462.4000244141</ele>
        <time>2014-05-14T13:28:32.000Z</time>
      </trkpt>
      <trkpt lat="42.09011" lon="9.15345">
        <ele>1462.8000488281</ele>
        <time>2014-05-14T13:28:37.000Z</time>
      </trkpt>
      <trkpt lat="42.09011" lon="9.15345">
        <ele>1462.8000488281</ele>
        <time>2014-05-14T13:28:38.000Z</time>
      </trkpt>
      <trkpt lat="42.09014" lon="9.15339">
        <ele>1465.4000244141</ele>
        <time>2014-05-14T13:29:13.000Z</time>
      </trkpt>
      <trkpt lat="42.09013" lon="9.15337">
        <ele>1466.1999511719</ele>
        <time>2014-05-14T13:29:22.000Z</time>
      </trkpt>
      <trkpt lat="42.09012" lon="9.15337">
        <ele>1466</ele>
        <time>2014-05-14T13:29:56.000Z</time>
      </trkpt>
      <trkpt lat="42.09015" lon="9.15335">
        <ele>1467</ele>
        <time>2014-05-14T13:32:51.000Z</time>
      </trkpt>
      <trkpt lat="42.09012" lon="9.1534">
        <ele>1464.8000488281</ele>
        <time>2014-05-14T13:32:57.000Z</time>
      </trkpt>
      <trkpt lat="42.09011" lon="9.15342">
        <ele>1463.5999755859</ele>
        <time>2014-05-14T13:33:01.000Z</time>
      </trkpt>
      <trkpt lat="42.09007" lon="9.15347">
        <ele>1461.1999511719</ele>
        <time>2014-05-14T13:33:08.000Z</time>
      </trkpt>
      <trkpt lat="42.09006" lon="9.15353">
        <ele>1458.8000488281</ele>
        <time>2014-05-14T13:33:14.000Z</time>
      </trkpt>
      <trkpt lat="42.09002" lon="9.15357">
        <ele>1456.8000488281</ele>
        <time>2014-05-14T13:33:20.000Z</time>
      </trkpt>
      <trkpt lat="42.09" lon="9.15358">
        <ele>1456</ele>
        <time>2014-05-14T13:33:26.000Z</time>
      </trkpt>
      <trkpt lat="42.08994" lon="9.15363">
        <ele>1454.1999511719</ele>
        <time>2014-05-14T13:33:32.000Z</time>
      </trkpt>
      <trkpt lat="42.08988" lon="9.15367">
        <ele>1453.8000488281</ele>
        <time>2014-05-14T13:33:38.000Z</time>
      </trkpt>
      <trkpt lat="42.08987" lon="9.15367">
        <ele>1454</ele>
        <time>2014-05-14T13:33:39.000Z</time>
      </trkpt>
      <trkpt lat="42.08986" lon="9.15366">
        <ele>1454.1999511719</ele>
        <time>2014-05-14T13:33:40.000Z</time>
      </trkpt>
      <trkpt lat="42.08985" lon="9.15367">
        <ele>1454.4000244141</ele>
        <time>2014-05-14T13:33:46.000Z</time>
      </trkpt>
      <trkpt lat="42.08981" lon="9.15374">
        <ele>1453.8000488281</ele>
        <time>2014-05-14T13:34:07.000Z</time>
      </trkpt>
      <trkpt lat="42.0898" lon="9.15375">
        <ele>1453.8000488281</ele>
        <time>2014-05-14T13:34:08.000Z</time>
      </trkpt>
      <trkpt lat="42.08975" lon="9.15377">
        <ele>1454.4000244141</ele>
        <time>2014-05-14T13:34:13.000Z</time>
      </trkpt>
      <trkpt lat="42.08971" lon="9.15377">
        <ele>1455</ele>
        <time>2014-05-14T13:34:17.000Z</time>
      </trkpt>
      <trkpt lat="42.08971" lon="9.15377">
        <ele>1455</ele>
        <time>2014-05-14T13:34:19.000Z</time>
      </trkpt>
      <trkpt lat="42.08968" lon="9.15379">
        <ele>1455</ele>
        <time>2014-05-14T13:34:29.000Z</time>
      </trkpt>
      <trkpt lat="42.08964" lon="9.15382">
        <ele>1455.4000244141</ele>
        <time>2014-05-14T13:34:34.000Z</time>
      </trkpt>
      <trkpt lat="42.08962" lon="9.15383">
        <ele>1455.5999755859</ele>
        <time>2014-05-14T13:34:36.000Z</time>
      </trkpt>
      <trkpt lat="42.08957" lon="9.15386">
        <ele>1455.8000488281</ele>
        <time>2014-05-14T13:34:43.000Z</time>
      </trkpt>
      <trkpt lat="42.08952" lon="9.15388">
        <ele>1456.4000244141</ele>
        <time>2014-05-14T13:34:48.000Z</time>
      </trkpt>
      <trkpt lat="42.08951" lon="9.15388">
        <ele>1456.5999755859</ele>
        <time>2014-05-14T13:34:50.000Z</time>
      </trkpt>
      <trkpt lat="42.08949" lon="9.15388">
        <ele>1456.8000488281</ele>
        <time>2014-05-14T13:34:52.000Z</time>
      </trkpt>
      <trkpt lat="42.08946" lon="9.15388">
        <ele>1457.4000244141</ele>
        <time>2014-05-14T13:34:56.000Z</time>
      </trkpt>
      <trkpt lat="42.08942" lon="9.1539">
        <ele>1457.8000488281</ele>
        <time>2014-05-14T13:35:02.000Z</time>
      </trkpt>
      <trkpt lat="42.08939" lon="9.1539">
        <ele>1458.1999511719</ele>
        <time>2014-05-14T13:35:05.000Z</time>
      </trkpt>
      <trkpt lat="42.08935" lon="9.15392">
        <ele>1457.8000488281</ele>
        <time>2014-05-14T13:35:08.000Z</time>
      </trkpt>
      <trkpt lat="42.08926" lon="9.15393">
        <ele>1457.4000244141</ele>
        <time>2014-05-14T13:35:17.000Z</time>
      </trkpt>
      <trkpt lat="42.08921" lon="9.15396">
        <ele>1456.4000244141</ele>
        <time>2014-05-14T13:35:23.000Z</time>
      </trkpt>
      <trkpt lat="42.08915" lon="9.15399">
        <ele>1455.5999755859</ele>
        <time>2014-05-14T13:35:29.000Z</time>
      </trkpt>
      <trkpt lat="42.08913" lon="9.154">
        <ele>1455.4000244141</ele>
        <time>2014-05-14T13:35:33.000Z</time>
      </trkpt>
      <trkpt lat="42.0891" lon="9.15401">
        <ele>1455</ele>
        <time>2014-05-14T13:35:36.000Z</time>
      </trkpt>
      <trkpt lat="42.08908" lon="9.15402">
        <ele>1455.4000244141</ele>
        <time>2014-05-14T13:35:38.000Z</time>
      </trkpt>
      <trkpt lat="42.08904" lon="9.15405">
        <ele>1455.5999755859</ele>
        <time>2014-05-14T13:35:42.000Z</time>
      </trkpt>
      <trkpt lat="42.08903" lon="9.15406">
        <ele>1455.5999755859</ele>
        <time>2014-05-14T13:35:43.000Z</time>
      </trkpt>
      <trkpt lat="42.08894" lon="9.1541">
        <ele>1457.8000488281</ele>
        <time>2014-05-14T13:35:51.000Z</time>
      </trkpt>
      <trkpt lat="42.08891" lon="9.15411">
        <ele>1458.8000488281</ele>
        <time>2014-05-14T13:35:54.000Z</time>
      </trkpt>
      <trkpt lat="42.08886" lon="9.15415">
        <ele>1459</ele>
        <time>2014-05-14T13:35:59.000Z</time>
      </trkpt>
      <trkpt lat="42.08878" lon="9.1542">
        <ele>1459.5999755859</ele>
        <time>2014-05-14T13:36:07.000Z</time>
      </trkpt>
      <trkpt lat="42.08871" lon="9.15425">
        <ele>1460.1999511719</ele>
        <time>2014-05-14T13:36:15.000Z</time>
      </trkpt>
      <trkpt lat="42.08868" lon="9.15427">
        <ele>1460.4000244141</ele>
        <time>2014-05-14T13:36:20.000Z</time>
      </trkpt>
      <trkpt lat="42.08862" lon="9.15432">
        <ele>1460.8000488281</ele>
        <time>2014-05-14T13:36:27.000Z</time>
      </trkpt>
      <trkpt lat="42.08861" lon="9.15432">
        <ele>1460.8000488281</ele>
        <time>2014-05-14T13:36:28.000Z</time>
      </trkpt>
      <trkpt lat="42.08857" lon="9.15435">
        <ele>1461</ele>
        <time>2014-05-14T13:36:34.000Z</time>
      </trkpt>
      <trkpt lat="42.08855" lon="9.15437">
        <ele>1461</ele>
        <time>2014-05-14T13:36:36.000Z</time>
      </trkpt>
      <trkpt lat="42.08851" lon="9.15439">
        <ele>1461.4000244141</ele>
        <time>2014-05-14T13:36:41.000Z</time>
      </trkpt>
      <trkpt lat="42.08849" lon="9.15441">
        <ele>1461.1999511719</ele>
        <time>2014-05-14T13:36:43.000Z</time>
      </trkpt>
      <trkpt lat="42.08848" lon="9.15442">
        <ele>1461.1999511719</ele>
        <time>2014-05-14T13:36:45.000Z</time>
      </trkpt>
      <trkpt lat="42.08847" lon="9.15442">
        <ele>1461.1999511719</ele>
        <time>2014-05-14T13:36:46.000Z</time>
      </trkpt>
      <trkpt lat="42.08845" lon="9.15444">
        <ele>1461.1999511719</ele>
        <time>2014-05-14T13:36:48.000Z</time>
      </trkpt>
      <trkpt lat="42.08845" lon="9.15445">
        <ele>1461</ele>
        <time>2014-05-14T13:36:49.000Z</time>
      </trkpt>
      <trkpt lat="42.08841" lon="9.15452">
        <ele>1460.4000244141</ele>
        <time>2014-05-14T13:36:55.000Z</time>
      </trkpt>
      <trkpt lat="42.08836" lon="9.15458">
        <ele>1459.8000488281</ele>
        <time>2014-05-14T13:37:01.000Z</time>
      </trkpt>
      <trkpt lat="42.08829" lon="9.15466">
        <ele>1458.4000244141</ele>
        <time>2014-05-14T13:37:09.000Z</time>
      </trkpt>
      <trkpt lat="42.08829" lon="9.15467">
        <ele>1458.1999511719</ele>
        <time>2014-05-14T13:37:10.000Z</time>
      </trkpt>
      <trkpt lat="42.08827" lon="9.1547">
        <ele>1457.4000244141</ele>
        <time>2014-05-14T13:37:13.000Z</time>
      </trkpt>
      <trkpt lat="42.08825" lon="9.15472">
        <ele>1457.4000244141</ele>
        <time>2014-05-14T13:37:15.000Z</time>
      </trkpt>
      <trkpt lat="42.08823" lon="9.15474">
        <ele>1457.1999511719</ele>
        <time>2014-05-14T13:37:17.000Z</time>
      </trkpt>
      <trkpt lat="42.0882" lon="9.15478">
        <ele>1457.1999511719</ele>
        <time>2014-05-14T13:37:21.000Z</time>
      </trkpt>
      <trkpt lat="42.08816" lon="9.15484">
        <ele>1456.8000488281</ele>
        <time>2014-05-14T13:37:27.000Z</time>
      </trkpt>
      <trkpt lat="42.08809" lon="9.15491">
        <ele>1457</ele>
        <time>2014-05-14T13:37:34.000Z</time>
      </trkpt>
      <trkpt lat="42.08808" lon="9.15491">
        <ele>1457.4000244141</ele>
        <time>2014-05-14T13:37:36.000Z</time>
      </trkpt>
      <trkpt lat="42.08805" lon="9.15494">
        <ele>1457.8000488281</ele>
        <time>2014-05-14T13:37:40.000Z</time>
      </trkpt>
      <trkpt lat="42.08804" lon="9.15494">
        <ele>1458.1999511719</ele>
        <time>2014-05-14T13:37:41.000Z</time>
      </trkpt>
      <trkpt lat="42.08802" lon="9.15495">
        <ele>1458.5999755859</ele>
        <time>2014-05-14T13:37:43.000Z</time>
      </trkpt>
      <trkpt lat="42.08795" lon="9.15498">
        <ele>1460.1999511719</ele>
        <time>2014-05-14T13:37:49.000Z</time>
      </trkpt>
      <trkpt lat="42.08792" lon="9.155">
        <ele>1460</ele>
        <time>2014-05-14T13:37:52.000Z</time>
      </trkpt>
      <trkpt lat="42.08791" lon="9.155">
        <ele>1460.1999511719</ele>
        <time>2014-05-14T13:37:53.000Z</time>
      </trkpt>
      <trkpt lat="42.0879" lon="9.15501">
        <ele>1460.4000244141</ele>
        <time>2014-05-14T13:37:54.000Z</time>
      </trkpt>
      <trkpt lat="42.08787" lon="9.15502">
        <ele>1461</ele>
        <time>2014-05-14T13:37:58.000Z</time>
      </trkpt>
      <trkpt lat="42.08783" lon="9.15503">
        <ele>1461.5999755859</ele>
        <time>2014-05-14T13:38:01.000Z</time>
      </trkpt>
      <trkpt lat="42.08775" lon="9.15507">
        <ele>1462.1999511719</ele>
        <time>2014-05-14T13:38:09.000Z</time>
      </trkpt>
      <trkpt lat="42.08771" lon="9.15511">
        <ele>1461.5999755859</ele>
        <time>2014-05-14T13:38:15.000Z</time>
      </trkpt>
      <trkpt lat="42.08766" lon="9.15508">
        <ele>1464.8000488281</ele>
        <time>2014-05-14T13:39:05.000Z</time>
      </trkpt>
      <trkpt lat="42.08763" lon="9.15514">
        <ele>1463</ele>
        <time>2014-05-14T13:39:09.000Z</time>
      </trkpt>
      <trkpt lat="42.08761" lon="9.15517">
        <ele>1462</ele>
        <time>2014-05-14T13:39:11.000Z</time>
      </trkpt>
      <trkpt lat="42.0876" lon="9.1552">
        <ele>1461</ele>
        <time>2014-05-14T13:39:13.000Z</time>
      </trkpt>
      <trkpt lat="42.08758" lon="9.15523">
        <ele>1460.4000244141</ele>
        <time>2014-05-14T13:39:15.000Z</time>
      </trkpt>
      <trkpt lat="42.08757" lon="9.15525">
        <ele>1459.5999755859</ele>
        <time>2014-05-14T13:39:17.000Z</time>
      </trkpt>
      <trkpt lat="42.08757" lon="9.15525">
        <ele>1459.5999755859</ele>
        <time>2014-05-14T13:39:18.000Z</time>
      </trkpt>
      <trkpt lat="42.08755" lon="9.15528">
        <ele>1459.1999511719</ele>
        <time>2014-05-14T13:39:20.000Z</time>
      </trkpt>
      <trkpt lat="42.08753" lon="9.15529">
        <ele>1459.1999511719</ele>
        <time>2014-05-14T13:39:22.000Z</time>
      </trkpt>
      <trkpt lat="42.08747" lon="9.15537">
        <ele>1458.4000244141</ele>
        <time>2014-05-14T13:39:29.000Z</time>
      </trkpt>
      <trkpt lat="42.08744" lon="9.1554">
        <ele>1457.8000488281</ele>
        <time>2014-05-14T13:39:32.000Z</time>
      </trkpt>
      <trkpt lat="42.08742" lon="9.15542">
        <ele>1457.1999511719</ele>
        <time>2014-05-14T13:39:35.000Z</time>
      </trkpt>
      <trkpt lat="42.08741" lon="9.15543">
        <ele>1456.8000488281</ele>
        <time>2014-05-14T13:39:42.000Z</time>
      </trkpt>
      <trkpt lat="42.08743" lon="9.15541">
        <ele>1457.5999755859</ele>
        <time>2014-05-14T13:39:47.000Z</time>
      </trkpt>
      <trkpt lat="42.0874" lon="9.15545">
        <ele>1456.1999511719</ele>
        <time>2014-05-14T13:39:53.000Z</time>
      </trkpt>
      <trkpt lat="42.08738" lon="9.15552">
        <ele>1453.8000488281</ele>
        <time>2014-05-14T13:40:12.000Z</time>
      </trkpt>
      <trkpt lat="42.08735" lon="9.15556">
        <ele>1452.4000244141</ele>
        <time>2014-05-14T13:40:17.000Z</time>
      </trkpt>
      <trkpt lat="42.08732" lon="9.1556">
        <ele>1451</ele>
        <time>2014-05-14T13:40:21.000Z</time>
      </trkpt>
      <trkpt lat="42.08728" lon="9.15565">
        <ele>1449.1999511719</ele>
        <time>2014-05-14T13:40:26.000Z</time>
      </trkpt>
      <trkpt lat="42.08721" lon="9.15574">
        <ele>1446</ele>
        <time>2014-05-14T13:40:33.000Z</time>
      </trkpt>
      <trkpt lat="42.08715" lon="9.15579">
        <ele>1444.4000244141</ele>
        <time>2014-05-14T13:40:40.000Z</time>
      </trkpt>
      <trkpt lat="42.08711" lon="9.15582">
        <ele>1443.4000244141</ele>
        <time>2014-05-14T13:40:44.000Z</time>
      </trkpt>
      <trkpt lat="42.08708" lon="9.15585">
        <ele>1442.5999755859</ele>
        <time>2014-05-14T13:40:47.000Z</time>
      </trkpt>
      <trkpt lat="42.08701" lon="9.15588">
        <ele>1441.5999755859</ele>
        <time>2014-05-14T13:40:52.000Z</time>
      </trkpt>
      <trkpt lat="42.08699" lon="9.15587">
        <ele>1442.1999511719</ele>
        <time>2014-05-14T13:40:54.000Z</time>
      </trkpt>
      <trkpt lat="42.08698" lon="9.15586">
        <ele>1442.8000488281</ele>
        <time>2014-05-14T13:40:55.000Z</time>
      </trkpt>
      <trkpt lat="42.08694" lon="9.1558">
        <ele>1445.4000244141</ele>
        <time>2014-05-14T13:41:00.000Z</time>
      </trkpt>
      <trkpt lat="42.08688" lon="9.15574">
        <ele>1448</ele>
        <time>2014-05-14T13:41:06.000Z</time>
      </trkpt>
      <trkpt lat="42.08688" lon="9.15573">
        <ele>1448.4000244141</ele>
        <time>2014-05-14T13:41:07.000Z</time>
      </trkpt>
      <trkpt lat="42.08685" lon="9.15571">
        <ele>1449.5999755859</ele>
        <time>2014-05-14T13:41:11.000Z</time>
      </trkpt>
      <trkpt lat="42.08681" lon="9.15566">
        <ele>1451.5999755859</ele>
        <time>2014-05-14T13:41:16.000Z</time>
      </trkpt>
      <trkpt lat="42.08679" lon="9.15562">
        <ele>1453.1999511719</ele>
        <time>2014-05-14T13:41:19.000Z</time>
      </trkpt>
      <trkpt lat="42.08678" lon="9.1556">
        <ele>1454.1999511719</ele>
        <time>2014-05-14T13:41:21.000Z</time>
      </trkpt>
      <trkpt lat="42.08671" lon="9.15553">
        <ele>1457.5999755859</ele>
        <time>2014-05-14T13:41:29.000Z</time>
      </trkpt>
      <trkpt lat="42.08668" lon="9.1555">
        <ele>1458.8000488281</ele>
        <time>2014-05-14T13:41:33.000Z</time>
      </trkpt>
      <trkpt lat="42.08667" lon="9.15548">
        <ele>1459.5999755859</ele>
        <time>2014-05-14T13:41:35.000Z</time>
      </trkpt>
      <trkpt lat="42.08666" lon="9.15547">
        <ele>1460.1999511719</ele>
        <time>2014-05-14T13:41:37.000Z</time>
      </trkpt>
      <trkpt lat="42.08662" lon="9.15542">
        <ele>1462.1999511719</ele>
        <time>2014-05-14T13:41:42.000Z</time>
      </trkpt>
      <trkpt lat="42.08658" lon="9.15537">
        <ele>1463.8000488281</ele>
        <time>2014-05-14T13:41:48.000Z</time>
      </trkpt>
      <trkpt lat="42.08657" lon="9.15536">
        <ele>1463.8000488281</ele>
        <time>2014-05-14T13:41:49.000Z</time>
      </trkpt>
      <trkpt lat="42.08653" lon="9.15531">
        <ele>1465</ele>
        <time>2014-05-14T13:41:55.000Z</time>
      </trkpt>
      <trkpt lat="42.0865" lon="9.15526">
        <ele>1465.5999755859</ele>
        <time>2014-05-14T13:42:01.000Z</time>
      </trkpt>
      <trkpt lat="42.08649" lon="9.15525">
        <ele>1465.8000488281</ele>
        <time>2014-05-14T13:42:02.000Z</time>
      </trkpt>
      <trkpt lat="42.08647" lon="9.15521">
        <ele>1466.5999755859</ele>
        <time>2014-05-14T13:42:06.000Z</time>
      </trkpt>
      <trkpt lat="42.08645" lon="9.15517">
        <ele>1467.1999511719</ele>
        <time>2014-05-14T13:42:09.000Z</time>
      </trkpt>
      <trkpt lat="42.0864" lon="9.15508">
        <ele>1469</ele>
        <time>2014-05-14T13:42:17.000Z</time>
      </trkpt>
      <trkpt lat="42.08634" lon="9.155">
        <ele>1470</ele>
        <time>2014-05-14T13:42:25.000Z</time>
      </trkpt>
      <trkpt lat="42.08631" lon="9.15496">
        <ele>1470.5999755859</ele>
        <time>2014-05-14T13:42:30.000Z</time>
      </trkpt>
      <trkpt lat="42.08629" lon="9.15495">
        <ele>1470.5999755859</ele>
        <time>2014-05-14T13:42:32.000Z</time>
      </trkpt>
      <trkpt lat="42.08625" lon="9.15493">
        <ele>1469.8000488281</ele>
        <time>2014-05-14T13:42:36.000Z</time>
      </trkpt>
      <trkpt lat="42.08622" lon="9.1549">
        <ele>1469.8000488281</ele>
        <time>2014-05-14T13:42:40.000Z</time>
      </trkpt>
      <trkpt lat="42.08619" lon="9.15487">
        <ele>1469.8000488281</ele>
        <time>2014-05-14T13:42:44.000Z</time>
      </trkpt>
      <trkpt lat="42.08615" lon="9.15484">
        <ele>1469.8000488281</ele>
        <time>2014-05-14T13:42:49.000Z</time>
      </trkpt>
      <trkpt lat="42.08612" lon="9.15483">
        <ele>1469.4000244141</ele>
        <time>2014-05-14T13:42:55.000Z</time>
      </trkpt>
      <trkpt lat="42.08608" lon="9.15481">
        <ele>1469.1999511719</ele>
        <time>2014-05-14T13:43:02.000Z</time>
      </trkpt>
      <trkpt lat="42.08606" lon="9.15478">
        <ele>1469.4000244141</ele>
        <time>2014-05-14T13:43:06.000Z</time>
      </trkpt>
      <trkpt lat="42.08604" lon="9.15477">
        <ele>1469.1999511719</ele>
        <time>2014-05-14T13:43:08.000Z</time>
      </trkpt>
      <trkpt lat="42.08604" lon="9.15476">
        <ele>1469.4000244141</ele>
        <time>2014-05-14T13:43:12.000Z</time>
      </trkpt>
      <trkpt lat="42.08599" lon="9.1547">
        <ele>1469.8000488281</ele>
        <time>2014-05-14T13:43:23.000Z</time>
      </trkpt>
      <trkpt lat="42.08594" lon="9.15458">
        <ele>1472.8000488281</ele>
        <time>2014-05-14T13:43:31.000Z</time>
      </trkpt>
      <trkpt lat="42.08587" lon="9.15451">
        <ele>1473.1999511719</ele>
        <time>2014-05-14T13:43:40.000Z</time>
      </trkpt>
      <trkpt lat="42.08586" lon="9.15449">
        <ele>1473.5999755859</ele>
        <time>2014-05-14T13:43:45.000Z</time>
      </trkpt>
      <trkpt lat="42.08583" lon="9.15445">
        <ele>1474</ele>
        <time>2014-05-14T13:43:51.000Z</time>
      </trkpt>
      <trkpt lat="42.08582" lon="9.15444">
        <ele>1474.1999511719</ele>
        <time>2014-05-14T13:43:57.000Z</time>
      </trkpt>
      <trkpt lat="42.08582" lon="9.15443">
        <ele>1474.4000244141</ele>
        <time>2014-05-14T13:44:06.000Z</time>
      </trkpt>
      <trkpt lat="42.08582" lon="9.15448">
        <ele>1472.8000488281</ele>
        <time>2014-05-14T13:44:12.000Z</time>
      </trkpt>
      <trkpt lat="42.08585" lon="9.15453">
        <ele>1471.4000244141</ele>
        <time>2014-05-14T13:44:19.000Z</time>
      </trkpt>
      <trkpt lat="42.08587" lon="9.15453">
        <ele>1472.1999511719</ele>
        <time>2014-05-14T13:44:27.000Z</time>
      </trkpt>
      <trkpt lat="42.08589" lon="9.15453">
        <ele>1473</ele>
        <time>2014-05-14T13:44:34.000Z</time>
      </trkpt>
      <trkpt lat="42.08587" lon="9.1545">
        <ele>1473.5999755859</ele>
        <time>2014-05-14T13:45:49.000Z</time>
      </trkpt>
      <trkpt lat="42.08586" lon="9.15453">
        <ele>1471.8000488281</ele>
        <time>2014-05-14T13:45:55.000Z</time>
      </trkpt>
      <trkpt lat="42.08583" lon="9.15455">
        <ele>1470.1999511719</ele>
        <time>2014-05-14T13:46:02.000Z</time>
      </trkpt>
      <trkpt lat="42.08581" lon="9.15453">
        <ele>1470.4000244141</ele>
        <time>2014-05-14T13:46:08.000Z</time>
      </trkpt>
      <trkpt lat="42.0858" lon="9.15449">
        <ele>1471.4000244141</ele>
        <time>2014-05-14T13:46:12.000Z</time>
      </trkpt>
      <trkpt lat="42.08578" lon="9.15447">
        <ele>1471.4000244141</ele>
        <time>2014-05-14T13:46:18.000Z</time>
      </trkpt>
      <trkpt lat="42.08575" lon="9.15448">
        <ele>1471.1999511719</ele>
        <time>2014-05-14T13:46:23.000Z</time>
      </trkpt>
      <trkpt lat="42.08572" lon="9.15448">
        <ele>1471.8000488281</ele>
        <time>2014-05-14T13:46:27.000Z</time>
      </trkpt>
      <trkpt lat="42.0857" lon="9.15443">
        <ele>1473.8000488281</ele>
        <time>2014-05-14T13:46:32.000Z</time>
      </trkpt>
      <trkpt lat="42.08569" lon="9.15439">
        <ele>1474.5999755859</ele>
        <time>2014-05-14T13:46:38.000Z</time>
      </trkpt>
      <trkpt lat="42.08565" lon="9.15437">
        <ele>1475.8000488281</ele>
        <time>2014-05-14T13:46:43.000Z</time>
      </trkpt>
      <trkpt lat="42.08561" lon="9.15436">
        <ele>1477</ele>
        <time>2014-05-14T13:46:49.000Z</time>
      </trkpt>
      <trkpt lat="42.08557" lon="9.15435">
        <ele>1478.1999511719</ele>
        <time>2014-05-14T13:46:56.000Z</time>
      </trkpt>
      <trkpt lat="42.08554" lon="9.15434">
        <ele>1479</ele>
        <time>2014-05-14T13:47:01.000Z</time>
      </trkpt>
      <trkpt lat="42.08552" lon="9.15434">
        <ele>1479.8000488281</ele>
        <time>2014-05-14T13:47:06.000Z</time>
      </trkpt>
      <trkpt lat="42.08549" lon="9.15432">
        <ele>1480.8000488281</ele>
        <time>2014-05-14T13:47:11.000Z</time>
      </trkpt>
      <trkpt lat="42.08545" lon="9.15432">
        <ele>1481.5999755859</ele>
        <time>2014-05-14T13:47:17.000Z</time>
      </trkpt>
      <trkpt lat="42.08542" lon="9.15433">
        <ele>1482.5999755859</ele>
        <time>2014-05-14T13:47:23.000Z</time>
      </trkpt>
      <trkpt lat="42.08541" lon="9.15432">
        <ele>1482.8000488281</ele>
        <time>2014-05-14T13:47:31.000Z</time>
      </trkpt>
      <trkpt lat="42.08541" lon="9.15428">
        <ele>1483.4000244141</ele>
        <time>2014-05-14T13:47:35.000Z</time>
      </trkpt>
      <trkpt lat="42.08542" lon="9.15424">
        <ele>1483.5999755859</ele>
        <time>2014-05-14T13:47:41.000Z</time>
      </trkpt>
      <trkpt lat="42.08542" lon="9.15419">
        <ele>1484.1999511719</ele>
        <time>2014-05-14T13:47:47.000Z</time>
      </trkpt>
      <trkpt lat="42.08541" lon="9.15418">
        <ele>1484.5999755859</ele>
        <time>2014-05-14T13:47:53.000Z</time>
      </trkpt>
      <trkpt lat="42.08538" lon="9.15419">
        <ele>1485.1999511719</ele>
        <time>2014-05-14T13:47:59.000Z</time>
      </trkpt>
      <trkpt lat="42.08534" lon="9.1542">
        <ele>1486</ele>
        <time>2014-05-14T13:48:07.000Z</time>
      </trkpt>
      <trkpt lat="42.08532" lon="9.15419">
        <ele>1486.8000488281</ele>
        <time>2014-05-14T13:48:14.000Z</time>
      </trkpt>
      <trkpt lat="42.08529" lon="9.15423">
        <ele>1487.1999511719</ele>
        <time>2014-05-14T13:48:21.000Z</time>
      </trkpt>
      <trkpt lat="42.08525" lon="9.15423">
        <ele>1488</ele>
        <time>2014-05-14T13:48:27.000Z</time>
      </trkpt>
      <trkpt lat="42.08521" lon="9.15421">
        <ele>1489.5999755859</ele>
        <time>2014-05-14T13:48:36.000Z</time>
      </trkpt>
      <trkpt lat="42.08517" lon="9.15422">
        <ele>1490.4000244141</ele>
        <time>2014-05-14T13:48:41.000Z</time>
      </trkpt>
      <trkpt lat="42.08513" lon="9.15423">
        <ele>1491.1999511719</ele>
        <time>2014-05-14T13:48:46.000Z</time>
      </trkpt>
      <trkpt lat="42.0851" lon="9.15425">
        <ele>1491.8000488281</ele>
        <time>2014-05-14T13:48:52.000Z</time>
      </trkpt>
      <trkpt lat="42.08508" lon="9.15423">
        <ele>1492.5999755859</ele>
        <time>2014-05-14T13:48:56.000Z</time>
      </trkpt>
      <trkpt lat="42.08506" lon="9.15418">
        <ele>1493.5999755859</ele>
        <time>2014-05-14T13:49:02.000Z</time>
      </trkpt>
      <trkpt lat="42.08504" lon="9.15418">
        <ele>1494.4000244141</ele>
        <time>2014-05-14T13:49:07.000Z</time>
      </trkpt>
      <trkpt lat="42.08502" lon="9.15419">
        <ele>1494.5999755859</ele>
        <time>2014-05-14T13:49:12.000Z</time>
      </trkpt>
      <trkpt lat="42.085" lon="9.15416">
        <ele>1495.5999755859</ele>
        <time>2014-05-14T13:49:19.000Z</time>
      </trkpt>
      <trkpt lat="42.08501" lon="9.15414">
        <ele>1495.5999755859</ele>
        <time>2014-05-14T13:49:27.000Z</time>
      </trkpt>
      <trkpt lat="42.08499" lon="9.15412">
        <ele>1496.4000244141</ele>
        <time>2014-05-14T13:49:33.000Z</time>
      </trkpt>
      <trkpt lat="42.08496" lon="9.15408">
        <ele>1497.5999755859</ele>
        <time>2014-05-14T13:49:41.000Z</time>
      </trkpt>
      <trkpt lat="42.08493" lon="9.15411">
        <ele>1498.1999511719</ele>
        <time>2014-05-14T13:49:46.000Z</time>
      </trkpt>
      <trkpt lat="42.08492" lon="9.15409">
        <ele>1498.8000488281</ele>
        <time>2014-05-14T13:49:55.000Z</time>
      </trkpt>
      <trkpt lat="42.08492" lon="9.15407">
        <ele>1499.1999511719</ele>
        <time>2014-05-14T13:50:02.000Z</time>
      </trkpt>
      <trkpt lat="42.08492" lon="9.15403">
        <ele>1499.5999755859</ele>
        <time>2014-05-14T13:50:07.000Z</time>
      </trkpt>
      <trkpt lat="42.08489" lon="9.15404">
        <ele>1501</ele>
        <time>2014-05-14T13:50:13.000Z</time>
      </trkpt>
      <trkpt lat="42.08486" lon="9.15403">
        <ele>1502.1999511719</ele>
        <time>2014-05-14T13:50:19.000Z</time>
      </trkpt>
      <trkpt lat="42.08487" lon="9.154">
        <ele>1502</ele>
        <time>2014-05-14T13:50:23.000Z</time>
      </trkpt>
      <trkpt lat="42.08487" lon="9.15396">
        <ele>1502.4000244141</ele>
        <time>2014-05-14T13:50:28.000Z</time>
      </trkpt>
      <trkpt lat="42.08485" lon="9.15393">
        <ele>1503.8000488281</ele>
        <time>2014-05-14T13:50:33.000Z</time>
      </trkpt>
      <trkpt lat="42.08482" lon="9.15391">
        <ele>1505.5999755859</ele>
        <time>2014-05-14T13:50:40.000Z</time>
      </trkpt>
      <trkpt lat="42.08481" lon="9.1539">
        <ele>1506</ele>
        <time>2014-05-14T13:50:42.000Z</time>
      </trkpt>
      <trkpt lat="42.08479" lon="9.15386">
        <ele>1507.5999755859</ele>
        <time>2014-05-14T13:50:51.000Z</time>
      </trkpt>
      <trkpt lat="42.08477" lon="9.15385">
        <ele>1508.8000488281</ele>
        <time>2014-05-14T13:50:57.000Z</time>
      </trkpt>
      <trkpt lat="42.08475" lon="9.15387">
        <ele>1509.4000244141</ele>
        <time>2014-05-14T13:51:03.000Z</time>
      </trkpt>
      <trkpt lat="42.08474" lon="9.15385">
        <ele>1510.1999511719</ele>
        <time>2014-05-14T13:51:07.000Z</time>
      </trkpt>
      <trkpt lat="42.08473" lon="9.15383">
        <ele>1511</ele>
        <time>2014-05-14T13:51:12.000Z</time>
      </trkpt>
      <trkpt lat="42.08471" lon="9.15382">
        <ele>1511.8000488281</ele>
        <time>2014-05-14T13:51:18.000Z</time>
      </trkpt>
      <trkpt lat="42.08471" lon="9.15384">
        <ele>1511.4000244141</ele>
        <time>2014-05-14T13:51:24.000Z</time>
      </trkpt>
      <trkpt lat="42.0847" lon="9.15388">
        <ele>1511.5999755859</ele>
        <time>2014-05-14T13:51:31.000Z</time>
      </trkpt>
      <trkpt lat="42.08466" lon="9.1539">
        <ele>1513.1999511719</ele>
        <time>2014-05-14T13:51:38.000Z</time>
      </trkpt>
      <trkpt lat="42.08467" lon="9.15386">
        <ele>1513.1999511719</ele>
        <time>2014-05-14T13:51:43.000Z</time>
      </trkpt>
      <trkpt lat="42.08467" lon="9.15381">
        <ele>1513.8000488281</ele>
        <time>2014-05-14T13:51:50.000Z</time>
      </trkpt>
      <trkpt lat="42.08464" lon="9.15378">
        <ele>1515.5999755859</ele>
        <time>2014-05-14T13:51:56.000Z</time>
      </trkpt>
      <trkpt lat="42.08463" lon="9.15375">
        <ele>1516.4000244141</ele>
        <time>2014-05-14T13:52:02.000Z</time>
      </trkpt>
      <trkpt lat="42.08457" lon="9.15378">
        <ele>1518.5999755859</ele>
        <time>2014-05-14T13:52:15.000Z</time>
      </trkpt>
      <trkpt lat="42.08456" lon="9.15378">
        <ele>1519.4000244141</ele>
        <time>2014-05-14T13:52:23.000Z</time>
      </trkpt>
      <trkpt lat="42.08459" lon="9.15373">
        <ele>1518.4000244141</ele>
        <time>2014-05-14T13:52:39.000Z</time>
      </trkpt>
      <trkpt lat="42.08459" lon="9.15373">
        <ele>1518.4000244141</ele>
        <time>2014-05-14T13:52:42.000Z</time>
      </trkpt>
      <trkpt lat="42.08456" lon="9.15378">
        <ele>1519.4000244141</ele>
        <time>2014-05-14T13:53:01.000Z</time>
      </trkpt>
      <trkpt lat="42.08453" lon="9.15383">
        <ele>1520</ele>
        <time>2014-05-14T13:53:06.000Z</time>
      </trkpt>
      <trkpt lat="42.08452" lon="9.15384">
        <ele>1520.5999755859</ele>
        <time>2014-05-14T13:53:07.000Z</time>
      </trkpt>
      <trkpt lat="42.08451" lon="9.15385">
        <ele>1520.8000488281</ele>
        <time>2014-05-14T13:53:09.000Z</time>
      </trkpt>
      <trkpt lat="42.0845" lon="9.15387">
        <ele>1521</ele>
        <time>2014-05-14T13:53:11.000Z</time>
      </trkpt>
      <trkpt lat="42.08448" lon="9.15392">
        <ele>1521.1999511719</ele>
        <time>2014-05-14T13:53:18.000Z</time>
      </trkpt>
      <trkpt lat="42.08447" lon="9.15394">
        <ele>1521.4000244141</ele>
        <time>2014-05-14T13:53:20.000Z</time>
      </trkpt>
      <trkpt lat="42.08446" lon="9.15395">
        <ele>1522</ele>
        <time>2014-05-14T13:53:23.000Z</time>
      </trkpt>
      <trkpt lat="42.08445" lon="9.15399">
        <ele>1522</ele>
        <time>2014-05-14T13:53:27.000Z</time>
      </trkpt>
      <trkpt lat="42.08444" lon="9.15402">
        <ele>1521.8000488281</ele>
        <time>2014-05-14T13:53:31.000Z</time>
      </trkpt>
      <trkpt lat="42.08442" lon="9.15407">
        <ele>1522.1999511719</ele>
        <time>2014-05-14T13:53:38.000Z</time>
      </trkpt>
      <trkpt lat="42.08438" lon="9.15411">
        <ele>1523.1999511719</ele>
        <time>2014-05-14T13:53:44.000Z</time>
      </trkpt>
      <trkpt lat="42.08437" lon="9.15413">
        <ele>1523.5999755859</ele>
        <time>2014-05-14T13:53:47.000Z</time>
      </trkpt>
      <trkpt lat="42.08435" lon="9.15414">
        <ele>1524.1999511719</ele>
        <time>2014-05-14T13:53:51.000Z</time>
      </trkpt>
      <trkpt lat="42.08431" lon="9.15413">
        <ele>1526.1999511719</ele>
        <time>2014-05-14T13:53:57.000Z</time>
      </trkpt>
      <trkpt lat="42.08428" lon="9.15415">
        <ele>1527</ele>
        <time>2014-05-14T13:54:03.000Z</time>
      </trkpt>
      <trkpt lat="42.08425" lon="9.15418">
        <ele>1528.1999511719</ele>
        <time>2014-05-14T13:54:09.000Z</time>
      </trkpt>
      <trkpt lat="42.08421" lon="9.15421">
        <ele>1529.4000244141</ele>
        <time>2014-05-14T13:54:14.000Z</time>
      </trkpt>
      <trkpt lat="42.08418" lon="9.15425">
        <ele>1530.1999511719</ele>
        <time>2014-05-14T13:54:19.000Z</time>
      </trkpt>
      <trkpt lat="42.08418" lon="9.15426">
        <ele>1530</ele>
        <time>2014-05-14T13:54:21.000Z</time>
      </trkpt>
      <trkpt lat="42.08416" lon="9.15431">
        <ele>1530</ele>
        <time>2014-05-14T13:54:26.000Z</time>
      </trkpt>
      <trkpt lat="42.08415" lon="9.15433">
        <ele>1530.1999511719</ele>
        <time>2014-05-14T13:54:28.000Z</time>
      </trkpt>
      <trkpt lat="42.08411" lon="9.15433">
        <ele>1531.8000488281</ele>
        <time>2014-05-14T13:54:33.000Z</time>
      </trkpt>
      <trkpt lat="42.08409" lon="9.15435">
        <ele>1532.8000488281</ele>
        <time>2014-05-14T13:54:39.000Z</time>
      </trkpt>
      <trkpt lat="42.08407" lon="9.15436">
        <ele>1533.5999755859</ele>
        <time>2014-05-14T13:54:43.000Z</time>
      </trkpt>
      <trkpt lat="42.08405" lon="9.15436">
        <ele>1534.8000488281</ele>
        <time>2014-05-14T13:54:48.000Z</time>
      </trkpt>
      <trkpt lat="42.08403" lon="9.15437">
        <ele>1535.8000488281</ele>
        <time>2014-05-14T13:54:54.000Z</time>
      </trkpt>
      <trkpt lat="42.084" lon="9.15438">
        <ele>1537.1999511719</ele>
        <time>2014-05-14T13:54:59.000Z</time>
      </trkpt>
      <trkpt lat="42.08396" lon="9.15441">
        <ele>1539</ele>
        <time>2014-05-14T13:55:08.000Z</time>
      </trkpt>
      <trkpt lat="42.08394" lon="9.15445">
        <ele>1539.1999511719</ele>
        <time>2014-05-14T13:55:15.000Z</time>
      </trkpt>
      <trkpt lat="42.08392" lon="9.15446">
        <ele>1540</ele>
        <time>2014-05-14T13:55:20.000Z</time>
      </trkpt>
      <trkpt lat="42.08389" lon="9.15447">
        <ele>1541.4000244141</ele>
        <time>2014-05-14T13:55:26.000Z</time>
      </trkpt>
      <trkpt lat="42.08388" lon="9.15452">
        <ele>1541</ele>
        <time>2014-05-14T13:55:34.000Z</time>
      </trkpt>
      <trkpt lat="42.08384" lon="9.15458">
        <ele>1542</ele>
        <time>2014-05-14T13:55:41.000Z</time>
      </trkpt>
      <trkpt lat="42.08381" lon="9.15459">
        <ele>1543.5999755859</ele>
        <time>2014-05-14T13:55:46.000Z</time>
      </trkpt>
      <trkpt lat="42.08378" lon="9.15464">
        <ele>1543.8000488281</ele>
        <time>2014-05-14T13:55:51.000Z</time>
      </trkpt>
      <trkpt lat="42.08376" lon="9.15465">
        <ele>1544.5999755859</ele>
        <time>2014-05-14T13:55:53.000Z</time>
      </trkpt>
      <trkpt lat="42.08374" lon="9.15466">
        <ele>1545.5999755859</ele>
        <time>2014-05-14T13:55:57.000Z</time>
      </trkpt>
      <trkpt lat="42.08372" lon="9.15468">
        <ele>1546.1999511719</ele>
        <time>2014-05-14T13:56:00.000Z</time>
      </trkpt>
      <trkpt lat="42.08371" lon="9.15469">
        <ele>1546.8000488281</ele>
        <time>2014-05-14T13:56:03.000Z</time>
      </trkpt>
      <trkpt lat="42.08367" lon="9.15474">
        <ele>1548</ele>
        <time>2014-05-14T13:56:09.000Z</time>
      </trkpt>
      <trkpt lat="42.08363" lon="9.15476">
        <ele>1549.4000244141</ele>
        <time>2014-05-14T13:56:14.000Z</time>
      </trkpt>
      <trkpt lat="42.08363" lon="9.15477">
        <ele>1549.4000244141</ele>
        <time>2014-05-14T13:56:15.000Z</time>
      </trkpt>
      <trkpt lat="42.08361" lon="9.1548">
        <ele>1550</ele>
        <time>2014-05-14T13:56:22.000Z</time>
      </trkpt>
      <trkpt lat="42.08357" lon="9.15486">
        <ele>1550.8000488281</ele>
        <time>2014-05-14T13:56:30.000Z</time>
      </trkpt>
      <trkpt lat="42.08353" lon="9.15488">
        <ele>1552.4000244141</ele>
        <time>2014-05-14T13:56:36.000Z</time>
      </trkpt>
      <trkpt lat="42.0835" lon="9.15492">
        <ele>1553</ele>
        <time>2014-05-14T13:56:42.000Z</time>
      </trkpt>
      <trkpt lat="42.08346" lon="9.15496">
        <ele>1554.1999511719</ele>
        <time>2014-05-14T13:56:48.000Z</time>
      </trkpt>
      <trkpt lat="42.08343" lon="9.15498">
        <ele>1554.8000488281</ele>
        <time>2014-05-14T13:56:54.000Z</time>
      </trkpt>
      <trkpt lat="42.08342" lon="9.15499">
        <ele>1555.5999755859</ele>
        <time>2014-05-14T13:56:59.000Z</time>
      </trkpt>
      <trkpt lat="42.08341" lon="9.15498">
        <ele>1556.1999511719</ele>
        <time>2014-05-14T13:57:00.000Z</time>
      </trkpt>
      <trkpt lat="42.0834" lon="9.15497">
        <ele>1556.8000488281</ele>
        <time>2014-05-14T13:57:03.000Z</time>
      </trkpt>
      <trkpt lat="42.08338" lon="9.155">
        <ele>1557.1999511719</ele>
        <time>2014-05-14T13:57:08.000Z</time>
      </trkpt>
      <trkpt lat="42.08336" lon="9.15503">
        <ele>1557.5999755859</ele>
        <time>2014-05-14T13:57:15.000Z</time>
      </trkpt>
      <trkpt lat="42.08335" lon="9.15506">
        <ele>1557.4000244141</ele>
        <time>2014-05-14T13:57:26.000Z</time>
      </trkpt>
      <trkpt lat="42.08335" lon="9.15509">
        <ele>1556.8000488281</ele>
        <time>2014-05-14T13:57:33.000Z</time>
      </trkpt>
      <trkpt lat="42.08334" lon="9.15512">
        <ele>1556.5999755859</ele>
        <time>2014-05-14T13:57:38.000Z</time>
      </trkpt>
      <trkpt lat="42.0833" lon="9.1552">
        <ele>1557</ele>
        <time>2014-05-14T13:57:52.000Z</time>
      </trkpt>
      <trkpt lat="42.08327" lon="9.15526">
        <ele>1557</ele>
        <time>2014-05-14T13:57:59.000Z</time>
      </trkpt>
      <trkpt lat="42.08326" lon="9.15527">
        <ele>1557.4000244141</ele>
        <time>2014-05-14T13:58:01.000Z</time>
      </trkpt>
      <trkpt lat="42.08325" lon="9.15527">
        <ele>1557.5999755859</ele>
        <time>2014-05-14T13:58:05.000Z</time>
      </trkpt>
      <trkpt lat="42.08324" lon="9.15529">
        <ele>1557.8000488281</ele>
        <time>2014-05-14T13:58:12.000Z</time>
      </trkpt>
      <trkpt lat="42.08321" lon="9.15533">
        <ele>1558.5999755859</ele>
        <time>2014-05-14T13:58:17.000Z</time>
      </trkpt>
      <trkpt lat="42.0832" lon="9.15539">
        <ele>1558</ele>
        <time>2014-05-14T13:58:25.000Z</time>
      </trkpt>
      <trkpt lat="42.0832" lon="9.1554">
        <ele>1557.5999755859</ele>
        <time>2014-05-14T13:58:30.000Z</time>
      </trkpt>
      <trkpt lat="42.08314" lon="9.15542">
        <ele>1560.4000244141</ele>
        <time>2014-05-14T14:00:17.000Z</time>
      </trkpt>
      <trkpt lat="42.08313" lon="9.15546">
        <ele>1560.4000244141</ele>
        <time>2014-05-14T14:00:23.000Z</time>
      </trkpt>
      <trkpt lat="42.08311" lon="9.1555">
        <ele>1560.4000244141</ele>
        <time>2014-05-14T14:00:28.000Z</time>
      </trkpt>
      <trkpt lat="42.08309" lon="9.1555">
        <ele>1561.5999755859</ele>
        <time>2014-05-14T14:00:33.000Z</time>
      </trkpt>
      <trkpt lat="42.08305" lon="9.15552">
        <ele>1563</ele>
        <time>2014-05-14T14:00:38.000Z</time>
      </trkpt>
      <trkpt lat="42.08302" lon="9.15556">
        <ele>1563.8000488281</ele>
        <time>2014-05-14T14:00:43.000Z</time>
      </trkpt>
      <trkpt lat="42.08301" lon="9.15556">
        <ele>1564</ele>
        <time>2014-05-14T14:00:44.000Z</time>
      </trkpt>
      <trkpt lat="42.08298" lon="9.15562">
        <ele>1564.5999755859</ele>
        <time>2014-05-14T14:00:50.000Z</time>
      </trkpt>
      <trkpt lat="42.08297" lon="9.15564">
        <ele>1564.8000488281</ele>
        <time>2014-05-14T14:00:52.000Z</time>
      </trkpt>
      <trkpt lat="42.08294" lon="9.15568">
        <ele>1565.4000244141</ele>
        <time>2014-05-14T14:00:56.000Z</time>
      </trkpt>
      <trkpt lat="42.0829" lon="9.15571">
        <ele>1566.8000488281</ele>
        <time>2014-05-14T14:01:01.000Z</time>
      </trkpt>
      <trkpt lat="42.08289" lon="9.15572">
        <ele>1567</ele>
        <time>2014-05-14T14:01:02.000Z</time>
      </trkpt>
      <trkpt lat="42.08286" lon="9.15575">
        <ele>1567.4000244141</ele>
        <time>2014-05-14T14:01:09.000Z</time>
      </trkpt>
      <trkpt lat="42.08284" lon="9.15577">
        <ele>1568.1999511719</ele>
        <time>2014-05-14T14:01:12.000Z</time>
      </trkpt>
      <trkpt lat="42.08281" lon="9.15577">
        <ele>1569.1999511719</ele>
        <time>2014-05-14T14:01:15.000Z</time>
      </trkpt>
      <trkpt lat="42.08281" lon="9.15577">
        <ele>1569.4000244141</ele>
        <time>2014-05-14T14:01:16.000Z</time>
      </trkpt>
      <trkpt lat="42.0828" lon="9.15576">
        <ele>1570</ele>
        <time>2014-05-14T14:01:17.000Z</time>
      </trkpt>
      <trkpt lat="42.08278" lon="9.15576">
        <ele>1571</ele>
        <time>2014-05-14T14:01:20.000Z</time>
      </trkpt>
      <trkpt lat="42.08275" lon="9.15576">
        <ele>1572</ele>
        <time>2014-05-14T14:01:28.000Z</time>
      </trkpt>
      <trkpt lat="42.0827" lon="9.15578">
        <ele>1573.5999755859</ele>
        <time>2014-05-14T14:01:35.000Z</time>
      </trkpt>
      <trkpt lat="42.08268" lon="9.15578">
        <ele>1574.4000244141</ele>
        <time>2014-05-14T14:01:41.000Z</time>
      </trkpt>
      <trkpt lat="42.08265" lon="9.15578">
        <ele>1576</ele>
        <time>2014-05-14T14:01:46.000Z</time>
      </trkpt>
      <trkpt lat="42.08262" lon="9.15578">
        <ele>1577.1999511719</ele>
        <time>2014-05-14T14:01:52.000Z</time>
      </trkpt>
      <trkpt lat="42.08259" lon="9.15582">
        <ele>1577.8000488281</ele>
        <time>2014-05-14T14:01:58.000Z</time>
      </trkpt>
      <trkpt lat="42.08256" lon="9.15586">
        <ele>1578.1999511719</ele>
        <time>2014-05-14T14:02:05.000Z</time>
      </trkpt>
      <trkpt lat="42.08252" lon="9.15585">
        <ele>1580</ele>
        <time>2014-05-14T14:02:10.000Z</time>
      </trkpt>
      <trkpt lat="42.08249" lon="9.15586">
        <ele>1581.1999511719</ele>
        <time>2014-05-14T14:02:15.000Z</time>
      </trkpt>
      <trkpt lat="42.08243" lon="9.15588">
        <ele>1583</ele>
        <time>2014-05-14T14:02:22.000Z</time>
      </trkpt>
      <trkpt lat="42.08241" lon="9.15587">
        <ele>1584</ele>
        <time>2014-05-14T14:02:25.000Z</time>
      </trkpt>
      <trkpt lat="42.0824" lon="9.15587">
        <ele>1584.4000244141</ele>
        <time>2014-05-14T14:02:27.000Z</time>
      </trkpt>
      <trkpt lat="42.08237" lon="9.15589">
        <ele>1585.1999511719</ele>
        <time>2014-05-14T14:02:33.000Z</time>
      </trkpt>
      <trkpt lat="42.08234" lon="9.15594">
        <ele>1585.1999511719</ele>
        <time>2014-05-14T14:02:40.000Z</time>
      </trkpt>
      <trkpt lat="42.08231" lon="9.15597">
        <ele>1585.4000244141</ele>
        <time>2014-05-14T14:02:47.000Z</time>
      </trkpt>
      <trkpt lat="42.08227" lon="9.15599">
        <ele>1586</ele>
        <time>2014-05-14T14:03:23.000Z</time>
      </trkpt>
      <trkpt lat="42.08223" lon="9.15598">
        <ele>1587.5999755859</ele>
        <time>2014-05-14T14:03:30.000Z</time>
      </trkpt>
      <trkpt lat="42.0822" lon="9.15601">
        <ele>1588.4000244141</ele>
        <time>2014-05-14T14:03:37.000Z</time>
      </trkpt>
      <trkpt lat="42.08215" lon="9.15605">
        <ele>1589</ele>
        <time>2014-05-14T14:03:44.000Z</time>
      </trkpt>
      <trkpt lat="42.0821" lon="9.15609">
        <ele>1589.8000488281</ele>
        <time>2014-05-14T14:03:50.000Z</time>
      </trkpt>
      <trkpt lat="42.08209" lon="9.15608">
        <ele>1590</ele>
        <time>2014-05-14T14:03:51.000Z</time>
      </trkpt>
      <trkpt lat="42.08206" lon="9.1561">
        <ele>1590.5999755859</ele>
        <time>2014-05-14T14:03:55.000Z</time>
      </trkpt>
      <trkpt lat="42.08206" lon="9.15611">
        <ele>1590.5999755859</ele>
        <time>2014-05-14T14:03:56.000Z</time>
      </trkpt>
      <trkpt lat="42.082" lon="9.15615">
        <ele>1591.1999511719</ele>
        <time>2014-05-14T14:04:02.000Z</time>
      </trkpt>
      <trkpt lat="42.08196" lon="9.15619">
        <ele>1591</ele>
        <time>2014-05-14T14:04:10.000Z</time>
      </trkpt>
      <trkpt lat="42.08196" lon="9.1562">
        <ele>1590.4000244141</ele>
        <time>2014-05-14T14:04:15.000Z</time>
      </trkpt>
      <trkpt lat="42.08194" lon="9.15617">
        <ele>1592.5999755859</ele>
        <time>2014-05-14T14:05:26.000Z</time>
      </trkpt>
      <trkpt lat="42.08192" lon="9.15615">
        <ele>1593.5999755859</ele>
        <time>2014-05-14T14:05:30.000Z</time>
      </trkpt>
      <trkpt lat="42.08188" lon="9.15616">
        <ele>1594.8000488281</ele>
        <time>2014-05-14T14:05:35.000Z</time>
      </trkpt>
      <trkpt lat="42.08182" lon="9.15619">
        <ele>1595.8000488281</ele>
        <time>2014-05-14T14:05:42.000Z</time>
      </trkpt>
      <trkpt lat="42.08178" lon="9.15622">
        <ele>1596.1999511719</ele>
        <time>2014-05-14T14:05:48.000Z</time>
      </trkpt>
      <trkpt lat="42.08176" lon="9.15622">
        <ele>1596.5999755859</ele>
        <time>2014-05-14T14:05:49.000Z</time>
      </trkpt>
      <trkpt lat="42.08172" lon="9.15625">
        <ele>1597</ele>
        <time>2014-05-14T14:05:54.000Z</time>
      </trkpt>
      <trkpt lat="42.08169" lon="9.1563">
        <ele>1597.1999511719</ele>
        <time>2014-05-14T14:06:00.000Z</time>
      </trkpt>
      <trkpt lat="42.08168" lon="9.15636">
        <ele>1596.5999755859</ele>
        <time>2014-05-14T14:06:06.000Z</time>
      </trkpt>
      <trkpt lat="42.08163" lon="9.15644">
        <ele>1597</ele>
        <time>2014-05-14T14:06:14.000Z</time>
      </trkpt>
      <trkpt lat="42.08161" lon="9.15645">
        <ele>1597.5999755859</ele>
        <time>2014-05-14T14:06:16.000Z</time>
      </trkpt>
      <trkpt lat="42.08158" lon="9.15646">
        <ele>1598</ele>
        <time>2014-05-14T14:06:20.000Z</time>
      </trkpt>
      <trkpt lat="42.08157" lon="9.15646">
        <ele>1598</ele>
        <time>2014-05-14T14:06:21.000Z</time>
      </trkpt>
      <trkpt lat="42.0815" lon="9.15647">
        <ele>1597.8000488281</ele>
        <time>2014-05-14T14:06:28.000Z</time>
      </trkpt>
      <trkpt lat="42.08149" lon="9.15646">
        <ele>1598</ele>
        <time>2014-05-14T14:06:29.000Z</time>
      </trkpt>
      <trkpt lat="42.08146" lon="9.15643">
        <ele>1598.5999755859</ele>
        <time>2014-05-14T14:06:34.000Z</time>
      </trkpt>
      <trkpt lat="42.08144" lon="9.15641">
        <ele>1599</ele>
        <time>2014-05-14T14:06:37.000Z</time>
      </trkpt>
      <trkpt lat="42.0814" lon="9.15637">
        <ele>1600</ele>
        <time>2014-05-14T14:06:43.000Z</time>
      </trkpt>
      <trkpt lat="42.08135" lon="9.15633">
        <ele>1601</ele>
        <time>2014-05-14T14:06:49.000Z</time>
      </trkpt>
      <trkpt lat="42.08132" lon="9.15629">
        <ele>1601.8000488281</ele>
        <time>2014-05-14T14:06:53.000Z</time>
      </trkpt>
      <trkpt lat="42.08129" lon="9.15626">
        <ele>1602.5999755859</ele>
        <time>2014-05-14T14:06:57.000Z</time>
      </trkpt>
      <trkpt lat="42.08128" lon="9.15621">
        <ele>1603.8000488281</ele>
        <time>2014-05-14T14:07:01.000Z</time>
      </trkpt>
      <trkpt lat="42.08128" lon="9.15618">
        <ele>1604.4000244141</ele>
        <time>2014-05-14T14:07:03.000Z</time>
      </trkpt>
      <trkpt lat="42.08128" lon="9.15617">
        <ele>1604.5999755859</ele>
        <time>2014-05-14T14:07:04.000Z</time>
      </trkpt>
      <trkpt lat="42.08128" lon="9.15612">
        <ele>1605.8000488281</ele>
        <time>2014-05-14T14:07:08.000Z</time>
      </trkpt>
      <trkpt lat="42.08126" lon="9.15604">
        <ele>1607.8000488281</ele>
        <time>2014-05-14T14:07:14.000Z</time>
      </trkpt>
      <trkpt lat="42.08125" lon="9.15597">
        <ele>1609.4000244141</ele>
        <time>2014-05-14T14:07:19.000Z</time>
      </trkpt>
      <trkpt lat="42.08126" lon="9.15595">
        <ele>1609.8000488281</ele>
        <time>2014-05-14T14:07:21.000Z</time>
      </trkpt>
      <trkpt lat="42.08126" lon="9.15594">
        <ele>1610</ele>
        <time>2014-05-14T14:07:22.000Z</time>
      </trkpt>
      <trkpt lat="42.08125" lon="9.15587">
        <ele>1611.8000488281</ele>
        <time>2014-05-14T14:07:28.000Z</time>
      </trkpt>
      <trkpt lat="42.0812" lon="9.1558">
        <ele>1613.4000244141</ele>
        <time>2014-05-14T14:07:34.000Z</time>
      </trkpt>
      <trkpt lat="42.0812" lon="9.15579">
        <ele>1613.5999755859</ele>
        <time>2014-05-14T14:07:35.000Z</time>
      </trkpt>
      <trkpt lat="42.08117" lon="9.15572">
        <ele>1615.1999511719</ele>
        <time>2014-05-14T14:07:41.000Z</time>
      </trkpt>
      <trkpt lat="42.08116" lon="9.1557">
        <ele>1615.8000488281</ele>
        <time>2014-05-14T14:07:43.000Z</time>
      </trkpt>
      <trkpt lat="42.08114" lon="9.15565">
        <ele>1617</ele>
        <time>2014-05-14T14:07:47.000Z</time>
      </trkpt>
      <trkpt lat="42.08113" lon="9.15563">
        <ele>1617.5999755859</ele>
        <time>2014-05-14T14:07:50.000Z</time>
      </trkpt>
      <trkpt lat="42.0811" lon="9.15558">
        <ele>1618.8000488281</ele>
        <time>2014-05-14T14:07:56.000Z</time>
      </trkpt>
      <trkpt lat="42.08108" lon="9.15556">
        <ele>1619.1999511719</ele>
        <time>2014-05-14T14:07:59.000Z</time>
      </trkpt>
      <trkpt lat="42.08106" lon="9.15554">
        <ele>1619.8000488281</ele>
        <time>2014-05-14T14:08:02.000Z</time>
      </trkpt>
      <trkpt lat="42.08101" lon="9.15549">
        <ele>1620.8000488281</ele>
        <time>2014-05-14T14:08:09.000Z</time>
      </trkpt>
      <trkpt lat="42.08097" lon="9.15543">
        <ele>1622.4000244141</ele>
        <time>2014-05-14T14:08:17.000Z</time>
      </trkpt>
      <trkpt lat="42.08095" lon="9.15538">
        <ele>1623.4000244141</ele>
        <time>2014-05-14T14:08:24.000Z</time>
      </trkpt>
      <trkpt lat="42.08094" lon="9.15537">
        <ele>1623.8000488281</ele>
        <time>2014-05-14T14:08:30.000Z</time>
      </trkpt>
      <trkpt lat="42.08092" lon="9.15534">
        <ele>1624.5999755859</ele>
        <time>2014-05-14T14:08:48.000Z</time>
      </trkpt>
      <trkpt lat="42.08095" lon="9.15528">
        <ele>1626</ele>
        <time>2014-05-14T14:08:55.000Z</time>
      </trkpt>
      <trkpt lat="42.08097" lon="9.15526">
        <ele>1626.4000244141</ele>
        <time>2014-05-14T14:09:01.000Z</time>
      </trkpt>
      <trkpt lat="42.08095" lon="9.15521">
        <ele>1627.5999755859</ele>
        <time>2014-05-14T14:09:07.000Z</time>
      </trkpt>
      <trkpt lat="42.08091" lon="9.15513">
        <ele>1629.5999755859</ele>
        <time>2014-05-14T14:09:17.000Z</time>
      </trkpt>
      <trkpt lat="42.08086" lon="9.15509">
        <ele>1630.4000244141</ele>
        <time>2014-05-14T14:09:24.000Z</time>
      </trkpt>
      <trkpt lat="42.08083" lon="9.15513">
        <ele>1629.5999755859</ele>
        <time>2014-05-14T14:09:31.000Z</time>
      </trkpt>
      <trkpt lat="42.08083" lon="9.15507">
        <ele>1630.8000488281</ele>
        <time>2014-05-14T14:09:40.000Z</time>
      </trkpt>
      <trkpt lat="42.08083" lon="9.15499">
        <ele>1632.8000488281</ele>
        <time>2014-05-14T14:09:47.000Z</time>
      </trkpt>
      <trkpt lat="42.08083" lon="9.15495">
        <ele>1633.8000488281</ele>
        <time>2014-05-14T14:09:55.000Z</time>
      </trkpt>
      <trkpt lat="42.08083" lon="9.15493">
        <ele>1634.4000244141</ele>
        <time>2014-05-14T14:09:57.000Z</time>
      </trkpt>
      <trkpt lat="42.08083" lon="9.1549">
        <ele>1635.1999511719</ele>
        <time>2014-05-14T14:10:00.000Z</time>
      </trkpt>
      <trkpt lat="42.08083" lon="9.15489">
        <ele>1635.1999511719</ele>
        <time>2014-05-14T14:10:02.000Z</time>
      </trkpt>
      <trkpt lat="42.08078" lon="9.1549">
        <ele>1635</ele>
        <time>2014-05-14T14:10:10.000Z</time>
      </trkpt>
      <trkpt lat="42.08079" lon="9.1549">
        <ele>1635</ele>
        <time>2014-05-14T14:10:20.000Z</time>
      </trkpt>
      <trkpt lat="42.08078" lon="9.15487">
        <ele>1635.8000488281</ele>
        <time>2014-05-14T14:10:54.000Z</time>
      </trkpt>
      <trkpt lat="42.08076" lon="9.15485">
        <ele>1636.1999511719</ele>
        <time>2014-05-14T14:10:56.000Z</time>
      </trkpt>
      <trkpt lat="42.0807" lon="9.15481">
        <ele>1635.1999511719</ele>
        <time>2014-05-14T14:11:04.000Z</time>
      </trkpt>
      <trkpt lat="42.08059" lon="9.15475">
        <ele>1633.1999511719</ele>
        <time>2014-05-14T14:11:14.000Z</time>
      </trkpt>
      <trkpt lat="42.0805" lon="9.15469">
        <ele>1632</ele>
        <time>2014-05-14T14:11:24.000Z</time>
      </trkpt>
      <trkpt lat="42.08049" lon="9.15467">
        <ele>1632.1999511719</ele>
        <time>2014-05-14T14:11:28.000Z</time>
      </trkpt>
      <trkpt lat="42.08046" lon="9.15462">
        <ele>1632.4000244141</ele>
        <time>2014-05-14T14:11:33.000Z</time>
      </trkpt>
      <trkpt lat="42.08041" lon="9.15452">
        <ele>1633</ele>
        <time>2014-05-14T14:11:41.000Z</time>
      </trkpt>
      <trkpt lat="42.08039" lon="9.15448">
        <ele>1633.5999755859</ele>
        <time>2014-05-14T14:11:45.000Z</time>
      </trkpt>
      <trkpt lat="42.08039" lon="9.15447">
        <ele>1633.5999755859</ele>
        <time>2014-05-14T14:11:46.000Z</time>
      </trkpt>
      <trkpt lat="42.08034" lon="9.1544">
        <ele>1633.8000488281</ele>
        <time>2014-05-14T14:11:52.000Z</time>
      </trkpt>
      <trkpt lat="42.08034" lon="9.1544">
        <ele>1633.5999755859</ele>
        <time>2014-05-14T14:11:53.000Z</time>
      </trkpt>
      <trkpt lat="42.08035" lon="9.15444">
        <ele>1633</ele>
        <time>2014-05-14T14:11:56.000Z</time>
      </trkpt>
      <trkpt lat="42.08034" lon="9.15446">
        <ele>1632.4000244141</ele>
        <time>2014-05-14T14:11:59.000Z</time>
      </trkpt>
      <trkpt lat="42.08034" lon="9.15446">
        <ele>1632.4000244141</ele>
        <time>2014-05-14T14:12:02.000Z</time>
      </trkpt>
      <trkpt lat="42.08034" lon="9.15444">
        <ele>1632.8000488281</ele>
        <time>2014-05-14T14:12:35.000Z</time>
      </trkpt>
      <trkpt lat="42.08034" lon="9.1544">
        <ele>1633.5999755859</ele>
        <time>2014-05-14T14:12:47.000Z</time>
      </trkpt>
      <trkpt lat="42.08033" lon="9.15437">
        <ele>1634</ele>
        <time>2014-05-14T14:12:49.000Z</time>
      </trkpt>
      <trkpt lat="42.08029" lon="9.15428">
        <ele>1635</ele>
        <time>2014-05-14T14:12:56.000Z</time>
      </trkpt>
      <trkpt lat="42.08026" lon="9.15419">
        <ele>1635.5999755859</ele>
        <time>2014-05-14T14:13:02.000Z</time>
      </trkpt>
      <trkpt lat="42.08022" lon="9.15411">
        <ele>1636.1999511719</ele>
        <time>2014-05-14T14:13:09.000Z</time>
      </trkpt>
      <trkpt lat="42.08017" lon="9.15405">
        <ele>1636.1999511719</ele>
        <time>2014-05-14T14:13:15.000Z</time>
      </trkpt>
      <trkpt lat="42.08015" lon="9.15404">
        <ele>1635.5999755859</ele>
        <time>2014-05-14T14:13:16.000Z</time>
      </trkpt>
      <trkpt lat="42.08013" lon="9.15401">
        <ele>1635.5999755859</ele>
        <time>2014-05-14T14:13:19.000Z</time>
      </trkpt>
      <trkpt lat="42.08012" lon="9.15401">
        <ele>1635.4000244141</ele>
        <time>2014-05-14T14:13:20.000Z</time>
      </trkpt>
      <trkpt lat="42.0801" lon="9.15398">
        <ele>1635.4000244141</ele>
        <time>2014-05-14T14:13:25.000Z</time>
      </trkpt>
      <trkpt lat="42.08008" lon="9.15401">
        <ele>1634</ele>
        <time>2014-05-14T14:13:34.000Z</time>
      </trkpt>
      <trkpt lat="42.08009" lon="9.15401">
        <ele>1634</ele>
        <time>2014-05-14T14:13:38.000Z</time>
      </trkpt>
      <trkpt lat="42.08008" lon="9.15399">
        <ele>1634.5999755859</ele>
        <time>2014-05-14T14:13:41.000Z</time>
      </trkpt>
      <trkpt lat="42.0801" lon="9.15399">
        <ele>1635.1999511719</ele>
        <time>2014-05-14T14:13:43.000Z</time>
      </trkpt>
      <trkpt lat="42.08011" lon="9.15399">
        <ele>1635.4000244141</ele>
        <time>2014-05-14T14:13:49.000Z</time>
      </trkpt>
      <trkpt lat="42.08009" lon="9.15402">
        <ele>1634.1999511719</ele>
        <time>2014-05-14T14:14:12.000Z</time>
      </trkpt>
      <trkpt lat="42.08008" lon="9.154">
        <ele>1634</ele>
        <time>2014-05-14T14:14:29.000Z</time>
      </trkpt>
      <trkpt lat="42.08007" lon="9.15389">
        <ele>1636.1999511719</ele>
        <time>2014-05-14T14:15:14.000Z</time>
      </trkpt>
      <trkpt lat="42.08006" lon="9.15393">
        <ele>1635</ele>
        <time>2014-05-14T14:16:28.000Z</time>
      </trkpt>
      <trkpt lat="42.07999" lon="9.15391">
        <ele>1633.1999511719</ele>
        <time>2014-05-14T14:16:36.000Z</time>
      </trkpt>
      <trkpt lat="42.07993" lon="9.15392">
        <ele>1631.1999511719</ele>
        <time>2014-05-14T14:16:41.000Z</time>
      </trkpt>
      <trkpt lat="42.0799" lon="9.15392">
        <ele>1630</ele>
        <time>2014-05-14T14:16:45.000Z</time>
      </trkpt>
      <trkpt lat="42.0799" lon="9.15392">
        <ele>1630</ele>
        <time>2014-05-14T14:16:47.000Z</time>
      </trkpt>
      <trkpt lat="42.07985" lon="9.15383">
        <ele>1629.8000488281</ele>
        <time>2014-05-14T14:17:07.000Z</time>
      </trkpt>
      <trkpt lat="42.07982" lon="9.15381">
        <ele>1629.1999511719</ele>
        <time>2014-05-14T14:17:10.000Z</time>
      </trkpt>
      <trkpt lat="42.0798" lon="9.15377">
        <ele>1629.1999511719</ele>
        <time>2014-05-14T14:17:13.000Z</time>
      </trkpt>
      <trkpt lat="42.07978" lon="9.1537">
        <ele>1630</ele>
        <time>2014-05-14T14:17:20.000Z</time>
      </trkpt>
      <trkpt lat="42.07978" lon="9.15365">
        <ele>1631</ele>
        <time>2014-05-14T14:17:24.000Z</time>
      </trkpt>
      <trkpt lat="42.07976" lon="9.15358">
        <ele>1631.8000488281</ele>
        <time>2014-05-14T14:17:31.000Z</time>
      </trkpt>
      <trkpt lat="42.07971" lon="9.15357">
        <ele>1630</ele>
        <time>2014-05-14T14:17:37.000Z</time>
      </trkpt>
      <trkpt lat="42.0797" lon="9.15356">
        <ele>1630.4000244141</ele>
        <time>2014-05-14T14:17:38.000Z</time>
      </trkpt>
      <trkpt lat="42.07969" lon="9.15352">
        <ele>1630.5999755859</ele>
        <time>2014-05-14T14:17:42.000Z</time>
      </trkpt>
      <trkpt lat="42.07967" lon="9.15346">
        <ele>1631.4000244141</ele>
        <time>2014-05-14T14:17:47.000Z</time>
      </trkpt>
      <trkpt lat="42.07963" lon="9.15342">
        <ele>1631</ele>
        <time>2014-05-14T14:17:52.000Z</time>
      </trkpt>
      <trkpt lat="42.07957" lon="9.15337">
        <ele>1630.1999511719</ele>
        <time>2014-05-14T14:17:59.000Z</time>
      </trkpt>
      <trkpt lat="42.07951" lon="9.15334">
        <ele>1628.5999755859</ele>
        <time>2014-05-14T14:18:06.000Z</time>
      </trkpt>
      <trkpt lat="42.07946" lon="9.15328">
        <ele>1628.4000244141</ele>
        <time>2014-05-14T14:18:13.000Z</time>
      </trkpt>
      <trkpt lat="42.07945" lon="9.15326">
        <ele>1628.4000244141</ele>
        <time>2014-05-14T14:18:16.000Z</time>
      </trkpt>
      <trkpt lat="42.07942" lon="9.15323">
        <ele>1628.1999511719</ele>
        <time>2014-05-14T14:18:20.000Z</time>
      </trkpt>
      <trkpt lat="42.07942" lon="9.15322">
        <ele>1628.1999511719</ele>
        <time>2014-05-14T14:18:21.000Z</time>
      </trkpt>
      <trkpt lat="42.07939" lon="9.15321">
        <ele>1627.4000244141</ele>
        <time>2014-05-14T14:18:26.000Z</time>
      </trkpt>
      <trkpt lat="42.07937" lon="9.15319">
        <ele>1627.1999511719</ele>
        <time>2014-05-14T14:18:33.000Z</time>
      </trkpt>
      <trkpt lat="42.07933" lon="9.15315">
        <ele>1626.5999755859</ele>
        <time>2014-05-14T14:18:45.000Z</time>
      </trkpt>
      <trkpt lat="42.07929" lon="9.1531">
        <ele>1626.8000488281</ele>
        <time>2014-05-14T14:18:53.000Z</time>
      </trkpt>
      <trkpt lat="42.07927" lon="9.15302">
        <ele>1628</ele>
        <time>2014-05-14T14:18:59.000Z</time>
      </trkpt>
      <trkpt lat="42.07925" lon="9.15299">
        <ele>1628.4000244141</ele>
        <time>2014-05-14T14:19:03.000Z</time>
      </trkpt>
      <trkpt lat="42.07925" lon="9.15298">
        <ele>1628.1999511719</ele>
        <time>2014-05-14T14:19:05.000Z</time>
      </trkpt>
      <trkpt lat="42.07922" lon="9.15292">
        <ele>1629</ele>
        <time>2014-05-14T14:19:11.000Z</time>
      </trkpt>
      <trkpt lat="42.07919" lon="9.15288">
        <ele>1628.5999755859</ele>
        <time>2014-05-14T14:19:16.000Z</time>
      </trkpt>
      <trkpt lat="42.07912" lon="9.15285">
        <ele>1627</ele>
        <time>2014-05-14T14:19:23.000Z</time>
      </trkpt>
      <trkpt lat="42.07906" lon="9.15282">
        <ele>1625</ele>
        <time>2014-05-14T14:19:29.000Z</time>
      </trkpt>
      <trkpt lat="42.07902" lon="9.1528">
        <ele>1623.8000488281</ele>
        <time>2014-05-14T14:19:36.000Z</time>
      </trkpt>
      <trkpt lat="42.079" lon="9.15281">
        <ele>1623</ele>
        <time>2014-05-14T14:19:41.000Z</time>
      </trkpt>
      <trkpt lat="42.079" lon="9.1528">
        <ele>1622.8000488281</ele>
        <time>2014-05-14T14:19:46.000Z</time>
      </trkpt>
      <trkpt lat="42.07897" lon="9.15279">
        <ele>1622</ele>
        <time>2014-05-14T14:19:52.000Z</time>
      </trkpt>
      <trkpt lat="42.07893" lon="9.15279">
        <ele>1620.4000244141</ele>
        <time>2014-05-14T14:19:58.000Z</time>
      </trkpt>
      <trkpt lat="42.07891" lon="9.15274">
        <ele>1621</ele>
        <time>2014-05-14T14:20:03.000Z</time>
      </trkpt>
      <trkpt lat="42.0789" lon="9.15272">
        <ele>1621.4000244141</ele>
        <time>2014-05-14T14:20:08.000Z</time>
      </trkpt>
      <trkpt lat="42.07888" lon="9.1527">
        <ele>1620.8000488281</ele>
        <time>2014-05-14T14:20:14.000Z</time>
      </trkpt>
      <trkpt lat="42.07886" lon="9.15268">
        <ele>1620.4000244141</ele>
        <time>2014-05-14T14:20:20.000Z</time>
      </trkpt>
      <trkpt lat="42.07883" lon="9.15264">
        <ele>1620.1999511719</ele>
        <time>2014-05-14T14:20:26.000Z</time>
      </trkpt>
      <trkpt lat="42.07879" lon="9.15261">
        <ele>1619</ele>
        <time>2014-05-14T14:20:32.000Z</time>
      </trkpt>
      <trkpt lat="42.07875" lon="9.15257">
        <ele>1618.5999755859</ele>
        <time>2014-05-14T14:20:37.000Z</time>
      </trkpt>
      <trkpt lat="42.07867" lon="9.15249">
        <ele>1617.4000244141</ele>
        <time>2014-05-14T14:20:45.000Z</time>
      </trkpt>
      <trkpt lat="42.07867" lon="9.15249">
        <ele>1617.1999511719</ele>
        <time>2014-05-14T14:20:46.000Z</time>
      </trkpt>
      <trkpt lat="42.07861" lon="9.15247">
        <ele>1615.4000244141</ele>
        <time>2014-05-14T14:20:51.000Z</time>
      </trkpt>
      <trkpt lat="42.07852" lon="9.15237">
        <ele>1614.4000244141</ele>
        <time>2014-05-14T14:21:00.000Z</time>
      </trkpt>
      <trkpt lat="42.07848" lon="9.1523">
        <ele>1614.5999755859</ele>
        <time>2014-05-14T14:21:07.000Z</time>
      </trkpt>
      <trkpt lat="42.07848" lon="9.15224">
        <ele>1616</ele>
        <time>2014-05-14T14:21:23.000Z</time>
      </trkpt>
      <trkpt lat="42.0785" lon="9.15222">
        <ele>1617.5999755859</ele>
        <time>2014-05-14T14:21:29.000Z</time>
      </trkpt>
      <trkpt lat="42.07853" lon="9.15219">
        <ele>1619.5999755859</ele>
        <time>2014-05-14T14:21:35.000Z</time>
      </trkpt>
      <trkpt lat="42.07852" lon="9.15212">
        <ele>1621.1999511719</ele>
        <time>2014-05-14T14:21:43.000Z</time>
      </trkpt>
      <trkpt lat="42.07849" lon="9.1521">
        <ele>1620.5999755859</ele>
        <time>2014-05-14T14:21:48.000Z</time>
      </trkpt>
      <trkpt lat="42.07845" lon="9.15203">
        <ele>1620.8000488281</ele>
        <time>2014-05-14T14:21:56.000Z</time>
      </trkpt>
      <trkpt lat="42.07843" lon="9.15199">
        <ele>1621</ele>
        <time>2014-05-14T14:22:01.000Z</time>
      </trkpt>
      <trkpt lat="42.07839" lon="9.15196">
        <ele>1620.1999511719</ele>
        <time>2014-05-14T14:22:08.000Z</time>
      </trkpt>
      <trkpt lat="42.07837" lon="9.15192">
        <ele>1620.4000244141</ele>
        <time>2014-05-14T14:22:12.000Z</time>
      </trkpt>
      <trkpt lat="42.07837" lon="9.15189">
        <ele>1620.8000488281</ele>
        <time>2014-05-14T14:22:14.000Z</time>
      </trkpt>
      <trkpt lat="42.07836" lon="9.15186">
        <ele>1621.5999755859</ele>
        <time>2014-05-14T14:22:17.000Z</time>
      </trkpt>
      <trkpt lat="42.07837" lon="9.15184">
        <ele>1622.1999511719</ele>
        <time>2014-05-14T14:22:19.000Z</time>
      </trkpt>
      <trkpt lat="42.07837" lon="9.15183">
        <ele>1622.4000244141</ele>
        <time>2014-05-14T14:22:20.000Z</time>
      </trkpt>
      <trkpt lat="42.07835" lon="9.15179">
        <ele>1622.5999755859</ele>
        <time>2014-05-14T14:22:26.000Z</time>
      </trkpt>
      <trkpt lat="42.07828" lon="9.15171">
        <ele>1621.4000244141</ele>
        <time>2014-05-14T14:22:35.000Z</time>
      </trkpt>
      <trkpt lat="42.07827" lon="9.15171">
        <ele>1621</ele>
        <time>2014-05-14T14:22:38.000Z</time>
      </trkpt>
      <trkpt lat="42.07826" lon="9.15169">
        <ele>1620.5999755859</ele>
        <time>2014-05-14T14:22:40.000Z</time>
      </trkpt>
      <trkpt lat="42.07823" lon="9.15165">
        <ele>1620.5999755859</ele>
        <time>2014-05-14T14:22:47.000Z</time>
      </trkpt>
      <trkpt lat="42.07823" lon="9.15161">
        <ele>1621.1999511719</ele>
        <time>2014-05-14T14:22:52.000Z</time>
      </trkpt>
      <trkpt lat="42.07821" lon="9.1516">
        <ele>1620.8000488281</ele>
        <time>2014-05-14T14:22:59.000Z</time>
      </trkpt>
      <trkpt lat="42.07818" lon="9.15159">
        <ele>1619.5999755859</ele>
        <time>2014-05-14T14:23:12.000Z</time>
      </trkpt>
      <trkpt lat="42.07815" lon="9.15156">
        <ele>1619</ele>
        <time>2014-05-14T14:23:38.000Z</time>
      </trkpt>
      <trkpt lat="42.07812" lon="9.15153">
        <ele>1618.4000244141</ele>
        <time>2014-05-14T14:23:44.000Z</time>
      </trkpt>
      <trkpt lat="42.07812" lon="9.15152">
        <ele>1618.4000244141</ele>
        <time>2014-05-14T14:23:45.000Z</time>
      </trkpt>
      <trkpt lat="42.07811" lon="9.15149">
        <ele>1618.5999755859</ele>
        <time>2014-05-14T14:23:52.000Z</time>
      </trkpt>
      <trkpt lat="42.07808" lon="9.15146">
        <ele>1618</ele>
        <time>2014-05-14T14:23:57.000Z</time>
      </trkpt>
      <trkpt lat="42.07807" lon="9.15143">
        <ele>1618.1999511719</ele>
        <time>2014-05-14T14:24:02.000Z</time>
      </trkpt>
      <trkpt lat="42.07806" lon="9.15139">
        <ele>1618.8000488281</ele>
        <time>2014-05-14T14:24:06.000Z</time>
      </trkpt>
      <trkpt lat="42.07802" lon="9.15136">
        <ele>1617.5999755859</ele>
        <time>2014-05-14T14:24:12.000Z</time>
      </trkpt>
      <trkpt lat="42.07798" lon="9.15133">
        <ele>1616.8000488281</ele>
        <time>2014-05-14T14:24:18.000Z</time>
      </trkpt>
      <trkpt lat="42.07797" lon="9.1513">
        <ele>1616.8000488281</ele>
        <time>2014-05-14T14:24:24.000Z</time>
      </trkpt>
      <trkpt lat="42.07796" lon="9.15127">
        <ele>1616.8000488281</ele>
        <time>2014-05-14T14:24:29.000Z</time>
      </trkpt>
      <trkpt lat="42.07793" lon="9.15124">
        <ele>1616.1999511719</ele>
        <time>2014-05-14T14:24:33.000Z</time>
      </trkpt>
      <trkpt lat="42.07791" lon="9.1512">
        <ele>1616.1999511719</ele>
        <time>2014-05-14T14:24:36.000Z</time>
      </trkpt>
      <trkpt lat="42.0779" lon="9.15117">
        <ele>1616.4000244141</ele>
        <time>2014-05-14T14:24:39.000Z</time>
      </trkpt>
      <trkpt lat="42.07787" lon="9.15114">
        <ele>1615.8000488281</ele>
        <time>2014-05-14T14:24:43.000Z</time>
      </trkpt>
      <trkpt lat="42.07787" lon="9.15113">
        <ele>1616.1999511719</ele>
        <time>2014-05-14T14:24:44.000Z</time>
      </trkpt>
      <trkpt lat="42.07787" lon="9.1511">
        <ele>1616.8000488281</ele>
        <time>2014-05-14T14:24:47.000Z</time>
      </trkpt>
      <trkpt lat="42.07788" lon="9.15111">
        <ele>1617</ele>
        <time>2014-05-14T14:24:48.000Z</time>
      </trkpt>
      <trkpt lat="42.07787" lon="9.15104">
        <ele>1617.4000244141</ele>
        <time>2014-05-14T14:24:54.000Z</time>
      </trkpt>
      <trkpt lat="42.07786" lon="9.15102">
        <ele>1617.1999511719</ele>
        <time>2014-05-14T14:24:59.000Z</time>
      </trkpt>
      <trkpt lat="42.07784" lon="9.15096">
        <ele>1616.4000244141</ele>
        <time>2014-05-14T14:25:06.000Z</time>
      </trkpt>
      <trkpt lat="42.07781" lon="9.15092">
        <ele>1615.4000244141</ele>
        <time>2014-05-14T14:25:11.000Z</time>
      </trkpt>
      <trkpt lat="42.07782" lon="9.15089">
        <ele>1616.1999511719</ele>
        <time>2014-05-14T14:25:16.000Z</time>
      </trkpt>
      <trkpt lat="42.07781" lon="9.15085">
        <ele>1616.4000244141</ele>
        <time>2014-05-14T14:25:23.000Z</time>
      </trkpt>
      <trkpt lat="42.07779" lon="9.15079">
        <ele>1615.8000488281</ele>
        <time>2014-05-14T14:25:30.000Z</time>
      </trkpt>
      <trkpt lat="42.07779" lon="9.15077">
        <ele>1616.1999511719</ele>
        <time>2014-05-14T14:25:36.000Z</time>
      </trkpt>
      <trkpt lat="42.07777" lon="9.15072">
        <ele>1615.8000488281</ele>
        <time>2014-05-14T14:25:40.000Z</time>
      </trkpt>
      <trkpt lat="42.07777" lon="9.15072">
        <ele>1615.8000488281</ele>
        <time>2014-05-14T14:25:41.000Z</time>
      </trkpt>
      <trkpt lat="42.07778" lon="9.15069">
        <ele>1616.4000244141</ele>
        <time>2014-05-14T14:25:50.000Z</time>
      </trkpt>
      <trkpt lat="42.07777" lon="9.15062">
        <ele>1616.5999755859</ele>
        <time>2014-05-14T14:25:55.000Z</time>
      </trkpt>
      <trkpt lat="42.07774" lon="9.15054">
        <ele>1616.4000244141</ele>
        <time>2014-05-14T14:26:02.000Z</time>
      </trkpt>
      <trkpt lat="42.07774" lon="9.15053">
        <ele>1616</ele>
        <time>2014-05-14T14:26:03.000Z</time>
      </trkpt>
      <trkpt lat="42.07772" lon="9.15049">
        <ele>1616</ele>
        <time>2014-05-14T14:26:08.000Z</time>
      </trkpt>
      <trkpt lat="42.07769" lon="9.15045">
        <ele>1614.5999755859</ele>
        <time>2014-05-14T14:26:14.000Z</time>
      </trkpt>
      <trkpt lat="42.07766" lon="9.15041">
        <ele>1613.8000488281</ele>
        <time>2014-05-14T14:26:20.000Z</time>
      </trkpt>
      <trkpt lat="42.07761" lon="9.15041">
        <ele>1611.4000244141</ele>
        <time>2014-05-14T14:26:26.000Z</time>
      </trkpt>
      <trkpt lat="42.07757" lon="9.15036">
        <ele>1609.8000488281</ele>
        <time>2014-05-14T14:26:32.000Z</time>
      </trkpt>
      <trkpt lat="42.07754" lon="9.15027">
        <ele>1609.5999755859</ele>
        <time>2014-05-14T14:26:39.000Z</time>
      </trkpt>
      <trkpt lat="42.07754" lon="9.15024">
        <ele>1609.8000488281</ele>
        <time>2014-05-14T14:26:42.000Z</time>
      </trkpt>
      <trkpt lat="42.07754" lon="9.1502">
        <ele>1610.1999511719</ele>
        <time>2014-05-14T14:26:45.000Z</time>
      </trkpt>
      <trkpt lat="42.07754" lon="9.15012">
        <ele>1610.8000488281</ele>
        <time>2014-05-14T14:26:53.000Z</time>
      </trkpt>
      <trkpt lat="42.0775" lon="9.15008">
        <ele>1609.5999755859</ele>
        <time>2014-05-14T14:27:01.000Z</time>
      </trkpt>
      <trkpt lat="42.07744" lon="9.15008">
        <ele>1606.5999755859</ele>
        <time>2014-05-14T14:27:09.000Z</time>
      </trkpt>
      <trkpt lat="42.07742" lon="9.15008">
        <ele>1606</ele>
        <time>2014-05-14T14:27:18.000Z</time>
      </trkpt>
      <trkpt lat="42.07742" lon="9.15012">
        <ele>1605.4000244141</ele>
        <time>2014-05-14T14:27:28.000Z</time>
      </trkpt>
      <trkpt lat="42.07738" lon="9.15014">
        <ele>1605.4000244141</ele>
        <time>2014-05-14T14:27:35.000Z</time>
      </trkpt>
      <trkpt lat="42.07737" lon="9.15015">
        <ele>1605.4000244141</ele>
        <time>2014-05-14T14:27:40.000Z</time>
      </trkpt>
      <trkpt lat="42.07736" lon="9.15019">
        <ele>1605</ele>
        <time>2014-05-14T14:27:46.000Z</time>
      </trkpt>
      <trkpt lat="42.07736" lon="9.15022">
        <ele>1604.5999755859</ele>
        <time>2014-05-14T14:27:53.000Z</time>
      </trkpt>
      <trkpt lat="42.07736" lon="9.15023">
        <ele>1604.4000244141</ele>
        <time>2014-05-14T14:28:04.000Z</time>
      </trkpt>
      <trkpt lat="42.07741" lon="9.15023">
        <ele>1604.4000244141</ele>
        <time>2014-05-14T14:28:09.000Z</time>
      </trkpt>
      <trkpt lat="42.07738" lon="9.15023">
        <ele>1604.4000244141</ele>
        <time>2014-05-14T14:28:19.000Z</time>
      </trkpt>
      <trkpt lat="42.07736" lon="9.15019">
        <ele>1604.8000488281</ele>
        <time>2014-05-14T14:28:21.000Z</time>
      </trkpt>
      <trkpt lat="42.07734" lon="9.15014">
        <ele>1605.4000244141</ele>
        <time>2014-05-14T14:28:25.000Z</time>
      </trkpt>
      <trkpt lat="42.07732" lon="9.15011">
        <ele>1605.5999755859</ele>
        <time>2014-05-14T14:28:27.000Z</time>
      </trkpt>
      <trkpt lat="42.07729" lon="9.1501">
        <ele>1605.8000488281</ele>
        <time>2014-05-14T14:28:32.000Z</time>
      </trkpt>
      <trkpt lat="42.07726" lon="9.15013">
        <ele>1605.4000244141</ele>
        <time>2014-05-14T14:28:36.000Z</time>
      </trkpt>
      <trkpt lat="42.07723" lon="9.15014">
        <ele>1605</ele>
        <time>2014-05-14T14:28:38.000Z</time>
      </trkpt>
      <trkpt lat="42.07724" lon="9.1502">
        <ele>1604.1999511719</ele>
        <time>2014-05-14T14:28:42.000Z</time>
      </trkpt>
      <trkpt lat="42.07726" lon="9.15022">
        <ele>1603.8000488281</ele>
        <time>2014-05-14T14:28:45.000Z</time>
      </trkpt>
      <trkpt lat="42.07732" lon="9.15028">
        <ele>1603.1999511719</ele>
        <time>2014-05-14T14:28:50.000Z</time>
      </trkpt>
    </trkseg>
  </trk>
</gpx>